<?xml version="1.0" encoding="UTF-8" standalone="no" ?>
<gpx xmlns="http://www.topografix.com/GPX/1/1" xmlns:xsi="http://www.w3.org/2001/XMLSchema-instance" xsi:schemaLocation="http://www.topografix.com/GPX/1/1 http://www.topografix.com/GPX/1/1/gpx.xsd" version="1.1" creator="VisuGPX - https://www.visugpx.com">
  <metadata>
    <name>Saint Maurice sur Dargoire</name>
  </metadata>
  <trk>
    <name><![CDATA[Saint Maurice sur Dargoire_1]]></name>
    <trkseg>
      <trkpt lat="45.57801" lon="4.62343">
        <ele>449</ele>
        <time>2018-05-06T08:48:09Z</time>
      </trkpt>
      <trkpt lat="45.57776" lon="4.62341">
        <ele>447</ele>
        <time>2018-05-06T08:48:13Z</time>
      </trkpt>
      <trkpt lat="45.5777" lon="4.62344">
        <ele>446</ele>
        <time>2018-05-06T08:48:14Z</time>
      </trkpt>
      <trkpt lat="45.57756" lon="4.62349">
        <ele>443.9</ele>
        <time>2018-05-06T08:48:16Z</time>
      </trkpt>
      <trkpt lat="45.57749" lon="4.6235">
        <ele>442.7</ele>
        <time>2018-05-06T08:48:17Z</time>
      </trkpt>
      <trkpt lat="45.5774" lon="4.62352">
        <ele>441.4</ele>
        <time>2018-05-06T08:48:18Z</time>
      </trkpt>
      <trkpt lat="45.57725" lon="4.62359">
        <ele>438.9</ele>
        <time>2018-05-06T08:48:20Z</time>
      </trkpt>
      <trkpt lat="45.5772" lon="4.62362">
        <ele>438.2</ele>
        <time>2018-05-06T08:48:21Z</time>
      </trkpt>
      <trkpt lat="45.57713" lon="4.62363">
        <ele>437.4</ele>
        <time>2018-05-06T08:48:22Z</time>
      </trkpt>
      <trkpt lat="45.57701" lon="4.62366">
        <ele>436.1</ele>
        <time>2018-05-06T08:48:24Z</time>
      </trkpt>
      <trkpt lat="45.57693" lon="4.6238">
        <ele>435.1</ele>
        <time>2018-05-06T08:48:26Z</time>
      </trkpt>
      <trkpt lat="45.5769" lon="4.62389">
        <ele>434.5</ele>
        <time>2018-05-06T08:48:27Z</time>
      </trkpt>
      <trkpt lat="45.57688" lon="4.62397">
        <ele>434</ele>
        <time>2018-05-06T08:48:28Z</time>
      </trkpt>
      <trkpt lat="45.57685" lon="4.62407">
        <ele>433.4</ele>
        <time>2018-05-06T08:48:29Z</time>
      </trkpt>
      <trkpt lat="45.57682" lon="4.62416">
        <ele>432.8</ele>
        <time>2018-05-06T08:48:30Z</time>
      </trkpt>
      <trkpt lat="45.57677" lon="4.62424">
        <ele>432</ele>
        <time>2018-05-06T08:48:31Z</time>
      </trkpt>
      <trkpt lat="45.57673" lon="4.62432">
        <ele>431.2</ele>
        <time>2018-05-06T08:48:32Z</time>
      </trkpt>
      <trkpt lat="45.5767" lon="4.6244">
        <ele>430.4</ele>
        <time>2018-05-06T08:48:33Z</time>
      </trkpt>
      <trkpt lat="45.57665" lon="4.62443">
        <ele>429.7</ele>
        <time>2018-05-06T08:48:34Z</time>
      </trkpt>
      <trkpt lat="45.5766" lon="4.62445">
        <ele>429.2</ele>
        <time>2018-05-06T08:48:35Z</time>
      </trkpt>
      <trkpt lat="45.57655" lon="4.62446">
        <ele>428.6</ele>
        <time>2018-05-06T08:48:36Z</time>
      </trkpt>
      <trkpt lat="45.5764" lon="4.62446">
        <ele>427</ele>
        <time>2018-05-06T08:48:38Z</time>
      </trkpt>
      <trkpt lat="45.57633" lon="4.62446">
        <ele>425.9</ele>
        <time>2018-05-06T08:48:39Z</time>
      </trkpt>
      <trkpt lat="45.57626" lon="4.62445">
        <ele>424.9</ele>
        <time>2018-05-06T08:48:40Z</time>
      </trkpt>
      <trkpt lat="45.57613" lon="4.62444">
        <ele>422.9</ele>
        <time>2018-05-06T08:48:42Z</time>
      </trkpt>
      <trkpt lat="45.57609" lon="4.62449">
        <ele>422</ele>
        <time>2018-05-06T08:48:43Z</time>
      </trkpt>
      <trkpt lat="45.57607" lon="4.62457">
        <ele>421.1</ele>
        <time>2018-05-06T08:48:44Z</time>
      </trkpt>
      <trkpt lat="45.57605" lon="4.62476">
        <ele>419.8</ele>
        <time>2018-05-06T08:48:46Z</time>
      </trkpt>
      <trkpt lat="45.57603" lon="4.62485">
        <ele>419.2</ele>
        <time>2018-05-06T08:48:47Z</time>
      </trkpt>
      <trkpt lat="45.57602" lon="4.62495">
        <ele>418.6</ele>
        <time>2018-05-06T08:48:48Z</time>
      </trkpt>
      <trkpt lat="45.57599" lon="4.62515">
        <ele>417.7</ele>
        <time>2018-05-06T08:48:50Z</time>
      </trkpt>
      <trkpt lat="45.57594" lon="4.62536">
        <ele>417</ele>
        <time>2018-05-06T08:48:52Z</time>
      </trkpt>
      <trkpt lat="45.5759" lon="4.62545">
        <ele>416.6</ele>
        <time>2018-05-06T08:48:53Z</time>
      </trkpt>
      <trkpt lat="45.57587" lon="4.62553">
        <ele>416.2</ele>
        <time>2018-05-06T08:48:54Z</time>
      </trkpt>
      <trkpt lat="45.57583" lon="4.62562">
        <ele>415.8</ele>
        <time>2018-05-06T08:48:55Z</time>
      </trkpt>
      <trkpt lat="45.57579" lon="4.62569">
        <ele>415.5</ele>
        <time>2018-05-06T08:48:56Z</time>
      </trkpt>
      <trkpt lat="45.57574" lon="4.62578">
        <ele>415</ele>
        <time>2018-05-06T08:48:58Z</time>
      </trkpt>
      <trkpt lat="45.57572" lon="4.62584">
        <ele>414.6</ele>
        <time>2018-05-06T08:49:00Z</time>
      </trkpt>
      <trkpt lat="45.5757" lon="4.62595">
        <ele>411.9</ele>
        <time>2018-05-06T08:49:02Z</time>
      </trkpt>
      <trkpt lat="45.57563" lon="4.62608">
        <ele>410</ele>
        <time>2018-05-06T08:49:04Z</time>
      </trkpt>
      <trkpt lat="45.57559" lon="4.62616">
        <ele>409.2</ele>
        <time>2018-05-06T08:49:05Z</time>
      </trkpt>
      <trkpt lat="45.57554" lon="4.62624">
        <ele>408.2</ele>
        <time>2018-05-06T08:49:06Z</time>
      </trkpt>
      <trkpt lat="45.57542" lon="4.62644">
        <ele>406.2</ele>
        <time>2018-05-06T08:49:08Z</time>
      </trkpt>
      <trkpt lat="45.57536" lon="4.62654">
        <ele>405.2</ele>
        <time>2018-05-06T08:49:09Z</time>
      </trkpt>
      <trkpt lat="45.57529" lon="4.62663">
        <ele>404.4</ele>
        <time>2018-05-06T08:49:10Z</time>
      </trkpt>
      <trkpt lat="45.57513" lon="4.62683">
        <ele>403.1</ele>
        <time>2018-05-06T08:49:12Z</time>
      </trkpt>
      <trkpt lat="45.57505" lon="4.62693">
        <ele>402.4</ele>
        <time>2018-05-06T08:49:13Z</time>
      </trkpt>
      <trkpt lat="45.57498" lon="4.62705">
        <ele>401.8</ele>
        <time>2018-05-06T08:49:14Z</time>
      </trkpt>
      <trkpt lat="45.57482" lon="4.62725">
        <ele>400.7</ele>
        <time>2018-05-06T08:49:16Z</time>
      </trkpt>
      <trkpt lat="45.57467" lon="4.62745">
        <ele>399.8</ele>
        <time>2018-05-06T08:49:18Z</time>
      </trkpt>
      <trkpt lat="45.57452" lon="4.62764">
        <ele>398.7</ele>
        <time>2018-05-06T08:49:20Z</time>
      </trkpt>
      <trkpt lat="45.57437" lon="4.62781">
        <ele>397.6</ele>
        <time>2018-05-06T08:49:22Z</time>
      </trkpt>
      <trkpt lat="45.57426" lon="4.628">
        <ele>396.6</ele>
        <time>2018-05-06T08:49:24Z</time>
      </trkpt>
      <trkpt lat="45.57421" lon="4.62824">
        <ele>395.6</ele>
        <time>2018-05-06T08:49:26Z</time>
      </trkpt>
      <trkpt lat="45.57421" lon="4.62837">
        <ele>395.2</ele>
        <time>2018-05-06T08:49:27Z</time>
      </trkpt>
      <trkpt lat="45.57422" lon="4.6285">
        <ele>394.8</ele>
        <time>2018-05-06T08:49:28Z</time>
      </trkpt>
      <trkpt lat="45.57424" lon="4.62876">
        <ele>394.1</ele>
        <time>2018-05-06T08:49:30Z</time>
      </trkpt>
      <trkpt lat="45.57416" lon="4.62901">
        <ele>393.2</ele>
        <time>2018-05-06T08:49:32Z</time>
      </trkpt>
      <trkpt lat="45.57409" lon="4.62909">
        <ele>392.9</ele>
        <time>2018-05-06T08:49:33Z</time>
      </trkpt>
      <trkpt lat="45.57402" lon="4.62917">
        <ele>392.7</ele>
        <time>2018-05-06T08:49:34Z</time>
      </trkpt>
      <trkpt lat="45.57387" lon="4.62929">
        <ele>392.4</ele>
        <time>2018-05-06T08:49:36Z</time>
      </trkpt>
      <trkpt lat="45.5738" lon="4.62934">
        <ele>392.3</ele>
        <time>2018-05-06T08:49:37Z</time>
      </trkpt>
      <trkpt lat="45.57358" lon="4.62957">
        <ele>392.4</ele>
        <time>2018-05-06T08:49:41Z</time>
      </trkpt>
      <trkpt lat="45.57354" lon="4.62963">
        <ele>392.4</ele>
        <time>2018-05-06T08:49:42Z</time>
      </trkpt>
      <trkpt lat="45.57336" lon="4.62984">
        <ele>393</ele>
        <time>2018-05-06T08:49:46Z</time>
      </trkpt>
      <trkpt lat="45.57326" lon="4.62995">
        <ele>393</ele>
        <time>2018-05-06T08:49:48Z</time>
      </trkpt>
      <trkpt lat="45.57302" lon="4.63025">
        <ele>393</ele>
        <time>2018-05-06T08:49:53Z</time>
      </trkpt>
      <trkpt lat="45.57276" lon="4.63063">
        <ele>392.9</ele>
        <time>2018-05-06T08:49:58Z</time>
      </trkpt>
      <trkpt lat="45.57255" lon="4.631">
        <ele>392</ele>
        <time>2018-05-06T08:50:03Z</time>
      </trkpt>
      <trkpt lat="45.57253" lon="4.63105">
        <ele>391.3</ele>
        <time>2018-05-06T08:50:04Z</time>
      </trkpt>
      <trkpt lat="45.57247" lon="4.63117">
        <ele>389.4</ele>
        <time>2018-05-06T08:50:07Z</time>
      </trkpt>
      <trkpt lat="45.57239" lon="4.63137">
        <ele>388</ele>
        <time>2018-05-06T08:50:12Z</time>
      </trkpt>
      <trkpt lat="45.57226" lon="4.63144">
        <ele>387.4</ele>
        <time>2018-05-06T08:50:16Z</time>
      </trkpt>
      <trkpt lat="45.57206" lon="4.63152">
        <ele>386.4</ele>
        <time>2018-05-06T08:50:20Z</time>
      </trkpt>
      <trkpt lat="45.57201" lon="4.63155">
        <ele>386.1</ele>
        <time>2018-05-06T08:50:21Z</time>
      </trkpt>
      <trkpt lat="45.57182" lon="4.63165">
        <ele>385.3</ele>
        <time>2018-05-06T08:50:24Z</time>
      </trkpt>
      <trkpt lat="45.57163" lon="4.63177">
        <ele>384.6</ele>
        <time>2018-05-06T08:50:27Z</time>
      </trkpt>
      <trkpt lat="45.57156" lon="4.63181">
        <ele>384.4</ele>
        <time>2018-05-06T08:50:28Z</time>
      </trkpt>
      <trkpt lat="45.57134" lon="4.63192">
        <ele>384</ele>
        <time>2018-05-06T08:50:31Z</time>
      </trkpt>
      <trkpt lat="45.57112" lon="4.63205">
        <ele>383.3</ele>
        <time>2018-05-06T08:50:34Z</time>
      </trkpt>
      <trkpt lat="45.57089" lon="4.63217">
        <ele>382.5</ele>
        <time>2018-05-06T08:50:37Z</time>
      </trkpt>
      <trkpt lat="45.57067" lon="4.6323">
        <ele>381.7</ele>
        <time>2018-05-06T08:50:40Z</time>
      </trkpt>
      <trkpt lat="45.57043" lon="4.63243">
        <ele>380.8</ele>
        <time>2018-05-06T08:50:43Z</time>
      </trkpt>
      <trkpt lat="45.57027" lon="4.63252">
        <ele>380.2</ele>
        <time>2018-05-06T08:50:45Z</time>
      </trkpt>
      <trkpt lat="45.5702" lon="4.63256">
        <ele>379.8</ele>
        <time>2018-05-06T08:50:46Z</time>
      </trkpt>
      <trkpt lat="45.56996" lon="4.63267">
        <ele>378.8</ele>
        <time>2018-05-06T08:50:49Z</time>
      </trkpt>
      <trkpt lat="45.56981" lon="4.63276">
        <ele>378.1</ele>
        <time>2018-05-06T08:50:51Z</time>
      </trkpt>
      <trkpt lat="45.56973" lon="4.63281">
        <ele>377.8</ele>
        <time>2018-05-06T08:50:52Z</time>
      </trkpt>
      <trkpt lat="45.5694" lon="4.63298">
        <ele>376.6</ele>
        <time>2018-05-06T08:50:56Z</time>
      </trkpt>
      <trkpt lat="45.56915" lon="4.63313">
        <ele>375.7</ele>
        <time>2018-05-06T08:50:59Z</time>
      </trkpt>
      <trkpt lat="45.5689" lon="4.63327">
        <ele>374.8</ele>
        <time>2018-05-06T08:51:02Z</time>
      </trkpt>
      <trkpt lat="45.56866" lon="4.63339">
        <ele>374</ele>
        <time>2018-05-06T08:51:05Z</time>
      </trkpt>
      <trkpt lat="45.56858" lon="4.63343">
        <ele>373.9</ele>
        <time>2018-05-06T08:51:06Z</time>
      </trkpt>
      <trkpt lat="45.56834" lon="4.63356">
        <ele>373.2</ele>
        <time>2018-05-06T08:51:09Z</time>
      </trkpt>
      <trkpt lat="45.5681" lon="4.63369">
        <ele>372.5</ele>
        <time>2018-05-06T08:51:12Z</time>
      </trkpt>
      <trkpt lat="45.56803" lon="4.63373">
        <ele>372.3</ele>
        <time>2018-05-06T08:51:13Z</time>
      </trkpt>
      <trkpt lat="45.56775" lon="4.63389">
        <ele>371.8</ele>
        <time>2018-05-06T08:51:17Z</time>
      </trkpt>
      <trkpt lat="45.56753" lon="4.63402">
        <ele>371.5</ele>
        <time>2018-05-06T08:51:20Z</time>
      </trkpt>
      <trkpt lat="45.56732" lon="4.63415">
        <ele>371</ele>
        <time>2018-05-06T08:51:23Z</time>
      </trkpt>
      <trkpt lat="45.56697" lon="4.63436">
        <ele>370.4</ele>
        <time>2018-05-06T08:51:28Z</time>
      </trkpt>
      <trkpt lat="45.56665" lon="4.63456">
        <ele>370.1</ele>
        <time>2018-05-06T08:51:33Z</time>
      </trkpt>
      <trkpt lat="45.56652" lon="4.63463">
        <ele>370</ele>
        <time>2018-05-06T08:51:35Z</time>
      </trkpt>
      <trkpt lat="45.56628" lon="4.63476">
        <ele>369.8</ele>
        <time>2018-05-06T08:51:39Z</time>
      </trkpt>
      <trkpt lat="45.56603" lon="4.63491">
        <ele>369.6</ele>
        <time>2018-05-06T08:51:43Z</time>
      </trkpt>
      <trkpt lat="45.56549" lon="4.63523">
        <ele>368.7</ele>
        <time>2018-05-06T08:51:52Z</time>
      </trkpt>
      <trkpt lat="45.56532" lon="4.63534">
        <ele>368</ele>
        <time>2018-05-06T08:51:55Z</time>
      </trkpt>
      <trkpt lat="45.56505" lon="4.6355">
        <ele>367.2</ele>
        <time>2018-05-06T08:52:00Z</time>
      </trkpt>
      <trkpt lat="45.56461" lon="4.63577">
        <ele>365.9</ele>
        <time>2018-05-06T08:52:08Z</time>
      </trkpt>
      <trkpt lat="45.56455" lon="4.6358">
        <ele>365.7</ele>
        <time>2018-05-06T08:52:09Z</time>
      </trkpt>
      <trkpt lat="45.56449" lon="4.63588">
        <ele>365.3</ele>
        <time>2018-05-06T08:52:12Z</time>
      </trkpt>
      <trkpt lat="45.56457" lon="4.63584">
        <ele>365.7</ele>
        <time>2018-05-06T08:52:18Z</time>
      </trkpt>
      <trkpt lat="45.56462" lon="4.63582">
        <ele>365.9</ele>
        <time>2018-05-06T08:52:20Z</time>
      </trkpt>
      <trkpt lat="45.56482" lon="4.6357">
        <ele>366.6</ele>
        <time>2018-05-06T08:52:25Z</time>
      </trkpt>
      <trkpt lat="45.56516" lon="4.6355">
        <ele>367.4</ele>
        <time>2018-05-06T08:52:32Z</time>
      </trkpt>
      <trkpt lat="45.56553" lon="4.63528">
        <ele>368.8</ele>
        <time>2018-05-06T08:52:39Z</time>
      </trkpt>
      <trkpt lat="45.56575" lon="4.63514">
        <ele>369.3</ele>
        <time>2018-05-06T08:52:43Z</time>
      </trkpt>
      <trkpt lat="45.56623" lon="4.63485">
        <ele>369.8</ele>
        <time>2018-05-06T08:52:52Z</time>
      </trkpt>
      <trkpt lat="45.56664" lon="4.63461">
        <ele>370</ele>
        <time>2018-05-06T08:53:00Z</time>
      </trkpt>
      <trkpt lat="45.56674" lon="4.63455">
        <ele>370.1</ele>
        <time>2018-05-06T08:53:02Z</time>
      </trkpt>
      <trkpt lat="45.56694" lon="4.63443">
        <ele>370.4</ele>
        <time>2018-05-06T08:53:06Z</time>
      </trkpt>
      <trkpt lat="45.56714" lon="4.63431">
        <ele>370.7</ele>
        <time>2018-05-06T08:53:10Z</time>
      </trkpt>
      <trkpt lat="45.56735" lon="4.63419">
        <ele>371.1</ele>
        <time>2018-05-06T08:53:14Z</time>
      </trkpt>
      <trkpt lat="45.56754" lon="4.63407">
        <ele>371.5</ele>
        <time>2018-05-06T08:53:18Z</time>
      </trkpt>
      <trkpt lat="45.56787" lon="4.63386">
        <ele>371.9</ele>
        <time>2018-05-06T08:53:25Z</time>
      </trkpt>
      <trkpt lat="45.56792" lon="4.63384">
        <ele>372</ele>
        <time>2018-05-06T08:53:26Z</time>
      </trkpt>
      <trkpt lat="45.56827" lon="4.63365">
        <ele>372.9</ele>
        <time>2018-05-06T08:53:34Z</time>
      </trkpt>
      <trkpt lat="45.56844" lon="4.63356">
        <ele>373.4</ele>
        <time>2018-05-06T08:53:38Z</time>
      </trkpt>
      <trkpt lat="45.56872" lon="4.63341">
        <ele>374.2</ele>
        <time>2018-05-06T08:53:45Z</time>
      </trkpt>
      <trkpt lat="45.56881" lon="4.63336">
        <ele>374.5</ele>
        <time>2018-05-06T08:53:47Z</time>
      </trkpt>
      <trkpt lat="45.5691" lon="4.63321">
        <ele>375.5</ele>
        <time>2018-05-06T08:53:54Z</time>
      </trkpt>
      <trkpt lat="45.56914" lon="4.63319">
        <ele>375.6</ele>
        <time>2018-05-06T08:53:55Z</time>
      </trkpt>
      <trkpt lat="45.56934" lon="4.63307">
        <ele>376.4</ele>
        <time>2018-05-06T08:54:00Z</time>
      </trkpt>
      <trkpt lat="45.56958" lon="4.63293">
        <ele>377.3</ele>
        <time>2018-05-06T08:54:06Z</time>
      </trkpt>
      <trkpt lat="45.56962" lon="4.63291">
        <ele>377.5</ele>
        <time>2018-05-06T08:54:07Z</time>
      </trkpt>
      <trkpt lat="45.56979" lon="4.63283">
        <ele>378</ele>
        <time>2018-05-06T08:54:11Z</time>
      </trkpt>
      <trkpt lat="45.57008" lon="4.63267">
        <ele>379.3</ele>
        <time>2018-05-06T08:54:18Z</time>
      </trkpt>
      <trkpt lat="45.57012" lon="4.63264">
        <ele>379.5</ele>
        <time>2018-05-06T08:54:19Z</time>
      </trkpt>
      <trkpt lat="45.57044" lon="4.63247">
        <ele>380.8</ele>
        <time>2018-05-06T08:54:26Z</time>
      </trkpt>
      <trkpt lat="45.57065" lon="4.63235">
        <ele>381.6</ele>
        <time>2018-05-06T08:54:31Z</time>
      </trkpt>
      <trkpt lat="45.57091" lon="4.63221">
        <ele>382.5</ele>
        <time>2018-05-06T08:54:37Z</time>
      </trkpt>
      <trkpt lat="45.57104" lon="4.63214">
        <ele>383</ele>
        <time>2018-05-06T08:54:40Z</time>
      </trkpt>
      <trkpt lat="45.57124" lon="4.63202">
        <ele>383.7</ele>
        <time>2018-05-06T08:54:45Z</time>
      </trkpt>
      <trkpt lat="45.57128" lon="4.632">
        <ele>383.8</ele>
        <time>2018-05-06T08:54:46Z</time>
      </trkpt>
      <trkpt lat="45.57155" lon="4.63186">
        <ele>384.4</ele>
        <time>2018-05-06T08:54:53Z</time>
      </trkpt>
      <trkpt lat="45.57173" lon="4.63176">
        <ele>384.9</ele>
        <time>2018-05-06T08:54:58Z</time>
      </trkpt>
      <trkpt lat="45.5719" lon="4.63166">
        <ele>385.6</ele>
        <time>2018-05-06T08:55:03Z</time>
      </trkpt>
      <trkpt lat="45.572" lon="4.63161">
        <ele>386.1</ele>
        <time>2018-05-06T08:55:06Z</time>
      </trkpt>
      <trkpt lat="45.5721" lon="4.63155">
        <ele>386.6</ele>
        <time>2018-05-06T08:55:09Z</time>
      </trkpt>
      <trkpt lat="45.57224" lon="4.63149">
        <ele>387.3</ele>
        <time>2018-05-06T08:55:13Z</time>
      </trkpt>
      <trkpt lat="45.5723" lon="4.63146">
        <ele>387.7</ele>
        <time>2018-05-06T08:55:15Z</time>
      </trkpt>
      <trkpt lat="45.57245" lon="4.63146">
        <ele>388.9</ele>
        <time>2018-05-06T08:55:19Z</time>
      </trkpt>
      <trkpt lat="45.57248" lon="4.63147">
        <ele>389.1</ele>
        <time>2018-05-06T08:55:20Z</time>
      </trkpt>
      <trkpt lat="45.57256" lon="4.63151">
        <ele>389.6</ele>
        <time>2018-05-06T08:55:23Z</time>
      </trkpt>
      <trkpt lat="45.57257" lon="4.63154">
        <ele>389.7</ele>
        <time>2018-05-06T08:55:24Z</time>
      </trkpt>
      <trkpt lat="45.57257" lon="4.63158">
        <ele>389.9</ele>
        <time>2018-05-06T08:55:25Z</time>
      </trkpt>
      <trkpt lat="45.57258" lon="4.6317">
        <ele>390.4</ele>
        <time>2018-05-06T08:55:28Z</time>
      </trkpt>
      <trkpt lat="45.57258" lon="4.63175">
        <ele>390.6</ele>
        <time>2018-05-06T08:55:29Z</time>
      </trkpt>
      <trkpt lat="45.57257" lon="4.6321">
        <ele>391.5</ele>
        <time>2018-05-06T08:55:37Z</time>
      </trkpt>
      <trkpt lat="45.57257" lon="4.63253">
        <ele>391.5</ele>
        <time>2018-05-06T08:55:45Z</time>
      </trkpt>
      <trkpt lat="45.57256" lon="4.63303">
        <ele>391.8</ele>
        <time>2018-05-06T08:55:53Z</time>
      </trkpt>
      <trkpt lat="45.57253" lon="4.63361">
        <ele>391.7</ele>
        <time>2018-05-06T08:56:02Z</time>
      </trkpt>
      <trkpt lat="45.57263" lon="4.63372">
        <ele>392.5</ele>
        <time>2018-05-06T08:56:05Z</time>
      </trkpt>
      <trkpt lat="45.57271" lon="4.63378">
        <ele>393</ele>
        <time>2018-05-06T08:56:07Z</time>
      </trkpt>
      <trkpt lat="45.57285" lon="4.63389">
        <ele>393.9</ele>
        <time>2018-05-06T08:56:11Z</time>
      </trkpt>
      <trkpt lat="45.57289" lon="4.63392">
        <ele>394.2</ele>
        <time>2018-05-06T08:56:12Z</time>
      </trkpt>
      <trkpt lat="45.57305" lon="4.63405">
        <ele>394.9</ele>
        <time>2018-05-06T08:56:17Z</time>
      </trkpt>
      <trkpt lat="45.57308" lon="4.63409">
        <ele>395.2</ele>
        <time>2018-05-06T08:56:18Z</time>
      </trkpt>
      <trkpt lat="45.57324" lon="4.63421">
        <ele>396</ele>
        <time>2018-05-06T08:56:23Z</time>
      </trkpt>
      <trkpt lat="45.57344" lon="4.63432">
        <ele>397.6</ele>
        <time>2018-05-06T08:56:29Z</time>
      </trkpt>
      <trkpt lat="45.57351" lon="4.63437">
        <ele>398.2</ele>
        <time>2018-05-06T08:56:31Z</time>
      </trkpt>
      <trkpt lat="45.57366" lon="4.63451">
        <ele>399.8</ele>
        <time>2018-05-06T08:56:36Z</time>
      </trkpt>
      <trkpt lat="45.57375" lon="4.6346">
        <ele>400.6</ele>
        <time>2018-05-06T08:56:39Z</time>
      </trkpt>
      <trkpt lat="45.57384" lon="4.63474">
        <ele>401.3</ele>
        <time>2018-05-06T08:56:43Z</time>
      </trkpt>
      <trkpt lat="45.57393" lon="4.6349">
        <ele>402.1</ele>
        <time>2018-05-06T08:56:47Z</time>
      </trkpt>
      <trkpt lat="45.574" lon="4.63507">
        <ele>402.5</ele>
        <time>2018-05-06T08:56:51Z</time>
      </trkpt>
      <trkpt lat="45.57401" lon="4.63512">
        <ele>402.6</ele>
        <time>2018-05-06T08:56:52Z</time>
      </trkpt>
      <trkpt lat="45.57404" lon="4.63549">
        <ele>402.7</ele>
        <time>2018-05-06T08:56:58Z</time>
      </trkpt>
      <trkpt lat="45.57408" lon="4.63603">
        <ele>401.6</ele>
        <time>2018-05-06T08:57:05Z</time>
      </trkpt>
      <trkpt lat="45.57409" lon="4.63612">
        <ele>401.7</ele>
        <time>2018-05-06T08:57:06Z</time>
      </trkpt>
      <trkpt lat="45.57412" lon="4.63637">
        <ele>401.5</ele>
        <time>2018-05-06T08:57:09Z</time>
      </trkpt>
      <trkpt lat="45.57422" lon="4.63694">
        <ele>400.4</ele>
        <time>2018-05-06T08:57:16Z</time>
      </trkpt>
      <trkpt lat="45.57425" lon="4.637">
        <ele>400.8</ele>
        <time>2018-05-06T08:57:17Z</time>
      </trkpt>
      <trkpt lat="45.57434" lon="4.63706">
        <ele>401.2</ele>
        <time>2018-05-06T08:57:19Z</time>
      </trkpt>
      <trkpt lat="45.57444" lon="4.63705">
        <ele>402</ele>
        <time>2018-05-06T08:57:21Z</time>
      </trkpt>
      <trkpt lat="45.57453" lon="4.63703">
        <ele>402.4</ele>
        <time>2018-05-06T08:57:23Z</time>
      </trkpt>
      <trkpt lat="45.57461" lon="4.63701">
        <ele>402.8</ele>
        <time>2018-05-06T08:57:25Z</time>
      </trkpt>
      <trkpt lat="45.57465" lon="4.63703">
        <ele>403</ele>
        <time>2018-05-06T08:57:26Z</time>
      </trkpt>
      <trkpt lat="45.57479" lon="4.63714">
        <ele>403.8</ele>
        <time>2018-05-06T08:57:30Z</time>
      </trkpt>
      <trkpt lat="45.57482" lon="4.63716">
        <ele>404</ele>
        <time>2018-05-06T08:57:31Z</time>
      </trkpt>
      <trkpt lat="45.57486" lon="4.63717">
        <ele>404.2</ele>
        <time>2018-05-06T08:57:32Z</time>
      </trkpt>
      <trkpt lat="45.57499" lon="4.63716">
        <ele>404.7</ele>
        <time>2018-05-06T08:57:35Z</time>
      </trkpt>
      <trkpt lat="45.57511" lon="4.63715">
        <ele>405.3</ele>
        <time>2018-05-06T08:57:39Z</time>
      </trkpt>
      <trkpt lat="45.57519" lon="4.63729">
        <ele>405.5</ele>
        <time>2018-05-06T08:57:43Z</time>
      </trkpt>
      <trkpt lat="45.57528" lon="4.63743">
        <ele>405.1</ele>
        <time>2018-05-06T08:57:46Z</time>
      </trkpt>
      <trkpt lat="45.57531" lon="4.63748">
        <ele>404.9</ele>
        <time>2018-05-06T08:57:47Z</time>
      </trkpt>
      <trkpt lat="45.57536" lon="4.63759">
        <ele>404.6</ele>
        <time>2018-05-06T08:57:49Z</time>
      </trkpt>
      <trkpt lat="45.57544" lon="4.63777">
        <ele>404.3</ele>
        <time>2018-05-06T08:57:52Z</time>
      </trkpt>
      <trkpt lat="45.57557" lon="4.63806">
        <ele>403.9</ele>
        <time>2018-05-06T08:57:57Z</time>
      </trkpt>
      <trkpt lat="45.57578" lon="4.6385">
        <ele>403.6</ele>
        <time>2018-05-06T08:58:05Z</time>
      </trkpt>
      <trkpt lat="45.57592" lon="4.63874">
        <ele>403.8</ele>
        <time>2018-05-06T08:58:11Z</time>
      </trkpt>
      <trkpt lat="45.57606" lon="4.63895">
        <ele>403.9</ele>
        <time>2018-05-06T08:58:17Z</time>
      </trkpt>
      <trkpt lat="45.57622" lon="4.6392">
        <ele>403.4</ele>
        <time>2018-05-06T08:58:24Z</time>
      </trkpt>
      <trkpt lat="45.57624" lon="4.63924">
        <ele>403.3</ele>
        <time>2018-05-06T08:58:25Z</time>
      </trkpt>
      <trkpt lat="45.57634" lon="4.63947">
        <ele>403</ele>
        <time>2018-05-06T08:58:30Z</time>
      </trkpt>
      <trkpt lat="45.57635" lon="4.63952">
        <ele>403</ele>
        <time>2018-05-06T08:58:31Z</time>
      </trkpt>
      <trkpt lat="45.57639" lon="4.63973">
        <ele>403</ele>
        <time>2018-05-06T08:58:35Z</time>
      </trkpt>
      <trkpt lat="45.57645" lon="4.64004">
        <ele>402.9</ele>
        <time>2018-05-06T08:58:40Z</time>
      </trkpt>
      <trkpt lat="45.57658" lon="4.64051">
        <ele>402.4</ele>
        <time>2018-05-06T08:58:46Z</time>
      </trkpt>
      <trkpt lat="45.57665" lon="4.64075">
        <ele>401.8</ele>
        <time>2018-05-06T08:58:49Z</time>
      </trkpt>
      <trkpt lat="45.57675" lon="4.64108">
        <ele>400.2</ele>
        <time>2018-05-06T08:58:53Z</time>
      </trkpt>
      <trkpt lat="45.57686" lon="4.64143">
        <ele>397.8</ele>
        <time>2018-05-06T08:58:57Z</time>
      </trkpt>
      <trkpt lat="45.57694" lon="4.64171">
        <ele>396</ele>
        <time>2018-05-06T08:59:00Z</time>
      </trkpt>
      <trkpt lat="45.57697" lon="4.64181">
        <ele>395.1</ele>
        <time>2018-05-06T08:59:01Z</time>
      </trkpt>
      <trkpt lat="45.577" lon="4.64204">
        <ele>393.6</ele>
        <time>2018-05-06T08:59:03Z</time>
      </trkpt>
      <trkpt lat="45.57704" lon="4.64228">
        <ele>392.5</ele>
        <time>2018-05-06T08:59:05Z</time>
      </trkpt>
      <trkpt lat="45.57706" lon="4.6424">
        <ele>391.9</ele>
        <time>2018-05-06T08:59:06Z</time>
      </trkpt>
      <trkpt lat="45.57708" lon="4.64251">
        <ele>391.2</ele>
        <time>2018-05-06T08:59:07Z</time>
      </trkpt>
      <trkpt lat="45.57712" lon="4.64274">
        <ele>390.3</ele>
        <time>2018-05-06T08:59:09Z</time>
      </trkpt>
      <trkpt lat="45.57715" lon="4.64295">
        <ele>389.6</ele>
        <time>2018-05-06T08:59:11Z</time>
      </trkpt>
      <trkpt lat="45.57716" lon="4.64305">
        <ele>389.2</ele>
        <time>2018-05-06T08:59:12Z</time>
      </trkpt>
      <trkpt lat="45.57718" lon="4.64316">
        <ele>388.9</ele>
        <time>2018-05-06T08:59:13Z</time>
      </trkpt>
      <trkpt lat="45.57721" lon="4.64336">
        <ele>388.5</ele>
        <time>2018-05-06T08:59:15Z</time>
      </trkpt>
      <trkpt lat="45.57726" lon="4.64363">
        <ele>388.2</ele>
        <time>2018-05-06T08:59:18Z</time>
      </trkpt>
      <trkpt lat="45.57728" lon="4.64366">
        <ele>388.3</ele>
        <time>2018-05-06T08:59:19Z</time>
      </trkpt>
      <trkpt lat="45.57731" lon="4.64368">
        <ele>388.4</ele>
        <time>2018-05-06T08:59:20Z</time>
      </trkpt>
      <trkpt lat="45.57734" lon="4.64368">
        <ele>388.5</ele>
        <time>2018-05-06T08:59:21Z</time>
      </trkpt>
      <trkpt lat="45.57738" lon="4.64368">
        <ele>388.5</ele>
        <time>2018-05-06T08:59:22Z</time>
      </trkpt>
      <trkpt lat="45.5775" lon="4.64367">
        <ele>388.7</ele>
        <time>2018-05-06T08:59:25Z</time>
      </trkpt>
      <trkpt lat="45.57754" lon="4.64368">
        <ele>388.6</ele>
        <time>2018-05-06T08:59:26Z</time>
      </trkpt>
      <trkpt lat="45.5776" lon="4.64373">
        <ele>388.6</ele>
        <time>2018-05-06T08:59:28Z</time>
      </trkpt>
      <trkpt lat="45.57763" lon="4.64378">
        <ele>388.5</ele>
        <time>2018-05-06T08:59:29Z</time>
      </trkpt>
      <trkpt lat="45.57765" lon="4.64383">
        <ele>388.4</ele>
        <time>2018-05-06T08:59:30Z</time>
      </trkpt>
      <trkpt lat="45.57767" lon="4.64389">
        <ele>388.2</ele>
        <time>2018-05-06T08:59:31Z</time>
      </trkpt>
      <trkpt lat="45.5777" lon="4.64398">
        <ele>387.9</ele>
        <time>2018-05-06T08:59:33Z</time>
      </trkpt>
      <trkpt lat="45.57768" lon="4.64402">
        <ele>387.8</ele>
        <time>2018-05-06T08:59:34Z</time>
      </trkpt>
      <trkpt lat="45.57759" lon="4.6441">
        <ele>387.6</ele>
        <time>2018-05-06T08:59:37Z</time>
      </trkpt>
      <trkpt lat="45.57751" lon="4.64415">
        <ele>387.4</ele>
        <time>2018-05-06T08:59:39Z</time>
      </trkpt>
      <trkpt lat="45.57743" lon="4.6442">
        <ele>387.2</ele>
        <time>2018-05-06T08:59:41Z</time>
      </trkpt>
      <trkpt lat="45.57739" lon="4.64431">
        <ele>386.6</ele>
        <time>2018-05-06T08:59:43Z</time>
      </trkpt>
      <trkpt lat="45.57746" lon="4.64452">
        <ele>385</ele>
        <time>2018-05-06T08:59:46Z</time>
      </trkpt>
      <trkpt lat="45.57762" lon="4.64489">
        <ele>383</ele>
        <time>2018-05-06T08:59:50Z</time>
      </trkpt>
      <trkpt lat="45.57776" lon="4.64522">
        <ele>381.9</ele>
        <time>2018-05-06T08:59:53Z</time>
      </trkpt>
      <trkpt lat="45.5779" lon="4.64557">
        <ele>380</ele>
        <time>2018-05-06T08:59:56Z</time>
      </trkpt>
      <trkpt lat="45.57795" lon="4.64569">
        <ele>380</ele>
        <time>2018-05-06T08:59:57Z</time>
      </trkpt>
      <trkpt lat="45.57812" lon="4.64603">
        <ele>377.1</ele>
        <time>2018-05-06T09:00:00Z</time>
      </trkpt>
      <trkpt lat="45.57819" lon="4.64613">
        <ele>375.9</ele>
        <time>2018-05-06T09:00:01Z</time>
      </trkpt>
      <trkpt lat="45.57842" lon="4.64642">
        <ele>373.9</ele>
        <time>2018-05-06T09:00:04Z</time>
      </trkpt>
      <trkpt lat="45.57852" lon="4.64648">
        <ele>373</ele>
        <time>2018-05-06T09:00:05Z</time>
      </trkpt>
      <trkpt lat="45.57871" lon="4.64659">
        <ele>371.5</ele>
        <time>2018-05-06T09:00:07Z</time>
      </trkpt>
      <trkpt lat="45.5789" lon="4.64671">
        <ele>370.7</ele>
        <time>2018-05-06T09:00:09Z</time>
      </trkpt>
      <trkpt lat="45.57897" lon="4.64681">
        <ele>370.3</ele>
        <time>2018-05-06T09:00:10Z</time>
      </trkpt>
      <trkpt lat="45.57904" lon="4.64691">
        <ele>369.4</ele>
        <time>2018-05-06T09:00:11Z</time>
      </trkpt>
      <trkpt lat="45.57917" lon="4.64713">
        <ele>368.5</ele>
        <time>2018-05-06T09:00:13Z</time>
      </trkpt>
      <trkpt lat="45.57922" lon="4.64724">
        <ele>368.1</ele>
        <time>2018-05-06T09:00:14Z</time>
      </trkpt>
      <trkpt lat="45.5794" lon="4.64755">
        <ele>367.4</ele>
        <time>2018-05-06T09:00:17Z</time>
      </trkpt>
      <trkpt lat="45.5795" lon="4.64772">
        <ele>367.2</ele>
        <time>2018-05-06T09:00:19Z</time>
      </trkpt>
      <trkpt lat="45.57954" lon="4.64779">
        <ele>367.1</ele>
        <time>2018-05-06T09:00:20Z</time>
      </trkpt>
      <trkpt lat="45.57959" lon="4.64786">
        <ele>367</ele>
        <time>2018-05-06T09:00:22Z</time>
      </trkpt>
      <trkpt lat="45.5796" lon="4.64787">
        <ele>367</ele>
        <time>2018-05-06T09:00:23Z</time>
      </trkpt>
      <trkpt lat="45.57963" lon="4.64787">
        <ele>367</ele>
        <time>2018-05-06T09:00:25Z</time>
      </trkpt>
      <trkpt lat="45.57965" lon="4.64785">
        <ele>367</ele>
        <time>2018-05-06T09:00:26Z</time>
      </trkpt>
      <trkpt lat="45.57976" lon="4.64777">
        <ele>367</ele>
        <time>2018-05-06T09:00:29Z</time>
      </trkpt>
      <trkpt lat="45.5798" lon="4.64775">
        <ele>367</ele>
        <time>2018-05-06T09:00:30Z</time>
      </trkpt>
      <trkpt lat="45.58019" lon="4.64755">
        <ele>367.1</ele>
        <time>2018-05-06T09:00:38Z</time>
      </trkpt>
      <trkpt lat="45.58054" lon="4.64738">
        <ele>367.3</ele>
        <time>2018-05-06T09:00:45Z</time>
      </trkpt>
      <trkpt lat="45.58065" lon="4.64733">
        <ele>367.4</ele>
        <time>2018-05-06T09:00:47Z</time>
      </trkpt>
      <trkpt lat="45.58085" lon="4.64723">
        <ele>367.7</ele>
        <time>2018-05-06T09:00:51Z</time>
      </trkpt>
      <trkpt lat="45.58118" lon="4.64715">
        <ele>368.1</ele>
        <time>2018-05-06T09:00:57Z</time>
      </trkpt>
      <trkpt lat="45.58124" lon="4.64715">
        <ele>368.1</ele>
        <time>2018-05-06T09:00:58Z</time>
      </trkpt>
      <trkpt lat="45.5817" lon="4.64712">
        <ele>368.7</ele>
        <time>2018-05-06T09:01:06Z</time>
      </trkpt>
      <trkpt lat="45.58176" lon="4.64711">
        <ele>368.8</ele>
        <time>2018-05-06T09:01:07Z</time>
      </trkpt>
      <trkpt lat="45.58208" lon="4.64707">
        <ele>369.7</ele>
        <time>2018-05-06T09:01:13Z</time>
      </trkpt>
      <trkpt lat="45.58213" lon="4.64706">
        <ele>369.9</ele>
        <time>2018-05-06T09:01:14Z</time>
      </trkpt>
      <trkpt lat="45.58234" lon="4.64707">
        <ele>371.1</ele>
        <time>2018-05-06T09:01:19Z</time>
      </trkpt>
      <trkpt lat="45.58238" lon="4.64707">
        <ele>371.4</ele>
        <time>2018-05-06T09:01:20Z</time>
      </trkpt>
      <trkpt lat="45.58249" lon="4.64706">
        <ele>372.2</ele>
        <time>2018-05-06T09:01:23Z</time>
      </trkpt>
      <trkpt lat="45.58264" lon="4.64701">
        <ele>373.5</ele>
        <time>2018-05-06T09:01:27Z</time>
      </trkpt>
      <trkpt lat="45.58267" lon="4.647">
        <ele>373.8</ele>
        <time>2018-05-06T09:01:28Z</time>
      </trkpt>
      <trkpt lat="45.58278" lon="4.64696">
        <ele>374.7</ele>
        <time>2018-05-06T09:01:31Z</time>
      </trkpt>
      <trkpt lat="45.58289" lon="4.64691">
        <ele>375.6</ele>
        <time>2018-05-06T09:01:34Z</time>
      </trkpt>
      <trkpt lat="45.58296" lon="4.64688">
        <ele>376.2</ele>
        <time>2018-05-06T09:01:36Z</time>
      </trkpt>
      <trkpt lat="45.58306" lon="4.64684">
        <ele>377</ele>
        <time>2018-05-06T09:01:39Z</time>
      </trkpt>
      <trkpt lat="45.58316" lon="4.6468">
        <ele>377.8</ele>
        <time>2018-05-06T09:01:42Z</time>
      </trkpt>
      <trkpt lat="45.58327" lon="4.64676">
        <ele>378.7</ele>
        <time>2018-05-06T09:01:45Z</time>
      </trkpt>
      <trkpt lat="45.5833" lon="4.64675">
        <ele>379</ele>
        <time>2018-05-06T09:01:46Z</time>
      </trkpt>
      <trkpt lat="45.58341" lon="4.64671">
        <ele>380</ele>
        <time>2018-05-06T09:01:49Z</time>
      </trkpt>
      <trkpt lat="45.58343" lon="4.64668">
        <ele>380.2</ele>
        <time>2018-05-06T09:01:50Z</time>
      </trkpt>
      <trkpt lat="45.58345" lon="4.64667">
        <ele>380.4</ele>
        <time>2018-05-06T09:01:51Z</time>
      </trkpt>
      <trkpt lat="45.58356" lon="4.64669">
        <ele>380.8</ele>
        <time>2018-05-06T09:01:55Z</time>
      </trkpt>
      <trkpt lat="45.58359" lon="4.64677">
        <ele>380.5</ele>
        <time>2018-05-06T09:01:57Z</time>
      </trkpt>
      <trkpt lat="45.58364" lon="4.64692">
        <ele>380.2</ele>
        <time>2018-05-06T09:02:00Z</time>
      </trkpt>
      <trkpt lat="45.58379" lon="4.64732">
        <ele>379.6</ele>
        <time>2018-05-06T09:02:07Z</time>
      </trkpt>
      <trkpt lat="45.58399" lon="4.64761">
        <ele>379.5</ele>
        <time>2018-05-06T09:02:13Z</time>
      </trkpt>
      <trkpt lat="45.58431" lon="4.64803">
        <ele>379.8</ele>
        <time>2018-05-06T09:02:21Z</time>
      </trkpt>
      <trkpt lat="45.58442" lon="4.64818">
        <ele>379.3</ele>
        <time>2018-05-06T09:02:24Z</time>
      </trkpt>
      <trkpt lat="45.58447" lon="4.64832">
        <ele>378</ele>
        <time>2018-05-06T09:02:26Z</time>
      </trkpt>
      <trkpt lat="45.58447" lon="4.64852">
        <ele>376.5</ele>
        <time>2018-05-06T09:02:29Z</time>
      </trkpt>
      <trkpt lat="45.58434" lon="4.64871">
        <ele>374.5</ele>
        <time>2018-05-06T09:02:32Z</time>
      </trkpt>
      <trkpt lat="45.58429" lon="4.64879">
        <ele>373.9</ele>
        <time>2018-05-06T09:02:33Z</time>
      </trkpt>
      <trkpt lat="45.58415" lon="4.64906">
        <ele>371.9</ele>
        <time>2018-05-06T09:02:36Z</time>
      </trkpt>
      <trkpt lat="45.58405" lon="4.64925">
        <ele>370.7</ele>
        <time>2018-05-06T09:02:38Z</time>
      </trkpt>
      <trkpt lat="45.584" lon="4.64935">
        <ele>369.8</ele>
        <time>2018-05-06T09:02:39Z</time>
      </trkpt>
      <trkpt lat="45.58395" lon="4.64945">
        <ele>368.9</ele>
        <time>2018-05-06T09:02:40Z</time>
      </trkpt>
      <trkpt lat="45.58385" lon="4.64965">
        <ele>367.5</ele>
        <time>2018-05-06T09:02:42Z</time>
      </trkpt>
      <trkpt lat="45.58374" lon="4.64982">
        <ele>366.4</ele>
        <time>2018-05-06T09:02:44Z</time>
      </trkpt>
      <trkpt lat="45.58369" lon="4.64988">
        <ele>365.9</ele>
        <time>2018-05-06T09:02:45Z</time>
      </trkpt>
      <trkpt lat="45.58364" lon="4.64996">
        <ele>365.4</ele>
        <time>2018-05-06T09:02:46Z</time>
      </trkpt>
      <trkpt lat="45.5835" lon="4.6502">
        <ele>364.2</ele>
        <time>2018-05-06T09:02:49Z</time>
      </trkpt>
      <trkpt lat="45.58342" lon="4.65037">
        <ele>363.5</ele>
        <time>2018-05-06T09:02:51Z</time>
      </trkpt>
      <trkpt lat="45.5834" lon="4.65048">
        <ele>363.2</ele>
        <time>2018-05-06T09:02:52Z</time>
      </trkpt>
      <trkpt lat="45.5834" lon="4.6506">
        <ele>362.9</ele>
        <time>2018-05-06T09:02:53Z</time>
      </trkpt>
      <trkpt lat="45.58341" lon="4.65083">
        <ele>362.5</ele>
        <time>2018-05-06T09:02:55Z</time>
      </trkpt>
      <trkpt lat="45.58343" lon="4.65094">
        <ele>362.2</ele>
        <time>2018-05-06T09:02:56Z</time>
      </trkpt>
      <trkpt lat="45.58346" lon="4.65116">
        <ele>361.6</ele>
        <time>2018-05-06T09:02:58Z</time>
      </trkpt>
      <trkpt lat="45.58347" lon="4.65127">
        <ele>361.3</ele>
        <time>2018-05-06T09:02:59Z</time>
      </trkpt>
      <trkpt lat="45.58348" lon="4.65149">
        <ele>360.6</ele>
        <time>2018-05-06T09:03:01Z</time>
      </trkpt>
      <trkpt lat="45.58349" lon="4.65182">
        <ele>359.7</ele>
        <time>2018-05-06T09:03:04Z</time>
      </trkpt>
      <trkpt lat="45.58347" lon="4.65192">
        <ele>359.5</ele>
        <time>2018-05-06T09:03:05Z</time>
      </trkpt>
      <trkpt lat="45.58345" lon="4.65202">
        <ele>359.1</ele>
        <time>2018-05-06T09:03:06Z</time>
      </trkpt>
      <trkpt lat="45.58339" lon="4.65222">
        <ele>358.4</ele>
        <time>2018-05-06T09:03:08Z</time>
      </trkpt>
      <trkpt lat="45.58331" lon="4.65254">
        <ele>357.2</ele>
        <time>2018-05-06T09:03:11Z</time>
      </trkpt>
      <trkpt lat="45.58326" lon="4.65275">
        <ele>356.6</ele>
        <time>2018-05-06T09:03:13Z</time>
      </trkpt>
      <trkpt lat="45.58322" lon="4.65296">
        <ele>356.2</ele>
        <time>2018-05-06T09:03:15Z</time>
      </trkpt>
      <trkpt lat="45.58317" lon="4.65326">
        <ele>355.5</ele>
        <time>2018-05-06T09:03:18Z</time>
      </trkpt>
      <trkpt lat="45.58318" lon="4.65334">
        <ele>355.4</ele>
        <time>2018-05-06T09:03:19Z</time>
      </trkpt>
      <trkpt lat="45.58324" lon="4.6536">
        <ele>355.4</ele>
        <time>2018-05-06T09:03:22Z</time>
      </trkpt>
      <trkpt lat="45.58331" lon="4.65393">
        <ele>356.1</ele>
        <time>2018-05-06T09:03:26Z</time>
      </trkpt>
      <trkpt lat="45.58332" lon="4.65401">
        <ele>356.2</ele>
        <time>2018-05-06T09:03:27Z</time>
      </trkpt>
      <trkpt lat="45.58344" lon="4.6544">
        <ele>356.5</ele>
        <time>2018-05-06T09:03:32Z</time>
      </trkpt>
      <trkpt lat="45.58354" lon="4.65475">
        <ele>356.5</ele>
        <time>2018-05-06T09:03:37Z</time>
      </trkpt>
      <trkpt lat="45.58357" lon="4.65481">
        <ele>356.4</ele>
        <time>2018-05-06T09:03:38Z</time>
      </trkpt>
      <trkpt lat="45.58372" lon="4.65511">
        <ele>356.1</ele>
        <time>2018-05-06T09:03:42Z</time>
      </trkpt>
      <trkpt lat="45.58377" lon="4.6552">
        <ele>355.9</ele>
        <time>2018-05-06T09:03:43Z</time>
      </trkpt>
      <trkpt lat="45.58396" lon="4.65547">
        <ele>355.2</ele>
        <time>2018-05-06T09:03:46Z</time>
      </trkpt>
      <trkpt lat="45.58403" lon="4.65556">
        <ele>354.9</ele>
        <time>2018-05-06T09:03:47Z</time>
      </trkpt>
      <trkpt lat="45.58422" lon="4.65582">
        <ele>354.2</ele>
        <time>2018-05-06T09:03:50Z</time>
      </trkpt>
      <trkpt lat="45.58432" lon="4.65596">
        <ele>354</ele>
        <time>2018-05-06T09:03:52Z</time>
      </trkpt>
      <trkpt lat="45.58433" lon="4.65601">
        <ele>353.9</ele>
        <time>2018-05-06T09:03:53Z</time>
      </trkpt>
      <trkpt lat="45.58431" lon="4.65604">
        <ele>353.7</ele>
        <time>2018-05-06T09:03:54Z</time>
      </trkpt>
      <trkpt lat="45.58421" lon="4.65608">
        <ele>353.1</ele>
        <time>2018-05-06T09:03:56Z</time>
      </trkpt>
      <trkpt lat="45.58415" lon="4.6561">
        <ele>352.7</ele>
        <time>2018-05-06T09:03:57Z</time>
      </trkpt>
      <trkpt lat="45.58396" lon="4.65616">
        <ele>351.7</ele>
        <time>2018-05-06T09:04:00Z</time>
      </trkpt>
      <trkpt lat="45.58376" lon="4.65624">
        <ele>350.7</ele>
        <time>2018-05-06T09:04:03Z</time>
      </trkpt>
      <trkpt lat="45.5837" lon="4.65628">
        <ele>350.2</ele>
        <time>2018-05-06T09:04:04Z</time>
      </trkpt>
      <trkpt lat="45.58349" lon="4.65643">
        <ele>348.6</ele>
        <time>2018-05-06T09:04:07Z</time>
      </trkpt>
      <trkpt lat="45.58343" lon="4.6565">
        <ele>348</ele>
        <time>2018-05-06T09:04:08Z</time>
      </trkpt>
      <trkpt lat="45.58333" lon="4.65669">
        <ele>346.9</ele>
        <time>2018-05-06T09:04:10Z</time>
      </trkpt>
      <trkpt lat="45.58326" lon="4.6569">
        <ele>345.8</ele>
        <time>2018-05-06T09:04:12Z</time>
      </trkpt>
      <trkpt lat="45.58322" lon="4.657">
        <ele>345.4</ele>
        <time>2018-05-06T09:04:13Z</time>
      </trkpt>
      <trkpt lat="45.58315" lon="4.6572">
        <ele>345</ele>
        <time>2018-05-06T09:04:15Z</time>
      </trkpt>
      <trkpt lat="45.58307" lon="4.65738">
        <ele>345.1</ele>
        <time>2018-05-06T09:04:17Z</time>
      </trkpt>
      <trkpt lat="45.58293" lon="4.65766">
        <ele>344.9</ele>
        <time>2018-05-06T09:04:20Z</time>
      </trkpt>
      <trkpt lat="45.58289" lon="4.65776">
        <ele>344.9</ele>
        <time>2018-05-06T09:04:21Z</time>
      </trkpt>
      <trkpt lat="45.58279" lon="4.65795">
        <ele>344.3</ele>
        <time>2018-05-06T09:04:23Z</time>
      </trkpt>
      <trkpt lat="45.58273" lon="4.65807">
        <ele>344</ele>
        <time>2018-05-06T09:04:25Z</time>
      </trkpt>
      <trkpt lat="45.58271" lon="4.6581">
        <ele>344</ele>
        <time>2018-05-06T09:04:26Z</time>
      </trkpt>
      <trkpt lat="45.58269" lon="4.65813">
        <ele>344</ele>
        <time>2018-05-06T09:04:28Z</time>
      </trkpt>
      <trkpt lat="45.58262" lon="4.65825">
        <ele>343.8</ele>
        <time>2018-05-06T09:04:33Z</time>
      </trkpt>
      <trkpt lat="45.58247" lon="4.65861">
        <ele>342.8</ele>
        <time>2018-05-06T09:04:39Z</time>
      </trkpt>
      <trkpt lat="45.58244" lon="4.65867">
        <ele>342.5</ele>
        <time>2018-05-06T09:04:40Z</time>
      </trkpt>
      <trkpt lat="45.58225" lon="4.65905">
        <ele>341.7</ele>
        <time>2018-05-06T09:04:45Z</time>
      </trkpt>
      <trkpt lat="45.5822" lon="4.65913">
        <ele>341.6</ele>
        <time>2018-05-06T09:04:46Z</time>
      </trkpt>
      <trkpt lat="45.58194" lon="4.65961">
        <ele>341.5</ele>
        <time>2018-05-06T09:04:52Z</time>
      </trkpt>
      <trkpt lat="45.58152" lon="4.6602">
        <ele>341.3</ele>
        <time>2018-05-06T09:05:01Z</time>
      </trkpt>
      <trkpt lat="45.5812" lon="4.66053">
        <ele>341.1</ele>
        <time>2018-05-06T09:05:07Z</time>
      </trkpt>
      <trkpt lat="45.58098" lon="4.66073">
        <ele>341.1</ele>
        <time>2018-05-06T09:05:11Z</time>
      </trkpt>
      <trkpt lat="45.58091" lon="4.6608">
        <ele>341</ele>
        <time>2018-05-06T09:05:13Z</time>
      </trkpt>
      <trkpt lat="45.58093" lon="4.66087">
        <ele>341</ele>
        <time>2018-05-06T09:05:15Z</time>
      </trkpt>
      <trkpt lat="45.58108" lon="4.6609">
        <ele>340.7</ele>
        <time>2018-05-06T09:05:19Z</time>
      </trkpt>
      <trkpt lat="45.58144" lon="4.6609">
        <ele>339.9</ele>
        <time>2018-05-06T09:05:26Z</time>
      </trkpt>
      <trkpt lat="45.58188" lon="4.66088">
        <ele>339</ele>
        <time>2018-05-06T09:05:33Z</time>
      </trkpt>
      <trkpt lat="45.58239" lon="4.66081">
        <ele>338.5</ele>
        <time>2018-05-06T09:05:40Z</time>
      </trkpt>
      <trkpt lat="45.58246" lon="4.66079">
        <ele>338.5</ele>
        <time>2018-05-06T09:05:41Z</time>
      </trkpt>
      <trkpt lat="45.58258" lon="4.66073">
        <ele>338.8</ele>
        <time>2018-05-06T09:05:43Z</time>
      </trkpt>
      <trkpt lat="45.58261" lon="4.66074">
        <ele>338.7</ele>
        <time>2018-05-06T09:05:44Z</time>
      </trkpt>
      <trkpt lat="45.58264" lon="4.66082">
        <ele>338.6</ele>
        <time>2018-05-06T09:05:46Z</time>
      </trkpt>
      <trkpt lat="45.58265" lon="4.66088">
        <ele>338.5</ele>
        <time>2018-05-06T09:05:47Z</time>
      </trkpt>
      <trkpt lat="45.58266" lon="4.66105">
        <ele>338.2</ele>
        <time>2018-05-06T09:05:50Z</time>
      </trkpt>
      <trkpt lat="45.58266" lon="4.66112">
        <ele>338</ele>
        <time>2018-05-06T09:05:51Z</time>
      </trkpt>
      <trkpt lat="45.58266" lon="4.66118">
        <ele>337.8</ele>
        <time>2018-05-06T09:05:52Z</time>
      </trkpt>
      <trkpt lat="45.58266" lon="4.66134">
        <ele>337.4</ele>
        <time>2018-05-06T09:05:54Z</time>
      </trkpt>
      <trkpt lat="45.58266" lon="4.66141">
        <ele>337.2</ele>
        <time>2018-05-06T09:05:55Z</time>
      </trkpt>
      <trkpt lat="45.58266" lon="4.66178">
        <ele>336.3</ele>
        <time>2018-05-06T09:05:59Z</time>
      </trkpt>
      <trkpt lat="45.58272" lon="4.66215">
        <ele>335.6</ele>
        <time>2018-05-06T09:06:03Z</time>
      </trkpt>
      <trkpt lat="45.58275" lon="4.66231">
        <ele>335.4</ele>
        <time>2018-05-06T09:06:05Z</time>
      </trkpt>
      <trkpt lat="45.58277" lon="4.66237">
        <ele>335.3</ele>
        <time>2018-05-06T09:06:06Z</time>
      </trkpt>
      <trkpt lat="45.58285" lon="4.66255">
        <ele>335</ele>
        <time>2018-05-06T09:06:09Z</time>
      </trkpt>
      <trkpt lat="45.58289" lon="4.66262">
        <ele>334.9</ele>
        <time>2018-05-06T09:06:10Z</time>
      </trkpt>
      <trkpt lat="45.58306" lon="4.66284">
        <ele>334.2</ele>
        <time>2018-05-06T09:06:13Z</time>
      </trkpt>
      <trkpt lat="45.58315" lon="4.663">
        <ele>334.1</ele>
        <time>2018-05-06T09:06:15Z</time>
      </trkpt>
      <trkpt lat="45.58317" lon="4.66315">
        <ele>334.3</ele>
        <time>2018-05-06T09:06:17Z</time>
      </trkpt>
      <trkpt lat="45.58313" lon="4.66342">
        <ele>334.6</ele>
        <time>2018-05-06T09:06:20Z</time>
      </trkpt>
      <trkpt lat="45.58311" lon="4.6635">
        <ele>334.8</ele>
        <time>2018-05-06T09:06:21Z</time>
      </trkpt>
      <trkpt lat="45.58308" lon="4.66369">
        <ele>335.1</ele>
        <time>2018-05-06T09:06:23Z</time>
      </trkpt>
      <trkpt lat="45.58308" lon="4.66399">
        <ele>335.5</ele>
        <time>2018-05-06T09:06:26Z</time>
      </trkpt>
      <trkpt lat="45.58309" lon="4.66409">
        <ele>335.4</ele>
        <time>2018-05-06T09:06:27Z</time>
      </trkpt>
      <trkpt lat="45.58308" lon="4.66428">
        <ele>335.1</ele>
        <time>2018-05-06T09:06:29Z</time>
      </trkpt>
      <trkpt lat="45.58307" lon="4.66436">
        <ele>334.9</ele>
        <time>2018-05-06T09:06:30Z</time>
      </trkpt>
      <trkpt lat="45.58304" lon="4.66458">
        <ele>334.1</ele>
        <time>2018-05-06T09:06:34Z</time>
      </trkpt>
      <trkpt lat="45.58308" lon="4.66478">
        <ele>333.3</ele>
        <time>2018-05-06T09:06:38Z</time>
      </trkpt>
      <trkpt lat="45.58311" lon="4.6649">
        <ele>333</ele>
        <time>2018-05-06T09:06:41Z</time>
      </trkpt>
      <trkpt lat="45.58311" lon="4.66494">
        <ele>333</ele>
        <time>2018-05-06T09:06:42Z</time>
      </trkpt>
      <trkpt lat="45.58314" lon="4.66521">
        <ele>331.1</ele>
        <time>2018-05-06T09:06:48Z</time>
      </trkpt>
      <trkpt lat="45.58309" lon="4.66549">
        <ele>329.3</ele>
        <time>2018-05-06T09:06:53Z</time>
      </trkpt>
      <trkpt lat="45.58304" lon="4.66578">
        <ele>327.8</ele>
        <time>2018-05-06T09:06:58Z</time>
      </trkpt>
      <trkpt lat="45.583" lon="4.66597">
        <ele>327.2</ele>
        <time>2018-05-06T09:07:01Z</time>
      </trkpt>
      <trkpt lat="45.58296" lon="4.66609">
        <ele>327</ele>
        <time>2018-05-06T09:07:03Z</time>
      </trkpt>
      <trkpt lat="45.58293" lon="4.66615">
        <ele>326.9</ele>
        <time>2018-05-06T09:07:04Z</time>
      </trkpt>
      <trkpt lat="45.58285" lon="4.66624">
        <ele>326.6</ele>
        <time>2018-05-06T09:07:06Z</time>
      </trkpt>
      <trkpt lat="45.5828" lon="4.66627">
        <ele>326.2</ele>
        <time>2018-05-06T09:07:07Z</time>
      </trkpt>
      <trkpt lat="45.58272" lon="4.6663">
        <ele>325.8</ele>
        <time>2018-05-06T09:07:09Z</time>
      </trkpt>
      <trkpt lat="45.58262" lon="4.66633">
        <ele>325.3</ele>
        <time>2018-05-06T09:07:12Z</time>
      </trkpt>
      <trkpt lat="45.58242" lon="4.66647">
        <ele>324.5</ele>
        <time>2018-05-06T09:07:18Z</time>
      </trkpt>
      <trkpt lat="45.58229" lon="4.66669">
        <ele>323.5</ele>
        <time>2018-05-06T09:07:23Z</time>
      </trkpt>
      <trkpt lat="45.58223" lon="4.6668">
        <ele>322.7</ele>
        <time>2018-05-06T09:07:26Z</time>
      </trkpt>
      <trkpt lat="45.5822" lon="4.66687">
        <ele>322.3</ele>
        <time>2018-05-06T09:07:28Z</time>
      </trkpt>
      <trkpt lat="45.5821" lon="4.66699">
        <ele>321.7</ele>
        <time>2018-05-06T09:07:32Z</time>
      </trkpt>
      <trkpt lat="45.58206" lon="4.66702">
        <ele>321.2</ele>
        <time>2018-05-06T09:07:34Z</time>
      </trkpt>
      <trkpt lat="45.58201" lon="4.66716">
        <ele>320.5</ele>
        <time>2018-05-06T09:07:42Z</time>
      </trkpt>
      <trkpt lat="45.58199" lon="4.66722">
        <ele>319.8</ele>
        <time>2018-05-06T09:07:44Z</time>
      </trkpt>
      <trkpt lat="45.58196" lon="4.66754">
        <ele>318.6</ele>
        <time>2018-05-06T09:07:49Z</time>
      </trkpt>
      <trkpt lat="45.58188" lon="4.66779">
        <ele>317.3</ele>
        <time>2018-05-06T09:07:54Z</time>
      </trkpt>
      <trkpt lat="45.58186" lon="4.66783">
        <ele>316.7</ele>
        <time>2018-05-06T09:07:55Z</time>
      </trkpt>
      <trkpt lat="45.58181" lon="4.66788">
        <ele>316.1</ele>
        <time>2018-05-06T09:07:57Z</time>
      </trkpt>
      <trkpt lat="45.58178" lon="4.66793">
        <ele>315.6</ele>
        <time>2018-05-06T09:08:00Z</time>
      </trkpt>
      <trkpt lat="45.58176" lon="4.66798">
        <ele>315.3</ele>
        <time>2018-05-06T09:08:02Z</time>
      </trkpt>
      <trkpt lat="45.58174" lon="4.668">
        <ele>314.8</ele>
        <time>2018-05-06T09:08:03Z</time>
      </trkpt>
      <trkpt lat="45.58161" lon="4.66812">
        <ele>314</ele>
        <time>2018-05-06T09:08:08Z</time>
      </trkpt>
      <trkpt lat="45.58146" lon="4.66824">
        <ele>313.5</ele>
        <time>2018-05-06T09:08:13Z</time>
      </trkpt>
      <trkpt lat="45.5814" lon="4.6683">
        <ele>312.8</ele>
        <time>2018-05-06T09:08:15Z</time>
      </trkpt>
      <trkpt lat="45.58132" lon="4.6684">
        <ele>312.2</ele>
        <time>2018-05-06T09:08:18Z</time>
      </trkpt>
      <trkpt lat="45.58121" lon="4.66856">
        <ele>311.3</ele>
        <time>2018-05-06T09:08:22Z</time>
      </trkpt>
      <trkpt lat="45.58117" lon="4.66858">
        <ele>311</ele>
        <time>2018-05-06T09:08:23Z</time>
      </trkpt>
      <trkpt lat="45.58108" lon="4.66859">
        <ele>311</ele>
        <time>2018-05-06T09:08:27Z</time>
      </trkpt>
      <trkpt lat="45.58104" lon="4.66865">
        <ele>310.8</ele>
        <time>2018-05-06T09:08:44Z</time>
      </trkpt>
      <trkpt lat="45.58101" lon="4.6687">
        <ele>310.7</ele>
        <time>2018-05-06T09:08:46Z</time>
      </trkpt>
      <trkpt lat="45.58096" lon="4.66877">
        <ele>310.7</ele>
        <time>2018-05-06T09:08:53Z</time>
      </trkpt>
      <trkpt lat="45.58094" lon="4.66882">
        <ele>310.8</ele>
        <time>2018-05-06T09:08:55Z</time>
      </trkpt>
      <trkpt lat="45.58093" lon="4.66884">
        <ele>310.9</ele>
        <time>2018-05-06T09:08:56Z</time>
      </trkpt>
      <trkpt lat="45.58092" lon="4.66891">
        <ele>311.1</ele>
        <time>2018-05-06T09:08:59Z</time>
      </trkpt>
      <trkpt lat="45.58089" lon="4.66898">
        <ele>311.4</ele>
        <time>2018-05-06T09:09:02Z</time>
      </trkpt>
      <trkpt lat="45.58087" lon="4.66903">
        <ele>311.7</ele>
        <time>2018-05-06T09:09:04Z</time>
      </trkpt>
      <trkpt lat="45.58089" lon="4.66911">
        <ele>311.9</ele>
        <time>2018-05-06T09:09:07Z</time>
      </trkpt>
      <trkpt lat="45.58087" lon="4.66916">
        <ele>312</ele>
        <time>2018-05-06T09:09:09Z</time>
      </trkpt>
      <trkpt lat="45.58066" lon="4.66973">
        <ele>313.9</ele>
        <time>2018-05-06T09:10:16Z</time>
      </trkpt>
      <trkpt lat="45.58057" lon="4.66977">
        <ele>314.6</ele>
        <time>2018-05-06T09:10:22Z</time>
      </trkpt>
      <trkpt lat="45.58052" lon="4.66982">
        <ele>315.1</ele>
        <time>2018-05-06T09:10:25Z</time>
      </trkpt>
      <trkpt lat="45.58043" lon="4.66984">
        <ele>315.3</ele>
        <time>2018-05-06T09:10:29Z</time>
      </trkpt>
      <trkpt lat="45.58024" lon="4.66981">
        <ele>315.8</ele>
        <time>2018-05-06T09:10:37Z</time>
      </trkpt>
      <trkpt lat="45.58005" lon="4.66982">
        <ele>316.4</ele>
        <time>2018-05-06T09:10:44Z</time>
      </trkpt>
      <trkpt lat="45.58003" lon="4.66983">
        <ele>316.6</ele>
        <time>2018-05-06T09:10:45Z</time>
      </trkpt>
      <trkpt lat="45.57983" lon="4.66997">
        <ele>317.9</ele>
        <time>2018-05-06T09:10:53Z</time>
      </trkpt>
      <trkpt lat="45.57954" lon="4.67018">
        <ele>319.1</ele>
        <time>2018-05-06T09:11:03Z</time>
      </trkpt>
      <trkpt lat="45.5793" lon="4.6703">
        <ele>320</ele>
        <time>2018-05-06T09:11:11Z</time>
      </trkpt>
      <trkpt lat="45.57906" lon="4.67037">
        <ele>320.9</ele>
        <time>2018-05-06T09:11:18Z</time>
      </trkpt>
      <trkpt lat="45.57903" lon="4.67038">
        <ele>321</ele>
        <time>2018-05-06T09:11:19Z</time>
      </trkpt>
      <trkpt lat="45.57873" lon="4.67045">
        <ele>322</ele>
        <time>2018-05-06T09:11:28Z</time>
      </trkpt>
      <trkpt lat="45.57847" lon="4.67051">
        <ele>322.6</ele>
        <time>2018-05-06T09:11:35Z</time>
      </trkpt>
      <trkpt lat="45.57826" lon="4.67055">
        <ele>323.1</ele>
        <time>2018-05-06T09:11:40Z</time>
      </trkpt>
      <trkpt lat="45.57809" lon="4.6706">
        <ele>323.6</ele>
        <time>2018-05-06T09:11:44Z</time>
      </trkpt>
      <trkpt lat="45.57764" lon="4.67071">
        <ele>324.5</ele>
        <time>2018-05-06T09:11:54Z</time>
      </trkpt>
      <trkpt lat="45.57759" lon="4.67072">
        <ele>324.6</ele>
        <time>2018-05-06T09:11:55Z</time>
      </trkpt>
      <trkpt lat="45.57727" lon="4.6708">
        <ele>325.6</ele>
        <time>2018-05-06T09:12:02Z</time>
      </trkpt>
      <trkpt lat="45.57718" lon="4.67085">
        <ele>326.2</ele>
        <time>2018-05-06T09:12:04Z</time>
      </trkpt>
      <trkpt lat="45.57709" lon="4.67091">
        <ele>326.5</ele>
        <time>2018-05-06T09:12:06Z</time>
      </trkpt>
      <trkpt lat="45.57693" lon="4.67105">
        <ele>326.9</ele>
        <time>2018-05-06T09:12:10Z</time>
      </trkpt>
      <trkpt lat="45.57688" lon="4.67108">
        <ele>327</ele>
        <time>2018-05-06T09:12:11Z</time>
      </trkpt>
      <trkpt lat="45.57643" lon="4.67146">
        <ele>327.9</ele>
        <time>2018-05-06T09:12:22Z</time>
      </trkpt>
      <trkpt lat="45.57639" lon="4.67149">
        <ele>328</ele>
        <time>2018-05-06T09:12:23Z</time>
      </trkpt>
      <trkpt lat="45.57611" lon="4.67174">
        <ele>328.6</ele>
        <time>2018-05-06T09:12:30Z</time>
      </trkpt>
      <trkpt lat="45.57585" lon="4.67195">
        <ele>328.6</ele>
        <time>2018-05-06T09:12:36Z</time>
      </trkpt>
      <trkpt lat="45.57574" lon="4.67206">
        <ele>328.6</ele>
        <time>2018-05-06T09:12:39Z</time>
      </trkpt>
      <trkpt lat="45.5757" lon="4.67209">
        <ele>328.6</ele>
        <time>2018-05-06T09:12:40Z</time>
      </trkpt>
      <trkpt lat="45.57552" lon="4.67222">
        <ele>329.1</ele>
        <time>2018-05-06T09:12:45Z</time>
      </trkpt>
      <trkpt lat="45.57549" lon="4.67224">
        <ele>329.2</ele>
        <time>2018-05-06T09:12:46Z</time>
      </trkpt>
      <trkpt lat="45.57526" lon="4.67241">
        <ele>330</ele>
        <time>2018-05-06T09:12:53Z</time>
      </trkpt>
      <trkpt lat="45.57517" lon="4.67254">
        <ele>329.4</ele>
        <time>2018-05-06T09:16:30Z</time>
      </trkpt>
      <trkpt lat="45.57515" lon="4.67259">
        <ele>329.3</ele>
        <time>2018-05-06T09:16:33Z</time>
      </trkpt>
      <trkpt lat="45.57508" lon="4.67264">
        <ele>329.1</ele>
        <time>2018-05-06T09:16:37Z</time>
      </trkpt>
      <trkpt lat="45.57506" lon="4.67264">
        <ele>329</ele>
        <time>2018-05-06T09:16:38Z</time>
      </trkpt>
      <trkpt lat="45.57497" lon="4.67268">
        <ele>329.2</ele>
        <time>2018-05-06T09:16:43Z</time>
      </trkpt>
      <trkpt lat="45.57492" lon="4.6727">
        <ele>329.4</ele>
        <time>2018-05-06T09:16:45Z</time>
      </trkpt>
      <trkpt lat="45.57486" lon="4.67272">
        <ele>329.4</ele>
        <time>2018-05-06T09:16:47Z</time>
      </trkpt>
      <trkpt lat="45.57473" lon="4.6728">
        <ele>329.6</ele>
        <time>2018-05-06T09:16:52Z</time>
      </trkpt>
      <trkpt lat="45.57454" lon="4.67296">
        <ele>329.8</ele>
        <time>2018-05-06T09:16:59Z</time>
      </trkpt>
      <trkpt lat="45.57449" lon="4.67307">
        <ele>329.8</ele>
        <time>2018-05-06T09:17:02Z</time>
      </trkpt>
      <trkpt lat="45.57444" lon="4.67311">
        <ele>329.8</ele>
        <time>2018-05-06T09:17:04Z</time>
      </trkpt>
      <trkpt lat="45.57437" lon="4.67314">
        <ele>329.9</ele>
        <time>2018-05-06T09:17:06Z</time>
      </trkpt>
      <trkpt lat="45.57431" lon="4.67316">
        <ele>330</ele>
        <time>2018-05-06T09:17:08Z</time>
      </trkpt>
      <trkpt lat="45.57426" lon="4.67323">
        <ele>330</ele>
        <time>2018-05-06T09:17:10Z</time>
      </trkpt>
      <trkpt lat="45.57425" lon="4.67328">
        <ele>330</ele>
        <time>2018-05-06T09:17:11Z</time>
      </trkpt>
      <trkpt lat="45.57426" lon="4.67339">
        <ele>329.7</ele>
        <time>2018-05-06T09:17:13Z</time>
      </trkpt>
      <trkpt lat="45.57431" lon="4.67356">
        <ele>329.1</ele>
        <time>2018-05-06T09:17:16Z</time>
      </trkpt>
      <trkpt lat="45.57438" lon="4.67374">
        <ele>328.4</ele>
        <time>2018-05-06T09:17:19Z</time>
      </trkpt>
      <trkpt lat="45.5744" lon="4.67381">
        <ele>328.1</ele>
        <time>2018-05-06T09:17:20Z</time>
      </trkpt>
      <trkpt lat="45.57451" lon="4.67411">
        <ele>326.8</ele>
        <time>2018-05-06T09:17:24Z</time>
      </trkpt>
      <trkpt lat="45.57454" lon="4.67419">
        <ele>326.4</ele>
        <time>2018-05-06T09:17:25Z</time>
      </trkpt>
      <trkpt lat="45.57458" lon="4.67435">
        <ele>325.6</ele>
        <time>2018-05-06T09:17:27Z</time>
      </trkpt>
      <trkpt lat="45.57457" lon="4.67442">
        <ele>325.6</ele>
        <time>2018-05-06T09:17:28Z</time>
      </trkpt>
      <trkpt lat="45.57453" lon="4.67447">
        <ele>325.6</ele>
        <time>2018-05-06T09:17:29Z</time>
      </trkpt>
      <trkpt lat="45.57441" lon="4.67459">
        <ele>325.6</ele>
        <time>2018-05-06T09:17:32Z</time>
      </trkpt>
      <trkpt lat="45.57437" lon="4.67463">
        <ele>325.6</ele>
        <time>2018-05-06T09:17:33Z</time>
      </trkpt>
      <trkpt lat="45.57434" lon="4.67484">
        <ele>324.7</ele>
        <time>2018-05-06T09:17:36Z</time>
      </trkpt>
      <trkpt lat="45.57439" lon="4.67499">
        <ele>323.8</ele>
        <time>2018-05-06T09:17:38Z</time>
      </trkpt>
      <trkpt lat="45.57443" lon="4.67515">
        <ele>322.9</ele>
        <time>2018-05-06T09:17:40Z</time>
      </trkpt>
      <trkpt lat="45.57445" lon="4.67524">
        <ele>322.2</ele>
        <time>2018-05-06T09:17:41Z</time>
      </trkpt>
      <trkpt lat="45.5745" lon="4.67543">
        <ele>321</ele>
        <time>2018-05-06T09:17:43Z</time>
      </trkpt>
      <trkpt lat="45.57458" lon="4.67574">
        <ele>319.2</ele>
        <time>2018-05-06T09:17:46Z</time>
      </trkpt>
      <trkpt lat="45.57461" lon="4.67597">
        <ele>318.2</ele>
        <time>2018-05-06T09:17:48Z</time>
      </trkpt>
      <trkpt lat="45.57463" lon="4.67608">
        <ele>317.5</ele>
        <time>2018-05-06T09:17:49Z</time>
      </trkpt>
      <trkpt lat="45.57468" lon="4.67632">
        <ele>316.7</ele>
        <time>2018-05-06T09:17:51Z</time>
      </trkpt>
      <trkpt lat="45.57471" lon="4.67644">
        <ele>316.4</ele>
        <time>2018-05-06T09:17:52Z</time>
      </trkpt>
      <trkpt lat="45.57477" lon="4.67666">
        <ele>315.5</ele>
        <time>2018-05-06T09:17:54Z</time>
      </trkpt>
      <trkpt lat="45.57479" lon="4.67681">
        <ele>315</ele>
        <time>2018-05-06T09:17:56Z</time>
      </trkpt>
      <trkpt lat="45.57474" lon="4.67689">
        <ele>315.1</ele>
        <time>2018-05-06T09:17:58Z</time>
      </trkpt>
      <trkpt lat="45.57459" lon="4.67697">
        <ele>315.3</ele>
        <time>2018-05-06T09:18:01Z</time>
      </trkpt>
      <trkpt lat="45.57455" lon="4.67699">
        <ele>315.4</ele>
        <time>2018-05-06T09:18:02Z</time>
      </trkpt>
      <trkpt lat="45.57425" lon="4.67713">
        <ele>315.6</ele>
        <time>2018-05-06T09:18:08Z</time>
      </trkpt>
      <trkpt lat="45.57419" lon="4.67716">
        <ele>315.6</ele>
        <time>2018-05-06T09:18:09Z</time>
      </trkpt>
      <trkpt lat="45.57414" lon="4.6772">
        <ele>315.6</ele>
        <time>2018-05-06T09:18:10Z</time>
      </trkpt>
      <trkpt lat="45.57395" lon="4.67731">
        <ele>315.4</ele>
        <time>2018-05-06T09:18:13Z</time>
      </trkpt>
      <trkpt lat="45.57384" lon="4.67744">
        <ele>315.1</ele>
        <time>2018-05-06T09:18:15Z</time>
      </trkpt>
      <trkpt lat="45.57376" lon="4.6776">
        <ele>314.7</ele>
        <time>2018-05-06T09:18:17Z</time>
      </trkpt>
      <trkpt lat="45.57372" lon="4.67768">
        <ele>314.5</ele>
        <time>2018-05-06T09:18:18Z</time>
      </trkpt>
      <trkpt lat="45.57369" lon="4.67777">
        <ele>314.3</ele>
        <time>2018-05-06T09:18:19Z</time>
      </trkpt>
      <trkpt lat="45.57356" lon="4.67808">
        <ele>313.8</ele>
        <time>2018-05-06T09:18:23Z</time>
      </trkpt>
      <trkpt lat="45.57347" lon="4.6782">
        <ele>313.8</ele>
        <time>2018-05-06T09:18:25Z</time>
      </trkpt>
      <trkpt lat="45.57336" lon="4.67828">
        <ele>313.9</ele>
        <time>2018-05-06T09:18:27Z</time>
      </trkpt>
      <trkpt lat="45.57313" lon="4.67836">
        <ele>314.5</ele>
        <time>2018-05-06T09:18:31Z</time>
      </trkpt>
      <trkpt lat="45.57302" lon="4.6784">
        <ele>314.8</ele>
        <time>2018-05-06T09:18:33Z</time>
      </trkpt>
      <trkpt lat="45.57286" lon="4.67849">
        <ele>315.1</ele>
        <time>2018-05-06T09:18:36Z</time>
      </trkpt>
      <trkpt lat="45.57259" lon="4.67873">
        <ele>315.2</ele>
        <time>2018-05-06T09:18:42Z</time>
      </trkpt>
      <trkpt lat="45.57255" lon="4.67878">
        <ele>315.2</ele>
        <time>2018-05-06T09:18:43Z</time>
      </trkpt>
      <trkpt lat="45.57243" lon="4.67904">
        <ele>314.9</ele>
        <time>2018-05-06T09:18:47Z</time>
      </trkpt>
      <trkpt lat="45.57241" lon="4.67911">
        <ele>314.8</ele>
        <time>2018-05-06T09:18:48Z</time>
      </trkpt>
      <trkpt lat="45.57222" lon="4.67958">
        <ele>314</ele>
        <time>2018-05-06T09:18:55Z</time>
      </trkpt>
      <trkpt lat="45.57201" lon="4.67997">
        <ele>313.4</ele>
        <time>2018-05-06T09:19:01Z</time>
      </trkpt>
      <trkpt lat="45.57197" lon="4.68003">
        <ele>313.3</ele>
        <time>2018-05-06T09:19:02Z</time>
      </trkpt>
      <trkpt lat="45.57181" lon="4.68014">
        <ele>313.2</ele>
        <time>2018-05-06T09:19:05Z</time>
      </trkpt>
      <trkpt lat="45.57176" lon="4.68017">
        <ele>313.1</ele>
        <time>2018-05-06T09:19:06Z</time>
      </trkpt>
      <trkpt lat="45.57128" lon="4.68042">
        <ele>313</ele>
        <time>2018-05-06T09:19:15Z</time>
      </trkpt>
      <trkpt lat="45.57087" lon="4.6805">
        <ele>312.2</ele>
        <time>2018-05-06T09:19:23Z</time>
      </trkpt>
      <trkpt lat="45.5707" lon="4.6804">
        <ele>312</ele>
        <time>2018-05-06T09:19:26Z</time>
      </trkpt>
      <trkpt lat="45.57055" lon="4.68034">
        <ele>312</ele>
        <time>2018-05-06T09:19:29Z</time>
      </trkpt>
      <trkpt lat="45.5705" lon="4.68033">
        <ele>312.2</ele>
        <time>2018-05-06T09:19:30Z</time>
      </trkpt>
      <trkpt lat="45.57036" lon="4.68021">
        <ele>312.7</ele>
        <time>2018-05-06T09:19:33Z</time>
      </trkpt>
      <trkpt lat="45.57022" lon="4.68008">
        <ele>313.1</ele>
        <time>2018-05-06T09:19:36Z</time>
      </trkpt>
      <trkpt lat="45.56999" lon="4.67988">
        <ele>313.8</ele>
        <time>2018-05-06T09:19:41Z</time>
      </trkpt>
      <trkpt lat="45.56969" lon="4.67954">
        <ele>314.8</ele>
        <time>2018-05-06T09:19:48Z</time>
      </trkpt>
      <trkpt lat="45.56961" lon="4.67944">
        <ele>315.1</ele>
        <time>2018-05-06T09:19:50Z</time>
      </trkpt>
      <trkpt lat="45.56943" lon="4.67917">
        <ele>315.7</ele>
        <time>2018-05-06T09:19:55Z</time>
      </trkpt>
      <trkpt lat="45.5693" lon="4.67904">
        <ele>315.8</ele>
        <time>2018-05-06T09:19:58Z</time>
      </trkpt>
      <trkpt lat="45.56925" lon="4.67902">
        <ele>315.6</ele>
        <time>2018-05-06T09:19:59Z</time>
      </trkpt>
      <trkpt lat="45.56904" lon="4.67902">
        <ele>314.8</ele>
        <time>2018-05-06T09:20:03Z</time>
      </trkpt>
      <trkpt lat="45.56883" lon="4.67915">
        <ele>314</ele>
        <time>2018-05-06T09:20:07Z</time>
      </trkpt>
      <trkpt lat="45.56867" lon="4.67926">
        <ele>313.5</ele>
        <time>2018-05-06T09:20:10Z</time>
      </trkpt>
      <trkpt lat="45.56862" lon="4.67929">
        <ele>313.3</ele>
        <time>2018-05-06T09:20:11Z</time>
      </trkpt>
      <trkpt lat="45.5685" lon="4.67931">
        <ele>312.8</ele>
        <time>2018-05-06T09:20:13Z</time>
      </trkpt>
      <trkpt lat="45.56828" lon="4.67924">
        <ele>312.1</ele>
        <time>2018-05-06T09:20:17Z</time>
      </trkpt>
      <trkpt lat="45.56826" lon="4.67916">
        <ele>311.9</ele>
        <time>2018-05-06T09:20:19Z</time>
      </trkpt>
      <trkpt lat="45.56828" lon="4.67903">
        <ele>311.7</ele>
        <time>2018-05-06T09:20:21Z</time>
      </trkpt>
      <trkpt lat="45.56829" lon="4.67895">
        <ele>311.6</ele>
        <time>2018-05-06T09:20:22Z</time>
      </trkpt>
      <trkpt lat="45.5683" lon="4.67887">
        <ele>311.5</ele>
        <time>2018-05-06T09:20:23Z</time>
      </trkpt>
      <trkpt lat="45.56831" lon="4.67879">
        <ele>311.3</ele>
        <time>2018-05-06T09:20:24Z</time>
      </trkpt>
      <trkpt lat="45.56835" lon="4.67863">
        <ele>311.1</ele>
        <time>2018-05-06T09:20:26Z</time>
      </trkpt>
      <trkpt lat="45.56834" lon="4.67855">
        <ele>311</ele>
        <time>2018-05-06T09:20:27Z</time>
      </trkpt>
      <trkpt lat="45.5683" lon="4.67848">
        <ele>310.8</ele>
        <time>2018-05-06T09:20:28Z</time>
      </trkpt>
      <trkpt lat="45.56821" lon="4.67838">
        <ele>309.2</ele>
        <time>2018-05-06T09:20:30Z</time>
      </trkpt>
      <trkpt lat="45.56812" lon="4.67829">
        <ele>307.7</ele>
        <time>2018-05-06T09:20:32Z</time>
      </trkpt>
      <trkpt lat="45.56808" lon="4.67828">
        <ele>307.1</ele>
        <time>2018-05-06T09:20:33Z</time>
      </trkpt>
      <trkpt lat="45.56799" lon="4.67824">
        <ele>306</ele>
        <time>2018-05-06T09:20:35Z</time>
      </trkpt>
      <trkpt lat="45.56788" lon="4.6782">
        <ele>304.2</ele>
        <time>2018-05-06T09:20:37Z</time>
      </trkpt>
      <trkpt lat="45.56773" lon="4.67815">
        <ele>301.3</ele>
        <time>2018-05-06T09:20:39Z</time>
      </trkpt>
      <trkpt lat="45.5676" lon="4.67808">
        <ele>298.7</ele>
        <time>2018-05-06T09:20:41Z</time>
      </trkpt>
      <trkpt lat="45.56756" lon="4.67802">
        <ele>297.3</ele>
        <time>2018-05-06T09:20:42Z</time>
      </trkpt>
      <trkpt lat="45.56751" lon="4.67795">
        <ele>295.9</ele>
        <time>2018-05-06T09:20:43Z</time>
      </trkpt>
      <trkpt lat="45.56744" lon="4.67784">
        <ele>293.7</ele>
        <time>2018-05-06T09:20:45Z</time>
      </trkpt>
      <trkpt lat="45.56742" lon="4.67781">
        <ele>293</ele>
        <time>2018-05-06T09:20:46Z</time>
      </trkpt>
      <trkpt lat="45.56738" lon="4.6778">
        <ele>292</ele>
        <time>2018-05-06T09:20:47Z</time>
      </trkpt>
      <trkpt lat="45.56729" lon="4.67777">
        <ele>290</ele>
        <time>2018-05-06T09:20:49Z</time>
      </trkpt>
      <trkpt lat="45.56725" lon="4.67774">
        <ele>288.9</ele>
        <time>2018-05-06T09:20:50Z</time>
      </trkpt>
      <trkpt lat="45.56716" lon="4.67762">
        <ele>286.1</ele>
        <time>2018-05-06T09:20:52Z</time>
      </trkpt>
      <trkpt lat="45.56707" lon="4.67751">
        <ele>284</ele>
        <time>2018-05-06T09:20:54Z</time>
      </trkpt>
      <trkpt lat="45.56701" lon="4.67744">
        <ele>282.2</ele>
        <time>2018-05-06T09:20:56Z</time>
      </trkpt>
      <trkpt lat="45.56699" lon="4.67741">
        <ele>281.4</ele>
        <time>2018-05-06T09:20:57Z</time>
      </trkpt>
      <trkpt lat="45.56694" lon="4.67732">
        <ele>279.5</ele>
        <time>2018-05-06T09:21:00Z</time>
      </trkpt>
      <trkpt lat="45.56691" lon="4.67727">
        <ele>278.4</ele>
        <time>2018-05-06T09:21:02Z</time>
      </trkpt>
      <trkpt lat="45.56689" lon="4.67725">
        <ele>277.7</ele>
        <time>2018-05-06T09:21:03Z</time>
      </trkpt>
      <trkpt lat="45.56688" lon="4.67722">
        <ele>277.1</ele>
        <time>2018-05-06T09:21:04Z</time>
      </trkpt>
      <trkpt lat="45.56686" lon="4.67719">
        <ele>276.4</ele>
        <time>2018-05-06T09:21:05Z</time>
      </trkpt>
      <trkpt lat="45.56685" lon="4.67716">
        <ele>275.7</ele>
        <time>2018-05-06T09:21:06Z</time>
      </trkpt>
      <trkpt lat="45.56684" lon="4.67713">
        <ele>275.2</ele>
        <time>2018-05-06T09:21:07Z</time>
      </trkpt>
      <trkpt lat="45.56681" lon="4.67707">
        <ele>274</ele>
        <time>2018-05-06T09:21:09Z</time>
      </trkpt>
      <trkpt lat="45.56678" lon="4.67701">
        <ele>272.9</ele>
        <time>2018-05-06T09:21:11Z</time>
      </trkpt>
      <trkpt lat="45.56676" lon="4.67699">
        <ele>272</ele>
        <time>2018-05-06T09:21:13Z</time>
      </trkpt>
      <trkpt lat="45.56674" lon="4.67695">
        <ele>271</ele>
        <time>2018-05-06T09:21:15Z</time>
      </trkpt>
      <trkpt lat="45.56673" lon="4.67691">
        <ele>270</ele>
        <time>2018-05-06T09:21:17Z</time>
      </trkpt>
      <trkpt lat="45.56672" lon="4.67685">
        <ele>268.8</ele>
        <time>2018-05-06T09:21:19Z</time>
      </trkpt>
      <trkpt lat="45.56671" lon="4.67683">
        <ele>268.3</ele>
        <time>2018-05-06T09:21:20Z</time>
      </trkpt>
      <trkpt lat="45.56669" lon="4.6768">
        <ele>267.4</ele>
        <time>2018-05-06T09:21:21Z</time>
      </trkpt>
      <trkpt lat="45.56665" lon="4.67676">
        <ele>265.9</ele>
        <time>2018-05-06T09:21:23Z</time>
      </trkpt>
      <trkpt lat="45.56662" lon="4.67676">
        <ele>265.5</ele>
        <time>2018-05-06T09:21:24Z</time>
      </trkpt>
      <trkpt lat="45.5666" lon="4.67675">
        <ele>265.3</ele>
        <time>2018-05-06T09:21:25Z</time>
      </trkpt>
      <trkpt lat="45.56656" lon="4.67672">
        <ele>264.5</ele>
        <time>2018-05-06T09:21:27Z</time>
      </trkpt>
      <trkpt lat="45.5665" lon="4.67669">
        <ele>263.1</ele>
        <time>2018-05-06T09:21:29Z</time>
      </trkpt>
      <trkpt lat="45.56644" lon="4.67666">
        <ele>261.8</ele>
        <time>2018-05-06T09:21:31Z</time>
      </trkpt>
      <trkpt lat="45.56639" lon="4.67662">
        <ele>260.4</ele>
        <time>2018-05-06T09:21:33Z</time>
      </trkpt>
      <trkpt lat="45.56636" lon="4.6766">
        <ele>259.6</ele>
        <time>2018-05-06T09:21:34Z</time>
      </trkpt>
      <trkpt lat="45.56633" lon="4.67658">
        <ele>259</ele>
        <time>2018-05-06T09:21:35Z</time>
      </trkpt>
      <trkpt lat="45.56627" lon="4.67653">
        <ele>257.8</ele>
        <time>2018-05-06T09:21:37Z</time>
      </trkpt>
      <trkpt lat="45.56623" lon="4.67648">
        <ele>256.8</ele>
        <time>2018-05-06T09:21:39Z</time>
      </trkpt>
      <trkpt lat="45.5662" lon="4.67645">
        <ele>256.3</ele>
        <time>2018-05-06T09:21:40Z</time>
      </trkpt>
      <trkpt lat="45.56617" lon="4.67643">
        <ele>255.9</ele>
        <time>2018-05-06T09:21:41Z</time>
      </trkpt>
      <trkpt lat="45.56611" lon="4.67639">
        <ele>255</ele>
        <time>2018-05-06T09:21:43Z</time>
      </trkpt>
      <trkpt lat="45.56605" lon="4.67636">
        <ele>254.4</ele>
        <time>2018-05-06T09:21:45Z</time>
      </trkpt>
      <trkpt lat="45.56599" lon="4.67636">
        <ele>254</ele>
        <time>2018-05-06T09:21:47Z</time>
      </trkpt>
      <trkpt lat="45.56592" lon="4.67635">
        <ele>253.1</ele>
        <time>2018-05-06T09:21:49Z</time>
      </trkpt>
      <trkpt lat="45.56587" lon="4.67634">
        <ele>252.6</ele>
        <time>2018-05-06T09:21:50Z</time>
      </trkpt>
      <trkpt lat="45.56584" lon="4.67633">
        <ele>252.2</ele>
        <time>2018-05-06T09:21:51Z</time>
      </trkpt>
      <trkpt lat="45.56578" lon="4.67634">
        <ele>251.5</ele>
        <time>2018-05-06T09:21:53Z</time>
      </trkpt>
      <trkpt lat="45.56575" lon="4.67634">
        <ele>251.4</ele>
        <time>2018-05-06T09:21:54Z</time>
      </trkpt>
      <trkpt lat="45.56571" lon="4.67635">
        <ele>251.2</ele>
        <time>2018-05-06T09:21:55Z</time>
      </trkpt>
      <trkpt lat="45.56561" lon="4.67634">
        <ele>250.5</ele>
        <time>2018-05-06T09:21:57Z</time>
      </trkpt>
      <trkpt lat="45.56556" lon="4.67633">
        <ele>250.3</ele>
        <time>2018-05-06T09:21:58Z</time>
      </trkpt>
      <trkpt lat="45.56551" lon="4.67633">
        <ele>250.1</ele>
        <time>2018-05-06T09:21:59Z</time>
      </trkpt>
      <trkpt lat="45.56543" lon="4.67632">
        <ele>250</ele>
        <time>2018-05-06T09:22:01Z</time>
      </trkpt>
      <trkpt lat="45.56536" lon="4.67631">
        <ele>250.1</ele>
        <time>2018-05-06T09:22:03Z</time>
      </trkpt>
      <trkpt lat="45.56532" lon="4.67629">
        <ele>250.1</ele>
        <time>2018-05-06T09:22:04Z</time>
      </trkpt>
      <trkpt lat="45.56528" lon="4.67626">
        <ele>250.1</ele>
        <time>2018-05-06T09:22:05Z</time>
      </trkpt>
      <trkpt lat="45.56522" lon="4.67623">
        <ele>249.7</ele>
        <time>2018-05-06T09:22:07Z</time>
      </trkpt>
      <trkpt lat="45.56515" lon="4.67617">
        <ele>249.3</ele>
        <time>2018-05-06T09:22:09Z</time>
      </trkpt>
      <trkpt lat="45.56511" lon="4.67614">
        <ele>249.1</ele>
        <time>2018-05-06T09:22:10Z</time>
      </trkpt>
      <trkpt lat="45.56507" lon="4.67614">
        <ele>248.9</ele>
        <time>2018-05-06T09:22:11Z</time>
      </trkpt>
      <trkpt lat="45.56502" lon="4.67615">
        <ele>248.8</ele>
        <time>2018-05-06T09:22:12Z</time>
      </trkpt>
      <trkpt lat="45.56489" lon="4.67614">
        <ele>248.6</ele>
        <time>2018-05-06T09:22:14Z</time>
      </trkpt>
      <trkpt lat="45.56478" lon="4.6761">
        <ele>248.9</ele>
        <time>2018-05-06T09:22:16Z</time>
      </trkpt>
      <trkpt lat="45.56468" lon="4.67604">
        <ele>249</ele>
        <time>2018-05-06T09:22:18Z</time>
      </trkpt>
      <trkpt lat="45.56463" lon="4.67597">
        <ele>249.4</ele>
        <time>2018-05-06T09:22:20Z</time>
      </trkpt>
      <trkpt lat="45.56456" lon="4.67582">
        <ele>250.5</ele>
        <time>2018-05-06T09:22:25Z</time>
      </trkpt>
      <trkpt lat="45.56451" lon="4.67574">
        <ele>251.5</ele>
        <time>2018-05-06T09:22:28Z</time>
      </trkpt>
      <trkpt lat="45.56444" lon="4.67566">
        <ele>251.8</ele>
        <time>2018-05-06T09:22:32Z</time>
      </trkpt>
      <trkpt lat="45.5643" lon="4.67562">
        <ele>252</ele>
        <time>2018-05-06T09:22:38Z</time>
      </trkpt>
      <trkpt lat="45.56416" lon="4.6756">
        <ele>252.8</ele>
        <time>2018-05-06T09:22:43Z</time>
      </trkpt>
      <trkpt lat="45.56395" lon="4.67564">
        <ele>251.6</ele>
        <time>2018-05-06T09:22:50Z</time>
      </trkpt>
      <trkpt lat="45.56388" lon="4.67565">
        <ele>251.2</ele>
        <time>2018-05-06T09:22:52Z</time>
      </trkpt>
      <trkpt lat="45.56373" lon="4.67562">
        <ele>250.4</ele>
        <time>2018-05-06T09:22:56Z</time>
      </trkpt>
      <trkpt lat="45.56347" lon="4.67557">
        <ele>249.9</ele>
        <time>2018-05-06T09:23:02Z</time>
      </trkpt>
      <trkpt lat="45.56311" lon="4.67554">
        <ele>247.9</ele>
        <time>2018-05-06T09:23:09Z</time>
      </trkpt>
      <trkpt lat="45.56306" lon="4.67553">
        <ele>247.6</ele>
        <time>2018-05-06T09:23:10Z</time>
      </trkpt>
      <trkpt lat="45.56286" lon="4.67543">
        <ele>245.3</ele>
        <time>2018-05-06T09:23:14Z</time>
      </trkpt>
      <trkpt lat="45.56259" lon="4.67524">
        <ele>238.5</ele>
        <time>2018-05-06T09:23:19Z</time>
      </trkpt>
      <trkpt lat="45.56253" lon="4.67521">
        <ele>236.8</ele>
        <time>2018-05-06T09:23:20Z</time>
      </trkpt>
      <trkpt lat="45.56233" lon="4.67511">
        <ele>232</ele>
        <time>2018-05-06T09:23:23Z</time>
      </trkpt>
      <trkpt lat="45.5621" lon="4.67493">
        <ele>226.7</ele>
        <time>2018-05-06T09:23:27Z</time>
      </trkpt>
      <trkpt lat="45.56208" lon="4.67487">
        <ele>226</ele>
        <time>2018-05-06T09:23:28Z</time>
      </trkpt>
      <trkpt lat="45.56208" lon="4.6748">
        <ele>226.3</ele>
        <time>2018-05-06T09:23:29Z</time>
      </trkpt>
      <trkpt lat="45.56208" lon="4.67465">
        <ele>227.4</ele>
        <time>2018-05-06T09:23:31Z</time>
      </trkpt>
      <trkpt lat="45.56208" lon="4.67458">
        <ele>228</ele>
        <time>2018-05-06T09:23:32Z</time>
      </trkpt>
      <trkpt lat="45.56207" lon="4.67435">
        <ele>230.4</ele>
        <time>2018-05-06T09:23:35Z</time>
      </trkpt>
      <trkpt lat="45.56208" lon="4.67419">
        <ele>231.3</ele>
        <time>2018-05-06T09:23:37Z</time>
      </trkpt>
      <trkpt lat="45.56209" lon="4.67411">
        <ele>231.7</ele>
        <time>2018-05-06T09:23:38Z</time>
      </trkpt>
      <trkpt lat="45.56208" lon="4.6739">
        <ele>232.7</ele>
        <time>2018-05-06T09:23:41Z</time>
      </trkpt>
      <trkpt lat="45.56207" lon="4.6738">
        <ele>233.4</ele>
        <time>2018-05-06T09:23:43Z</time>
      </trkpt>
      <trkpt lat="45.56205" lon="4.67348">
        <ele>237.3</ele>
        <time>2018-05-06T09:23:49Z</time>
      </trkpt>
      <trkpt lat="45.56205" lon="4.67331">
        <ele>239.8</ele>
        <time>2018-05-06T09:23:53Z</time>
      </trkpt>
      <trkpt lat="45.56206" lon="4.67327">
        <ele>240.6</ele>
        <time>2018-05-06T09:23:54Z</time>
      </trkpt>
      <trkpt lat="45.56207" lon="4.6732">
        <ele>242.2</ele>
        <time>2018-05-06T09:23:56Z</time>
      </trkpt>
      <trkpt lat="45.5621" lon="4.67305">
        <ele>245.1</ele>
        <time>2018-05-06T09:24:01Z</time>
      </trkpt>
      <trkpt lat="45.56214" lon="4.67294">
        <ele>247.8</ele>
        <time>2018-05-06T09:24:05Z</time>
      </trkpt>
      <trkpt lat="45.56215" lon="4.67286">
        <ele>248.8</ele>
        <time>2018-05-06T09:24:08Z</time>
      </trkpt>
      <trkpt lat="45.56217" lon="4.67272">
        <ele>251.9</ele>
        <time>2018-05-06T09:24:13Z</time>
      </trkpt>
      <trkpt lat="45.56217" lon="4.67268">
        <ele>252.7</ele>
        <time>2018-05-06T09:24:14Z</time>
      </trkpt>
      <trkpt lat="45.56217" lon="4.67262">
        <ele>253.5</ele>
        <time>2018-05-06T09:24:16Z</time>
      </trkpt>
      <trkpt lat="45.56217" lon="4.67254">
        <ele>254.4</ele>
        <time>2018-05-06T09:24:19Z</time>
      </trkpt>
      <trkpt lat="45.56216" lon="4.6725">
        <ele>254.7</ele>
        <time>2018-05-06T09:24:20Z</time>
      </trkpt>
      <trkpt lat="45.56211" lon="4.67214">
        <ele>258.5</ele>
        <time>2018-05-06T09:24:28Z</time>
      </trkpt>
      <trkpt lat="45.5621" lon="4.67208">
        <ele>258.7</ele>
        <time>2018-05-06T09:24:29Z</time>
      </trkpt>
      <trkpt lat="45.56206" lon="4.67188">
        <ele>259.2</ele>
        <time>2018-05-06T09:24:32Z</time>
      </trkpt>
      <trkpt lat="45.56193" lon="4.67162">
        <ele>259.8</ele>
        <time>2018-05-06T09:24:35Z</time>
      </trkpt>
      <trkpt lat="45.56184" lon="4.67146">
        <ele>259.9</ele>
        <time>2018-05-06T09:24:37Z</time>
      </trkpt>
      <trkpt lat="45.56178" lon="4.67137">
        <ele>259.2</ele>
        <time>2018-05-06T09:24:39Z</time>
      </trkpt>
      <trkpt lat="45.56176" lon="4.67134">
        <ele>259</ele>
        <time>2018-05-06T09:24:40Z</time>
      </trkpt>
      <trkpt lat="45.5617" lon="4.67127">
        <ele>257.8</ele>
        <time>2018-05-06T09:24:43Z</time>
      </trkpt>
      <trkpt lat="45.56165" lon="4.67122">
        <ele>256.8</ele>
        <time>2018-05-06T09:24:46Z</time>
      </trkpt>
      <trkpt lat="45.56158" lon="4.67114">
        <ele>255.8</ele>
        <time>2018-05-06T09:24:50Z</time>
      </trkpt>
      <trkpt lat="45.56153" lon="4.6711">
        <ele>254.8</ele>
        <time>2018-05-06T09:24:53Z</time>
      </trkpt>
      <trkpt lat="45.56146" lon="4.67104">
        <ele>253.6</ele>
        <time>2018-05-06T09:24:56Z</time>
      </trkpt>
      <trkpt lat="45.5613" lon="4.67083">
        <ele>252.4</ele>
        <time>2018-05-06T09:25:02Z</time>
      </trkpt>
      <trkpt lat="45.56117" lon="4.67054">
        <ele>251.1</ele>
        <time>2018-05-06T09:25:07Z</time>
      </trkpt>
      <trkpt lat="45.56115" lon="4.67049">
        <ele>250.8</ele>
        <time>2018-05-06T09:25:08Z</time>
      </trkpt>
      <trkpt lat="45.56102" lon="4.67021">
        <ele>249.1</ele>
        <time>2018-05-06T09:25:13Z</time>
      </trkpt>
      <trkpt lat="45.56099" lon="4.67016">
        <ele>248.8</ele>
        <time>2018-05-06T09:25:14Z</time>
      </trkpt>
      <trkpt lat="45.56088" lon="4.67">
        <ele>248</ele>
        <time>2018-05-06T09:25:17Z</time>
      </trkpt>
      <trkpt lat="45.56083" lon="4.66995">
        <ele>247.8</ele>
        <time>2018-05-06T09:25:18Z</time>
      </trkpt>
      <trkpt lat="45.56078" lon="4.6699">
        <ele>247.6</ele>
        <time>2018-05-06T09:25:19Z</time>
      </trkpt>
      <trkpt lat="45.5607" lon="4.66983">
        <ele>247.4</ele>
        <time>2018-05-06T09:25:21Z</time>
      </trkpt>
      <trkpt lat="45.56063" lon="4.6698">
        <ele>247.2</ele>
        <time>2018-05-06T09:25:23Z</time>
      </trkpt>
      <trkpt lat="45.56059" lon="4.66967">
        <ele>247</ele>
        <time>2018-05-06T09:25:26Z</time>
      </trkpt>
      <trkpt lat="45.56058" lon="4.66962">
        <ele>247</ele>
        <time>2018-05-06T09:25:27Z</time>
      </trkpt>
      <trkpt lat="45.56056" lon="4.66957">
        <ele>247</ele>
        <time>2018-05-06T09:25:28Z</time>
      </trkpt>
      <trkpt lat="45.56053" lon="4.66946">
        <ele>247</ele>
        <time>2018-05-06T09:25:30Z</time>
      </trkpt>
      <trkpt lat="45.56052" lon="4.66939">
        <ele>247.1</ele>
        <time>2018-05-06T09:25:31Z</time>
      </trkpt>
      <trkpt lat="45.5605" lon="4.66933">
        <ele>247.3</ele>
        <time>2018-05-06T09:25:32Z</time>
      </trkpt>
      <trkpt lat="45.5605" lon="4.66926">
        <ele>247.5</ele>
        <time>2018-05-06T09:25:33Z</time>
      </trkpt>
      <trkpt lat="45.56051" lon="4.66912">
        <ele>247.8</ele>
        <time>2018-05-06T09:25:35Z</time>
      </trkpt>
      <trkpt lat="45.56052" lon="4.66906">
        <ele>247.9</ele>
        <time>2018-05-06T09:25:36Z</time>
      </trkpt>
      <trkpt lat="45.56053" lon="4.66887">
        <ele>248.4</ele>
        <time>2018-05-06T09:25:39Z</time>
      </trkpt>
      <trkpt lat="45.56054" lon="4.66875">
        <ele>248.6</ele>
        <time>2018-05-06T09:25:41Z</time>
      </trkpt>
      <trkpt lat="45.56053" lon="4.66869">
        <ele>248.7</ele>
        <time>2018-05-06T09:25:42Z</time>
      </trkpt>
      <trkpt lat="45.56052" lon="4.66862">
        <ele>248.8</ele>
        <time>2018-05-06T09:25:43Z</time>
      </trkpt>
      <trkpt lat="45.5605" lon="4.6685">
        <ele>249.3</ele>
        <time>2018-05-06T09:25:45Z</time>
      </trkpt>
      <trkpt lat="45.56048" lon="4.66844">
        <ele>249.4</ele>
        <time>2018-05-06T09:25:46Z</time>
      </trkpt>
      <trkpt lat="45.56047" lon="4.66839">
        <ele>249.6</ele>
        <time>2018-05-06T09:25:47Z</time>
      </trkpt>
      <trkpt lat="45.56042" lon="4.6683">
        <ele>249.9</ele>
        <time>2018-05-06T09:25:49Z</time>
      </trkpt>
      <trkpt lat="45.56032" lon="4.6683">
        <ele>250</ele>
        <time>2018-05-06T09:25:52Z</time>
      </trkpt>
      <trkpt lat="45.56027" lon="4.66833">
        <ele>250</ele>
        <time>2018-05-06T09:25:54Z</time>
      </trkpt>
      <trkpt lat="45.56018" lon="4.66841">
        <ele>250</ele>
        <time>2018-05-06T09:25:58Z</time>
      </trkpt>
      <trkpt lat="45.56016" lon="4.66845">
        <ele>250</ele>
        <time>2018-05-06T09:26:00Z</time>
      </trkpt>
      <trkpt lat="45.56011" lon="4.66855">
        <ele>251.4</ele>
        <time>2018-05-06T09:26:04Z</time>
      </trkpt>
      <trkpt lat="45.56009" lon="4.6686">
        <ele>252.8</ele>
        <time>2018-05-06T09:26:06Z</time>
      </trkpt>
      <trkpt lat="45.56005" lon="4.66871">
        <ele>255</ele>
        <time>2018-05-06T09:26:11Z</time>
      </trkpt>
      <trkpt lat="45.56004" lon="4.66876">
        <ele>255.9</ele>
        <time>2018-05-06T09:26:13Z</time>
      </trkpt>
      <trkpt lat="45.56" lon="4.66887">
        <ele>258</ele>
        <time>2018-05-06T09:26:18Z</time>
      </trkpt>
      <trkpt lat="45.55999" lon="4.66889">
        <ele>258.3</ele>
        <time>2018-05-06T09:26:19Z</time>
      </trkpt>
      <trkpt lat="45.55995" lon="4.66898">
        <ele>260.1</ele>
        <time>2018-05-06T09:26:24Z</time>
      </trkpt>
      <trkpt lat="45.55994" lon="4.669">
        <ele>260.4</ele>
        <time>2018-05-06T09:26:25Z</time>
      </trkpt>
      <trkpt lat="45.55988" lon="4.66909">
        <ele>262.5</ele>
        <time>2018-05-06T09:26:31Z</time>
      </trkpt>
      <trkpt lat="45.55985" lon="4.66915">
        <ele>263.5</ele>
        <time>2018-05-06T09:26:35Z</time>
      </trkpt>
      <trkpt lat="45.55971" lon="4.66955">
        <ele>269.4</ele>
        <time>2018-05-06T09:27:00Z</time>
      </trkpt>
      <trkpt lat="45.5597" lon="4.66963">
        <ele>270</ele>
        <time>2018-05-06T09:27:03Z</time>
      </trkpt>
      <trkpt lat="45.55968" lon="4.66973">
        <ele>270.6</ele>
        <time>2018-05-06T09:27:07Z</time>
      </trkpt>
      <trkpt lat="45.55966" lon="4.66987">
        <ele>271.3</ele>
        <time>2018-05-06T09:27:13Z</time>
      </trkpt>
      <trkpt lat="45.55965" lon="4.66995">
        <ele>271.5</ele>
        <time>2018-05-06T09:27:16Z</time>
      </trkpt>
      <trkpt lat="45.55965" lon="4.66997">
        <ele>271.5</ele>
        <time>2018-05-06T09:27:17Z</time>
      </trkpt>
      <trkpt lat="45.55963" lon="4.67012">
        <ele>271.5</ele>
        <time>2018-05-06T09:27:23Z</time>
      </trkpt>
      <trkpt lat="45.55962" lon="4.67017">
        <ele>271.5</ele>
        <time>2018-05-06T09:27:25Z</time>
      </trkpt>
      <trkpt lat="45.55962" lon="4.67021">
        <ele>271.6</ele>
        <time>2018-05-06T09:27:27Z</time>
      </trkpt>
      <trkpt lat="45.55963" lon="4.6703">
        <ele>271.6</ele>
        <time>2018-05-06T09:27:31Z</time>
      </trkpt>
      <trkpt lat="45.55963" lon="4.67034">
        <ele>271.6</ele>
        <time>2018-05-06T09:27:33Z</time>
      </trkpt>
      <trkpt lat="45.55968" lon="4.67145">
        <ele>269.7</ele>
        <time>2018-05-06T09:29:10Z</time>
      </trkpt>
      <trkpt lat="45.55965" lon="4.67151">
        <ele>270</ele>
        <time>2018-05-06T09:29:12Z</time>
      </trkpt>
      <trkpt lat="45.55955" lon="4.67154">
        <ele>270.5</ele>
        <time>2018-05-06T09:29:16Z</time>
      </trkpt>
      <trkpt lat="45.55953" lon="4.67153">
        <ele>270.6</ele>
        <time>2018-05-06T09:29:17Z</time>
      </trkpt>
      <trkpt lat="45.5594" lon="4.67145">
        <ele>271.2</ele>
        <time>2018-05-06T09:29:22Z</time>
      </trkpt>
      <trkpt lat="45.55923" lon="4.6713">
        <ele>272.1</ele>
        <time>2018-05-06T09:29:30Z</time>
      </trkpt>
      <trkpt lat="45.55913" lon="4.67121">
        <ele>272.7</ele>
        <time>2018-05-06T09:29:35Z</time>
      </trkpt>
      <trkpt lat="45.55908" lon="4.67117">
        <ele>273</ele>
        <time>2018-05-06T09:29:38Z</time>
      </trkpt>
      <trkpt lat="45.55894" lon="4.67104">
        <ele>274</ele>
        <time>2018-05-06T09:29:46Z</time>
      </trkpt>
      <trkpt lat="45.55892" lon="4.67103">
        <ele>274.2</ele>
        <time>2018-05-06T09:29:47Z</time>
      </trkpt>
      <trkpt lat="45.55873" lon="4.67092">
        <ele>275.3</ele>
        <time>2018-05-06T09:29:54Z</time>
      </trkpt>
      <trkpt lat="45.55852" lon="4.67084">
        <ele>276.1</ele>
        <time>2018-05-06T09:29:58Z</time>
      </trkpt>
      <trkpt lat="45.55846" lon="4.67083">
        <ele>276.3</ele>
        <time>2018-05-06T09:29:59Z</time>
      </trkpt>
      <trkpt lat="45.55825" lon="4.67084">
        <ele>276.4</ele>
        <time>2018-05-06T09:30:02Z</time>
      </trkpt>
      <trkpt lat="45.55792" lon="4.67082">
        <ele>277.1</ele>
        <time>2018-05-06T09:30:07Z</time>
      </trkpt>
      <trkpt lat="45.55765" lon="4.67075">
        <ele>278.9</ele>
        <time>2018-05-06T09:30:13Z</time>
      </trkpt>
      <trkpt lat="45.55744" lon="4.67063">
        <ele>280.8</ele>
        <time>2018-05-06T09:30:19Z</time>
      </trkpt>
      <trkpt lat="45.55731" lon="4.67054">
        <ele>282.1</ele>
        <time>2018-05-06T09:30:24Z</time>
      </trkpt>
      <trkpt lat="45.55727" lon="4.67049">
        <ele>282.5</ele>
        <time>2018-05-06T09:30:26Z</time>
      </trkpt>
      <trkpt lat="45.55721" lon="4.67042">
        <ele>283.2</ele>
        <time>2018-05-06T09:30:30Z</time>
      </trkpt>
      <trkpt lat="45.5572" lon="4.6704">
        <ele>283.3</ele>
        <time>2018-05-06T09:30:31Z</time>
      </trkpt>
      <trkpt lat="45.55711" lon="4.67035">
        <ele>283.9</ele>
        <time>2018-05-06T09:30:37Z</time>
      </trkpt>
      <trkpt lat="45.55701" lon="4.67035">
        <ele>284.6</ele>
        <time>2018-05-06T09:30:42Z</time>
      </trkpt>
      <trkpt lat="45.55699" lon="4.67035">
        <ele>284.8</ele>
        <time>2018-05-06T09:30:43Z</time>
      </trkpt>
      <trkpt lat="45.55687" lon="4.67033">
        <ele>285.9</ele>
        <time>2018-05-06T09:30:48Z</time>
      </trkpt>
      <trkpt lat="45.55685" lon="4.67032">
        <ele>286.1</ele>
        <time>2018-05-06T09:30:49Z</time>
      </trkpt>
      <trkpt lat="45.55676" lon="4.67029">
        <ele>287</ele>
        <time>2018-05-06T09:30:53Z</time>
      </trkpt>
      <trkpt lat="45.55668" lon="4.67026">
        <ele>287.8</ele>
        <time>2018-05-06T09:30:57Z</time>
      </trkpt>
      <trkpt lat="45.55663" lon="4.67025">
        <ele>288.3</ele>
        <time>2018-05-06T09:31:00Z</time>
      </trkpt>
      <trkpt lat="45.55657" lon="4.67022">
        <ele>288.9</ele>
        <time>2018-05-06T09:31:04Z</time>
      </trkpt>
      <trkpt lat="45.55652" lon="4.6702">
        <ele>289.5</ele>
        <time>2018-05-06T09:31:08Z</time>
      </trkpt>
      <trkpt lat="45.55646" lon="4.67017">
        <ele>290</ele>
        <time>2018-05-06T09:31:12Z</time>
      </trkpt>
      <trkpt lat="45.55642" lon="4.67015">
        <ele>290.5</ele>
        <time>2018-05-06T09:31:15Z</time>
      </trkpt>
      <trkpt lat="45.55637" lon="4.67012">
        <ele>290.9</ele>
        <time>2018-05-06T09:31:18Z</time>
      </trkpt>
      <trkpt lat="45.55634" lon="4.67011">
        <ele>291.1</ele>
        <time>2018-05-06T09:31:20Z</time>
      </trkpt>
      <trkpt lat="45.55631" lon="4.67011">
        <ele>291.4</ele>
        <time>2018-05-06T09:31:22Z</time>
      </trkpt>
      <trkpt lat="45.55626" lon="4.67008">
        <ele>291.9</ele>
        <time>2018-05-06T09:31:26Z</time>
      </trkpt>
      <trkpt lat="45.55622" lon="4.67007">
        <ele>292.3</ele>
        <time>2018-05-06T09:31:29Z</time>
      </trkpt>
      <trkpt lat="45.55614" lon="4.67007">
        <ele>292.9</ele>
        <time>2018-05-06T09:31:34Z</time>
      </trkpt>
      <trkpt lat="45.5561" lon="4.67007">
        <ele>293.2</ele>
        <time>2018-05-06T09:31:36Z</time>
      </trkpt>
      <trkpt lat="45.55598" lon="4.67006">
        <ele>294.1</ele>
        <time>2018-05-06T09:31:43Z</time>
      </trkpt>
      <trkpt lat="45.55596" lon="4.67006">
        <ele>294.3</ele>
        <time>2018-05-06T09:31:44Z</time>
      </trkpt>
      <trkpt lat="45.55588" lon="4.67006">
        <ele>295</ele>
        <time>2018-05-06T09:31:49Z</time>
      </trkpt>
      <trkpt lat="45.55584" lon="4.67006">
        <ele>295.2</ele>
        <time>2018-05-06T09:31:51Z</time>
      </trkpt>
      <trkpt lat="45.55581" lon="4.67007">
        <ele>295.5</ele>
        <time>2018-05-06T09:31:53Z</time>
      </trkpt>
      <trkpt lat="45.55574" lon="4.67008">
        <ele>296</ele>
        <time>2018-05-06T09:31:57Z</time>
      </trkpt>
      <trkpt lat="45.55569" lon="4.67008">
        <ele>296.4</ele>
        <time>2018-05-06T09:32:00Z</time>
      </trkpt>
      <trkpt lat="45.55563" lon="4.67009">
        <ele>297</ele>
        <time>2018-05-06T09:32:04Z</time>
      </trkpt>
      <trkpt lat="45.55556" lon="4.67009">
        <ele>297.5</ele>
        <time>2018-05-06T09:32:08Z</time>
      </trkpt>
      <trkpt lat="45.55544" lon="4.67009">
        <ele>298.4</ele>
        <time>2018-05-06T09:32:16Z</time>
      </trkpt>
      <trkpt lat="45.55534" lon="4.67012">
        <ele>299.3</ele>
        <time>2018-05-06T09:32:23Z</time>
      </trkpt>
      <trkpt lat="45.55527" lon="4.67012">
        <ele>299.7</ele>
        <time>2018-05-06T09:32:27Z</time>
      </trkpt>
      <trkpt lat="45.55523" lon="4.67013">
        <ele>299.9</ele>
        <time>2018-05-06T09:32:29Z</time>
      </trkpt>
      <trkpt lat="45.55518" lon="4.67012">
        <ele>300.2</ele>
        <time>2018-05-06T09:32:32Z</time>
      </trkpt>
      <trkpt lat="45.5551" lon="4.6701">
        <ele>300.5</ele>
        <time>2018-05-06T09:32:37Z</time>
      </trkpt>
      <trkpt lat="45.55507" lon="4.6701">
        <ele>300.7</ele>
        <time>2018-05-06T09:32:39Z</time>
      </trkpt>
      <trkpt lat="45.55498" lon="4.67003">
        <ele>301.7</ele>
        <time>2018-05-06T09:32:44Z</time>
      </trkpt>
      <trkpt lat="45.5549" lon="4.66992">
        <ele>304.5</ele>
        <time>2018-05-06T09:32:50Z</time>
      </trkpt>
      <trkpt lat="45.55476" lon="4.66985">
        <ele>305</ele>
        <time>2018-05-06T09:32:56Z</time>
      </trkpt>
      <trkpt lat="45.55474" lon="4.66984">
        <ele>305</ele>
        <time>2018-05-06T09:32:57Z</time>
      </trkpt>
      <trkpt lat="45.55463" lon="4.66983">
        <ele>305</ele>
        <time>2018-05-06T09:33:02Z</time>
      </trkpt>
      <trkpt lat="45.5546" lon="4.66982">
        <ele>305</ele>
        <time>2018-05-06T09:33:03Z</time>
      </trkpt>
      <trkpt lat="45.55446" lon="4.66973">
        <ele>305</ele>
        <time>2018-05-06T09:33:09Z</time>
      </trkpt>
      <trkpt lat="45.5543" lon="4.66951">
        <ele>305</ele>
        <time>2018-05-06T09:33:17Z</time>
      </trkpt>
      <trkpt lat="45.55417" lon="4.66926">
        <ele>305</ele>
        <time>2018-05-06T09:33:25Z</time>
      </trkpt>
      <trkpt lat="45.55408" lon="4.66907">
        <ele>305</ele>
        <time>2018-05-06T09:33:31Z</time>
      </trkpt>
      <trkpt lat="45.55404" lon="4.669">
        <ele>305</ele>
        <time>2018-05-06T09:33:33Z</time>
      </trkpt>
      <trkpt lat="45.55383" lon="4.66869">
        <ele>305</ele>
        <time>2018-05-06T09:33:41Z</time>
      </trkpt>
      <trkpt lat="45.5537" lon="4.66851">
        <ele>305</ele>
        <time>2018-05-06T09:33:46Z</time>
      </trkpt>
      <trkpt lat="45.55362" lon="4.6684">
        <ele>305</ele>
        <time>2018-05-06T09:33:49Z</time>
      </trkpt>
      <trkpt lat="45.55343" lon="4.66806">
        <ele>305.3</ele>
        <time>2018-05-06T09:33:57Z</time>
      </trkpt>
      <trkpt lat="45.55338" lon="4.66784">
        <ele>305.3</ele>
        <time>2018-05-06T09:34:02Z</time>
      </trkpt>
      <trkpt lat="45.55337" lon="4.66775">
        <ele>305.3</ele>
        <time>2018-05-06T09:34:04Z</time>
      </trkpt>
      <trkpt lat="45.55336" lon="4.66754">
        <ele>305</ele>
        <time>2018-05-06T09:34:08Z</time>
      </trkpt>
      <trkpt lat="45.55338" lon="4.66728">
        <ele>303.4</ele>
        <time>2018-05-06T09:34:12Z</time>
      </trkpt>
      <trkpt lat="45.5534" lon="4.6672">
        <ele>302.9</ele>
        <time>2018-05-06T09:34:13Z</time>
      </trkpt>
      <trkpt lat="45.55346" lon="4.6669">
        <ele>301.3</ele>
        <time>2018-05-06T09:34:16Z</time>
      </trkpt>
      <trkpt lat="45.55347" lon="4.66679">
        <ele>300.8</ele>
        <time>2018-05-06T09:34:17Z</time>
      </trkpt>
      <trkpt lat="45.55347" lon="4.66669">
        <ele>300.3</ele>
        <time>2018-05-06T09:34:18Z</time>
      </trkpt>
      <trkpt lat="45.55344" lon="4.66647">
        <ele>299</ele>
        <time>2018-05-06T09:34:20Z</time>
      </trkpt>
      <trkpt lat="45.55341" lon="4.66638">
        <ele>298.4</ele>
        <time>2018-05-06T09:34:21Z</time>
      </trkpt>
      <trkpt lat="45.55333" lon="4.66628">
        <ele>297.4</ele>
        <time>2018-05-06T09:34:23Z</time>
      </trkpt>
      <trkpt lat="45.55329" lon="4.66626">
        <ele>297</ele>
        <time>2018-05-06T09:34:24Z</time>
      </trkpt>
      <trkpt lat="45.5532" lon="4.66626">
        <ele>296.3</ele>
        <time>2018-05-06T09:34:26Z</time>
      </trkpt>
      <trkpt lat="45.55312" lon="4.66627">
        <ele>295.6</ele>
        <time>2018-05-06T09:34:28Z</time>
      </trkpt>
      <trkpt lat="45.55308" lon="4.66627">
        <ele>295.3</ele>
        <time>2018-05-06T09:34:29Z</time>
      </trkpt>
      <trkpt lat="45.55305" lon="4.66623">
        <ele>295.2</ele>
        <time>2018-05-06T09:34:30Z</time>
      </trkpt>
      <trkpt lat="45.55305" lon="4.66618">
        <ele>295.4</ele>
        <time>2018-05-06T09:34:31Z</time>
      </trkpt>
      <trkpt lat="45.55305" lon="4.66613">
        <ele>295.5</ele>
        <time>2018-05-06T09:34:32Z</time>
      </trkpt>
      <trkpt lat="45.55307" lon="4.66601">
        <ele>295.8</ele>
        <time>2018-05-06T09:34:34Z</time>
      </trkpt>
      <trkpt lat="45.55307" lon="4.66594">
        <ele>296</ele>
        <time>2018-05-06T09:34:35Z</time>
      </trkpt>
      <trkpt lat="45.55307" lon="4.66588">
        <ele>296.1</ele>
        <time>2018-05-06T09:34:36Z</time>
      </trkpt>
      <trkpt lat="45.553" lon="4.6657">
        <ele>296.6</ele>
        <time>2018-05-06T09:34:39Z</time>
      </trkpt>
      <trkpt lat="45.55293" lon="4.66553">
        <ele>297</ele>
        <time>2018-05-06T09:34:42Z</time>
      </trkpt>
      <trkpt lat="45.55286" lon="4.66533">
        <ele>297.7</ele>
        <time>2018-05-06T09:34:46Z</time>
      </trkpt>
      <trkpt lat="45.55274" lon="4.6651">
        <ele>298.8</ele>
        <time>2018-05-06T09:34:52Z</time>
      </trkpt>
      <trkpt lat="45.55272" lon="4.66507">
        <ele>298.9</ele>
        <time>2018-05-06T09:34:53Z</time>
      </trkpt>
      <trkpt lat="45.55266" lon="4.66493">
        <ele>299.9</ele>
        <time>2018-05-06T09:34:57Z</time>
      </trkpt>
      <trkpt lat="45.55258" lon="4.66475">
        <ele>301.3</ele>
        <time>2018-05-06T09:35:02Z</time>
      </trkpt>
      <trkpt lat="45.5525" lon="4.66455">
        <ele>302.8</ele>
        <time>2018-05-06T09:35:09Z</time>
      </trkpt>
      <trkpt lat="45.55249" lon="4.66452">
        <ele>303</ele>
        <time>2018-05-06T09:35:10Z</time>
      </trkpt>
      <trkpt lat="45.55246" lon="4.66445">
        <ele>303.6</ele>
        <time>2018-05-06T09:35:13Z</time>
      </trkpt>
      <trkpt lat="45.55243" lon="4.66436">
        <ele>304.3</ele>
        <time>2018-05-06T09:35:17Z</time>
      </trkpt>
      <trkpt lat="45.55239" lon="4.66428">
        <ele>305.1</ele>
        <time>2018-05-06T09:35:21Z</time>
      </trkpt>
      <trkpt lat="45.55234" lon="4.66418">
        <ele>306</ele>
        <time>2018-05-06T09:35:26Z</time>
      </trkpt>
      <trkpt lat="45.55227" lon="4.6641">
        <ele>306.9</ele>
        <time>2018-05-06T09:35:31Z</time>
      </trkpt>
      <trkpt lat="45.55222" lon="4.66403">
        <ele>307.6</ele>
        <time>2018-05-06T09:35:35Z</time>
      </trkpt>
      <trkpt lat="45.55214" lon="4.66392">
        <ele>308.8</ele>
        <time>2018-05-06T09:35:42Z</time>
      </trkpt>
      <trkpt lat="45.55205" lon="4.66378">
        <ele>310.1</ele>
        <time>2018-05-06T09:35:50Z</time>
      </trkpt>
      <trkpt lat="45.55203" lon="4.66377">
        <ele>310.3</ele>
        <time>2018-05-06T09:35:51Z</time>
      </trkpt>
      <trkpt lat="45.55195" lon="4.66365">
        <ele>311.1</ele>
        <time>2018-05-06T09:35:58Z</time>
      </trkpt>
      <trkpt lat="45.55192" lon="4.6636">
        <ele>311.5</ele>
        <time>2018-05-06T09:36:01Z</time>
      </trkpt>
      <trkpt lat="45.55184" lon="4.66351">
        <ele>312.1</ele>
        <time>2018-05-06T09:36:07Z</time>
      </trkpt>
      <trkpt lat="45.55182" lon="4.6635">
        <ele>312.2</ele>
        <time>2018-05-06T09:36:08Z</time>
      </trkpt>
      <trkpt lat="45.55172" lon="4.66341">
        <ele>312.9</ele>
        <time>2018-05-06T09:36:15Z</time>
      </trkpt>
      <trkpt lat="45.55169" lon="4.66338">
        <ele>313.1</ele>
        <time>2018-05-06T09:36:17Z</time>
      </trkpt>
      <trkpt lat="45.5516" lon="4.66329">
        <ele>313.6</ele>
        <time>2018-05-06T09:36:23Z</time>
      </trkpt>
      <trkpt lat="45.55154" lon="4.66319">
        <ele>314.1</ele>
        <time>2018-05-06T09:36:28Z</time>
      </trkpt>
      <trkpt lat="45.5515" lon="4.66313">
        <ele>314.5</ele>
        <time>2018-05-06T09:36:31Z</time>
      </trkpt>
      <trkpt lat="45.55142" lon="4.66298">
        <ele>315.1</ele>
        <time>2018-05-06T09:36:37Z</time>
      </trkpt>
      <trkpt lat="45.55138" lon="4.66289">
        <ele>315.4</ele>
        <time>2018-05-06T09:36:40Z</time>
      </trkpt>
      <trkpt lat="45.55134" lon="4.6628">
        <ele>315.7</ele>
        <time>2018-05-06T09:36:43Z</time>
      </trkpt>
      <trkpt lat="45.55126" lon="4.66262">
        <ele>316.1</ele>
        <time>2018-05-06T09:36:49Z</time>
      </trkpt>
      <trkpt lat="45.55122" lon="4.66252">
        <ele>316.2</ele>
        <time>2018-05-06T09:36:52Z</time>
      </trkpt>
      <trkpt lat="45.55113" lon="4.66232">
        <ele>316.6</ele>
        <time>2018-05-06T09:36:58Z</time>
      </trkpt>
      <trkpt lat="45.55111" lon="4.66229">
        <ele>316.6</ele>
        <time>2018-05-06T09:36:59Z</time>
      </trkpt>
      <trkpt lat="45.55106" lon="4.66215">
        <ele>316.9</ele>
        <time>2018-05-06T09:37:03Z</time>
      </trkpt>
      <trkpt lat="45.55097" lon="4.66195">
        <ele>317.4</ele>
        <time>2018-05-06T09:37:09Z</time>
      </trkpt>
      <trkpt lat="45.55096" lon="4.66191">
        <ele>317.5</ele>
        <time>2018-05-06T09:37:10Z</time>
      </trkpt>
      <trkpt lat="45.55088" lon="4.66171">
        <ele>317.8</ele>
        <time>2018-05-06T09:37:16Z</time>
      </trkpt>
      <trkpt lat="45.5508" lon="4.66154">
        <ele>318</ele>
        <time>2018-05-06T09:37:22Z</time>
      </trkpt>
      <trkpt lat="45.55074" lon="4.66136">
        <ele>318</ele>
        <time>2018-05-06T09:37:28Z</time>
      </trkpt>
      <trkpt lat="45.55076" lon="4.66133">
        <ele>318</ele>
        <time>2018-05-06T09:37:29Z</time>
      </trkpt>
      <trkpt lat="45.5508" lon="4.66128">
        <ele>318.1</ele>
        <time>2018-05-06T09:37:31Z</time>
      </trkpt>
      <trkpt lat="45.55089" lon="4.6612">
        <ele>318.1</ele>
        <time>2018-05-06T09:37:35Z</time>
      </trkpt>
      <trkpt lat="45.55103" lon="4.66106">
        <ele>318.1</ele>
        <time>2018-05-06T09:37:40Z</time>
      </trkpt>
      <trkpt lat="45.55124" lon="4.66085">
        <ele>317.7</ele>
        <time>2018-05-06T09:37:46Z</time>
      </trkpt>
      <trkpt lat="45.55142" lon="4.66064">
        <ele>317</ele>
        <time>2018-05-06T09:37:50Z</time>
      </trkpt>
      <trkpt lat="45.55151" lon="4.66052">
        <ele>316.7</ele>
        <time>2018-05-06T09:37:52Z</time>
      </trkpt>
      <trkpt lat="45.5516" lon="4.66041">
        <ele>316.4</ele>
        <time>2018-05-06T09:37:54Z</time>
      </trkpt>
      <trkpt lat="45.55171" lon="4.66032">
        <ele>316.1</ele>
        <time>2018-05-06T09:37:56Z</time>
      </trkpt>
      <trkpt lat="45.55181" lon="4.66027">
        <ele>315.9</ele>
        <time>2018-05-06T09:37:58Z</time>
      </trkpt>
      <trkpt lat="45.55191" lon="4.6602">
        <ele>315.7</ele>
        <time>2018-05-06T09:38:00Z</time>
      </trkpt>
      <trkpt lat="45.55209" lon="4.66012">
        <ele>315.7</ele>
        <time>2018-05-06T09:38:03Z</time>
      </trkpt>
      <trkpt lat="45.55223" lon="4.6601">
        <ele>315.9</ele>
        <time>2018-05-06T09:38:05Z</time>
      </trkpt>
      <trkpt lat="45.55235" lon="4.66006">
        <ele>316.1</ele>
        <time>2018-05-06T09:38:07Z</time>
      </trkpt>
      <trkpt lat="45.55243" lon="4.66001">
        <ele>316.2</ele>
        <time>2018-05-06T09:38:09Z</time>
      </trkpt>
      <trkpt lat="45.55247" lon="4.65998">
        <ele>316.2</ele>
        <time>2018-05-06T09:38:10Z</time>
      </trkpt>
      <trkpt lat="45.5526" lon="4.6599">
        <ele>316.5</ele>
        <time>2018-05-06T09:38:15Z</time>
      </trkpt>
      <trkpt lat="45.55262" lon="4.65989">
        <ele>316.5</ele>
        <time>2018-05-06T09:38:16Z</time>
      </trkpt>
      <trkpt lat="45.55272" lon="4.65984">
        <ele>316.8</ele>
        <time>2018-05-06T09:38:20Z</time>
      </trkpt>
      <trkpt lat="45.5528" lon="4.65981">
        <ele>317</ele>
        <time>2018-05-06T09:38:23Z</time>
      </trkpt>
      <trkpt lat="45.55282" lon="4.65979">
        <ele>317.1</ele>
        <time>2018-05-06T09:38:24Z</time>
      </trkpt>
      <trkpt lat="45.55287" lon="4.65977">
        <ele>317.2</ele>
        <time>2018-05-06T09:38:26Z</time>
      </trkpt>
      <trkpt lat="45.55295" lon="4.65972">
        <ele>317.5</ele>
        <time>2018-05-06T09:38:29Z</time>
      </trkpt>
      <trkpt lat="45.55306" lon="4.65968">
        <ele>317.9</ele>
        <time>2018-05-06T09:38:33Z</time>
      </trkpt>
      <trkpt lat="45.55311" lon="4.65965">
        <ele>318.1</ele>
        <time>2018-05-06T09:38:35Z</time>
      </trkpt>
      <trkpt lat="45.5532" lon="4.65958">
        <ele>318.6</ele>
        <time>2018-05-06T09:38:39Z</time>
      </trkpt>
      <trkpt lat="45.55324" lon="4.65952">
        <ele>318.8</ele>
        <time>2018-05-06T09:38:41Z</time>
      </trkpt>
      <trkpt lat="45.55329" lon="4.65933">
        <ele>319.3</ele>
        <time>2018-05-06T09:38:46Z</time>
      </trkpt>
      <trkpt lat="45.55332" lon="4.65915">
        <ele>319.8</ele>
        <time>2018-05-06T09:38:50Z</time>
      </trkpt>
      <trkpt lat="45.55336" lon="4.65894">
        <ele>320.5</ele>
        <time>2018-05-06T09:38:55Z</time>
      </trkpt>
      <trkpt lat="45.55344" lon="4.65853">
        <ele>321.9</ele>
        <time>2018-05-06T09:39:04Z</time>
      </trkpt>
      <trkpt lat="45.55348" lon="4.6582">
        <ele>322.9</ele>
        <time>2018-05-06T09:39:11Z</time>
      </trkpt>
      <trkpt lat="45.55349" lon="4.65811">
        <ele>323.2</ele>
        <time>2018-05-06T09:39:13Z</time>
      </trkpt>
      <trkpt lat="45.55354" lon="4.65772">
        <ele>324.9</ele>
        <time>2018-05-06T09:39:20Z</time>
      </trkpt>
      <trkpt lat="45.55359" lon="4.65733">
        <ele>327.4</ele>
        <time>2018-05-06T09:39:27Z</time>
      </trkpt>
      <trkpt lat="45.55361" lon="4.65721">
        <ele>328.1</ele>
        <time>2018-05-06T09:39:29Z</time>
      </trkpt>
      <trkpt lat="45.55366" lon="4.65686">
        <ele>329.9</ele>
        <time>2018-05-06T09:39:35Z</time>
      </trkpt>
      <trkpt lat="45.5537" lon="4.65659">
        <ele>330.9</ele>
        <time>2018-05-06T09:39:40Z</time>
      </trkpt>
      <trkpt lat="45.55371" lon="4.65647">
        <ele>331.3</ele>
        <time>2018-05-06T09:39:42Z</time>
      </trkpt>
      <trkpt lat="45.55372" lon="4.65598">
        <ele>331.4</ele>
        <time>2018-05-06T09:39:50Z</time>
      </trkpt>
      <trkpt lat="45.55377" lon="4.65555">
        <ele>330.9</ele>
        <time>2018-05-06T09:39:57Z</time>
      </trkpt>
      <trkpt lat="45.55384" lon="4.65508">
        <ele>329.1</ele>
        <time>2018-05-06T09:40:04Z</time>
      </trkpt>
      <trkpt lat="45.55388" lon="4.65495">
        <ele>328.4</ele>
        <time>2018-05-06T09:40:06Z</time>
      </trkpt>
      <trkpt lat="45.55398" lon="4.65479">
        <ele>327.6</ele>
        <time>2018-05-06T09:40:09Z</time>
      </trkpt>
      <trkpt lat="45.55408" lon="4.65463">
        <ele>327.4</ele>
        <time>2018-05-06T09:40:12Z</time>
      </trkpt>
      <trkpt lat="45.55412" lon="4.65451">
        <ele>327.5</ele>
        <time>2018-05-06T09:40:14Z</time>
      </trkpt>
      <trkpt lat="45.5542" lon="4.65434">
        <ele>328</ele>
        <time>2018-05-06T09:40:17Z</time>
      </trkpt>
      <trkpt lat="45.55423" lon="4.65429">
        <ele>328.4</ele>
        <time>2018-05-06T09:40:18Z</time>
      </trkpt>
      <trkpt lat="45.55426" lon="4.65424">
        <ele>328.8</ele>
        <time>2018-05-06T09:40:19Z</time>
      </trkpt>
      <trkpt lat="45.55442" lon="4.65395">
        <ele>331.1</ele>
        <time>2018-05-06T09:40:25Z</time>
      </trkpt>
      <trkpt lat="45.55456" lon="4.6537">
        <ele>332.5</ele>
        <time>2018-05-06T09:40:30Z</time>
      </trkpt>
      <trkpt lat="45.55468" lon="4.65352">
        <ele>333</ele>
        <time>2018-05-06T09:40:34Z</time>
      </trkpt>
      <trkpt lat="45.55471" lon="4.65348">
        <ele>333</ele>
        <time>2018-05-06T09:40:35Z</time>
      </trkpt>
      <trkpt lat="45.55492" lon="4.65317">
        <ele>333.9</ele>
        <time>2018-05-06T09:40:42Z</time>
      </trkpt>
      <trkpt lat="45.55498" lon="4.65308">
        <ele>334.1</ele>
        <time>2018-05-06T09:40:44Z</time>
      </trkpt>
      <trkpt lat="45.55504" lon="4.653">
        <ele>334.4</ele>
        <time>2018-05-06T09:40:46Z</time>
      </trkpt>
      <trkpt lat="45.55521" lon="4.65276">
        <ele>335.2</ele>
        <time>2018-05-06T09:40:52Z</time>
      </trkpt>
      <trkpt lat="45.5553" lon="4.65264">
        <ele>335.6</ele>
        <time>2018-05-06T09:40:55Z</time>
      </trkpt>
      <trkpt lat="45.55544" lon="4.65245">
        <ele>336.4</ele>
        <time>2018-05-06T09:41:00Z</time>
      </trkpt>
      <trkpt lat="45.55558" lon="4.65226">
        <ele>337.1</ele>
        <time>2018-05-06T09:41:05Z</time>
      </trkpt>
      <trkpt lat="45.55572" lon="4.65207">
        <ele>337.7</ele>
        <time>2018-05-06T09:41:10Z</time>
      </trkpt>
      <trkpt lat="45.55574" lon="4.65203">
        <ele>337.8</ele>
        <time>2018-05-06T09:41:11Z</time>
      </trkpt>
      <trkpt lat="45.55589" lon="4.65182">
        <ele>338.5</ele>
        <time>2018-05-06T09:41:17Z</time>
      </trkpt>
      <trkpt lat="45.55591" lon="4.65177">
        <ele>338.6</ele>
        <time>2018-05-06T09:41:18Z</time>
      </trkpt>
      <trkpt lat="45.55604" lon="4.65158">
        <ele>339.5</ele>
        <time>2018-05-06T09:41:23Z</time>
      </trkpt>
      <trkpt lat="45.55606" lon="4.65154">
        <ele>339.7</ele>
        <time>2018-05-06T09:41:24Z</time>
      </trkpt>
      <trkpt lat="45.55618" lon="4.65126">
        <ele>340.8</ele>
        <time>2018-05-06T09:41:31Z</time>
      </trkpt>
      <trkpt lat="45.55619" lon="4.65122">
        <ele>340.9</ele>
        <time>2018-05-06T09:41:32Z</time>
      </trkpt>
      <trkpt lat="45.5563" lon="4.65097">
        <ele>341.1</ele>
        <time>2018-05-06T09:41:38Z</time>
      </trkpt>
      <trkpt lat="45.55638" lon="4.65077">
        <ele>341.1</ele>
        <time>2018-05-06T09:41:43Z</time>
      </trkpt>
      <trkpt lat="45.55641" lon="4.65068">
        <ele>341.1</ele>
        <time>2018-05-06T09:41:45Z</time>
      </trkpt>
      <trkpt lat="45.55653" lon="4.65041">
        <ele>341</ele>
        <time>2018-05-06T09:41:52Z</time>
      </trkpt>
      <trkpt lat="45.55667" lon="4.65008">
        <ele>341.5</ele>
        <time>2018-05-06T09:42:00Z</time>
      </trkpt>
      <trkpt lat="45.55677" lon="4.64986">
        <ele>342</ele>
        <time>2018-05-06T09:42:05Z</time>
      </trkpt>
      <trkpt lat="45.55692" lon="4.6495">
        <ele>342.9</ele>
        <time>2018-05-06T09:42:12Z</time>
      </trkpt>
      <trkpt lat="45.55695" lon="4.64945">
        <ele>343.1</ele>
        <time>2018-05-06T09:42:13Z</time>
      </trkpt>
      <trkpt lat="45.55719" lon="4.64898">
        <ele>344.4</ele>
        <time>2018-05-06T09:42:22Z</time>
      </trkpt>
      <trkpt lat="45.55731" lon="4.64875">
        <ele>345.1</ele>
        <time>2018-05-06T09:42:27Z</time>
      </trkpt>
      <trkpt lat="45.55736" lon="4.64866">
        <ele>345.4</ele>
        <time>2018-05-06T09:42:29Z</time>
      </trkpt>
      <trkpt lat="45.55755" lon="4.64829">
        <ele>346.8</ele>
        <time>2018-05-06T09:42:37Z</time>
      </trkpt>
      <trkpt lat="45.5576" lon="4.6482">
        <ele>347.1</ele>
        <time>2018-05-06T09:42:39Z</time>
      </trkpt>
      <trkpt lat="45.55763" lon="4.64809">
        <ele>347.4</ele>
        <time>2018-05-06T09:42:41Z</time>
      </trkpt>
      <trkpt lat="45.55765" lon="4.64798">
        <ele>347.7</ele>
        <time>2018-05-06T09:42:43Z</time>
      </trkpt>
      <trkpt lat="45.55766" lon="4.64792">
        <ele>347.8</ele>
        <time>2018-05-06T09:42:44Z</time>
      </trkpt>
      <trkpt lat="45.55767" lon="4.64774">
        <ele>348.1</ele>
        <time>2018-05-06T09:42:47Z</time>
      </trkpt>
      <trkpt lat="45.55769" lon="4.64757">
        <ele>348.3</ele>
        <time>2018-05-06T09:42:50Z</time>
      </trkpt>
      <trkpt lat="45.5577" lon="4.64735">
        <ele>348.6</ele>
        <time>2018-05-06T09:42:54Z</time>
      </trkpt>
      <trkpt lat="45.55772" lon="4.64718">
        <ele>349.1</ele>
        <time>2018-05-06T09:42:57Z</time>
      </trkpt>
      <trkpt lat="45.55774" lon="4.64702">
        <ele>349.4</ele>
        <time>2018-05-06T09:43:00Z</time>
      </trkpt>
      <trkpt lat="45.55777" lon="4.64677">
        <ele>349.8</ele>
        <time>2018-05-06T09:43:05Z</time>
      </trkpt>
      <trkpt lat="45.55779" lon="4.64669">
        <ele>350.1</ele>
        <time>2018-05-06T09:43:07Z</time>
      </trkpt>
      <trkpt lat="45.55783" lon="4.64646">
        <ele>350.7</ele>
        <time>2018-05-06T09:43:12Z</time>
      </trkpt>
      <trkpt lat="45.55789" lon="4.64623">
        <ele>351</ele>
        <time>2018-05-06T09:43:17Z</time>
      </trkpt>
      <trkpt lat="45.55791" lon="4.64612">
        <ele>351.2</ele>
        <time>2018-05-06T09:43:19Z</time>
      </trkpt>
      <trkpt lat="45.55797" lon="4.64578">
        <ele>351.8</ele>
        <time>2018-05-06T09:43:26Z</time>
      </trkpt>
      <trkpt lat="45.55797" lon="4.64564">
        <ele>351.8</ele>
        <time>2018-05-06T09:43:29Z</time>
      </trkpt>
      <trkpt lat="45.55797" lon="4.64544">
        <ele>351.9</ele>
        <time>2018-05-06T09:43:33Z</time>
      </trkpt>
      <trkpt lat="45.55798" lon="4.64503">
        <ele>352</ele>
        <time>2018-05-06T09:43:40Z</time>
      </trkpt>
      <trkpt lat="45.55798" lon="4.64497">
        <ele>352.1</ele>
        <time>2018-05-06T09:43:41Z</time>
      </trkpt>
      <trkpt lat="45.55799" lon="4.64451">
        <ele>352.3</ele>
        <time>2018-05-06T09:43:49Z</time>
      </trkpt>
      <trkpt lat="45.55799" lon="4.64445">
        <ele>352.4</ele>
        <time>2018-05-06T09:43:50Z</time>
      </trkpt>
      <trkpt lat="45.55798" lon="4.64416">
        <ele>353</ele>
        <time>2018-05-06T09:43:55Z</time>
      </trkpt>
      <trkpt lat="45.55797" lon="4.64411">
        <ele>353.1</ele>
        <time>2018-05-06T09:43:56Z</time>
      </trkpt>
      <trkpt lat="45.55795" lon="4.64379">
        <ele>353.8</ele>
        <time>2018-05-06T09:44:02Z</time>
      </trkpt>
      <trkpt lat="45.55795" lon="4.64362">
        <ele>354.1</ele>
        <time>2018-05-06T09:44:05Z</time>
      </trkpt>
      <trkpt lat="45.55795" lon="4.64323">
        <ele>354.2</ele>
        <time>2018-05-06T09:44:12Z</time>
      </trkpt>
      <trkpt lat="45.55794" lon="4.64318">
        <ele>354.2</ele>
        <time>2018-05-06T09:44:13Z</time>
      </trkpt>
      <trkpt lat="45.55794" lon="4.64284">
        <ele>354.1</ele>
        <time>2018-05-06T09:44:19Z</time>
      </trkpt>
      <trkpt lat="45.55798" lon="4.64243">
        <ele>354</ele>
        <time>2018-05-06T09:44:26Z</time>
      </trkpt>
      <trkpt lat="45.55799" lon="4.64237">
        <ele>354</ele>
        <time>2018-05-06T09:44:27Z</time>
      </trkpt>
      <trkpt lat="45.55808" lon="4.64184">
        <ele>353.6</ele>
        <time>2018-05-06T09:44:35Z</time>
      </trkpt>
      <trkpt lat="45.55809" lon="4.64177">
        <ele>353.5</ele>
        <time>2018-05-06T09:44:36Z</time>
      </trkpt>
      <trkpt lat="45.55809" lon="4.64169">
        <ele>353.5</ele>
        <time>2018-05-06T09:44:37Z</time>
      </trkpt>
      <trkpt lat="45.55809" lon="4.64161">
        <ele>353.4</ele>
        <time>2018-05-06T09:44:38Z</time>
      </trkpt>
      <trkpt lat="45.55808" lon="4.64145">
        <ele>353.2</ele>
        <time>2018-05-06T09:44:40Z</time>
      </trkpt>
      <trkpt lat="45.55805" lon="4.6412">
        <ele>352.7</ele>
        <time>2018-05-06T09:44:43Z</time>
      </trkpt>
      <trkpt lat="45.55805" lon="4.64114">
        <ele>352.6</ele>
        <time>2018-05-06T09:44:44Z</time>
      </trkpt>
      <trkpt lat="45.55806" lon="4.6411">
        <ele>352.5</ele>
        <time>2018-05-06T09:44:45Z</time>
      </trkpt>
      <trkpt lat="45.55808" lon="4.64101">
        <ele>351.9</ele>
        <time>2018-05-06T09:44:49Z</time>
      </trkpt>
      <trkpt lat="45.5581" lon="4.6409">
        <ele>350.7</ele>
        <time>2018-05-06T09:44:51Z</time>
      </trkpt>
      <trkpt lat="45.55812" lon="4.64078">
        <ele>349.4</ele>
        <time>2018-05-06T09:44:53Z</time>
      </trkpt>
      <trkpt lat="45.55816" lon="4.64053">
        <ele>350.5</ele>
        <time>2018-05-06T09:44:57Z</time>
      </trkpt>
      <trkpt lat="45.55823" lon="4.64045">
        <ele>351.4</ele>
        <time>2018-05-06T09:44:59Z</time>
      </trkpt>
      <trkpt lat="45.55835" lon="4.64035">
        <ele>352.6</ele>
        <time>2018-05-06T09:45:02Z</time>
      </trkpt>
      <trkpt lat="45.55851" lon="4.64023">
        <ele>353</ele>
        <time>2018-05-06T09:45:06Z</time>
      </trkpt>
      <trkpt lat="45.55881" lon="4.63998">
        <ele>351.2</ele>
        <time>2018-05-06T09:45:13Z</time>
      </trkpt>
      <trkpt lat="45.55889" lon="4.63991">
        <ele>350.7</ele>
        <time>2018-05-06T09:45:15Z</time>
      </trkpt>
      <trkpt lat="45.55916" lon="4.63965">
        <ele>348</ele>
        <time>2018-05-06T09:45:22Z</time>
      </trkpt>
      <trkpt lat="45.5593" lon="4.63939">
        <ele>348</ele>
        <time>2018-05-06T09:45:27Z</time>
      </trkpt>
      <trkpt lat="45.55943" lon="4.63911">
        <ele>348</ele>
        <time>2018-05-06T09:45:32Z</time>
      </trkpt>
      <trkpt lat="45.55951" lon="4.63892">
        <ele>348</ele>
        <time>2018-05-06T09:45:35Z</time>
      </trkpt>
      <trkpt lat="45.55956" lon="4.63879">
        <ele>348</ele>
        <time>2018-05-06T09:45:37Z</time>
      </trkpt>
      <trkpt lat="45.55972" lon="4.63855">
        <ele>348</ele>
        <time>2018-05-06T09:45:42Z</time>
      </trkpt>
      <trkpt lat="45.55976" lon="4.63852">
        <ele>348</ele>
        <time>2018-05-06T09:45:43Z</time>
      </trkpt>
      <trkpt lat="45.55991" lon="4.63838">
        <ele>348.1</ele>
        <time>2018-05-06T09:45:47Z</time>
      </trkpt>
      <trkpt lat="45.55994" lon="4.63833">
        <ele>348.1</ele>
        <time>2018-05-06T09:45:48Z</time>
      </trkpt>
      <trkpt lat="45.56023" lon="4.63801">
        <ele>349.5</ele>
        <time>2018-05-06T09:45:55Z</time>
      </trkpt>
      <trkpt lat="45.56044" lon="4.63777">
        <ele>349.9</ele>
        <time>2018-05-06T09:46:00Z</time>
      </trkpt>
      <trkpt lat="45.56062" lon="4.63756">
        <ele>350</ele>
        <time>2018-05-06T09:46:05Z</time>
      </trkpt>
      <trkpt lat="45.56082" lon="4.63732">
        <ele>350</ele>
        <time>2018-05-06T09:46:11Z</time>
      </trkpt>
      <trkpt lat="45.56085" lon="4.63729">
        <ele>350.1</ele>
        <time>2018-05-06T09:46:12Z</time>
      </trkpt>
      <trkpt lat="45.56106" lon="4.63704">
        <ele>350.1</ele>
        <time>2018-05-06T09:46:19Z</time>
      </trkpt>
      <trkpt lat="45.56132" lon="4.63673">
        <ele>350.1</ele>
        <time>2018-05-06T09:46:27Z</time>
      </trkpt>
      <trkpt lat="45.5614" lon="4.63663">
        <ele>350</ele>
        <time>2018-05-06T09:46:30Z</time>
      </trkpt>
      <trkpt lat="45.56143" lon="4.63659">
        <ele>349.9</ele>
        <time>2018-05-06T09:46:31Z</time>
      </trkpt>
      <trkpt lat="45.56151" lon="4.63651">
        <ele>349.6</ele>
        <time>2018-05-06T09:46:33Z</time>
      </trkpt>
      <trkpt lat="45.56165" lon="4.63633">
        <ele>348.8</ele>
        <time>2018-05-06T09:46:37Z</time>
      </trkpt>
      <trkpt lat="45.56172" lon="4.63621">
        <ele>348.8</ele>
        <time>2018-05-06T09:46:39Z</time>
      </trkpt>
      <trkpt lat="45.56179" lon="4.6361">
        <ele>348.7</ele>
        <time>2018-05-06T09:46:41Z</time>
      </trkpt>
      <trkpt lat="45.56192" lon="4.63586">
        <ele>348.7</ele>
        <time>2018-05-06T09:46:45Z</time>
      </trkpt>
      <trkpt lat="45.5621" lon="4.63541">
        <ele>348.8</ele>
        <time>2018-05-06T09:46:52Z</time>
      </trkpt>
      <trkpt lat="45.56214" lon="4.63528">
        <ele>348.8</ele>
        <time>2018-05-06T09:46:54Z</time>
      </trkpt>
      <trkpt lat="45.56225" lon="4.63495">
        <ele>348.8</ele>
        <time>2018-05-06T09:46:59Z</time>
      </trkpt>
      <trkpt lat="45.56242" lon="4.63447">
        <ele>348.9</ele>
        <time>2018-05-06T09:47:07Z</time>
      </trkpt>
      <trkpt lat="45.56257" lon="4.63407">
        <ele>348.2</ele>
        <time>2018-05-06T09:47:14Z</time>
      </trkpt>
      <trkpt lat="45.5626" lon="4.63401">
        <ele>347.9</ele>
        <time>2018-05-06T09:47:15Z</time>
      </trkpt>
      <trkpt lat="45.5628" lon="4.63349">
        <ele>347.2</ele>
        <time>2018-05-06T09:47:23Z</time>
      </trkpt>
      <trkpt lat="45.56289" lon="4.63322">
        <ele>346.8</ele>
        <time>2018-05-06T09:47:27Z</time>
      </trkpt>
      <trkpt lat="45.56295" lon="4.633">
        <ele>345.8</ele>
        <time>2018-05-06T09:47:30Z</time>
      </trkpt>
      <trkpt lat="45.56297" lon="4.63285">
        <ele>345.4</ele>
        <time>2018-05-06T09:47:32Z</time>
      </trkpt>
      <trkpt lat="45.56299" lon="4.63264">
        <ele>344.1</ele>
        <time>2018-05-06T09:47:35Z</time>
      </trkpt>
      <trkpt lat="45.563" lon="4.63256">
        <ele>343.7</ele>
        <time>2018-05-06T09:47:36Z</time>
      </trkpt>
      <trkpt lat="45.56303" lon="4.63227">
        <ele>342.3</ele>
        <time>2018-05-06T09:47:39Z</time>
      </trkpt>
      <trkpt lat="45.56305" lon="4.63216">
        <ele>342</ele>
        <time>2018-05-06T09:47:40Z</time>
      </trkpt>
      <trkpt lat="45.56306" lon="4.63205">
        <ele>341.5</ele>
        <time>2018-05-06T09:47:41Z</time>
      </trkpt>
      <trkpt lat="45.56308" lon="4.63182">
        <ele>340.3</ele>
        <time>2018-05-06T09:47:43Z</time>
      </trkpt>
      <trkpt lat="45.56309" lon="4.63158">
        <ele>339.7</ele>
        <time>2018-05-06T09:47:45Z</time>
      </trkpt>
      <trkpt lat="45.56308" lon="4.63146">
        <ele>339.4</ele>
        <time>2018-05-06T09:47:46Z</time>
      </trkpt>
      <trkpt lat="45.56304" lon="4.63115">
        <ele>337</ele>
        <time>2018-05-06T09:47:49Z</time>
      </trkpt>
      <trkpt lat="45.56302" lon="4.63084">
        <ele>335.1</ele>
        <time>2018-05-06T09:47:52Z</time>
      </trkpt>
      <trkpt lat="45.56302" lon="4.63074">
        <ele>334</ele>
        <time>2018-05-06T09:47:53Z</time>
      </trkpt>
      <trkpt lat="45.56303" lon="4.63066">
        <ele>333.5</ele>
        <time>2018-05-06T09:47:54Z</time>
      </trkpt>
      <trkpt lat="45.56305" lon="4.63058">
        <ele>333</ele>
        <time>2018-05-06T09:47:55Z</time>
      </trkpt>
      <trkpt lat="45.56309" lon="4.63052">
        <ele>332</ele>
        <time>2018-05-06T09:47:56Z</time>
      </trkpt>
      <trkpt lat="45.56312" lon="4.63045">
        <ele>330.7</ele>
        <time>2018-05-06T09:47:57Z</time>
      </trkpt>
      <trkpt lat="45.56321" lon="4.63031">
        <ele>328.6</ele>
        <time>2018-05-06T09:47:59Z</time>
      </trkpt>
      <trkpt lat="45.56325" lon="4.63026">
        <ele>327.4</ele>
        <time>2018-05-06T09:48:00Z</time>
      </trkpt>
      <trkpt lat="45.56331" lon="4.6302">
        <ele>326.8</ele>
        <time>2018-05-06T09:48:01Z</time>
      </trkpt>
      <trkpt lat="45.56343" lon="4.6301">
        <ele>324.8</ele>
        <time>2018-05-06T09:48:03Z</time>
      </trkpt>
      <trkpt lat="45.5635" lon="4.63004">
        <ele>323.9</ele>
        <time>2018-05-06T09:48:04Z</time>
      </trkpt>
      <trkpt lat="45.56357" lon="4.62999">
        <ele>323.5</ele>
        <time>2018-05-06T09:48:05Z</time>
      </trkpt>
      <trkpt lat="45.56372" lon="4.62989">
        <ele>322.5</ele>
        <time>2018-05-06T09:48:07Z</time>
      </trkpt>
      <trkpt lat="45.56388" lon="4.62982">
        <ele>320.2</ele>
        <time>2018-05-06T09:48:09Z</time>
      </trkpt>
      <trkpt lat="45.56396" lon="4.62978">
        <ele>319.6</ele>
        <time>2018-05-06T09:48:10Z</time>
      </trkpt>
      <trkpt lat="45.56403" lon="4.62974">
        <ele>318.7</ele>
        <time>2018-05-06T09:48:11Z</time>
      </trkpt>
      <trkpt lat="45.5641" lon="4.62969">
        <ele>317.3</ele>
        <time>2018-05-06T09:48:12Z</time>
      </trkpt>
      <trkpt lat="45.56417" lon="4.62963">
        <ele>316.4</ele>
        <time>2018-05-06T09:48:13Z</time>
      </trkpt>
      <trkpt lat="45.56423" lon="4.62955">
        <ele>315.8</ele>
        <time>2018-05-06T09:48:14Z</time>
      </trkpt>
      <trkpt lat="45.56428" lon="4.62947">
        <ele>315.2</ele>
        <time>2018-05-06T09:48:15Z</time>
      </trkpt>
      <trkpt lat="45.56441" lon="4.62935">
        <ele>313</ele>
        <time>2018-05-06T09:48:17Z</time>
      </trkpt>
      <trkpt lat="45.56447" lon="4.62929">
        <ele>312.7</ele>
        <time>2018-05-06T09:48:18Z</time>
      </trkpt>
      <trkpt lat="45.5646" lon="4.62917">
        <ele>311.9</ele>
        <time>2018-05-06T09:48:20Z</time>
      </trkpt>
      <trkpt lat="45.56466" lon="4.62911">
        <ele>311.7</ele>
        <time>2018-05-06T09:48:21Z</time>
      </trkpt>
      <trkpt lat="45.56472" lon="4.62907">
        <ele>311.4</ele>
        <time>2018-05-06T09:48:22Z</time>
      </trkpt>
      <trkpt lat="45.56487" lon="4.62904">
        <ele>311.2</ele>
        <time>2018-05-06T09:48:24Z</time>
      </trkpt>
      <trkpt lat="45.56501" lon="4.62901">
        <ele>311.9</ele>
        <time>2018-05-06T09:48:26Z</time>
      </trkpt>
      <trkpt lat="45.56516" lon="4.6289">
        <ele>313</ele>
        <time>2018-05-06T09:48:29Z</time>
      </trkpt>
      <trkpt lat="45.56525" lon="4.62876">
        <ele>313.9</ele>
        <time>2018-05-06T09:48:33Z</time>
      </trkpt>
      <trkpt lat="45.56531" lon="4.62868">
        <ele>314.4</ele>
        <time>2018-05-06T09:48:36Z</time>
      </trkpt>
      <trkpt lat="45.56538" lon="4.62862">
        <ele>314.8</ele>
        <time>2018-05-06T09:48:39Z</time>
      </trkpt>
      <trkpt lat="45.56542" lon="4.62859">
        <ele>315</ele>
        <time>2018-05-06T09:48:41Z</time>
      </trkpt>
      <trkpt lat="45.56545" lon="4.62859">
        <ele>315.1</ele>
        <time>2018-05-06T09:48:42Z</time>
      </trkpt>
      <trkpt lat="45.56552" lon="4.6286">
        <ele>315.5</ele>
        <time>2018-05-06T09:48:46Z</time>
      </trkpt>
      <trkpt lat="45.5656" lon="4.62863">
        <ele>315.8</ele>
        <time>2018-05-06T09:48:50Z</time>
      </trkpt>
      <trkpt lat="45.56564" lon="4.62865">
        <ele>315.9</ele>
        <time>2018-05-06T09:48:52Z</time>
      </trkpt>
      <trkpt lat="45.56565" lon="4.62864">
        <ele>315.9</ele>
        <time>2018-05-06T09:48:53Z</time>
      </trkpt>
      <trkpt lat="45.56567" lon="4.62864">
        <ele>316</ele>
        <time>2018-05-06T09:48:54Z</time>
      </trkpt>
      <trkpt lat="45.56573" lon="4.62861">
        <ele>316.1</ele>
        <time>2018-05-06T09:48:56Z</time>
      </trkpt>
      <trkpt lat="45.56581" lon="4.62855">
        <ele>316.1</ele>
        <time>2018-05-06T09:48:58Z</time>
      </trkpt>
      <trkpt lat="45.5659" lon="4.62846">
        <ele>316.2</ele>
        <time>2018-05-06T09:49:00Z</time>
      </trkpt>
      <trkpt lat="45.56606" lon="4.62834">
        <ele>316.2</ele>
        <time>2018-05-06T09:49:03Z</time>
      </trkpt>
      <trkpt lat="45.56612" lon="4.6283">
        <ele>316.2</ele>
        <time>2018-05-06T09:49:04Z</time>
      </trkpt>
      <trkpt lat="45.56624" lon="4.62815">
        <ele>316.9</ele>
        <time>2018-05-06T09:49:07Z</time>
      </trkpt>
      <trkpt lat="45.56635" lon="4.62811">
        <ele>317.4</ele>
        <time>2018-05-06T09:49:10Z</time>
      </trkpt>
      <trkpt lat="45.56639" lon="4.62811">
        <ele>317.5</ele>
        <time>2018-05-06T09:49:11Z</time>
      </trkpt>
      <trkpt lat="45.56643" lon="4.62811">
        <ele>317.5</ele>
        <time>2018-05-06T09:49:12Z</time>
      </trkpt>
      <trkpt lat="45.56647" lon="4.62811">
        <ele>317.3</ele>
        <time>2018-05-06T09:49:13Z</time>
      </trkpt>
      <trkpt lat="45.56651" lon="4.62809">
        <ele>317.1</ele>
        <time>2018-05-06T09:49:14Z</time>
      </trkpt>
      <trkpt lat="45.56655" lon="4.62807">
        <ele>316.9</ele>
        <time>2018-05-06T09:49:15Z</time>
      </trkpt>
      <trkpt lat="45.56659" lon="4.62805">
        <ele>316.7</ele>
        <time>2018-05-06T09:49:16Z</time>
      </trkpt>
      <trkpt lat="45.56663" lon="4.62801">
        <ele>316.5</ele>
        <time>2018-05-06T09:49:17Z</time>
      </trkpt>
      <trkpt lat="45.56667" lon="4.62797">
        <ele>316.4</ele>
        <time>2018-05-06T09:49:18Z</time>
      </trkpt>
      <trkpt lat="45.56675" lon="4.62787">
        <ele>316.4</ele>
        <time>2018-05-06T09:49:20Z</time>
      </trkpt>
      <trkpt lat="45.5668" lon="4.62779">
        <ele>316.6</ele>
        <time>2018-05-06T09:49:22Z</time>
      </trkpt>
      <trkpt lat="45.56684" lon="4.62774">
        <ele>316.8</ele>
        <time>2018-05-06T09:49:23Z</time>
      </trkpt>
      <trkpt lat="45.56687" lon="4.6277">
        <ele>317</ele>
        <time>2018-05-06T09:49:24Z</time>
      </trkpt>
      <trkpt lat="45.56691" lon="4.62765">
        <ele>317.1</ele>
        <time>2018-05-06T09:49:25Z</time>
      </trkpt>
      <trkpt lat="45.56695" lon="4.62761">
        <ele>317.2</ele>
        <time>2018-05-06T09:49:26Z</time>
      </trkpt>
      <trkpt lat="45.56703" lon="4.62749">
        <ele>317.4</ele>
        <time>2018-05-06T09:49:28Z</time>
      </trkpt>
      <trkpt lat="45.56706" lon="4.62742">
        <ele>317.4</ele>
        <time>2018-05-06T09:49:29Z</time>
      </trkpt>
      <trkpt lat="45.56709" lon="4.62735">
        <ele>317.5</ele>
        <time>2018-05-06T09:49:30Z</time>
      </trkpt>
      <trkpt lat="45.56715" lon="4.62719">
        <ele>317.6</ele>
        <time>2018-05-06T09:49:32Z</time>
      </trkpt>
      <trkpt lat="45.56723" lon="4.62702">
        <ele>318.3</ele>
        <time>2018-05-06T09:49:34Z</time>
      </trkpt>
      <trkpt lat="45.56728" lon="4.62693">
        <ele>319.1</ele>
        <time>2018-05-06T09:49:35Z</time>
      </trkpt>
      <trkpt lat="45.56733" lon="4.62684">
        <ele>320.3</ele>
        <time>2018-05-06T09:49:36Z</time>
      </trkpt>
      <trkpt lat="45.56741" lon="4.62667">
        <ele>322.7</ele>
        <time>2018-05-06T09:49:38Z</time>
      </trkpt>
      <trkpt lat="45.56742" lon="4.62651">
        <ele>324</ele>
        <time>2018-05-06T09:49:40Z</time>
      </trkpt>
      <trkpt lat="45.5674" lon="4.62643">
        <ele>324</ele>
        <time>2018-05-06T09:49:41Z</time>
      </trkpt>
      <trkpt lat="45.56734" lon="4.6263">
        <ele>324</ele>
        <time>2018-05-06T09:49:43Z</time>
      </trkpt>
      <trkpt lat="45.56731" lon="4.62625">
        <ele>324</ele>
        <time>2018-05-06T09:49:44Z</time>
      </trkpt>
      <trkpt lat="45.56726" lon="4.62613">
        <ele>324</ele>
        <time>2018-05-06T09:49:46Z</time>
      </trkpt>
      <trkpt lat="45.56724" lon="4.62604">
        <ele>324</ele>
        <time>2018-05-06T09:49:48Z</time>
      </trkpt>
      <trkpt lat="45.56728" lon="4.62593">
        <ele>324</ele>
        <time>2018-05-06T09:49:51Z</time>
      </trkpt>
      <trkpt lat="45.56731" lon="4.62589">
        <ele>324.3</ele>
        <time>2018-05-06T09:49:52Z</time>
      </trkpt>
      <trkpt lat="45.56742" lon="4.62561">
        <ele>333</ele>
        <time>2018-05-06T09:49:58Z</time>
      </trkpt>
      <trkpt lat="45.56743" lon="4.62552">
        <ele>333</ele>
        <time>2018-05-06T09:50:00Z</time>
      </trkpt>
      <trkpt lat="45.56742" lon="4.62546">
        <ele>333</ele>
        <time>2018-05-06T09:50:02Z</time>
      </trkpt>
      <trkpt lat="45.56734" lon="4.62543">
        <ele>333</ele>
        <time>2018-05-06T09:50:06Z</time>
      </trkpt>
      <trkpt lat="45.5673" lon="4.62553">
        <ele>333</ele>
        <time>2018-05-06T09:50:10Z</time>
      </trkpt>
      <trkpt lat="45.56728" lon="4.6256">
        <ele>333</ele>
        <time>2018-05-06T09:50:13Z</time>
      </trkpt>
      <trkpt lat="45.56726" lon="4.62565">
        <ele>333</ele>
        <time>2018-05-06T09:50:15Z</time>
      </trkpt>
      <trkpt lat="45.56726" lon="4.62567">
        <ele>333</ele>
        <time>2018-05-06T09:50:16Z</time>
      </trkpt>
      <trkpt lat="45.56719" lon="4.62577">
        <ele>333</ele>
        <time>2018-05-06T09:50:20Z</time>
      </trkpt>
      <trkpt lat="45.56715" lon="4.6258">
        <ele>333</ele>
        <time>2018-05-06T09:50:22Z</time>
      </trkpt>
      <trkpt lat="45.56701" lon="4.62592">
        <ele>332.7</ele>
        <time>2018-05-06T09:50:29Z</time>
      </trkpt>
      <trkpt lat="45.56682" lon="4.62606">
        <ele>332.5</ele>
        <time>2018-05-06T09:50:38Z</time>
      </trkpt>
      <trkpt lat="45.56671" lon="4.6261">
        <ele>332.8</ele>
        <time>2018-05-06T09:50:43Z</time>
      </trkpt>
      <trkpt lat="45.56665" lon="4.6261">
        <ele>333.1</ele>
        <time>2018-05-06T09:50:46Z</time>
      </trkpt>
      <trkpt lat="45.5666" lon="4.6261">
        <ele>333.2</ele>
        <time>2018-05-06T09:50:48Z</time>
      </trkpt>
      <trkpt lat="45.56644" lon="4.62609">
        <ele>334.1</ele>
        <time>2018-05-06T09:50:55Z</time>
      </trkpt>
      <trkpt lat="45.56642" lon="4.62608">
        <ele>334.3</ele>
        <time>2018-05-06T09:50:56Z</time>
      </trkpt>
      <trkpt lat="45.5663" lon="4.62605">
        <ele>335</ele>
        <time>2018-05-06T09:51:01Z</time>
      </trkpt>
      <trkpt lat="45.56626" lon="4.62603">
        <ele>335.4</ele>
        <time>2018-05-06T09:51:03Z</time>
      </trkpt>
      <trkpt lat="45.56619" lon="4.62598">
        <ele>336.1</ele>
        <time>2018-05-06T09:51:07Z</time>
      </trkpt>
      <trkpt lat="45.56614" lon="4.62593">
        <ele>336.6</ele>
        <time>2018-05-06T09:51:10Z</time>
      </trkpt>
      <trkpt lat="45.56605" lon="4.62583">
        <ele>337.2</ele>
        <time>2018-05-06T09:51:17Z</time>
      </trkpt>
      <trkpt lat="45.56599" lon="4.6258">
        <ele>337.3</ele>
        <time>2018-05-06T09:51:21Z</time>
      </trkpt>
      <trkpt lat="45.56595" lon="4.62579">
        <ele>337.3</ele>
        <time>2018-05-06T09:51:23Z</time>
      </trkpt>
      <trkpt lat="45.56593" lon="4.62578">
        <ele>337.2</ele>
        <time>2018-05-06T09:51:24Z</time>
      </trkpt>
      <trkpt lat="45.56586" lon="4.62581">
        <ele>337.2</ele>
        <time>2018-05-06T09:51:28Z</time>
      </trkpt>
      <trkpt lat="45.56579" lon="4.62585">
        <ele>337.1</ele>
        <time>2018-05-06T09:51:33Z</time>
      </trkpt>
      <trkpt lat="45.56576" lon="4.62587">
        <ele>337</ele>
        <time>2018-05-06T09:51:35Z</time>
      </trkpt>
      <trkpt lat="45.56568" lon="4.62592">
        <ele>337</ele>
        <time>2018-05-06T09:51:41Z</time>
      </trkpt>
      <trkpt lat="45.56566" lon="4.62592">
        <ele>337</ele>
        <time>2018-05-06T09:51:42Z</time>
      </trkpt>
      <trkpt lat="45.56521" lon="4.62605">
        <ele>336.7</ele>
        <time>2018-05-06T09:53:11Z</time>
      </trkpt>
      <trkpt lat="45.56519" lon="4.62606">
        <ele>336.7</ele>
        <time>2018-05-06T09:53:13Z</time>
      </trkpt>
      <trkpt lat="45.56514" lon="4.62607">
        <ele>336.7</ele>
        <time>2018-05-06T09:53:17Z</time>
      </trkpt>
      <trkpt lat="45.56509" lon="4.62608">
        <ele>336.7</ele>
        <time>2018-05-06T09:53:21Z</time>
      </trkpt>
      <trkpt lat="45.56496" lon="4.62605">
        <ele>337</ele>
        <time>2018-05-06T09:53:31Z</time>
      </trkpt>
      <trkpt lat="45.56488" lon="4.62598">
        <ele>337.6</ele>
        <time>2018-05-06T09:53:39Z</time>
      </trkpt>
      <trkpt lat="45.56487" lon="4.62597">
        <ele>337.7</ele>
        <time>2018-05-06T09:53:40Z</time>
      </trkpt>
      <trkpt lat="45.56483" lon="4.6259">
        <ele>338.1</ele>
        <time>2018-05-06T09:53:45Z</time>
      </trkpt>
      <trkpt lat="45.5648" lon="4.62584">
        <ele>338.3</ele>
        <time>2018-05-06T09:53:49Z</time>
      </trkpt>
      <trkpt lat="45.5648" lon="4.62577">
        <ele>338.6</ele>
        <time>2018-05-06T09:53:53Z</time>
      </trkpt>
      <trkpt lat="45.56479" lon="4.6257">
        <ele>339.1</ele>
        <time>2018-05-06T09:53:57Z</time>
      </trkpt>
      <trkpt lat="45.56479" lon="4.6256">
        <ele>339.8</ele>
        <time>2018-05-06T09:54:06Z</time>
      </trkpt>
      <trkpt lat="45.56478" lon="4.62558">
        <ele>339.9</ele>
        <time>2018-05-06T09:54:07Z</time>
      </trkpt>
      <trkpt lat="45.56478" lon="4.62544">
        <ele>340.6</ele>
        <time>2018-05-06T09:54:14Z</time>
      </trkpt>
      <trkpt lat="45.56478" lon="4.62542">
        <ele>340.7</ele>
        <time>2018-05-06T09:54:15Z</time>
      </trkpt>
      <trkpt lat="45.56478" lon="4.62531">
        <ele>341.5</ele>
        <time>2018-05-06T09:54:20Z</time>
      </trkpt>
      <trkpt lat="45.56479" lon="4.62526">
        <ele>341.9</ele>
        <time>2018-05-06T09:54:22Z</time>
      </trkpt>
      <trkpt lat="45.56479" lon="4.62514">
        <ele>342.5</ele>
        <time>2018-05-06T09:54:27Z</time>
      </trkpt>
      <trkpt lat="45.56481" lon="4.62504">
        <ele>343</ele>
        <time>2018-05-06T09:54:32Z</time>
      </trkpt>
      <trkpt lat="45.5648" lon="4.62493">
        <ele>343.9</ele>
        <time>2018-05-06T09:54:37Z</time>
      </trkpt>
      <trkpt lat="45.56481" lon="4.62486">
        <ele>344.3</ele>
        <time>2018-05-06T09:54:40Z</time>
      </trkpt>
      <trkpt lat="45.56481" lon="4.62484">
        <ele>344.5</ele>
        <time>2018-05-06T09:54:41Z</time>
      </trkpt>
      <trkpt lat="45.56481" lon="4.62467">
        <ele>345.2</ele>
        <time>2018-05-06T09:54:48Z</time>
      </trkpt>
      <trkpt lat="45.56481" lon="4.62465">
        <ele>345.4</ele>
        <time>2018-05-06T09:54:49Z</time>
      </trkpt>
      <trkpt lat="45.56481" lon="4.62453">
        <ele>346.4</ele>
        <time>2018-05-06T09:54:54Z</time>
      </trkpt>
      <trkpt lat="45.56481" lon="4.62447">
        <ele>346.6</ele>
        <time>2018-05-06T09:54:56Z</time>
      </trkpt>
      <trkpt lat="45.56482" lon="4.62437">
        <ele>346.9</ele>
        <time>2018-05-06T09:55:00Z</time>
      </trkpt>
      <trkpt lat="45.56484" lon="4.62428">
        <ele>347.6</ele>
        <time>2018-05-06T09:55:04Z</time>
      </trkpt>
      <trkpt lat="45.56485" lon="4.62426">
        <ele>347.8</ele>
        <time>2018-05-06T09:55:05Z</time>
      </trkpt>
      <trkpt lat="45.56488" lon="4.62411">
        <ele>348.4</ele>
        <time>2018-05-06T09:55:12Z</time>
      </trkpt>
      <trkpt lat="45.56489" lon="4.62406">
        <ele>348.5</ele>
        <time>2018-05-06T09:55:14Z</time>
      </trkpt>
      <trkpt lat="45.56491" lon="4.62392">
        <ele>349.5</ele>
        <time>2018-05-06T09:55:20Z</time>
      </trkpt>
      <trkpt lat="45.56493" lon="4.6238">
        <ele>349.9</ele>
        <time>2018-05-06T09:55:25Z</time>
      </trkpt>
      <trkpt lat="45.56494" lon="4.62375">
        <ele>350.1</ele>
        <time>2018-05-06T09:55:27Z</time>
      </trkpt>
      <trkpt lat="45.56497" lon="4.62356">
        <ele>351.1</ele>
        <time>2018-05-06T09:55:35Z</time>
      </trkpt>
      <trkpt lat="45.56498" lon="4.62351">
        <ele>351.4</ele>
        <time>2018-05-06T09:55:37Z</time>
      </trkpt>
      <trkpt lat="45.56501" lon="4.62332">
        <ele>351.9</ele>
        <time>2018-05-06T09:55:45Z</time>
      </trkpt>
      <trkpt lat="45.56502" lon="4.62327">
        <ele>352.1</ele>
        <time>2018-05-06T09:55:47Z</time>
      </trkpt>
      <trkpt lat="45.56505" lon="4.62311">
        <ele>352.8</ele>
        <time>2018-05-06T09:55:54Z</time>
      </trkpt>
      <trkpt lat="45.56506" lon="4.62296">
        <ele>353.6</ele>
        <time>2018-05-06T09:56:00Z</time>
      </trkpt>
      <trkpt lat="45.56501" lon="4.62284">
        <ele>354.4</ele>
        <time>2018-05-06T09:56:06Z</time>
      </trkpt>
      <trkpt lat="45.56493" lon="4.62273">
        <ele>355.6</ele>
        <time>2018-05-06T09:56:12Z</time>
      </trkpt>
      <trkpt lat="45.56488" lon="4.62268">
        <ele>356.5</ele>
        <time>2018-05-06T09:56:15Z</time>
      </trkpt>
      <trkpt lat="45.56481" lon="4.62258">
        <ele>358.1</ele>
        <time>2018-05-06T09:56:20Z</time>
      </trkpt>
      <trkpt lat="45.56474" lon="4.6225">
        <ele>359.1</ele>
        <time>2018-05-06T09:56:24Z</time>
      </trkpt>
      <trkpt lat="45.56471" lon="4.62246">
        <ele>359.5</ele>
        <time>2018-05-06T09:56:26Z</time>
      </trkpt>
      <trkpt lat="45.56461" lon="4.62232">
        <ele>360.6</ele>
        <time>2018-05-06T09:56:33Z</time>
      </trkpt>
      <trkpt lat="45.56457" lon="4.62227">
        <ele>360.9</ele>
        <time>2018-05-06T09:56:35Z</time>
      </trkpt>
      <trkpt lat="45.56444" lon="4.62212">
        <ele>362</ele>
        <time>2018-05-06T09:56:43Z</time>
      </trkpt>
      <trkpt lat="45.5644" lon="4.62205">
        <ele>362.5</ele>
        <time>2018-05-06T09:56:46Z</time>
      </trkpt>
      <trkpt lat="45.56429" lon="4.62191">
        <ele>363.1</ele>
        <time>2018-05-06T09:56:53Z</time>
      </trkpt>
      <trkpt lat="45.56426" lon="4.62187">
        <ele>363.2</ele>
        <time>2018-05-06T09:56:55Z</time>
      </trkpt>
      <trkpt lat="45.56413" lon="4.62171">
        <ele>364.4</ele>
        <time>2018-05-06T09:57:03Z</time>
      </trkpt>
      <trkpt lat="45.56408" lon="4.62165">
        <ele>364.7</ele>
        <time>2018-05-06T09:57:06Z</time>
      </trkpt>
      <trkpt lat="45.56399" lon="4.62154">
        <ele>365.1</ele>
        <time>2018-05-06T09:57:12Z</time>
      </trkpt>
      <trkpt lat="45.56394" lon="4.6215">
        <ele>365.3</ele>
        <time>2018-05-06T09:57:15Z</time>
      </trkpt>
      <trkpt lat="45.5639" lon="4.62144">
        <ele>365.8</ele>
        <time>2018-05-06T09:57:18Z</time>
      </trkpt>
      <trkpt lat="45.56378" lon="4.6213">
        <ele>366.6</ele>
        <time>2018-05-06T09:57:25Z</time>
      </trkpt>
      <trkpt lat="45.56376" lon="4.62128">
        <ele>366.7</ele>
        <time>2018-05-06T09:57:26Z</time>
      </trkpt>
      <trkpt lat="45.56371" lon="4.62121">
        <ele>366.9</ele>
        <time>2018-05-06T09:57:29Z</time>
      </trkpt>
      <trkpt lat="45.56359" lon="4.62104">
        <ele>368.1</ele>
        <time>2018-05-06T09:57:37Z</time>
      </trkpt>
      <trkpt lat="45.56357" lon="4.62102">
        <ele>368.3</ele>
        <time>2018-05-06T09:57:38Z</time>
      </trkpt>
      <trkpt lat="45.56345" lon="4.62082">
        <ele>369.1</ele>
        <time>2018-05-06T09:57:47Z</time>
      </trkpt>
      <trkpt lat="45.56337" lon="4.62068">
        <ele>370</ele>
        <time>2018-05-06T09:57:53Z</time>
      </trkpt>
      <trkpt lat="45.56332" lon="4.62062">
        <ele>370.4</ele>
        <time>2018-05-06T09:57:56Z</time>
      </trkpt>
      <trkpt lat="45.56325" lon="4.62052">
        <ele>370.8</ele>
        <time>2018-05-06T09:58:01Z</time>
      </trkpt>
      <trkpt lat="45.56321" lon="4.62045">
        <ele>371.2</ele>
        <time>2018-05-06T09:58:04Z</time>
      </trkpt>
      <trkpt lat="45.56317" lon="4.62038">
        <ele>371.8</ele>
        <time>2018-05-06T09:58:07Z</time>
      </trkpt>
      <trkpt lat="45.56313" lon="4.6203">
        <ele>372.2</ele>
        <time>2018-05-06T09:58:11Z</time>
      </trkpt>
      <trkpt lat="45.56308" lon="4.62021">
        <ele>372.6</ele>
        <time>2018-05-06T09:58:16Z</time>
      </trkpt>
      <trkpt lat="45.56304" lon="4.62016">
        <ele>372.9</ele>
        <time>2018-05-06T09:58:19Z</time>
      </trkpt>
      <trkpt lat="45.56297" lon="4.62005">
        <ele>373.8</ele>
        <time>2018-05-06T09:58:25Z</time>
      </trkpt>
      <trkpt lat="45.56294" lon="4.61999">
        <ele>374.2</ele>
        <time>2018-05-06T09:59:33Z</time>
      </trkpt>
      <trkpt lat="45.56293" lon="4.61997">
        <ele>374.3</ele>
        <time>2018-05-06T09:59:34Z</time>
      </trkpt>
      <trkpt lat="45.56291" lon="4.61996">
        <ele>374.3</ele>
        <time>2018-05-06T09:59:35Z</time>
      </trkpt>
      <trkpt lat="45.56287" lon="4.6199">
        <ele>374.5</ele>
        <time>2018-05-06T09:59:38Z</time>
      </trkpt>
      <trkpt lat="45.56284" lon="4.61985">
        <ele>374.6</ele>
        <time>2018-05-06T09:59:40Z</time>
      </trkpt>
      <trkpt lat="45.5628" lon="4.61977">
        <ele>374.9</ele>
        <time>2018-05-06T09:59:44Z</time>
      </trkpt>
      <trkpt lat="45.56276" lon="4.6197">
        <ele>375.3</ele>
        <time>2018-05-06T09:59:47Z</time>
      </trkpt>
      <trkpt lat="45.56275" lon="4.61968">
        <ele>375.4</ele>
        <time>2018-05-06T09:59:48Z</time>
      </trkpt>
      <trkpt lat="45.56269" lon="4.61959">
        <ele>375.6</ele>
        <time>2018-05-06T09:59:53Z</time>
      </trkpt>
      <trkpt lat="45.56267" lon="4.61957">
        <ele>375.6</ele>
        <time>2018-05-06T09:59:54Z</time>
      </trkpt>
      <trkpt lat="45.5626" lon="4.61944">
        <ele>375.9</ele>
        <time>2018-05-06T10:00:00Z</time>
      </trkpt>
      <trkpt lat="45.56258" lon="4.61941">
        <ele>375.9</ele>
        <time>2018-05-06T10:00:02Z</time>
      </trkpt>
      <trkpt lat="45.56254" lon="4.61935">
        <ele>376</ele>
        <time>2018-05-06T10:00:05Z</time>
      </trkpt>
      <trkpt lat="45.56251" lon="4.61926">
        <ele>376.2</ele>
        <time>2018-05-06T10:00:09Z</time>
      </trkpt>
      <trkpt lat="45.56254" lon="4.61919">
        <ele>376.6</ele>
        <time>2018-05-06T10:00:13Z</time>
      </trkpt>
      <trkpt lat="45.56256" lon="4.61918">
        <ele>376.7</ele>
        <time>2018-05-06T10:00:14Z</time>
      </trkpt>
      <trkpt lat="45.56258" lon="4.61917">
        <ele>376.9</ele>
        <time>2018-05-06T10:00:15Z</time>
      </trkpt>
      <trkpt lat="45.5627" lon="4.61911">
        <ele>377.6</ele>
        <time>2018-05-06T10:00:20Z</time>
      </trkpt>
      <trkpt lat="45.56286" lon="4.61896">
        <ele>378.6</ele>
        <time>2018-05-06T10:00:26Z</time>
      </trkpt>
      <trkpt lat="45.56315" lon="4.6187">
        <ele>380.4</ele>
        <time>2018-05-06T10:00:36Z</time>
      </trkpt>
      <trkpt lat="45.56318" lon="4.61867">
        <ele>380.6</ele>
        <time>2018-05-06T10:00:37Z</time>
      </trkpt>
      <trkpt lat="45.56353" lon="4.61832">
        <ele>384.6</ele>
        <time>2018-05-06T10:00:48Z</time>
      </trkpt>
      <trkpt lat="45.56373" lon="4.61808">
        <ele>386.2</ele>
        <time>2018-05-06T10:00:55Z</time>
      </trkpt>
      <trkpt lat="45.56384" lon="4.61793">
        <ele>387.4</ele>
        <time>2018-05-06T10:00:59Z</time>
      </trkpt>
      <trkpt lat="45.56396" lon="4.61781">
        <ele>386.6</ele>
        <time>2018-05-06T10:01:04Z</time>
      </trkpt>
      <trkpt lat="45.56409" lon="4.61775">
        <ele>385.6</ele>
        <time>2018-05-06T10:01:08Z</time>
      </trkpt>
      <trkpt lat="45.5642" lon="4.6177">
        <ele>384.9</ele>
        <time>2018-05-06T10:01:11Z</time>
      </trkpt>
      <trkpt lat="45.56433" lon="4.61762">
        <ele>384</ele>
        <time>2018-05-06T10:01:16Z</time>
      </trkpt>
      <trkpt lat="45.56434" lon="4.6176">
        <ele>384</ele>
        <time>2018-05-06T10:01:17Z</time>
      </trkpt>
      <trkpt lat="45.56434" lon="4.61755">
        <ele>384.2</ele>
        <time>2018-05-06T10:01:20Z</time>
      </trkpt>
      <trkpt lat="45.5643" lon="4.61743">
        <ele>385.4</ele>
        <time>2018-05-06T10:01:27Z</time>
      </trkpt>
      <trkpt lat="45.56447" lon="4.61632">
        <ele>396.1</ele>
        <time>2018-05-06T10:03:00Z</time>
      </trkpt>
      <trkpt lat="45.56448" lon="4.61626">
        <ele>396.4</ele>
        <time>2018-05-06T10:03:03Z</time>
      </trkpt>
      <trkpt lat="45.56449" lon="4.61622">
        <ele>396.6</ele>
        <time>2018-05-06T10:03:05Z</time>
      </trkpt>
      <trkpt lat="45.56452" lon="4.61605">
        <ele>397.7</ele>
        <time>2018-05-06T10:03:12Z</time>
      </trkpt>
      <trkpt lat="45.56452" lon="4.61598">
        <ele>397.8</ele>
        <time>2018-05-06T10:03:15Z</time>
      </trkpt>
      <trkpt lat="45.56453" lon="4.61585">
        <ele>397.9</ele>
        <time>2018-05-06T10:03:20Z</time>
      </trkpt>
      <trkpt lat="45.56453" lon="4.61573">
        <ele>397.9</ele>
        <time>2018-05-06T10:03:24Z</time>
      </trkpt>
      <trkpt lat="45.56452" lon="4.61559">
        <ele>397.5</ele>
        <time>2018-05-06T10:03:29Z</time>
      </trkpt>
      <trkpt lat="45.56447" lon="4.61529">
        <ele>396.9</ele>
        <time>2018-05-06T10:03:36Z</time>
      </trkpt>
      <trkpt lat="45.56445" lon="4.6152">
        <ele>396.8</ele>
        <time>2018-05-06T10:03:38Z</time>
      </trkpt>
      <trkpt lat="45.56441" lon="4.61497">
        <ele>396.4</ele>
        <time>2018-05-06T10:03:43Z</time>
      </trkpt>
      <trkpt lat="45.56437" lon="4.61481">
        <ele>396</ele>
        <time>2018-05-06T10:03:46Z</time>
      </trkpt>
      <trkpt lat="45.56433" lon="4.61469">
        <ele>395.7</ele>
        <time>2018-05-06T10:03:48Z</time>
      </trkpt>
      <trkpt lat="45.56426" lon="4.61446">
        <ele>394.5</ele>
        <time>2018-05-06T10:03:51Z</time>
      </trkpt>
      <trkpt lat="45.56422" lon="4.61429">
        <ele>393</ele>
        <time>2018-05-06T10:03:53Z</time>
      </trkpt>
      <trkpt lat="45.5642" lon="4.6142">
        <ele>392.8</ele>
        <time>2018-05-06T10:03:54Z</time>
      </trkpt>
      <trkpt lat="45.56414" lon="4.61383">
        <ele>391.9</ele>
        <time>2018-05-06T10:03:58Z</time>
      </trkpt>
      <trkpt lat="45.56412" lon="4.61374">
        <ele>391.8</ele>
        <time>2018-05-06T10:03:59Z</time>
      </trkpt>
      <trkpt lat="45.5641" lon="4.61351">
        <ele>391.3</ele>
        <time>2018-05-06T10:04:02Z</time>
      </trkpt>
      <trkpt lat="45.56409" lon="4.61347">
        <ele>391.2</ele>
        <time>2018-05-06T10:04:03Z</time>
      </trkpt>
      <trkpt lat="45.5641" lon="4.61331">
        <ele>391.2</ele>
        <time>2018-05-06T10:04:08Z</time>
      </trkpt>
      <trkpt lat="45.56408" lon="4.61302">
        <ele>392</ele>
        <time>2018-05-06T10:04:15Z</time>
      </trkpt>
      <trkpt lat="45.56401" lon="4.61271">
        <ele>393.2</ele>
        <time>2018-05-06T10:04:22Z</time>
      </trkpt>
      <trkpt lat="45.56399" lon="4.61267">
        <ele>393.7</ele>
        <time>2018-05-06T10:04:23Z</time>
      </trkpt>
      <trkpt lat="45.56385" lon="4.61227">
        <ele>396.9</ele>
        <time>2018-05-06T10:04:32Z</time>
      </trkpt>
      <trkpt lat="45.56377" lon="4.6121">
        <ele>397.5</ele>
        <time>2018-05-06T10:04:36Z</time>
      </trkpt>
      <trkpt lat="45.56369" lon="4.6119">
        <ele>398.6</ele>
        <time>2018-05-06T10:04:41Z</time>
      </trkpt>
      <trkpt lat="45.56366" lon="4.61176">
        <ele>400.2</ele>
        <time>2018-05-06T10:04:45Z</time>
      </trkpt>
      <trkpt lat="45.56365" lon="4.61169">
        <ele>400.8</ele>
        <time>2018-05-06T10:04:47Z</time>
      </trkpt>
      <trkpt lat="45.56364" lon="4.61159">
        <ele>401.3</ele>
        <time>2018-05-06T10:04:50Z</time>
      </trkpt>
      <trkpt lat="45.56362" lon="4.61144">
        <ele>402.1</ele>
        <time>2018-05-06T10:04:55Z</time>
      </trkpt>
      <trkpt lat="45.56361" lon="4.61141">
        <ele>402.5</ele>
        <time>2018-05-06T10:04:56Z</time>
      </trkpt>
      <trkpt lat="45.56356" lon="4.61132">
        <ele>404</ele>
        <time>2018-05-06T10:05:00Z</time>
      </trkpt>
      <trkpt lat="45.56351" lon="4.61131">
        <ele>404</ele>
        <time>2018-05-06T10:05:02Z</time>
      </trkpt>
      <trkpt lat="45.56343" lon="4.61131">
        <ele>404.1</ele>
        <time>2018-05-06T10:05:05Z</time>
      </trkpt>
      <trkpt lat="45.56326" lon="4.61126">
        <ele>404.5</ele>
        <time>2018-05-06T10:05:11Z</time>
      </trkpt>
      <trkpt lat="45.56323" lon="4.61125">
        <ele>404.6</ele>
        <time>2018-05-06T10:05:12Z</time>
      </trkpt>
      <trkpt lat="45.56293" lon="4.6112">
        <ele>405.7</ele>
        <time>2018-05-06T10:05:22Z</time>
      </trkpt>
      <trkpt lat="45.56272" lon="4.61112">
        <ele>406.4</ele>
        <time>2018-05-06T10:05:29Z</time>
      </trkpt>
      <trkpt lat="45.5627" lon="4.6111">
        <ele>406.5</ele>
        <time>2018-05-06T10:05:30Z</time>
      </trkpt>
      <trkpt lat="45.56248" lon="4.61095">
        <ele>407.5</ele>
        <time>2018-05-06T10:05:38Z</time>
      </trkpt>
      <trkpt lat="45.56241" lon="4.61088">
        <ele>407.9</ele>
        <time>2018-05-06T10:05:41Z</time>
      </trkpt>
      <trkpt lat="45.56233" lon="4.61081">
        <ele>408.3</ele>
        <time>2018-05-06T10:05:44Z</time>
      </trkpt>
      <trkpt lat="45.56222" lon="4.61072">
        <ele>408.6</ele>
        <time>2018-05-06T10:05:48Z</time>
      </trkpt>
      <trkpt lat="45.56212" lon="4.61062">
        <ele>409</ele>
        <time>2018-05-06T10:05:52Z</time>
      </trkpt>
      <trkpt lat="45.56196" lon="4.61048">
        <ele>409.6</ele>
        <time>2018-05-06T10:05:58Z</time>
      </trkpt>
      <trkpt lat="45.56183" lon="4.61037">
        <ele>410.1</ele>
        <time>2018-05-06T10:06:03Z</time>
      </trkpt>
      <trkpt lat="45.56172" lon="4.61026">
        <ele>410.5</ele>
        <time>2018-05-06T10:06:07Z</time>
      </trkpt>
      <trkpt lat="45.56162" lon="4.61018">
        <ele>410.8</ele>
        <time>2018-05-06T10:06:11Z</time>
      </trkpt>
      <trkpt lat="45.56151" lon="4.61009">
        <ele>411</ele>
        <time>2018-05-06T10:06:17Z</time>
      </trkpt>
      <trkpt lat="45.56144" lon="4.61003">
        <ele>411.3</ele>
        <time>2018-05-06T10:06:20Z</time>
      </trkpt>
      <trkpt lat="45.56132" lon="4.60994">
        <ele>411.6</ele>
        <time>2018-05-06T10:06:25Z</time>
      </trkpt>
      <trkpt lat="45.56116" lon="4.60981">
        <ele>412.2</ele>
        <time>2018-05-06T10:06:31Z</time>
      </trkpt>
      <trkpt lat="45.56107" lon="4.60972">
        <ele>412.6</ele>
        <time>2018-05-06T10:06:35Z</time>
      </trkpt>
      <trkpt lat="45.56093" lon="4.60951">
        <ele>413.1</ele>
        <time>2018-05-06T10:06:42Z</time>
      </trkpt>
      <trkpt lat="45.56091" lon="4.60948">
        <ele>413.2</ele>
        <time>2018-05-06T10:06:43Z</time>
      </trkpt>
      <trkpt lat="45.56079" lon="4.6093">
        <ele>413.5</ele>
        <time>2018-05-06T10:06:49Z</time>
      </trkpt>
      <trkpt lat="45.56072" lon="4.60916">
        <ele>413.8</ele>
        <time>2018-05-06T10:06:53Z</time>
      </trkpt>
      <trkpt lat="45.56066" lon="4.60902">
        <ele>414.2</ele>
        <time>2018-05-06T10:06:57Z</time>
      </trkpt>
      <trkpt lat="45.56056" lon="4.60876">
        <ele>414.7</ele>
        <time>2018-05-06T10:07:04Z</time>
      </trkpt>
      <trkpt lat="45.56051" lon="4.60865">
        <ele>415.1</ele>
        <time>2018-05-06T10:07:07Z</time>
      </trkpt>
      <trkpt lat="45.56045" lon="4.60851">
        <ele>415.5</ele>
        <time>2018-05-06T10:07:11Z</time>
      </trkpt>
      <trkpt lat="45.56042" lon="4.60839">
        <ele>415.7</ele>
        <time>2018-05-06T10:07:14Z</time>
      </trkpt>
      <trkpt lat="45.56034" lon="4.60816">
        <ele>416.3</ele>
        <time>2018-05-06T10:07:20Z</time>
      </trkpt>
      <trkpt lat="45.5603" lon="4.60806">
        <ele>416.6</ele>
        <time>2018-05-06T10:07:23Z</time>
      </trkpt>
      <trkpt lat="45.56027" lon="4.60801">
        <ele>416.8</ele>
        <time>2018-05-06T10:07:25Z</time>
      </trkpt>
      <trkpt lat="45.56022" lon="4.6079">
        <ele>417.1</ele>
        <time>2018-05-06T10:07:29Z</time>
      </trkpt>
      <trkpt lat="45.56016" lon="4.60775">
        <ele>417.4</ele>
        <time>2018-05-06T10:07:34Z</time>
      </trkpt>
      <trkpt lat="45.56014" lon="4.6077">
        <ele>417.6</ele>
        <time>2018-05-06T10:08:37Z</time>
      </trkpt>
      <trkpt lat="45.56012" lon="4.60762">
        <ele>417.8</ele>
        <time>2018-05-06T10:08:40Z</time>
      </trkpt>
      <trkpt lat="45.55999" lon="4.60736">
        <ele>418.8</ele>
        <time>2018-05-06T10:08:47Z</time>
      </trkpt>
      <trkpt lat="45.55986" lon="4.60714">
        <ele>419.8</ele>
        <time>2018-05-06T10:08:53Z</time>
      </trkpt>
      <trkpt lat="45.55984" lon="4.60711">
        <ele>420</ele>
        <time>2018-05-06T10:08:54Z</time>
      </trkpt>
      <trkpt lat="45.55969" lon="4.6069">
        <ele>421.3</ele>
        <time>2018-05-06T10:09:00Z</time>
      </trkpt>
      <trkpt lat="45.55967" lon="4.60687">
        <ele>421.6</ele>
        <time>2018-05-06T10:09:01Z</time>
      </trkpt>
      <trkpt lat="45.55946" lon="4.6066">
        <ele>423</ele>
        <time>2018-05-06T10:09:09Z</time>
      </trkpt>
      <trkpt lat="45.55944" lon="4.60657">
        <ele>423</ele>
        <time>2018-05-06T10:09:10Z</time>
      </trkpt>
      <trkpt lat="45.55924" lon="4.60629">
        <ele>423</ele>
        <time>2018-05-06T10:09:19Z</time>
      </trkpt>
      <trkpt lat="45.559" lon="4.606">
        <ele>423.4</ele>
        <time>2018-05-06T10:09:28Z</time>
      </trkpt>
      <trkpt lat="45.55874" lon="4.60575">
        <ele>424.3</ele>
        <time>2018-05-06T10:09:37Z</time>
      </trkpt>
      <trkpt lat="45.55849" lon="4.60556">
        <ele>424.9</ele>
        <time>2018-05-06T10:09:45Z</time>
      </trkpt>
      <trkpt lat="45.55826" lon="4.60541">
        <ele>425</ele>
        <time>2018-05-06T10:09:53Z</time>
      </trkpt>
      <trkpt lat="45.55816" lon="4.60534">
        <ele>425</ele>
        <time>2018-05-06T10:09:56Z</time>
      </trkpt>
      <trkpt lat="45.55809" lon="4.60526">
        <ele>425.3</ele>
        <time>2018-05-06T10:09:59Z</time>
      </trkpt>
      <trkpt lat="45.55806" lon="4.60516">
        <ele>426.1</ele>
        <time>2018-05-06T10:10:03Z</time>
      </trkpt>
      <trkpt lat="45.55805" lon="4.60513">
        <ele>426.4</ele>
        <time>2018-05-06T10:10:04Z</time>
      </trkpt>
      <trkpt lat="45.55797" lon="4.60504">
        <ele>427.3</ele>
        <time>2018-05-06T10:10:08Z</time>
      </trkpt>
      <trkpt lat="45.55793" lon="4.605">
        <ele>427.8</ele>
        <time>2018-05-06T10:10:10Z</time>
      </trkpt>
      <trkpt lat="45.55771" lon="4.60486">
        <ele>430.6</ele>
        <time>2018-05-06T10:10:18Z</time>
      </trkpt>
      <trkpt lat="45.55767" lon="4.60487">
        <ele>431</ele>
        <time>2018-05-06T10:10:19Z</time>
      </trkpt>
      <trkpt lat="45.55752" lon="4.60494">
        <ele>426.1</ele>
        <time>2018-05-06T10:10:23Z</time>
      </trkpt>
      <trkpt lat="45.55737" lon="4.60488">
        <ele>423.1</ele>
        <time>2018-05-06T10:10:28Z</time>
      </trkpt>
      <trkpt lat="45.55726" lon="4.60482">
        <ele>423.6</ele>
        <time>2018-05-06T10:10:32Z</time>
      </trkpt>
      <trkpt lat="45.55717" lon="4.60475">
        <ele>424</ele>
        <time>2018-05-06T10:10:36Z</time>
      </trkpt>
      <trkpt lat="45.55697" lon="4.60462">
        <ele>424.7</ele>
        <time>2018-05-06T10:10:44Z</time>
      </trkpt>
      <trkpt lat="45.5567" lon="4.60445">
        <ele>425.5</ele>
        <time>2018-05-06T10:10:54Z</time>
      </trkpt>
      <trkpt lat="45.55647" lon="4.60432">
        <ele>426.2</ele>
        <time>2018-05-06T10:11:02Z</time>
      </trkpt>
      <trkpt lat="45.55626" lon="4.60423">
        <ele>426.8</ele>
        <time>2018-05-06T10:11:09Z</time>
      </trkpt>
      <trkpt lat="45.55614" lon="4.60417">
        <ele>426.9</ele>
        <time>2018-05-06T10:11:13Z</time>
      </trkpt>
      <trkpt lat="45.5559" lon="4.60407">
        <ele>426.6</ele>
        <time>2018-05-06T10:11:22Z</time>
      </trkpt>
      <trkpt lat="45.55585" lon="4.60405">
        <ele>426.3</ele>
        <time>2018-05-06T10:11:24Z</time>
      </trkpt>
      <trkpt lat="45.55573" lon="4.60397">
        <ele>426.4</ele>
        <time>2018-05-06T10:11:29Z</time>
      </trkpt>
      <trkpt lat="45.55555" lon="4.6038">
        <ele>427.3</ele>
        <time>2018-05-06T10:11:36Z</time>
      </trkpt>
      <trkpt lat="45.55537" lon="4.60355">
        <ele>428.6</ele>
        <time>2018-05-06T10:11:45Z</time>
      </trkpt>
      <trkpt lat="45.55534" lon="4.60349">
        <ele>428.8</ele>
        <time>2018-05-06T10:11:47Z</time>
      </trkpt>
      <trkpt lat="45.55526" lon="4.60336">
        <ele>429.2</ele>
        <time>2018-05-06T10:11:53Z</time>
      </trkpt>
      <trkpt lat="45.55516" lon="4.6032">
        <ele>430.1</ele>
        <time>2018-05-06T10:12:01Z</time>
      </trkpt>
      <trkpt lat="45.55515" lon="4.60318">
        <ele>430.2</ele>
        <time>2018-05-06T10:12:02Z</time>
      </trkpt>
      <trkpt lat="45.55504" lon="4.60302">
        <ele>431.2</ele>
        <time>2018-05-06T10:12:11Z</time>
      </trkpt>
      <trkpt lat="45.555" lon="4.60295">
        <ele>431.5</ele>
        <time>2018-05-06T10:12:15Z</time>
      </trkpt>
      <trkpt lat="45.55496" lon="4.6029">
        <ele>431.8</ele>
        <time>2018-05-06T10:12:18Z</time>
      </trkpt>
      <trkpt lat="45.5549" lon="4.60283">
        <ele>432.1</ele>
        <time>2018-05-06T10:12:21Z</time>
      </trkpt>
      <trkpt lat="45.55481" lon="4.60268">
        <ele>432.5</ele>
        <time>2018-05-06T10:12:26Z</time>
      </trkpt>
      <trkpt lat="45.55464" lon="4.60245">
        <ele>432.8</ele>
        <time>2018-05-06T10:12:33Z</time>
      </trkpt>
      <trkpt lat="45.55458" lon="4.60235">
        <ele>432.9</ele>
        <time>2018-05-06T10:12:36Z</time>
      </trkpt>
      <trkpt lat="45.55451" lon="4.60224">
        <ele>433</ele>
        <time>2018-05-06T10:12:40Z</time>
      </trkpt>
      <trkpt lat="45.55437" lon="4.60215">
        <ele>433</ele>
        <time>2018-05-06T10:12:43Z</time>
      </trkpt>
      <trkpt lat="45.55431" lon="4.60212">
        <ele>433</ele>
        <time>2018-05-06T10:12:44Z</time>
      </trkpt>
      <trkpt lat="45.55425" lon="4.60208">
        <ele>433</ele>
        <time>2018-05-06T10:12:45Z</time>
      </trkpt>
      <trkpt lat="45.55421" lon="4.60202">
        <ele>433</ele>
        <time>2018-05-06T10:12:46Z</time>
      </trkpt>
      <trkpt lat="45.55418" lon="4.60195">
        <ele>433</ele>
        <time>2018-05-06T10:12:47Z</time>
      </trkpt>
      <trkpt lat="45.55419" lon="4.60181">
        <ele>433</ele>
        <time>2018-05-06T10:12:49Z</time>
      </trkpt>
      <trkpt lat="45.5542" lon="4.60175">
        <ele>433</ele>
        <time>2018-05-06T10:12:50Z</time>
      </trkpt>
      <trkpt lat="45.55423" lon="4.60146">
        <ele>433</ele>
        <time>2018-05-06T10:12:55Z</time>
      </trkpt>
      <trkpt lat="45.55426" lon="4.60086">
        <ele>433.1</ele>
        <time>2018-05-06T10:13:05Z</time>
      </trkpt>
      <trkpt lat="45.55429" lon="4.60055">
        <ele>433.2</ele>
        <time>2018-05-06T10:13:10Z</time>
      </trkpt>
      <trkpt lat="45.5543" lon="4.60037">
        <ele>433.4</ele>
        <time>2018-05-06T10:13:13Z</time>
      </trkpt>
      <trkpt lat="45.55432" lon="4.60025">
        <ele>433.6</ele>
        <time>2018-05-06T10:13:15Z</time>
      </trkpt>
      <trkpt lat="45.55434" lon="4.60014">
        <ele>433.7</ele>
        <time>2018-05-06T10:13:17Z</time>
      </trkpt>
      <trkpt lat="45.55435" lon="4.60009">
        <ele>433.7</ele>
        <time>2018-05-06T10:13:18Z</time>
      </trkpt>
      <trkpt lat="45.55436" lon="4.60003">
        <ele>433.8</ele>
        <time>2018-05-06T10:13:19Z</time>
      </trkpt>
      <trkpt lat="45.55444" lon="4.59956">
        <ele>434.2</ele>
        <time>2018-05-06T10:13:28Z</time>
      </trkpt>
      <trkpt lat="45.55445" lon="4.59951">
        <ele>434.2</ele>
        <time>2018-05-06T10:13:29Z</time>
      </trkpt>
      <trkpt lat="45.55453" lon="4.59912">
        <ele>434.2</ele>
        <time>2018-05-06T10:13:37Z</time>
      </trkpt>
      <trkpt lat="45.55454" lon="4.59907">
        <ele>434.1</ele>
        <time>2018-05-06T10:13:38Z</time>
      </trkpt>
      <trkpt lat="45.55461" lon="4.59878">
        <ele>434</ele>
        <time>2018-05-06T10:13:44Z</time>
      </trkpt>
      <trkpt lat="45.55462" lon="4.59874">
        <ele>434</ele>
        <time>2018-05-06T10:13:45Z</time>
      </trkpt>
      <trkpt lat="45.5547" lon="4.59848">
        <ele>433.9</ele>
        <time>2018-05-06T10:13:51Z</time>
      </trkpt>
      <trkpt lat="45.55472" lon="4.59845">
        <ele>433.9</ele>
        <time>2018-05-06T10:13:52Z</time>
      </trkpt>
      <trkpt lat="45.55491" lon="4.59809">
        <ele>434.3</ele>
        <time>2018-05-06T10:14:01Z</time>
      </trkpt>
      <trkpt lat="45.55495" lon="4.59796">
        <ele>434.4</ele>
        <time>2018-05-06T10:14:04Z</time>
      </trkpt>
      <trkpt lat="45.55499" lon="4.59777">
        <ele>434.6</ele>
        <time>2018-05-06T10:14:08Z</time>
      </trkpt>
      <trkpt lat="45.55501" lon="4.59768">
        <ele>434.8</ele>
        <time>2018-05-06T10:14:10Z</time>
      </trkpt>
      <trkpt lat="45.55504" lon="4.59746">
        <ele>435.1</ele>
        <time>2018-05-06T10:14:15Z</time>
      </trkpt>
      <trkpt lat="45.55505" lon="4.59737">
        <ele>435.2</ele>
        <time>2018-05-06T10:14:17Z</time>
      </trkpt>
      <trkpt lat="45.55509" lon="4.59713">
        <ele>435.5</ele>
        <time>2018-05-06T10:14:22Z</time>
      </trkpt>
      <trkpt lat="45.5551" lon="4.59709">
        <ele>435.5</ele>
        <time>2018-05-06T10:14:23Z</time>
      </trkpt>
      <trkpt lat="45.55517" lon="4.59689">
        <ele>435.7</ele>
        <time>2018-05-06T10:14:28Z</time>
      </trkpt>
      <trkpt lat="45.55533" lon="4.59664">
        <ele>435.8</ele>
        <time>2018-05-06T10:14:36Z</time>
      </trkpt>
      <trkpt lat="45.55553" lon="4.59638">
        <ele>436.1</ele>
        <time>2018-05-06T10:14:45Z</time>
      </trkpt>
      <trkpt lat="45.55567" lon="4.59621">
        <ele>437.3</ele>
        <time>2018-05-06T10:14:51Z</time>
      </trkpt>
      <trkpt lat="45.55589" lon="4.59589">
        <ele>439.3</ele>
        <time>2018-05-06T10:15:01Z</time>
      </trkpt>
      <trkpt lat="45.55601" lon="4.59565">
        <ele>440.5</ele>
        <time>2018-05-06T10:15:08Z</time>
      </trkpt>
      <trkpt lat="45.55605" lon="4.59558">
        <ele>440.9</ele>
        <time>2018-05-06T10:15:10Z</time>
      </trkpt>
      <trkpt lat="45.55609" lon="4.59541">
        <ele>441.6</ele>
        <time>2018-05-06T10:15:14Z</time>
      </trkpt>
      <trkpt lat="45.55612" lon="4.5953">
        <ele>442.1</ele>
        <time>2018-05-06T10:15:17Z</time>
      </trkpt>
      <trkpt lat="45.55616" lon="4.5952">
        <ele>442.6</ele>
        <time>2018-05-06T10:15:20Z</time>
      </trkpt>
      <trkpt lat="45.55622" lon="4.59501">
        <ele>443.3</ele>
        <time>2018-05-06T10:15:25Z</time>
      </trkpt>
      <trkpt lat="45.55622" lon="4.595">
        <ele>443.4</ele>
        <time>2018-05-06T10:15:26Z</time>
      </trkpt>
      <trkpt lat="45.55624" lon="4.59497">
        <ele>443.6</ele>
        <time>2018-05-06T10:16:22Z</time>
      </trkpt>
      <trkpt lat="45.55625" lon="4.59495">
        <ele>443.7</ele>
        <time>2018-05-06T10:16:23Z</time>
      </trkpt>
      <trkpt lat="45.55627" lon="4.59492">
        <ele>443.8</ele>
        <time>2018-05-06T10:16:24Z</time>
      </trkpt>
      <trkpt lat="45.55634" lon="4.59474">
        <ele>444.6</ele>
        <time>2018-05-06T10:16:29Z</time>
      </trkpt>
      <trkpt lat="45.55636" lon="4.59471">
        <ele>444.8</ele>
        <time>2018-05-06T10:16:30Z</time>
      </trkpt>
      <trkpt lat="45.55639" lon="4.59465">
        <ele>445.1</ele>
        <time>2018-05-06T10:16:32Z</time>
      </trkpt>
      <trkpt lat="45.55643" lon="4.59458">
        <ele>445.5</ele>
        <time>2018-05-06T10:16:34Z</time>
      </trkpt>
      <trkpt lat="45.55647" lon="4.59453">
        <ele>445.8</ele>
        <time>2018-05-06T10:16:36Z</time>
      </trkpt>
      <trkpt lat="45.55649" lon="4.59449">
        <ele>446</ele>
        <time>2018-05-06T10:16:37Z</time>
      </trkpt>
      <trkpt lat="45.55669" lon="4.59425">
        <ele>447.4</ele>
        <time>2018-05-06T10:16:46Z</time>
      </trkpt>
      <trkpt lat="45.55689" lon="4.594">
        <ele>448.7</ele>
        <time>2018-05-06T10:16:55Z</time>
      </trkpt>
      <trkpt lat="45.55706" lon="4.59378">
        <ele>450.1</ele>
        <time>2018-05-06T10:17:03Z</time>
      </trkpt>
      <trkpt lat="45.55719" lon="4.59356">
        <ele>451.4</ele>
        <time>2018-05-06T10:17:10Z</time>
      </trkpt>
      <trkpt lat="45.55727" lon="4.5933">
        <ele>452.7</ele>
        <time>2018-05-06T10:17:17Z</time>
      </trkpt>
      <trkpt lat="45.55732" lon="4.59303">
        <ele>454</ele>
        <time>2018-05-06T10:17:24Z</time>
      </trkpt>
      <trkpt lat="45.55731" lon="4.59273">
        <ele>455.3</ele>
        <time>2018-05-06T10:17:31Z</time>
      </trkpt>
      <trkpt lat="45.55731" lon="4.59268">
        <ele>455.5</ele>
        <time>2018-05-06T10:17:32Z</time>
      </trkpt>
      <trkpt lat="45.55725" lon="4.59234">
        <ele>456.9</ele>
        <time>2018-05-06T10:17:40Z</time>
      </trkpt>
      <trkpt lat="45.55712" lon="4.59206">
        <ele>458.4</ele>
        <time>2018-05-06T10:17:48Z</time>
      </trkpt>
      <trkpt lat="45.55706" lon="4.59197">
        <ele>459</ele>
        <time>2018-05-06T10:17:51Z</time>
      </trkpt>
      <trkpt lat="45.5569" lon="4.59179">
        <ele>460.4</ele>
        <time>2018-05-06T10:17:58Z</time>
      </trkpt>
      <trkpt lat="45.55688" lon="4.59177">
        <ele>460.5</ele>
        <time>2018-05-06T10:17:59Z</time>
      </trkpt>
      <trkpt lat="45.55671" lon="4.59164">
        <ele>461.6</ele>
        <time>2018-05-06T10:18:05Z</time>
      </trkpt>
      <trkpt lat="45.55666" lon="4.59161">
        <ele>462</ele>
        <time>2018-05-06T10:18:07Z</time>
      </trkpt>
      <trkpt lat="45.55648" lon="4.59158">
        <ele>463</ele>
        <time>2018-05-06T10:18:13Z</time>
      </trkpt>
      <trkpt lat="45.55642" lon="4.59158">
        <ele>463.4</ele>
        <time>2018-05-06T10:18:15Z</time>
      </trkpt>
      <trkpt lat="45.55624" lon="4.59163">
        <ele>464.5</ele>
        <time>2018-05-06T10:18:21Z</time>
      </trkpt>
      <trkpt lat="45.55621" lon="4.59164">
        <ele>464.7</ele>
        <time>2018-05-06T10:18:22Z</time>
      </trkpt>
      <trkpt lat="45.55607" lon="4.59173">
        <ele>465.6</ele>
        <time>2018-05-06T10:18:27Z</time>
      </trkpt>
      <trkpt lat="45.55591" lon="4.59195">
        <ele>466.9</ele>
        <time>2018-05-06T10:18:34Z</time>
      </trkpt>
      <trkpt lat="45.55588" lon="4.59199">
        <ele>467</ele>
        <time>2018-05-06T10:18:35Z</time>
      </trkpt>
      <trkpt lat="45.5557" lon="4.59234">
        <ele>468.2</ele>
        <time>2018-05-06T10:18:43Z</time>
      </trkpt>
      <trkpt lat="45.55551" lon="4.59261">
        <ele>469.3</ele>
        <time>2018-05-06T10:18:50Z</time>
      </trkpt>
      <trkpt lat="45.55528" lon="4.59275">
        <ele>470.5</ele>
        <time>2018-05-06T10:18:57Z</time>
      </trkpt>
      <trkpt lat="45.5551" lon="4.59277">
        <ele>471.3</ele>
        <time>2018-05-06T10:19:02Z</time>
      </trkpt>
      <trkpt lat="45.55507" lon="4.59277">
        <ele>471.5</ele>
        <time>2018-05-06T10:19:03Z</time>
      </trkpt>
      <trkpt lat="45.55486" lon="4.5928">
        <ele>472.4</ele>
        <time>2018-05-06T10:19:09Z</time>
      </trkpt>
      <trkpt lat="45.55483" lon="4.59281">
        <ele>472.5</ele>
        <time>2018-05-06T10:19:10Z</time>
      </trkpt>
      <trkpt lat="45.55464" lon="4.59286">
        <ele>473.3</ele>
        <time>2018-05-06T10:19:16Z</time>
      </trkpt>
      <trkpt lat="45.55455" lon="4.59288">
        <ele>473.7</ele>
        <time>2018-05-06T10:19:19Z</time>
      </trkpt>
      <trkpt lat="45.55436" lon="4.59293">
        <ele>474.5</ele>
        <time>2018-05-06T10:19:25Z</time>
      </trkpt>
      <trkpt lat="45.55433" lon="4.59294">
        <ele>474.6</ele>
        <time>2018-05-06T10:19:26Z</time>
      </trkpt>
      <trkpt lat="45.55407" lon="4.59301">
        <ele>475.8</ele>
        <time>2018-05-06T10:19:34Z</time>
      </trkpt>
      <trkpt lat="45.5539" lon="4.59303">
        <ele>476.6</ele>
        <time>2018-05-06T10:19:40Z</time>
      </trkpt>
      <trkpt lat="45.55373" lon="4.59307">
        <ele>477.3</ele>
        <time>2018-05-06T10:19:45Z</time>
      </trkpt>
      <trkpt lat="45.55366" lon="4.59308">
        <ele>477.6</ele>
        <time>2018-05-06T10:19:47Z</time>
      </trkpt>
      <trkpt lat="45.55338" lon="4.59306">
        <ele>478.9</ele>
        <time>2018-05-06T10:19:55Z</time>
      </trkpt>
      <trkpt lat="45.5532" lon="4.59305">
        <ele>478.9</ele>
        <time>2018-05-06T10:20:01Z</time>
      </trkpt>
      <trkpt lat="45.55303" lon="4.59304">
        <ele>478.9</ele>
        <time>2018-05-06T10:20:06Z</time>
      </trkpt>
      <trkpt lat="45.55291" lon="4.59301">
        <ele>478.9</ele>
        <time>2018-05-06T10:20:10Z</time>
      </trkpt>
      <trkpt lat="45.55274" lon="4.59296">
        <ele>478.9</ele>
        <time>2018-05-06T10:20:16Z</time>
      </trkpt>
      <trkpt lat="45.55271" lon="4.59295">
        <ele>478.9</ele>
        <time>2018-05-06T10:20:17Z</time>
      </trkpt>
      <trkpt lat="45.55257" lon="4.59288">
        <ele>479</ele>
        <time>2018-05-06T10:20:23Z</time>
      </trkpt>
      <trkpt lat="45.55256" lon="4.59285">
        <ele>479</ele>
        <time>2018-05-06T10:20:24Z</time>
      </trkpt>
      <trkpt lat="45.55257" lon="4.5928">
        <ele>479.2</ele>
        <time>2018-05-06T10:20:26Z</time>
      </trkpt>
      <trkpt lat="45.55258" lon="4.59277">
        <ele>479.3</ele>
        <time>2018-05-06T10:20:27Z</time>
      </trkpt>
      <trkpt lat="45.55259" lon="4.59275">
        <ele>479.4</ele>
        <time>2018-05-06T10:20:28Z</time>
      </trkpt>
      <trkpt lat="45.5526" lon="4.5927">
        <ele>479.6</ele>
        <time>2018-05-06T10:20:30Z</time>
      </trkpt>
      <trkpt lat="45.55263" lon="4.59257">
        <ele>480.5</ele>
        <time>2018-05-06T10:20:35Z</time>
      </trkpt>
      <trkpt lat="45.55268" lon="4.59232">
        <ele>481.2</ele>
        <time>2018-05-06T10:20:44Z</time>
      </trkpt>
      <trkpt lat="45.55268" lon="4.5923">
        <ele>481.2</ele>
        <time>2018-05-06T10:20:45Z</time>
      </trkpt>
      <trkpt lat="45.5527" lon="4.59216">
        <ele>481.6</ele>
        <time>2018-05-06T10:20:51Z</time>
      </trkpt>
      <trkpt lat="45.55271" lon="4.59211">
        <ele>481.8</ele>
        <time>2018-05-06T10:20:53Z</time>
      </trkpt>
      <trkpt lat="45.55273" lon="4.59195">
        <ele>482.6</ele>
        <time>2018-05-06T10:20:59Z</time>
      </trkpt>
      <trkpt lat="45.55274" lon="4.59187">
        <ele>483.1</ele>
        <time>2018-05-06T10:21:02Z</time>
      </trkpt>
      <trkpt lat="45.55276" lon="4.59172">
        <ele>484.2</ele>
        <time>2018-05-06T10:21:08Z</time>
      </trkpt>
      <trkpt lat="45.55278" lon="4.5916">
        <ele>485</ele>
        <time>2018-05-06T10:21:13Z</time>
      </trkpt>
      <trkpt lat="45.55278" lon="4.59158">
        <ele>485.2</ele>
        <time>2018-05-06T10:21:14Z</time>
      </trkpt>
      <trkpt lat="45.55281" lon="4.59139">
        <ele>486.4</ele>
        <time>2018-05-06T10:21:22Z</time>
      </trkpt>
      <trkpt lat="45.55283" lon="4.59121">
        <ele>487.4</ele>
        <time>2018-05-06T10:21:30Z</time>
      </trkpt>
      <trkpt lat="45.55282" lon="4.59119">
        <ele>487.5</ele>
        <time>2018-05-06T10:21:31Z</time>
      </trkpt>
      <trkpt lat="45.55289" lon="4.59072">
        <ele>489.6</ele>
        <time>2018-05-06T10:23:43Z</time>
      </trkpt>
      <trkpt lat="45.55289" lon="4.59071">
        <ele>489.6</ele>
        <time>2018-05-06T10:23:44Z</time>
      </trkpt>
      <trkpt lat="45.55286" lon="4.59062">
        <ele>489.9</ele>
        <time>2018-05-06T10:23:59Z</time>
      </trkpt>
      <trkpt lat="45.55286" lon="4.5906">
        <ele>490</ele>
        <time>2018-05-06T10:24:00Z</time>
      </trkpt>
      <trkpt lat="45.55282" lon="4.59037">
        <ele>490.1</ele>
        <time>2018-05-06T10:24:08Z</time>
      </trkpt>
      <trkpt lat="45.55279" lon="4.5901">
        <ele>489.9</ele>
        <time>2018-05-06T10:24:14Z</time>
      </trkpt>
      <trkpt lat="45.55272" lon="4.58982">
        <ele>488.6</ele>
        <time>2018-05-06T10:24:21Z</time>
      </trkpt>
      <trkpt lat="45.5527" lon="4.58973">
        <ele>489.1</ele>
        <time>2018-05-06T10:24:37Z</time>
      </trkpt>
      <trkpt lat="45.55271" lon="4.5897">
        <ele>489.3</ele>
        <time>2018-05-06T10:24:38Z</time>
      </trkpt>
      <trkpt lat="45.55278" lon="4.58963">
        <ele>489.9</ele>
        <time>2018-05-06T10:24:43Z</time>
      </trkpt>
      <trkpt lat="45.55288" lon="4.58951">
        <ele>491</ele>
        <time>2018-05-06T10:24:51Z</time>
      </trkpt>
      <trkpt lat="45.55299" lon="4.58938">
        <ele>492</ele>
        <time>2018-05-06T10:24:59Z</time>
      </trkpt>
      <trkpt lat="45.5531" lon="4.58922">
        <ele>493.1</ele>
        <time>2018-05-06T10:25:08Z</time>
      </trkpt>
      <trkpt lat="45.55314" lon="4.58916">
        <ele>493.4</ele>
        <time>2018-05-06T10:25:11Z</time>
      </trkpt>
      <trkpt lat="45.55319" lon="4.58908">
        <ele>493.7</ele>
        <time>2018-05-06T10:25:15Z</time>
      </trkpt>
      <trkpt lat="45.55322" lon="4.58903">
        <ele>493.9</ele>
        <time>2018-05-06T10:25:18Z</time>
      </trkpt>
      <trkpt lat="45.55324" lon="4.58901">
        <ele>493.9</ele>
        <time>2018-05-06T10:25:19Z</time>
      </trkpt>
      <trkpt lat="45.55327" lon="4.58896">
        <ele>494</ele>
        <time>2018-05-06T10:25:22Z</time>
      </trkpt>
      <trkpt lat="45.55333" lon="4.58888">
        <ele>493.9</ele>
        <time>2018-05-06T10:25:27Z</time>
      </trkpt>
      <trkpt lat="45.55334" lon="4.58886">
        <ele>493.9</ele>
        <time>2018-05-06T10:25:28Z</time>
      </trkpt>
      <trkpt lat="45.55342" lon="4.58874">
        <ele>493.5</ele>
        <time>2018-05-06T10:25:35Z</time>
      </trkpt>
      <trkpt lat="45.55345" lon="4.58869">
        <ele>493.3</ele>
        <time>2018-05-06T10:25:38Z</time>
      </trkpt>
      <trkpt lat="45.55349" lon="4.58854">
        <ele>492.8</ele>
        <time>2018-05-06T10:25:45Z</time>
      </trkpt>
      <trkpt lat="45.55358" lon="4.58828">
        <ele>492.1</ele>
        <time>2018-05-06T10:25:53Z</time>
      </trkpt>
      <trkpt lat="45.5537" lon="4.58792">
        <ele>491.5</ele>
        <time>2018-05-06T10:25:59Z</time>
      </trkpt>
      <trkpt lat="45.55374" lon="4.58748">
        <ele>491</ele>
        <time>2018-05-06T10:26:05Z</time>
      </trkpt>
      <trkpt lat="45.55378" lon="4.58698">
        <ele>489.6</ele>
        <time>2018-05-06T10:26:12Z</time>
      </trkpt>
      <trkpt lat="45.5538" lon="4.5865">
        <ele>488.5</ele>
        <time>2018-05-06T10:26:18Z</time>
      </trkpt>
      <trkpt lat="45.55377" lon="4.58626">
        <ele>487.7</ele>
        <time>2018-05-06T10:26:21Z</time>
      </trkpt>
      <trkpt lat="45.55372" lon="4.58611">
        <ele>487.4</ele>
        <time>2018-05-06T10:26:23Z</time>
      </trkpt>
      <trkpt lat="45.55361" lon="4.58592">
        <ele>486.8</ele>
        <time>2018-05-06T10:26:26Z</time>
      </trkpt>
      <trkpt lat="45.55352" lon="4.5858">
        <ele>486.2</ele>
        <time>2018-05-06T10:26:28Z</time>
      </trkpt>
      <trkpt lat="45.55348" lon="4.58573">
        <ele>486</ele>
        <time>2018-05-06T10:26:29Z</time>
      </trkpt>
      <trkpt lat="45.55345" lon="4.58564">
        <ele>485.8</ele>
        <time>2018-05-06T10:26:30Z</time>
      </trkpt>
      <trkpt lat="45.55334" lon="4.58542">
        <ele>485.6</ele>
        <time>2018-05-06T10:26:33Z</time>
      </trkpt>
      <trkpt lat="45.55316" lon="4.58518">
        <ele>485.6</ele>
        <time>2018-05-06T10:26:37Z</time>
      </trkpt>
      <trkpt lat="45.55307" lon="4.58507">
        <ele>485.6</ele>
        <time>2018-05-06T10:26:39Z</time>
      </trkpt>
      <trkpt lat="45.55274" lon="4.58463">
        <ele>485.3</ele>
        <time>2018-05-06T10:26:47Z</time>
      </trkpt>
      <trkpt lat="45.55269" lon="4.58457">
        <ele>485.2</ele>
        <time>2018-05-06T10:26:48Z</time>
      </trkpt>
      <trkpt lat="45.55239" lon="4.5841">
        <ele>482.4</ele>
        <time>2018-05-06T10:26:56Z</time>
      </trkpt>
      <trkpt lat="45.55231" lon="4.58398">
        <ele>481.9</ele>
        <time>2018-05-06T10:26:58Z</time>
      </trkpt>
      <trkpt lat="45.55228" lon="4.58391">
        <ele>481.6</ele>
        <time>2018-05-06T10:26:59Z</time>
      </trkpt>
      <trkpt lat="45.55218" lon="4.58368">
        <ele>480.2</ele>
        <time>2018-05-06T10:27:02Z</time>
      </trkpt>
      <trkpt lat="45.55215" lon="4.5836">
        <ele>479.8</ele>
        <time>2018-05-06T10:27:03Z</time>
      </trkpt>
      <trkpt lat="45.55212" lon="4.58342">
        <ele>478.7</ele>
        <time>2018-05-06T10:27:05Z</time>
      </trkpt>
      <trkpt lat="45.55212" lon="4.58332">
        <ele>477.9</ele>
        <time>2018-05-06T10:27:06Z</time>
      </trkpt>
      <trkpt lat="45.55212" lon="4.58323">
        <ele>477.1</ele>
        <time>2018-05-06T10:27:07Z</time>
      </trkpt>
      <trkpt lat="45.55213" lon="4.58303">
        <ele>475.5</ele>
        <time>2018-05-06T10:27:09Z</time>
      </trkpt>
      <trkpt lat="45.55215" lon="4.58282">
        <ele>474.2</ele>
        <time>2018-05-06T10:27:11Z</time>
      </trkpt>
      <trkpt lat="45.55217" lon="4.58271">
        <ele>473.9</ele>
        <time>2018-05-06T10:27:12Z</time>
      </trkpt>
      <trkpt lat="45.5522" lon="4.58259">
        <ele>473.7</ele>
        <time>2018-05-06T10:27:13Z</time>
      </trkpt>
      <trkpt lat="45.55224" lon="4.58235">
        <ele>473.6</ele>
        <time>2018-05-06T10:27:15Z</time>
      </trkpt>
      <trkpt lat="45.55229" lon="4.58212">
        <ele>473.6</ele>
        <time>2018-05-06T10:27:17Z</time>
      </trkpt>
      <trkpt lat="45.55238" lon="4.58193">
        <ele>473.6</ele>
        <time>2018-05-06T10:27:19Z</time>
      </trkpt>
      <trkpt lat="45.55244" lon="4.58187">
        <ele>473.6</ele>
        <time>2018-05-06T10:27:20Z</time>
      </trkpt>
      <trkpt lat="45.55268" lon="4.5817">
        <ele>473.7</ele>
        <time>2018-05-06T10:27:24Z</time>
      </trkpt>
      <trkpt lat="45.55273" lon="4.58167">
        <ele>473.7</ele>
        <time>2018-05-06T10:27:25Z</time>
      </trkpt>
      <trkpt lat="45.55292" lon="4.58154">
        <ele>473.7</ele>
        <time>2018-05-06T10:27:29Z</time>
      </trkpt>
      <trkpt lat="45.55315" lon="4.58139">
        <ele>473.8</ele>
        <time>2018-05-06T10:27:34Z</time>
      </trkpt>
      <trkpt lat="45.55326" lon="4.58133">
        <ele>473.8</ele>
        <time>2018-05-06T10:27:36Z</time>
      </trkpt>
      <trkpt lat="45.55364" lon="4.58111">
        <ele>473.7</ele>
        <time>2018-05-06T10:27:43Z</time>
      </trkpt>
      <trkpt lat="45.55373" lon="4.58099">
        <ele>473.4</ele>
        <time>2018-05-06T10:27:45Z</time>
      </trkpt>
      <trkpt lat="45.55378" lon="4.58084">
        <ele>472.9</ele>
        <time>2018-05-06T10:27:47Z</time>
      </trkpt>
      <trkpt lat="45.55379" lon="4.58061">
        <ele>472.2</ele>
        <time>2018-05-06T10:27:50Z</time>
      </trkpt>
      <trkpt lat="45.55372" lon="4.58044">
        <ele>471.9</ele>
        <time>2018-05-06T10:27:53Z</time>
      </trkpt>
      <trkpt lat="45.55352" lon="4.58026">
        <ele>472</ele>
        <time>2018-05-06T10:27:57Z</time>
      </trkpt>
      <trkpt lat="45.55339" lon="4.58021">
        <ele>472.2</ele>
        <time>2018-05-06T10:27:59Z</time>
      </trkpt>
      <trkpt lat="45.55328" lon="4.58016">
        <ele>472.5</ele>
        <time>2018-05-06T10:28:01Z</time>
      </trkpt>
      <trkpt lat="45.55284" lon="4.58001">
        <ele>474.4</ele>
        <time>2018-05-06T10:28:09Z</time>
      </trkpt>
      <trkpt lat="45.55248" lon="4.57987">
        <ele>476.2</ele>
        <time>2018-05-06T10:28:17Z</time>
      </trkpt>
      <trkpt lat="45.55216" lon="4.57975">
        <ele>478</ele>
        <time>2018-05-06T10:28:25Z</time>
      </trkpt>
      <trkpt lat="45.55191" lon="4.57965">
        <ele>479.7</ele>
        <time>2018-05-06T10:28:32Z</time>
      </trkpt>
      <trkpt lat="45.55174" lon="4.57956">
        <ele>481</ele>
        <time>2018-05-06T10:28:38Z</time>
      </trkpt>
      <trkpt lat="45.55172" lon="4.57955">
        <ele>481.1</ele>
        <time>2018-05-06T10:28:39Z</time>
      </trkpt>
      <trkpt lat="45.55166" lon="4.57952">
        <ele>481.7</ele>
        <time>2018-05-06T10:28:42Z</time>
      </trkpt>
      <trkpt lat="45.5516" lon="4.5795">
        <ele>482.2</ele>
        <time>2018-05-06T10:28:45Z</time>
      </trkpt>
      <trkpt lat="45.55156" lon="4.5795">
        <ele>482.5</ele>
        <time>2018-05-06T10:28:47Z</time>
      </trkpt>
      <trkpt lat="45.55147" lon="4.57949">
        <ele>483.2</ele>
        <time>2018-05-06T10:28:51Z</time>
      </trkpt>
      <trkpt lat="45.55137" lon="4.57946">
        <ele>484</ele>
        <time>2018-05-06T10:28:57Z</time>
      </trkpt>
      <trkpt lat="45.55134" lon="4.57944">
        <ele>484.2</ele>
        <time>2018-05-06T10:28:59Z</time>
      </trkpt>
      <trkpt lat="45.55124" lon="4.57939">
        <ele>484.6</ele>
        <time>2018-05-06T10:29:04Z</time>
      </trkpt>
      <trkpt lat="45.5511" lon="4.57933">
        <ele>484.9</ele>
        <time>2018-05-06T10:29:11Z</time>
      </trkpt>
      <trkpt lat="45.55102" lon="4.57933">
        <ele>485</ele>
        <time>2018-05-06T10:29:15Z</time>
      </trkpt>
      <trkpt lat="45.55095" lon="4.57932">
        <ele>485.1</ele>
        <time>2018-05-06T10:29:18Z</time>
      </trkpt>
      <trkpt lat="45.55092" lon="4.57932">
        <ele>485.1</ele>
        <time>2018-05-06T10:29:19Z</time>
      </trkpt>
      <trkpt lat="45.55068" lon="4.57934">
        <ele>485.2</ele>
        <time>2018-05-06T10:29:28Z</time>
      </trkpt>
      <trkpt lat="45.5505" lon="4.57934">
        <ele>485.2</ele>
        <time>2018-05-06T10:29:35Z</time>
      </trkpt>
      <trkpt lat="45.55047" lon="4.57935">
        <ele>485.2</ele>
        <time>2018-05-06T10:29:36Z</time>
      </trkpt>
      <trkpt lat="45.5503" lon="4.57939">
        <ele>485.3</ele>
        <time>2018-05-06T10:29:43Z</time>
      </trkpt>
      <trkpt lat="45.55012" lon="4.57943">
        <ele>485.4</ele>
        <time>2018-05-06T10:29:49Z</time>
      </trkpt>
      <trkpt lat="45.54993" lon="4.57946">
        <ele>485.4</ele>
        <time>2018-05-06T10:29:55Z</time>
      </trkpt>
      <trkpt lat="45.5497" lon="4.57957">
        <ele>485.5</ele>
        <time>2018-05-06T10:30:02Z</time>
      </trkpt>
      <trkpt lat="45.54945" lon="4.57966">
        <ele>485.5</ele>
        <time>2018-05-06T10:30:09Z</time>
      </trkpt>
      <trkpt lat="45.5492" lon="4.57971">
        <ele>485.4</ele>
        <time>2018-05-06T10:30:16Z</time>
      </trkpt>
      <trkpt lat="45.54888" lon="4.57972">
        <ele>485.1</ele>
        <time>2018-05-06T10:30:24Z</time>
      </trkpt>
      <trkpt lat="45.54884" lon="4.57971">
        <ele>485.1</ele>
        <time>2018-05-06T10:30:25Z</time>
      </trkpt>
      <trkpt lat="45.54865" lon="4.57968">
        <ele>484.1</ele>
        <time>2018-05-06T10:30:30Z</time>
      </trkpt>
      <trkpt lat="45.54837" lon="4.57971">
        <ele>479.6</ele>
        <time>2018-05-06T10:30:37Z</time>
      </trkpt>
      <trkpt lat="45.54833" lon="4.57972">
        <ele>479</ele>
        <time>2018-05-06T10:30:38Z</time>
      </trkpt>
      <trkpt lat="45.54806" lon="4.57977">
        <ele>478.6</ele>
        <time>2018-05-06T10:30:44Z</time>
      </trkpt>
      <trkpt lat="45.548" lon="4.57977">
        <ele>478.6</ele>
        <time>2018-05-06T10:30:45Z</time>
      </trkpt>
      <trkpt lat="45.54773" lon="4.57975">
        <ele>478.8</ele>
        <time>2018-05-06T10:30:50Z</time>
      </trkpt>
      <trkpt lat="45.54767" lon="4.57972">
        <ele>478.9</ele>
        <time>2018-05-06T10:30:51Z</time>
      </trkpt>
      <trkpt lat="45.54763" lon="4.57966">
        <ele>478.9</ele>
        <time>2018-05-06T10:30:52Z</time>
      </trkpt>
      <trkpt lat="45.54754" lon="4.57943">
        <ele>478.3</ele>
        <time>2018-05-06T10:30:55Z</time>
      </trkpt>
      <trkpt lat="45.54751" lon="4.57937">
        <ele>478.1</ele>
        <time>2018-05-06T10:30:56Z</time>
      </trkpt>
      <trkpt lat="45.54737" lon="4.5792">
        <ele>477.2</ele>
        <time>2018-05-06T10:30:59Z</time>
      </trkpt>
      <trkpt lat="45.54731" lon="4.57917">
        <ele>476.9</ele>
        <time>2018-05-06T10:31:00Z</time>
      </trkpt>
      <trkpt lat="45.5472" lon="4.57911">
        <ele>476.1</ele>
        <time>2018-05-06T10:31:02Z</time>
      </trkpt>
      <trkpt lat="45.54714" lon="4.57909">
        <ele>475.7</ele>
        <time>2018-05-06T10:31:03Z</time>
      </trkpt>
      <trkpt lat="45.54708" lon="4.57911">
        <ele>475.1</ele>
        <time>2018-05-06T10:31:04Z</time>
      </trkpt>
      <trkpt lat="45.54695" lon="4.57917">
        <ele>473.8</ele>
        <time>2018-05-06T10:31:06Z</time>
      </trkpt>
      <trkpt lat="45.54686" lon="4.57924">
        <ele>472.4</ele>
        <time>2018-05-06T10:31:08Z</time>
      </trkpt>
      <trkpt lat="45.54681" lon="4.57923">
        <ele>470.1</ele>
        <time>2018-05-06T10:31:10Z</time>
      </trkpt>
      <trkpt lat="45.5468" lon="4.57918">
        <ele>469.8</ele>
        <time>2018-05-06T10:31:11Z</time>
      </trkpt>
      <trkpt lat="45.54681" lon="4.57907">
        <ele>468.9</ele>
        <time>2018-05-06T10:31:13Z</time>
      </trkpt>
      <trkpt lat="45.54685" lon="4.57895">
        <ele>468.3</ele>
        <time>2018-05-06T10:31:15Z</time>
      </trkpt>
      <trkpt lat="45.5469" lon="4.57882">
        <ele>467.5</ele>
        <time>2018-05-06T10:31:17Z</time>
      </trkpt>
      <trkpt lat="45.54693" lon="4.57876">
        <ele>467.2</ele>
        <time>2018-05-06T10:31:18Z</time>
      </trkpt>
      <trkpt lat="45.54699" lon="4.57863">
        <ele>466.4</ele>
        <time>2018-05-06T10:31:20Z</time>
      </trkpt>
      <trkpt lat="45.54713" lon="4.57838">
        <ele>464.5</ele>
        <time>2018-05-06T10:31:24Z</time>
      </trkpt>
      <trkpt lat="45.54718" lon="4.57832">
        <ele>464.1</ele>
        <time>2018-05-06T10:31:25Z</time>
      </trkpt>
      <trkpt lat="45.54732" lon="4.57816">
        <ele>463</ele>
        <time>2018-05-06T10:31:28Z</time>
      </trkpt>
      <trkpt lat="45.54749" lon="4.57802">
        <ele>461.5</ele>
        <time>2018-05-06T10:31:31Z</time>
      </trkpt>
      <trkpt lat="45.54759" lon="4.57792">
        <ele>460.6</ele>
        <time>2018-05-06T10:31:33Z</time>
      </trkpt>
      <trkpt lat="45.54779" lon="4.57767">
        <ele>459.4</ele>
        <time>2018-05-06T10:31:37Z</time>
      </trkpt>
      <trkpt lat="45.54783" lon="4.57758">
        <ele>459.2</ele>
        <time>2018-05-06T10:31:38Z</time>
      </trkpt>
      <trkpt lat="45.54792" lon="4.5773">
        <ele>457.8</ele>
        <time>2018-05-06T10:31:41Z</time>
      </trkpt>
      <trkpt lat="45.54795" lon="4.5772">
        <ele>457.3</ele>
        <time>2018-05-06T10:31:42Z</time>
      </trkpt>
      <trkpt lat="45.54797" lon="4.57699">
        <ele>456.3</ele>
        <time>2018-05-06T10:31:44Z</time>
      </trkpt>
      <trkpt lat="45.54797" lon="4.57676">
        <ele>455.4</ele>
        <time>2018-05-06T10:31:46Z</time>
      </trkpt>
      <trkpt lat="45.54792" lon="4.57644">
        <ele>453.7</ele>
        <time>2018-05-06T10:31:49Z</time>
      </trkpt>
      <trkpt lat="45.54791" lon="4.57634">
        <ele>453.2</ele>
        <time>2018-05-06T10:31:50Z</time>
      </trkpt>
      <trkpt lat="45.5479" lon="4.57624">
        <ele>452.8</ele>
        <time>2018-05-06T10:31:51Z</time>
      </trkpt>
      <trkpt lat="45.54787" lon="4.57594">
        <ele>451.8</ele>
        <time>2018-05-06T10:31:54Z</time>
      </trkpt>
      <trkpt lat="45.54788" lon="4.57575">
        <ele>451.3</ele>
        <time>2018-05-06T10:31:56Z</time>
      </trkpt>
      <trkpt lat="45.5479" lon="4.57567">
        <ele>451.1</ele>
        <time>2018-05-06T10:31:57Z</time>
      </trkpt>
      <trkpt lat="45.54794" lon="4.57548">
        <ele>450.2</ele>
        <time>2018-05-06T10:31:59Z</time>
      </trkpt>
      <trkpt lat="45.54797" lon="4.57539">
        <ele>449.7</ele>
        <time>2018-05-06T10:32:00Z</time>
      </trkpt>
      <trkpt lat="45.54805" lon="4.57523">
        <ele>448.6</ele>
        <time>2018-05-06T10:32:02Z</time>
      </trkpt>
      <trkpt lat="45.5482" lon="4.57504">
        <ele>446.8</ele>
        <time>2018-05-06T10:32:05Z</time>
      </trkpt>
      <trkpt lat="45.54826" lon="4.575">
        <ele>446.3</ele>
        <time>2018-05-06T10:32:06Z</time>
      </trkpt>
      <trkpt lat="45.54847" lon="4.57492">
        <ele>445.2</ele>
        <time>2018-05-06T10:32:09Z</time>
      </trkpt>
      <trkpt lat="45.54853" lon="4.5749">
        <ele>445.1</ele>
        <time>2018-05-06T10:32:10Z</time>
      </trkpt>
      <trkpt lat="45.54888" lon="4.57468">
        <ele>444.2</ele>
        <time>2018-05-06T10:32:16Z</time>
      </trkpt>
      <trkpt lat="45.54893" lon="4.57463">
        <ele>444</ele>
        <time>2018-05-06T10:32:17Z</time>
      </trkpt>
      <trkpt lat="45.54911" lon="4.57434">
        <ele>445.5</ele>
        <time>2018-05-06T10:32:22Z</time>
      </trkpt>
      <trkpt lat="45.54914" lon="4.57427">
        <ele>445.8</ele>
        <time>2018-05-06T10:32:23Z</time>
      </trkpt>
      <trkpt lat="45.54916" lon="4.5742">
        <ele>446.1</ele>
        <time>2018-05-06T10:32:24Z</time>
      </trkpt>
      <trkpt lat="45.54918" lon="4.57413">
        <ele>446.4</ele>
        <time>2018-05-06T10:32:25Z</time>
      </trkpt>
      <trkpt lat="45.54921" lon="4.5739">
        <ele>447.1</ele>
        <time>2018-05-06T10:32:28Z</time>
      </trkpt>
      <trkpt lat="45.54921" lon="4.57382">
        <ele>447.4</ele>
        <time>2018-05-06T10:32:29Z</time>
      </trkpt>
      <trkpt lat="45.54923" lon="4.57366">
        <ele>447.9</ele>
        <time>2018-05-06T10:32:31Z</time>
      </trkpt>
      <trkpt lat="45.54925" lon="4.57335">
        <ele>448.8</ele>
        <time>2018-05-06T10:32:35Z</time>
      </trkpt>
      <trkpt lat="45.54936" lon="4.57296">
        <ele>450.1</ele>
        <time>2018-05-06T10:32:41Z</time>
      </trkpt>
      <trkpt lat="45.54952" lon="4.5726">
        <ele>451.5</ele>
        <time>2018-05-06T10:32:47Z</time>
      </trkpt>
      <trkpt lat="45.54954" lon="4.57253">
        <ele>452</ele>
        <time>2018-05-06T10:32:48Z</time>
      </trkpt>
      <trkpt lat="45.54956" lon="4.57247">
        <ele>452.5</ele>
        <time>2018-05-06T10:32:49Z</time>
      </trkpt>
      <trkpt lat="45.5496" lon="4.57233">
        <ele>453.2</ele>
        <time>2018-05-06T10:32:51Z</time>
      </trkpt>
      <trkpt lat="45.5496" lon="4.57211">
        <ele>454.2</ele>
        <time>2018-05-06T10:32:54Z</time>
      </trkpt>
      <trkpt lat="45.54959" lon="4.57196">
        <ele>454.8</ele>
        <time>2018-05-06T10:32:56Z</time>
      </trkpt>
      <trkpt lat="45.54955" lon="4.57175">
        <ele>455.7</ele>
        <time>2018-05-06T10:32:59Z</time>
      </trkpt>
      <trkpt lat="45.54945" lon="4.5715">
        <ele>456.9</ele>
        <time>2018-05-06T10:33:03Z</time>
      </trkpt>
      <trkpt lat="45.5494" lon="4.57139">
        <ele>457.4</ele>
        <time>2018-05-06T10:33:05Z</time>
      </trkpt>
      <trkpt lat="45.54936" lon="4.57135">
        <ele>458</ele>
        <time>2018-05-06T10:33:06Z</time>
      </trkpt>
      <trkpt lat="45.54924" lon="4.57124">
        <ele>458.2</ele>
        <time>2018-05-06T10:33:09Z</time>
      </trkpt>
      <trkpt lat="45.54908" lon="4.57111">
        <ele>458.6</ele>
        <time>2018-05-06T10:33:14Z</time>
      </trkpt>
      <trkpt lat="45.54905" lon="4.57112">
        <ele>458.7</ele>
        <time>2018-05-06T10:33:15Z</time>
      </trkpt>
      <trkpt lat="45.54892" lon="4.57112">
        <ele>459</ele>
        <time>2018-05-06T10:33:18Z</time>
      </trkpt>
      <trkpt lat="45.54873" lon="4.57115">
        <ele>459.4</ele>
        <time>2018-05-06T10:33:22Z</time>
      </trkpt>
      <trkpt lat="45.54863" lon="4.57118">
        <ele>459.8</ele>
        <time>2018-05-06T10:33:24Z</time>
      </trkpt>
      <trkpt lat="45.54847" lon="4.57129">
        <ele>460.2</ele>
        <time>2018-05-06T10:33:28Z</time>
      </trkpt>
      <trkpt lat="45.54839" lon="4.57136">
        <ele>460.3</ele>
        <time>2018-05-06T10:33:30Z</time>
      </trkpt>
      <trkpt lat="45.54817" lon="4.57162">
        <ele>460.8</ele>
        <time>2018-05-06T10:33:36Z</time>
      </trkpt>
      <trkpt lat="45.54802" lon="4.57174">
        <ele>460.7</ele>
        <time>2018-05-06T10:33:40Z</time>
      </trkpt>
      <trkpt lat="45.54794" lon="4.5718">
        <ele>460.4</ele>
        <time>2018-05-06T10:33:42Z</time>
      </trkpt>
      <trkpt lat="45.54761" lon="4.57208">
        <ele>458.9</ele>
        <time>2018-05-06T10:33:49Z</time>
      </trkpt>
      <trkpt lat="45.54756" lon="4.5721">
        <ele>458.7</ele>
        <time>2018-05-06T10:33:50Z</time>
      </trkpt>
      <trkpt lat="45.54733" lon="4.57215">
        <ele>457.8</ele>
        <time>2018-05-06T10:33:54Z</time>
      </trkpt>
      <trkpt lat="45.54705" lon="4.57209">
        <ele>456.4</ele>
        <time>2018-05-06T10:33:59Z</time>
      </trkpt>
      <trkpt lat="45.54677" lon="4.57188">
        <ele>454.4</ele>
        <time>2018-05-06T10:34:05Z</time>
      </trkpt>
      <trkpt lat="45.54653" lon="4.57152">
        <ele>451.4</ele>
        <time>2018-05-06T10:34:12Z</time>
      </trkpt>
      <trkpt lat="45.54637" lon="4.57117">
        <ele>449</ele>
        <time>2018-05-06T10:34:19Z</time>
      </trkpt>
      <trkpt lat="45.54635" lon="4.57112">
        <ele>449</ele>
        <time>2018-05-06T10:34:20Z</time>
      </trkpt>
      <trkpt lat="45.54622" lon="4.57078">
        <ele>449.1</ele>
        <time>2018-05-06T10:34:27Z</time>
      </trkpt>
      <trkpt lat="45.5462" lon="4.57065">
        <ele>449.1</ele>
        <time>2018-05-06T10:34:42Z</time>
      </trkpt>
      <trkpt lat="45.54624" lon="4.57062">
        <ele>449.1</ele>
        <time>2018-05-06T10:34:45Z</time>
      </trkpt>
      <trkpt lat="45.54625" lon="4.57061">
        <ele>449.1</ele>
        <time>2018-05-06T10:34:46Z</time>
      </trkpt>
      <trkpt lat="45.54629" lon="4.57058">
        <ele>449.2</ele>
        <time>2018-05-06T10:34:50Z</time>
      </trkpt>
      <trkpt lat="45.54629" lon="4.57053">
        <ele>449.2</ele>
        <time>2018-05-06T10:34:55Z</time>
      </trkpt>
      <trkpt lat="45.54649" lon="4.5674">
        <ele>475.3</ele>
        <time>2018-05-06T06:06:44Z</time>
      </trkpt>
      <trkpt lat="45.54649" lon="4.5674">
        <ele>475.3</ele>
        <time>2018-05-06T06:06:44Z</time>
      </trkpt>
      <trkpt lat="45.54649" lon="4.5674">
        <ele>475.3</ele>
        <time>2018-05-06T06:08:53Z</time>
      </trkpt>
      <trkpt lat="45.54651" lon="4.56742">
        <ele>475.6</ele>
        <time>2018-05-06T06:08:54Z</time>
      </trkpt>
      <trkpt lat="45.54654" lon="4.56742">
        <ele>476</ele>
        <time>2018-05-06T06:08:56Z</time>
      </trkpt>
      <trkpt lat="45.54655" lon="4.56737">
        <ele>476.4</ele>
        <time>2018-05-06T06:08:58Z</time>
      </trkpt>
      <trkpt lat="45.54653" lon="4.5673">
        <ele>477.2</ele>
        <time>2018-05-06T06:09:00Z</time>
      </trkpt>
      <trkpt lat="45.54653" lon="4.56726">
        <ele>477.6</ele>
        <time>2018-05-06T06:09:01Z</time>
      </trkpt>
      <trkpt lat="45.5465" lon="4.5672">
        <ele>478.2</ele>
        <time>2018-05-06T06:09:03Z</time>
      </trkpt>
      <trkpt lat="45.54645" lon="4.56707">
        <ele>479.1</ele>
        <time>2018-05-06T06:09:07Z</time>
      </trkpt>
      <trkpt lat="45.5464" lon="4.56699">
        <ele>479.7</ele>
        <time>2018-05-06T06:09:10Z</time>
      </trkpt>
      <trkpt lat="45.54628" lon="4.56674">
        <ele>481.6</ele>
        <time>2018-05-06T06:09:18Z</time>
      </trkpt>
      <trkpt lat="45.54618" lon="4.56657">
        <ele>482.4</ele>
        <time>2018-05-06T06:09:24Z</time>
      </trkpt>
      <trkpt lat="45.54612" lon="4.56647">
        <ele>482.9</ele>
        <time>2018-05-06T06:09:27Z</time>
      </trkpt>
      <trkpt lat="45.54606" lon="4.56636">
        <ele>483.1</ele>
        <time>2018-05-06T06:09:30Z</time>
      </trkpt>
      <trkpt lat="45.54594" lon="4.56619">
        <ele>483.5</ele>
        <time>2018-05-06T06:09:35Z</time>
      </trkpt>
      <trkpt lat="45.54575" lon="4.56579">
        <ele>484.9</ele>
        <time>2018-05-06T06:09:44Z</time>
      </trkpt>
      <trkpt lat="45.5455" lon="4.5652">
        <ele>486.8</ele>
        <time>2018-05-06T06:09:56Z</time>
      </trkpt>
      <trkpt lat="45.5453" lon="4.56466">
        <ele>488.3</ele>
        <time>2018-05-06T06:10:07Z</time>
      </trkpt>
      <trkpt lat="45.54518" lon="4.56432">
        <ele>489.7</ele>
        <time>2018-05-06T06:10:15Z</time>
      </trkpt>
      <trkpt lat="45.54512" lon="4.56418">
        <ele>490.6</ele>
        <time>2018-05-06T06:10:19Z</time>
      </trkpt>
      <trkpt lat="45.54513" lon="4.56415">
        <ele>491.5</ele>
        <time>2018-05-06T06:10:20Z</time>
      </trkpt>
      <trkpt lat="45.54514" lon="4.56412">
        <ele>491.7</ele>
        <time>2018-05-06T06:10:21Z</time>
      </trkpt>
      <trkpt lat="45.5452" lon="4.56407">
        <ele>492.4</ele>
        <time>2018-05-06T06:10:24Z</time>
      </trkpt>
      <trkpt lat="45.54524" lon="4.56404">
        <ele>492.9</ele>
        <time>2018-05-06T06:10:26Z</time>
      </trkpt>
      <trkpt lat="45.54528" lon="4.56401">
        <ele>493.3</ele>
        <time>2018-05-06T06:10:28Z</time>
      </trkpt>
      <trkpt lat="45.54537" lon="4.56395">
        <ele>494.2</ele>
        <time>2018-05-06T06:10:33Z</time>
      </trkpt>
      <trkpt lat="45.54544" lon="4.5639">
        <ele>495</ele>
        <time>2018-05-06T06:10:37Z</time>
      </trkpt>
      <trkpt lat="45.54554" lon="4.56385">
        <ele>496</ele>
        <time>2018-05-06T06:10:42Z</time>
      </trkpt>
      <trkpt lat="45.54557" lon="4.56382">
        <ele>496.3</ele>
        <time>2018-05-06T06:10:44Z</time>
      </trkpt>
      <trkpt lat="45.54563" lon="4.56379">
        <ele>496.9</ele>
        <time>2018-05-06T06:10:47Z</time>
      </trkpt>
      <trkpt lat="45.5457" lon="4.56376">
        <ele>497.7</ele>
        <time>2018-05-06T06:10:51Z</time>
      </trkpt>
      <trkpt lat="45.54572" lon="4.56375">
        <ele>497.9</ele>
        <time>2018-05-06T06:10:52Z</time>
      </trkpt>
      <trkpt lat="45.54579" lon="4.56372">
        <ele>498.7</ele>
        <time>2018-05-06T06:10:56Z</time>
      </trkpt>
      <trkpt lat="45.54583" lon="4.56371">
        <ele>499.1</ele>
        <time>2018-05-06T06:10:58Z</time>
      </trkpt>
      <trkpt lat="45.54585" lon="4.5637">
        <ele>499.3</ele>
        <time>2018-05-06T06:10:59Z</time>
      </trkpt>
      <trkpt lat="45.54589" lon="4.56368">
        <ele>499.7</ele>
        <time>2018-05-06T06:11:01Z</time>
      </trkpt>
      <trkpt lat="45.54594" lon="4.56366">
        <ele>500.3</ele>
        <time>2018-05-06T06:11:04Z</time>
      </trkpt>
      <trkpt lat="45.54598" lon="4.56365">
        <ele>500.7</ele>
        <time>2018-05-06T06:11:06Z</time>
      </trkpt>
      <trkpt lat="45.54599" lon="4.56363">
        <ele>500.8</ele>
        <time>2018-05-06T06:11:07Z</time>
      </trkpt>
      <trkpt lat="45.54601" lon="4.56362">
        <ele>501</ele>
        <time>2018-05-06T06:11:08Z</time>
      </trkpt>
      <trkpt lat="45.54605" lon="4.56357">
        <ele>501.6</ele>
        <time>2018-05-06T06:11:11Z</time>
      </trkpt>
      <trkpt lat="45.54609" lon="4.5635">
        <ele>502.2</ele>
        <time>2018-05-06T06:11:15Z</time>
      </trkpt>
      <trkpt lat="45.5461" lon="4.56348">
        <ele>502.4</ele>
        <time>2018-05-06T06:11:16Z</time>
      </trkpt>
      <trkpt lat="45.54611" lon="4.56344">
        <ele>502.8</ele>
        <time>2018-05-06T06:11:18Z</time>
      </trkpt>
      <trkpt lat="45.54614" lon="4.56338">
        <ele>503.3</ele>
        <time>2018-05-06T06:11:21Z</time>
      </trkpt>
      <trkpt lat="45.54616" lon="4.56328">
        <ele>504.1</ele>
        <time>2018-05-06T06:11:25Z</time>
      </trkpt>
      <trkpt lat="45.54613" lon="4.56315">
        <ele>504.5</ele>
        <time>2018-05-06T06:11:31Z</time>
      </trkpt>
      <trkpt lat="45.5461" lon="4.563">
        <ele>504.8</ele>
        <time>2018-05-06T06:11:37Z</time>
      </trkpt>
      <trkpt lat="45.54609" lon="4.56295">
        <ele>505</ele>
        <time>2018-05-06T06:11:39Z</time>
      </trkpt>
      <trkpt lat="45.54608" lon="4.56287">
        <ele>505.1</ele>
        <time>2018-05-06T06:11:42Z</time>
      </trkpt>
      <trkpt lat="45.54605" lon="4.56276">
        <ele>505.4</ele>
        <time>2018-05-06T06:11:46Z</time>
      </trkpt>
      <trkpt lat="45.54602" lon="4.56262">
        <ele>505.7</ele>
        <time>2018-05-06T06:11:51Z</time>
      </trkpt>
      <trkpt lat="45.546" lon="4.56253">
        <ele>505.9</ele>
        <time>2018-05-06T06:11:54Z</time>
      </trkpt>
      <trkpt lat="45.54597" lon="4.56243">
        <ele>506.1</ele>
        <time>2018-05-06T06:11:58Z</time>
      </trkpt>
      <trkpt lat="45.54594" lon="4.56232">
        <ele>506.3</ele>
        <time>2018-05-06T06:12:02Z</time>
      </trkpt>
      <trkpt lat="45.54593" lon="4.56227">
        <ele>506.4</ele>
        <time>2018-05-06T06:12:04Z</time>
      </trkpt>
      <trkpt lat="45.54591" lon="4.56219">
        <ele>506.6</ele>
        <time>2018-05-06T06:12:07Z</time>
      </trkpt>
      <trkpt lat="45.54588" lon="4.56208">
        <ele>506.8</ele>
        <time>2018-05-06T06:12:11Z</time>
      </trkpt>
      <trkpt lat="45.54586" lon="4.56199">
        <ele>507</ele>
        <time>2018-05-06T06:12:14Z</time>
      </trkpt>
      <trkpt lat="45.54583" lon="4.56186">
        <ele>507.2</ele>
        <time>2018-05-06T06:12:19Z</time>
      </trkpt>
      <trkpt lat="45.54582" lon="4.56183">
        <ele>507.3</ele>
        <time>2018-05-06T06:12:20Z</time>
      </trkpt>
      <trkpt lat="45.54577" lon="4.56168">
        <ele>507.6</ele>
        <time>2018-05-06T06:12:26Z</time>
      </trkpt>
      <trkpt lat="45.54571" lon="4.56145">
        <ele>507.8</ele>
        <time>2018-05-06T06:12:34Z</time>
      </trkpt>
      <trkpt lat="45.54569" lon="4.56133">
        <ele>507.7</ele>
        <time>2018-05-06T06:12:38Z</time>
      </trkpt>
      <trkpt lat="45.54565" lon="4.56122">
        <ele>507.6</ele>
        <time>2018-05-06T06:12:42Z</time>
      </trkpt>
      <trkpt lat="45.54561" lon="4.56108">
        <ele>507.4</ele>
        <time>2018-05-06T06:12:47Z</time>
      </trkpt>
      <trkpt lat="45.54556" lon="4.561">
        <ele>507.3</ele>
        <time>2018-05-06T06:12:50Z</time>
      </trkpt>
      <trkpt lat="45.54555" lon="4.56098">
        <ele>507.2</ele>
        <time>2018-05-06T06:12:51Z</time>
      </trkpt>
      <trkpt lat="45.54549" lon="4.56088">
        <ele>507.1</ele>
        <time>2018-05-06T06:12:55Z</time>
      </trkpt>
      <trkpt lat="45.54543" lon="4.56079">
        <ele>506.8</ele>
        <time>2018-05-06T06:12:58Z</time>
      </trkpt>
      <trkpt lat="45.54529" lon="4.56052">
        <ele>505.2</ele>
        <time>2018-05-06T06:13:06Z</time>
      </trkpt>
      <trkpt lat="45.54514" lon="4.56022">
        <ele>503.1</ele>
        <time>2018-05-06T06:13:13Z</time>
      </trkpt>
      <trkpt lat="45.54512" lon="4.56016">
        <ele>502.9</ele>
        <time>2018-05-06T06:13:14Z</time>
      </trkpt>
      <trkpt lat="45.54508" lon="4.55996">
        <ele>502.4</ele>
        <time>2018-05-06T06:13:17Z</time>
      </trkpt>
      <trkpt lat="45.54507" lon="4.5599">
        <ele>502.2</ele>
        <time>2018-05-06T06:13:18Z</time>
      </trkpt>
      <trkpt lat="45.54503" lon="4.55973">
        <ele>501.9</ele>
        <time>2018-05-06T06:13:21Z</time>
      </trkpt>
      <trkpt lat="45.54499" lon="4.55961">
        <ele>501.6</ele>
        <time>2018-05-06T06:13:23Z</time>
      </trkpt>
      <trkpt lat="45.54487" lon="4.55931">
        <ele>499.1</ele>
        <time>2018-05-06T06:13:29Z</time>
      </trkpt>
      <trkpt lat="45.54484" lon="4.55926">
        <ele>498.5</ele>
        <time>2018-05-06T06:13:30Z</time>
      </trkpt>
      <trkpt lat="45.54467" lon="4.55895">
        <ele>495.8</ele>
        <time>2018-05-06T06:13:35Z</time>
      </trkpt>
      <trkpt lat="45.54457" lon="4.55874">
        <ele>494.8</ele>
        <time>2018-05-06T06:13:38Z</time>
      </trkpt>
      <trkpt lat="45.54451" lon="4.55852">
        <ele>495.6</ele>
        <time>2018-05-06T06:13:41Z</time>
      </trkpt>
      <trkpt lat="45.5445" lon="4.55845">
        <ele>496</ele>
        <time>2018-05-06T06:13:42Z</time>
      </trkpt>
      <trkpt lat="45.5445" lon="4.55834">
        <ele>496.7</ele>
        <time>2018-05-06T06:13:44Z</time>
      </trkpt>
      <trkpt lat="45.54452" lon="4.55828">
        <ele>497</ele>
        <time>2018-05-06T06:13:45Z</time>
      </trkpt>
      <trkpt lat="45.54459" lon="4.55819">
        <ele>497.4</ele>
        <time>2018-05-06T06:13:48Z</time>
      </trkpt>
      <trkpt lat="45.54472" lon="4.55819">
        <ele>498.3</ele>
        <time>2018-05-06T06:13:53Z</time>
      </trkpt>
      <trkpt lat="45.54477" lon="4.55825">
        <ele>499.6</ele>
        <time>2018-05-06T06:13:56Z</time>
      </trkpt>
      <trkpt lat="45.54482" lon="4.55832">
        <ele>501.1</ele>
        <time>2018-05-06T06:13:59Z</time>
      </trkpt>
      <trkpt lat="45.54484" lon="4.55836">
        <ele>501.6</ele>
        <time>2018-05-06T06:14:01Z</time>
      </trkpt>
      <trkpt lat="45.54485" lon="4.55841">
        <ele>502.2</ele>
        <time>2018-05-06T06:14:03Z</time>
      </trkpt>
      <trkpt lat="45.54487" lon="4.55849">
        <ele>502.9</ele>
        <time>2018-05-06T06:14:06Z</time>
      </trkpt>
      <trkpt lat="45.54488" lon="4.55851">
        <ele>503.1</ele>
        <time>2018-05-06T06:14:07Z</time>
      </trkpt>
      <trkpt lat="45.54491" lon="4.55856">
        <ele>503.8</ele>
        <time>2018-05-06T06:14:09Z</time>
      </trkpt>
      <trkpt lat="45.54494" lon="4.55863">
        <ele>504.8</ele>
        <time>2018-05-06T06:14:12Z</time>
      </trkpt>
      <trkpt lat="45.54497" lon="4.55869">
        <ele>505.9</ele>
        <time>2018-05-06T06:14:15Z</time>
      </trkpt>
      <trkpt lat="45.54498" lon="4.55871">
        <ele>506.2</ele>
        <time>2018-05-06T06:14:16Z</time>
      </trkpt>
      <trkpt lat="45.54501" lon="4.55874">
        <ele>506.8</ele>
        <time>2018-05-06T06:14:18Z</time>
      </trkpt>
      <trkpt lat="45.54506" lon="4.55879">
        <ele>507.5</ele>
        <time>2018-05-06T06:14:21Z</time>
      </trkpt>
      <trkpt lat="45.54513" lon="4.55885">
        <ele>508.4</ele>
        <time>2018-05-06T06:14:25Z</time>
      </trkpt>
      <trkpt lat="45.54517" lon="4.55888">
        <ele>509.1</ele>
        <time>2018-05-06T06:14:27Z</time>
      </trkpt>
      <trkpt lat="45.54523" lon="4.55893">
        <ele>510.1</ele>
        <time>2018-05-06T06:14:30Z</time>
      </trkpt>
      <trkpt lat="45.54533" lon="4.55898">
        <ele>511.4</ele>
        <time>2018-05-06T06:14:34Z</time>
      </trkpt>
      <trkpt lat="45.54548" lon="4.55903">
        <ele>512.9</ele>
        <time>2018-05-06T06:14:40Z</time>
      </trkpt>
      <trkpt lat="45.5455" lon="4.55903">
        <ele>513.2</ele>
        <time>2018-05-06T06:14:41Z</time>
      </trkpt>
      <trkpt lat="45.54571" lon="4.55902">
        <ele>514.4</ele>
        <time>2018-05-06T06:14:48Z</time>
      </trkpt>
      <trkpt lat="45.54574" lon="4.55901">
        <ele>514.4</ele>
        <time>2018-05-06T06:14:49Z</time>
      </trkpt>
      <trkpt lat="45.54605" lon="4.55895">
        <ele>514.1</ele>
        <time>2018-05-06T06:14:59Z</time>
      </trkpt>
      <trkpt lat="45.54616" lon="4.55894">
        <ele>513.9</ele>
        <time>2018-05-06T06:15:03Z</time>
      </trkpt>
      <trkpt lat="45.5463" lon="4.55889">
        <ele>513.9</ele>
        <time>2018-05-06T06:15:08Z</time>
      </trkpt>
      <trkpt lat="45.54655" lon="4.55886">
        <ele>513.5</ele>
        <time>2018-05-06T06:15:15Z</time>
      </trkpt>
      <trkpt lat="45.54659" lon="4.55886">
        <ele>513.6</ele>
        <time>2018-05-06T06:15:16Z</time>
      </trkpt>
      <trkpt lat="45.54676" lon="4.55888">
        <ele>513.2</ele>
        <time>2018-05-06T06:15:20Z</time>
      </trkpt>
      <trkpt lat="45.54704" lon="4.55902">
        <ele>514.2</ele>
        <time>2018-05-06T06:15:27Z</time>
      </trkpt>
      <trkpt lat="45.54734" lon="4.55922">
        <ele>515.8</ele>
        <time>2018-05-06T06:15:34Z</time>
      </trkpt>
      <trkpt lat="45.54737" lon="4.55925">
        <ele>516</ele>
        <time>2018-05-06T06:15:35Z</time>
      </trkpt>
      <trkpt lat="45.54756" lon="4.5594">
        <ele>517.3</ele>
        <time>2018-05-06T06:15:40Z</time>
      </trkpt>
      <trkpt lat="45.54787" lon="4.55963">
        <ele>517.9</ele>
        <time>2018-05-06T06:15:48Z</time>
      </trkpt>
      <trkpt lat="45.5479" lon="4.55966">
        <ele>518</ele>
        <time>2018-05-06T06:15:49Z</time>
      </trkpt>
      <trkpt lat="45.54817" lon="4.55986">
        <ele>518.2</ele>
        <time>2018-05-06T06:15:55Z</time>
      </trkpt>
      <trkpt lat="45.54848" lon="4.56006">
        <ele>518</ele>
        <time>2018-05-06T06:16:01Z</time>
      </trkpt>
      <trkpt lat="45.54853" lon="4.5601">
        <ele>518.3</ele>
        <time>2018-05-06T06:16:02Z</time>
      </trkpt>
      <trkpt lat="45.54892" lon="4.56037">
        <ele>519.5</ele>
        <time>2018-05-06T06:16:09Z</time>
      </trkpt>
      <trkpt lat="45.54898" lon="4.56039">
        <ele>519.9</ele>
        <time>2018-05-06T06:16:10Z</time>
      </trkpt>
      <trkpt lat="45.54904" lon="4.56042">
        <ele>520.3</ele>
        <time>2018-05-06T06:16:11Z</time>
      </trkpt>
      <trkpt lat="45.54921" lon="4.56047">
        <ele>521</ele>
        <time>2018-05-06T06:16:14Z</time>
      </trkpt>
      <trkpt lat="45.54947" lon="4.56052">
        <ele>521.9</ele>
        <time>2018-05-06T06:16:19Z</time>
      </trkpt>
      <trkpt lat="45.54965" lon="4.56058">
        <ele>522.8</ele>
        <time>2018-05-06T06:16:23Z</time>
      </trkpt>
      <trkpt lat="45.54968" lon="4.5606">
        <ele>523</ele>
        <time>2018-05-06T06:16:24Z</time>
      </trkpt>
      <trkpt lat="45.54985" lon="4.56059">
        <ele>523.5</ele>
        <time>2018-05-06T06:16:29Z</time>
      </trkpt>
      <trkpt lat="45.54996" lon="4.56059">
        <ele>524.1</ele>
        <time>2018-05-06T06:16:32Z</time>
      </trkpt>
      <trkpt lat="45.55007" lon="4.56061">
        <ele>524.8</ele>
        <time>2018-05-06T06:16:35Z</time>
      </trkpt>
      <trkpt lat="45.55018" lon="4.56064">
        <ele>525.6</ele>
        <time>2018-05-06T06:16:38Z</time>
      </trkpt>
      <trkpt lat="45.55041" lon="4.56069">
        <ele>527.5</ele>
        <time>2018-05-06T06:16:44Z</time>
      </trkpt>
      <trkpt lat="45.55045" lon="4.5607">
        <ele>527.7</ele>
        <time>2018-05-06T06:16:45Z</time>
      </trkpt>
      <trkpt lat="45.5507" lon="4.56078">
        <ele>529.9</ele>
        <time>2018-05-06T06:16:52Z</time>
      </trkpt>
      <trkpt lat="45.55085" lon="4.56082">
        <ele>530.8</ele>
        <time>2018-05-06T06:16:56Z</time>
      </trkpt>
      <trkpt lat="45.55089" lon="4.56083">
        <ele>531</ele>
        <time>2018-05-06T06:16:57Z</time>
      </trkpt>
      <trkpt lat="45.551" lon="4.56086">
        <ele>531.6</ele>
        <time>2018-05-06T06:17:00Z</time>
      </trkpt>
      <trkpt lat="45.55114" lon="4.56089">
        <ele>532.4</ele>
        <time>2018-05-06T06:17:04Z</time>
      </trkpt>
      <trkpt lat="45.5512" lon="4.56091">
        <ele>532.9</ele>
        <time>2018-05-06T06:17:06Z</time>
      </trkpt>
      <trkpt lat="45.55127" lon="4.56094">
        <ele>533.4</ele>
        <time>2018-05-06T06:17:08Z</time>
      </trkpt>
      <trkpt lat="45.5514" lon="4.56098">
        <ele>534.5</ele>
        <time>2018-05-06T06:17:12Z</time>
      </trkpt>
      <trkpt lat="45.55151" lon="4.561">
        <ele>535.4</ele>
        <time>2018-05-06T06:17:16Z</time>
      </trkpt>
      <trkpt lat="45.5516" lon="4.56103">
        <ele>535.9</ele>
        <time>2018-05-06T06:17:19Z</time>
      </trkpt>
      <trkpt lat="45.55171" lon="4.56107">
        <ele>536.5</ele>
        <time>2018-05-06T06:17:23Z</time>
      </trkpt>
      <trkpt lat="45.55174" lon="4.56108">
        <ele>536.8</ele>
        <time>2018-05-06T06:17:24Z</time>
      </trkpt>
      <trkpt lat="45.55182" lon="4.56111">
        <ele>537.5</ele>
        <time>2018-05-06T06:17:27Z</time>
      </trkpt>
      <trkpt lat="45.55193" lon="4.56115">
        <ele>538.5</ele>
        <time>2018-05-06T06:17:31Z</time>
      </trkpt>
      <trkpt lat="45.55201" lon="4.56118">
        <ele>539.6</ele>
        <time>2018-05-06T06:17:34Z</time>
      </trkpt>
      <trkpt lat="45.55203" lon="4.56119">
        <ele>539.7</ele>
        <time>2018-05-06T06:17:35Z</time>
      </trkpt>
      <trkpt lat="45.5521" lon="4.56117">
        <ele>540</ele>
        <time>2018-05-06T06:17:38Z</time>
      </trkpt>
      <trkpt lat="45.55212" lon="4.56114">
        <ele>539.7</ele>
        <time>2018-05-06T06:17:39Z</time>
      </trkpt>
      <trkpt lat="45.55212" lon="4.56098">
        <ele>538.7</ele>
        <time>2018-05-06T06:17:43Z</time>
      </trkpt>
      <trkpt lat="45.55213" lon="4.56094">
        <ele>538.2</ele>
        <time>2018-05-06T06:17:44Z</time>
      </trkpt>
      <trkpt lat="45.55217" lon="4.56078">
        <ele>536.3</ele>
        <time>2018-05-06T06:17:49Z</time>
      </trkpt>
      <trkpt lat="45.55218" lon="4.56072">
        <ele>535.8</ele>
        <time>2018-05-06T06:17:51Z</time>
      </trkpt>
      <trkpt lat="45.55224" lon="4.5606">
        <ele>535.1</ele>
        <time>2018-05-06T06:17:54Z</time>
      </trkpt>
      <trkpt lat="45.55238" lon="4.5604">
        <ele>533.8</ele>
        <time>2018-05-06T06:17:58Z</time>
      </trkpt>
      <trkpt lat="45.55242" lon="4.56036">
        <ele>533.5</ele>
        <time>2018-05-06T06:17:59Z</time>
      </trkpt>
      <trkpt lat="45.55258" lon="4.56028">
        <ele>533.8</ele>
        <time>2018-05-06T06:18:02Z</time>
      </trkpt>
      <trkpt lat="45.55264" lon="4.56026">
        <ele>533.9</ele>
        <time>2018-05-06T06:18:03Z</time>
      </trkpt>
      <trkpt lat="45.55287" lon="4.5602">
        <ele>535.4</ele>
        <time>2018-05-06T06:18:07Z</time>
      </trkpt>
      <trkpt lat="45.55294" lon="4.56017">
        <ele>535.5</ele>
        <time>2018-05-06T06:18:08Z</time>
      </trkpt>
      <trkpt lat="45.55341" lon="4.56001">
        <ele>535.1</ele>
        <time>2018-05-06T06:18:15Z</time>
      </trkpt>
      <trkpt lat="45.55347" lon="4.55998">
        <ele>535.1</ele>
        <time>2018-05-06T06:18:16Z</time>
      </trkpt>
      <trkpt lat="45.5538" lon="4.55986">
        <ele>533.8</ele>
        <time>2018-05-06T06:18:21Z</time>
      </trkpt>
      <trkpt lat="45.55394" lon="4.55981">
        <ele>533.3</ele>
        <time>2018-05-06T06:18:23Z</time>
      </trkpt>
      <trkpt lat="45.55415" lon="4.55973">
        <ele>532.6</ele>
        <time>2018-05-06T06:18:26Z</time>
      </trkpt>
      <trkpt lat="45.55428" lon="4.55963">
        <ele>531.5</ele>
        <time>2018-05-06T06:18:28Z</time>
      </trkpt>
      <trkpt lat="45.55441" lon="4.5595">
        <ele>530.4</ele>
        <time>2018-05-06T06:18:30Z</time>
      </trkpt>
      <trkpt lat="45.55455" lon="4.55938">
        <ele>530.3</ele>
        <time>2018-05-06T06:18:32Z</time>
      </trkpt>
      <trkpt lat="45.55463" lon="4.55933">
        <ele>529.9</ele>
        <time>2018-05-06T06:18:33Z</time>
      </trkpt>
      <trkpt lat="45.55472" lon="4.55928">
        <ele>530.2</ele>
        <time>2018-05-06T06:18:34Z</time>
      </trkpt>
      <trkpt lat="45.55489" lon="4.55919">
        <ele>530.5</ele>
        <time>2018-05-06T06:18:36Z</time>
      </trkpt>
      <trkpt lat="45.55497" lon="4.55914">
        <ele>530.9</ele>
        <time>2018-05-06T06:18:37Z</time>
      </trkpt>
      <trkpt lat="45.55505" lon="4.55908">
        <ele>531.2</ele>
        <time>2018-05-06T06:18:38Z</time>
      </trkpt>
      <trkpt lat="45.55521" lon="4.55895">
        <ele>531.8</ele>
        <time>2018-05-06T06:18:40Z</time>
      </trkpt>
      <trkpt lat="45.55528" lon="4.55891">
        <ele>532.4</ele>
        <time>2018-05-06T06:18:41Z</time>
      </trkpt>
      <trkpt lat="45.55534" lon="4.55887">
        <ele>532.5</ele>
        <time>2018-05-06T06:18:42Z</time>
      </trkpt>
      <trkpt lat="45.55553" lon="4.55872">
        <ele>534.3</ele>
        <time>2018-05-06T06:18:45Z</time>
      </trkpt>
      <trkpt lat="45.5557" lon="4.55857">
        <ele>536.3</ele>
        <time>2018-05-06T06:18:48Z</time>
      </trkpt>
      <trkpt lat="45.55573" lon="4.55849">
        <ele>536.5</ele>
        <time>2018-05-06T06:18:49Z</time>
      </trkpt>
      <trkpt lat="45.55577" lon="4.55832">
        <ele>536.2</ele>
        <time>2018-05-06T06:18:51Z</time>
      </trkpt>
      <trkpt lat="45.55578" lon="4.55824">
        <ele>536.2</ele>
        <time>2018-05-06T06:18:52Z</time>
      </trkpt>
      <trkpt lat="45.55574" lon="4.55802">
        <ele>537.1</ele>
        <time>2018-05-06T06:18:55Z</time>
      </trkpt>
      <trkpt lat="45.55573" lon="4.55795">
        <ele>537.5</ele>
        <time>2018-05-06T06:18:56Z</time>
      </trkpt>
      <trkpt lat="45.55567" lon="4.55771">
        <ele>538.8</ele>
        <time>2018-05-06T06:19:01Z</time>
      </trkpt>
      <trkpt lat="45.55564" lon="4.55746">
        <ele>541.1</ele>
        <time>2018-05-06T06:19:07Z</time>
      </trkpt>
      <trkpt lat="45.55563" lon="4.55742">
        <ele>541.2</ele>
        <time>2018-05-06T06:19:08Z</time>
      </trkpt>
      <trkpt lat="45.55562" lon="4.5573">
        <ele>542.3</ele>
        <time>2018-05-06T06:19:11Z</time>
      </trkpt>
      <trkpt lat="45.55562" lon="4.55715">
        <ele>543.8</ele>
        <time>2018-05-06T06:19:15Z</time>
      </trkpt>
      <trkpt lat="45.55561" lon="4.55701">
        <ele>544</ele>
        <time>2018-05-06T06:19:19Z</time>
      </trkpt>
      <trkpt lat="45.5556" lon="4.55698">
        <ele>544.1</ele>
        <time>2018-05-06T06:19:20Z</time>
      </trkpt>
      <trkpt lat="45.55556" lon="4.55688">
        <ele>544.3</ele>
        <time>2018-05-06T06:19:23Z</time>
      </trkpt>
      <trkpt lat="45.55552" lon="4.55679">
        <ele>544.6</ele>
        <time>2018-05-06T06:19:26Z</time>
      </trkpt>
      <trkpt lat="45.5555" lon="4.55676">
        <ele>544.6</ele>
        <time>2018-05-06T06:19:27Z</time>
      </trkpt>
      <trkpt lat="45.55542" lon="4.55661">
        <ele>544.9</ele>
        <time>2018-05-06T06:19:32Z</time>
      </trkpt>
      <trkpt lat="45.55537" lon="4.55654">
        <ele>545.3</ele>
        <time>2018-05-06T06:19:35Z</time>
      </trkpt>
      <trkpt lat="45.55533" lon="4.55649">
        <ele>545.9</ele>
        <time>2018-05-06T06:19:37Z</time>
      </trkpt>
      <trkpt lat="45.55522" lon="4.55632">
        <ele>546.3</ele>
        <time>2018-05-06T06:19:43Z</time>
      </trkpt>
      <trkpt lat="45.55518" lon="4.55626">
        <ele>546.5</ele>
        <time>2018-05-06T06:19:45Z</time>
      </trkpt>
      <trkpt lat="45.55511" lon="4.55618">
        <ele>546.9</ele>
        <time>2018-05-06T06:19:48Z</time>
      </trkpt>
      <trkpt lat="45.555" lon="4.55607">
        <ele>546.9</ele>
        <time>2018-05-06T06:19:53Z</time>
      </trkpt>
      <trkpt lat="45.55491" lon="4.55597">
        <ele>547.1</ele>
        <time>2018-05-06T06:19:57Z</time>
      </trkpt>
      <trkpt lat="45.55481" lon="4.55589">
        <ele>546.9</ele>
        <time>2018-05-06T06:20:01Z</time>
      </trkpt>
      <trkpt lat="45.55467" lon="4.55574">
        <ele>546.8</ele>
        <time>2018-05-06T06:20:07Z</time>
      </trkpt>
      <trkpt lat="45.55465" lon="4.55571">
        <ele>546.6</ele>
        <time>2018-05-06T06:20:08Z</time>
      </trkpt>
      <trkpt lat="45.55455" lon="4.55551">
        <ele>548.6</ele>
        <time>2018-05-06T06:20:14Z</time>
      </trkpt>
      <trkpt lat="45.55453" lon="4.55543">
        <ele>549.2</ele>
        <time>2018-05-06T06:20:16Z</time>
      </trkpt>
      <trkpt lat="45.55449" lon="4.55526">
        <ele>549.9</ele>
        <time>2018-05-06T06:20:20Z</time>
      </trkpt>
      <trkpt lat="45.55448" lon="4.55518">
        <ele>550.4</ele>
        <time>2018-05-06T06:20:22Z</time>
      </trkpt>
      <trkpt lat="45.55443" lon="4.55498">
        <ele>550.2</ele>
        <time>2018-05-06T06:20:27Z</time>
      </trkpt>
      <trkpt lat="45.55439" lon="4.55482">
        <ele>549.6</ele>
        <time>2018-05-06T06:20:31Z</time>
      </trkpt>
      <trkpt lat="45.55436" lon="4.5547">
        <ele>549</ele>
        <time>2018-05-06T06:20:33Z</time>
      </trkpt>
      <trkpt lat="45.55432" lon="4.55437">
        <ele>548.6</ele>
        <time>2018-05-06T06:20:37Z</time>
      </trkpt>
      <trkpt lat="45.55433" lon="4.55428">
        <ele>548.4</ele>
        <time>2018-05-06T06:20:38Z</time>
      </trkpt>
      <trkpt lat="45.55436" lon="4.55403">
        <ele>547.4</ele>
        <time>2018-05-06T06:20:41Z</time>
      </trkpt>
      <trkpt lat="45.55437" lon="4.55394">
        <ele>546.9</ele>
        <time>2018-05-06T06:20:42Z</time>
      </trkpt>
      <trkpt lat="45.5544" lon="4.55378">
        <ele>546.3</ele>
        <time>2018-05-06T06:20:44Z</time>
      </trkpt>
      <trkpt lat="45.55444" lon="4.55354">
        <ele>544.6</ele>
        <time>2018-05-06T06:20:47Z</time>
      </trkpt>
      <trkpt lat="45.55451" lon="4.55342">
        <ele>544.3</ele>
        <time>2018-05-06T06:20:49Z</time>
      </trkpt>
      <trkpt lat="45.55469" lon="4.55322">
        <ele>544.5</ele>
        <time>2018-05-06T06:20:53Z</time>
      </trkpt>
      <trkpt lat="45.55479" lon="4.55308">
        <ele>544.6</ele>
        <time>2018-05-06T06:20:57Z</time>
      </trkpt>
      <trkpt lat="45.55485" lon="4.55299">
        <ele>544</ele>
        <time>2018-05-06T06:20:59Z</time>
      </trkpt>
      <trkpt lat="45.55495" lon="4.55279">
        <ele>541.9</ele>
        <time>2018-05-06T06:21:02Z</time>
      </trkpt>
      <trkpt lat="45.55499" lon="4.55272">
        <ele>541.3</ele>
        <time>2018-05-06T06:21:03Z</time>
      </trkpt>
      <trkpt lat="45.55504" lon="4.55264">
        <ele>540.7</ele>
        <time>2018-05-06T06:21:04Z</time>
      </trkpt>
      <trkpt lat="45.55515" lon="4.55253">
        <ele>540</ele>
        <time>2018-05-06T06:21:06Z</time>
      </trkpt>
      <trkpt lat="45.55531" lon="4.55249">
        <ele>541</ele>
        <time>2018-05-06T06:21:09Z</time>
      </trkpt>
      <trkpt lat="45.55536" lon="4.55249">
        <ele>541.3</ele>
        <time>2018-05-06T06:21:10Z</time>
      </trkpt>
      <trkpt lat="45.55555" lon="4.55251">
        <ele>542.7</ele>
        <time>2018-05-06T06:21:14Z</time>
      </trkpt>
      <trkpt lat="45.55559" lon="4.55252">
        <ele>542.7</ele>
        <time>2018-05-06T06:21:15Z</time>
      </trkpt>
      <trkpt lat="45.55571" lon="4.55255">
        <ele>543.2</ele>
        <time>2018-05-06T06:21:18Z</time>
      </trkpt>
      <trkpt lat="45.55586" lon="4.5526">
        <ele>544.2</ele>
        <time>2018-05-06T06:21:22Z</time>
      </trkpt>
      <trkpt lat="45.55596" lon="4.55265">
        <ele>545.5</ele>
        <time>2018-05-06T06:21:25Z</time>
      </trkpt>
      <trkpt lat="45.55605" lon="4.55271">
        <ele>546.4</ele>
        <time>2018-05-06T06:21:28Z</time>
      </trkpt>
      <trkpt lat="45.55611" lon="4.55274">
        <ele>546.9</ele>
        <time>2018-05-06T06:21:30Z</time>
      </trkpt>
      <trkpt lat="45.55614" lon="4.55276">
        <ele>547</ele>
        <time>2018-05-06T06:21:31Z</time>
      </trkpt>
      <trkpt lat="45.55622" lon="4.55281">
        <ele>548.3</ele>
        <time>2018-05-06T06:21:34Z</time>
      </trkpt>
      <trkpt lat="45.55633" lon="4.55287">
        <ele>549.8</ele>
        <time>2018-05-06T06:21:38Z</time>
      </trkpt>
      <trkpt lat="45.55636" lon="4.55289">
        <ele>550</ele>
        <time>2018-05-06T06:21:39Z</time>
      </trkpt>
      <trkpt lat="45.55644" lon="4.55294">
        <ele>550.7</ele>
        <time>2018-05-06T06:21:42Z</time>
      </trkpt>
      <trkpt lat="45.55655" lon="4.55301">
        <ele>551.2</ele>
        <time>2018-05-06T06:21:46Z</time>
      </trkpt>
      <trkpt lat="45.55663" lon="4.55306">
        <ele>551.9</ele>
        <time>2018-05-06T06:21:49Z</time>
      </trkpt>
      <trkpt lat="45.55671" lon="4.55311">
        <ele>552.2</ele>
        <time>2018-05-06T06:21:52Z</time>
      </trkpt>
      <trkpt lat="45.55678" lon="4.55315">
        <ele>552.3</ele>
        <time>2018-05-06T06:21:55Z</time>
      </trkpt>
      <trkpt lat="45.55683" lon="4.55319">
        <ele>552.4</ele>
        <time>2018-05-06T06:21:57Z</time>
      </trkpt>
      <trkpt lat="45.55688" lon="4.55323">
        <ele>552.5</ele>
        <time>2018-05-06T06:21:59Z</time>
      </trkpt>
      <trkpt lat="45.55698" lon="4.55331">
        <ele>553.4</ele>
        <time>2018-05-06T06:22:03Z</time>
      </trkpt>
      <trkpt lat="45.55706" lon="4.55337">
        <ele>554.5</ele>
        <time>2018-05-06T06:22:06Z</time>
      </trkpt>
      <trkpt lat="45.55709" lon="4.55339">
        <ele>554.8</ele>
        <time>2018-05-06T06:22:07Z</time>
      </trkpt>
      <trkpt lat="45.55723" lon="4.55348">
        <ele>555.9</ele>
        <time>2018-05-06T06:22:12Z</time>
      </trkpt>
      <trkpt lat="45.55734" lon="4.55356">
        <ele>556.8</ele>
        <time>2018-05-06T06:22:16Z</time>
      </trkpt>
      <trkpt lat="45.55751" lon="4.55365">
        <ele>558.9</ele>
        <time>2018-05-06T06:22:22Z</time>
      </trkpt>
      <trkpt lat="45.55759" lon="4.5537">
        <ele>559.9</ele>
        <time>2018-05-06T06:22:25Z</time>
      </trkpt>
      <trkpt lat="45.55762" lon="4.55372">
        <ele>560.2</ele>
        <time>2018-05-06T06:22:26Z</time>
      </trkpt>
      <trkpt lat="45.55782" lon="4.55383">
        <ele>563.1</ele>
        <time>2018-05-06T06:22:33Z</time>
      </trkpt>
      <trkpt lat="45.55797" lon="4.55393">
        <ele>565.8</ele>
        <time>2018-05-06T06:22:38Z</time>
      </trkpt>
      <trkpt lat="45.55807" lon="4.554">
        <ele>566.8</ele>
        <time>2018-05-06T06:22:42Z</time>
      </trkpt>
      <trkpt lat="45.55833" lon="4.55417">
        <ele>567.9</ele>
        <time>2018-05-06T06:22:51Z</time>
      </trkpt>
      <trkpt lat="45.55861" lon="4.55434">
        <ele>570.1</ele>
        <time>2018-05-06T06:22:59Z</time>
      </trkpt>
      <trkpt lat="45.55895" lon="4.55455">
        <ele>573.2</ele>
        <time>2018-05-06T06:23:08Z</time>
      </trkpt>
      <trkpt lat="45.55903" lon="4.5546">
        <ele>573.6</ele>
        <time>2018-05-06T06:23:10Z</time>
      </trkpt>
      <trkpt lat="45.55938" lon="4.55483">
        <ele>575</ele>
        <time>2018-05-06T06:23:19Z</time>
      </trkpt>
      <trkpt lat="45.55942" lon="4.55486">
        <ele>575</ele>
        <time>2018-05-06T06:23:20Z</time>
      </trkpt>
      <trkpt lat="45.55957" lon="4.55497">
        <ele>575.4</ele>
        <time>2018-05-06T06:23:24Z</time>
      </trkpt>
      <trkpt lat="45.55975" lon="4.55513">
        <ele>576.5</ele>
        <time>2018-05-06T06:23:29Z</time>
      </trkpt>
      <trkpt lat="45.55982" lon="4.5552">
        <ele>576.8</ele>
        <time>2018-05-06T06:23:31Z</time>
      </trkpt>
      <trkpt lat="45.55992" lon="4.55529">
        <ele>577.5</ele>
        <time>2018-05-06T06:23:34Z</time>
      </trkpt>
      <trkpt lat="45.56002" lon="4.55539">
        <ele>577.9</ele>
        <time>2018-05-06T06:23:37Z</time>
      </trkpt>
      <trkpt lat="45.56012" lon="4.55548">
        <ele>578.7</ele>
        <time>2018-05-06T06:23:40Z</time>
      </trkpt>
      <trkpt lat="45.56029" lon="4.55562">
        <ele>580.4</ele>
        <time>2018-05-06T06:23:45Z</time>
      </trkpt>
      <trkpt lat="45.56032" lon="4.55565">
        <ele>580.8</ele>
        <time>2018-05-06T06:23:46Z</time>
      </trkpt>
      <trkpt lat="45.5605" lon="4.55582">
        <ele>581.7</ele>
        <time>2018-05-06T06:23:52Z</time>
      </trkpt>
      <trkpt lat="45.56055" lon="4.55587">
        <ele>581.6</ele>
        <time>2018-05-06T06:23:54Z</time>
      </trkpt>
      <trkpt lat="45.5606" lon="4.55592">
        <ele>581.4</ele>
        <time>2018-05-06T06:23:56Z</time>
      </trkpt>
      <trkpt lat="45.56068" lon="4.55599">
        <ele>581</ele>
        <time>2018-05-06T06:23:59Z</time>
      </trkpt>
      <trkpt lat="45.56072" lon="4.55601">
        <ele>581</ele>
        <time>2018-05-06T06:24:01Z</time>
      </trkpt>
      <trkpt lat="45.56075" lon="4.55602">
        <ele>581</ele>
        <time>2018-05-06T06:24:03Z</time>
      </trkpt>
      <trkpt lat="45.56082" lon="4.556">
        <ele>581</ele>
        <time>2018-05-06T06:24:07Z</time>
      </trkpt>
      <trkpt lat="45.56087" lon="4.55586">
        <ele>581</ele>
        <time>2018-05-06T06:24:11Z</time>
      </trkpt>
      <trkpt lat="45.56093" lon="4.55548">
        <ele>581</ele>
        <time>2018-05-06T06:24:20Z</time>
      </trkpt>
      <trkpt lat="45.56094" lon="4.55543">
        <ele>581</ele>
        <time>2018-05-06T06:24:21Z</time>
      </trkpt>
      <trkpt lat="45.56102" lon="4.55514">
        <ele>581</ele>
        <time>2018-05-06T06:24:28Z</time>
      </trkpt>
      <trkpt lat="45.56104" lon="4.55512">
        <ele>581</ele>
        <time>2018-05-06T06:24:29Z</time>
      </trkpt>
      <trkpt lat="45.56115" lon="4.55504">
        <ele>581.4</ele>
        <time>2018-05-06T06:24:33Z</time>
      </trkpt>
      <trkpt lat="45.56123" lon="4.55499">
        <ele>582</ele>
        <time>2018-05-06T06:24:36Z</time>
      </trkpt>
      <trkpt lat="45.56127" lon="4.55494">
        <ele>582.4</ele>
        <time>2018-05-06T06:24:38Z</time>
      </trkpt>
      <trkpt lat="45.56134" lon="4.55484">
        <ele>583</ele>
        <time>2018-05-06T06:24:42Z</time>
      </trkpt>
      <trkpt lat="45.56135" lon="4.55481">
        <ele>583.1</ele>
        <time>2018-05-06T06:24:43Z</time>
      </trkpt>
      <trkpt lat="45.56138" lon="4.55475">
        <ele>583.4</ele>
        <time>2018-05-06T06:24:46Z</time>
      </trkpt>
      <trkpt lat="45.56144" lon="4.55469">
        <ele>583.9</ele>
        <time>2018-05-06T06:24:50Z</time>
      </trkpt>
      <trkpt lat="45.56146" lon="4.55467">
        <ele>584</ele>
        <time>2018-05-06T06:24:51Z</time>
      </trkpt>
      <trkpt lat="45.56151" lon="4.55463">
        <ele>584.3</ele>
        <time>2018-05-06T06:24:54Z</time>
      </trkpt>
      <trkpt lat="45.56158" lon="4.55455">
        <ele>584.8</ele>
        <time>2018-05-06T06:24:59Z</time>
      </trkpt>
      <trkpt lat="45.56164" lon="4.55448">
        <ele>585.2</ele>
        <time>2018-05-06T06:25:03Z</time>
      </trkpt>
      <trkpt lat="45.5617" lon="4.55441">
        <ele>585.7</ele>
        <time>2018-05-06T06:25:07Z</time>
      </trkpt>
      <trkpt lat="45.56171" lon="4.55439">
        <ele>585.8</ele>
        <time>2018-05-06T06:25:08Z</time>
      </trkpt>
      <trkpt lat="45.56178" lon="4.5543">
        <ele>586.5</ele>
        <time>2018-05-06T06:25:13Z</time>
      </trkpt>
      <trkpt lat="45.56182" lon="4.55423">
        <ele>586.9</ele>
        <time>2018-05-06T06:25:16Z</time>
      </trkpt>
      <trkpt lat="45.56183" lon="4.55422">
        <ele>587.1</ele>
        <time>2018-05-06T06:25:17Z</time>
      </trkpt>
      <trkpt lat="45.56191" lon="4.5541">
        <ele>588.7</ele>
        <time>2018-05-06T06:25:23Z</time>
      </trkpt>
      <trkpt lat="45.56192" lon="4.55407">
        <ele>589.3</ele>
        <time>2018-05-06T06:25:24Z</time>
      </trkpt>
      <trkpt lat="45.56196" lon="4.554">
        <ele>590.5</ele>
        <time>2018-05-06T06:25:27Z</time>
      </trkpt>
      <trkpt lat="45.56203" lon="4.5539">
        <ele>591.5</ele>
        <time>2018-05-06T06:25:32Z</time>
      </trkpt>
      <trkpt lat="45.56204" lon="4.55388">
        <ele>591.4</ele>
        <time>2018-05-06T06:25:33Z</time>
      </trkpt>
      <trkpt lat="45.56208" lon="4.55383">
        <ele>592.5</ele>
        <time>2018-05-06T06:25:36Z</time>
      </trkpt>
      <trkpt lat="45.56211" lon="4.55378">
        <ele>592.9</ele>
        <time>2018-05-06T06:25:39Z</time>
      </trkpt>
      <trkpt lat="45.56213" lon="4.55377">
        <ele>592.8</ele>
        <time>2018-05-06T06:25:40Z</time>
      </trkpt>
      <trkpt lat="45.56216" lon="4.55372">
        <ele>593.3</ele>
        <time>2018-05-06T06:25:43Z</time>
      </trkpt>
      <trkpt lat="45.5622" lon="4.55367">
        <ele>593.9</ele>
        <time>2018-05-06T06:25:46Z</time>
      </trkpt>
      <trkpt lat="45.56224" lon="4.5536">
        <ele>595.2</ele>
        <time>2018-05-06T06:25:50Z</time>
      </trkpt>
      <trkpt lat="45.56228" lon="4.55354">
        <ele>595.7</ele>
        <time>2018-05-06T06:25:53Z</time>
      </trkpt>
      <trkpt lat="45.56229" lon="4.55353">
        <ele>596.1</ele>
        <time>2018-05-06T06:25:54Z</time>
      </trkpt>
      <trkpt lat="45.56232" lon="4.55348">
        <ele>596.6</ele>
        <time>2018-05-06T06:25:57Z</time>
      </trkpt>
      <trkpt lat="45.56236" lon="4.55343">
        <ele>597</ele>
        <time>2018-05-06T06:26:00Z</time>
      </trkpt>
      <trkpt lat="45.56238" lon="4.5534">
        <ele>597.5</ele>
        <time>2018-05-06T06:26:02Z</time>
      </trkpt>
      <trkpt lat="45.56239" lon="4.55338">
        <ele>597.3</ele>
        <time>2018-05-06T06:26:03Z</time>
      </trkpt>
      <trkpt lat="45.56244" lon="4.55331">
        <ele>598.6</ele>
        <time>2018-05-06T06:26:08Z</time>
      </trkpt>
      <trkpt lat="45.56246" lon="4.55328">
        <ele>598.5</ele>
        <time>2018-05-06T06:26:10Z</time>
      </trkpt>
      <trkpt lat="45.56249" lon="4.55324">
        <ele>599.1</ele>
        <time>2018-05-06T06:26:12Z</time>
      </trkpt>
      <trkpt lat="45.56254" lon="4.55313">
        <ele>601.4</ele>
        <time>2018-05-06T06:26:18Z</time>
      </trkpt>
      <trkpt lat="45.56255" lon="4.55311">
        <ele>601.3</ele>
        <time>2018-05-06T06:26:19Z</time>
      </trkpt>
      <trkpt lat="45.56262" lon="4.55299">
        <ele>603.6</ele>
        <time>2018-05-06T06:26:26Z</time>
      </trkpt>
      <trkpt lat="45.56269" lon="4.55287">
        <ele>606</ele>
        <time>2018-05-06T06:26:33Z</time>
      </trkpt>
      <trkpt lat="45.56271" lon="4.55284">
        <ele>606.7</ele>
        <time>2018-05-06T06:26:35Z</time>
      </trkpt>
      <trkpt lat="45.56274" lon="4.55276">
        <ele>607.4</ele>
        <time>2018-05-06T06:26:39Z</time>
      </trkpt>
      <trkpt lat="45.56276" lon="4.55269">
        <ele>609</ele>
        <time>2018-05-06T06:26:42Z</time>
      </trkpt>
      <trkpt lat="45.56275" lon="4.55267">
        <ele>609.7</ele>
        <time>2018-05-06T06:26:43Z</time>
      </trkpt>
      <trkpt lat="45.56274" lon="4.55263">
        <ele>609.7</ele>
        <time>2018-05-06T06:26:45Z</time>
      </trkpt>
      <trkpt lat="45.56273" lon="4.55262">
        <ele>609.6</ele>
        <time>2018-05-06T06:26:46Z</time>
      </trkpt>
      <trkpt lat="45.56268" lon="4.55263">
        <ele>609.5</ele>
        <time>2018-05-06T06:26:49Z</time>
      </trkpt>
      <trkpt lat="45.56264" lon="4.55264">
        <ele>609.5</ele>
        <time>2018-05-06T06:26:51Z</time>
      </trkpt>
      <trkpt lat="45.56248" lon="4.55265">
        <ele>609</ele>
        <time>2018-05-06T06:26:59Z</time>
      </trkpt>
      <trkpt lat="45.56234" lon="4.55262">
        <ele>608.2</ele>
        <time>2018-05-06T06:27:07Z</time>
      </trkpt>
      <trkpt lat="45.5623" lon="4.55261">
        <ele>607.7</ele>
        <time>2018-05-06T06:27:09Z</time>
      </trkpt>
      <trkpt lat="45.56221" lon="4.55255">
        <ele>606.2</ele>
        <time>2018-05-06T06:27:15Z</time>
      </trkpt>
      <trkpt lat="45.56205" lon="4.55243">
        <ele>606.5</ele>
        <time>2018-05-06T06:27:24Z</time>
      </trkpt>
      <trkpt lat="45.56203" lon="4.55241">
        <ele>606.9</ele>
        <time>2018-05-06T06:27:25Z</time>
      </trkpt>
      <trkpt lat="45.5619" lon="4.55224">
        <ele>608.2</ele>
        <time>2018-05-06T06:27:32Z</time>
      </trkpt>
      <trkpt lat="45.56188" lon="4.55222">
        <ele>608.3</ele>
        <time>2018-05-06T06:27:33Z</time>
      </trkpt>
      <trkpt lat="45.56177" lon="4.55206">
        <ele>608.5</ele>
        <time>2018-05-06T06:27:39Z</time>
      </trkpt>
      <trkpt lat="45.56172" lon="4.55198">
        <ele>608.6</ele>
        <time>2018-05-06T06:27:42Z</time>
      </trkpt>
      <trkpt lat="45.56165" lon="4.55187">
        <ele>608.2</ele>
        <time>2018-05-06T06:27:46Z</time>
      </trkpt>
      <trkpt lat="45.56159" lon="4.55176">
        <ele>607.6</ele>
        <time>2018-05-06T06:27:50Z</time>
      </trkpt>
      <trkpt lat="45.56145" lon="4.55147">
        <ele>607.2</ele>
        <time>2018-05-06T06:27:58Z</time>
      </trkpt>
      <trkpt lat="45.56139" lon="4.5513">
        <ele>607.1</ele>
        <time>2018-05-06T06:28:02Z</time>
      </trkpt>
      <trkpt lat="45.56133" lon="4.55111">
        <ele>607</ele>
        <time>2018-05-06T06:28:06Z</time>
      </trkpt>
      <trkpt lat="45.5613" lon="4.55073">
        <ele>606.2</ele>
        <time>2018-05-06T06:28:12Z</time>
      </trkpt>
      <trkpt lat="45.56131" lon="4.55049">
        <ele>605</ele>
        <time>2018-05-06T06:28:15Z</time>
      </trkpt>
      <trkpt lat="45.56134" lon="4.55035">
        <ele>605.1</ele>
        <time>2018-05-06T06:28:17Z</time>
      </trkpt>
      <trkpt lat="45.5614" lon="4.55017">
        <ele>605</ele>
        <time>2018-05-06T06:28:20Z</time>
      </trkpt>
      <trkpt lat="45.56144" lon="4.55008">
        <ele>605</ele>
        <time>2018-05-06T06:28:22Z</time>
      </trkpt>
      <trkpt lat="45.56162" lon="4.5497">
        <ele>604.8</ele>
        <time>2018-05-06T06:28:29Z</time>
      </trkpt>
      <trkpt lat="45.56183" lon="4.54933">
        <ele>604.7</ele>
        <time>2018-05-06T06:28:37Z</time>
      </trkpt>
      <trkpt lat="45.56213" lon="4.54902">
        <ele>604.9</ele>
        <time>2018-05-06T06:28:46Z</time>
      </trkpt>
      <trkpt lat="45.56216" lon="4.549">
        <ele>605</ele>
        <time>2018-05-06T06:28:47Z</time>
      </trkpt>
      <trkpt lat="45.56236" lon="4.5489">
        <ele>609.2</ele>
        <time>2018-05-06T06:28:52Z</time>
      </trkpt>
      <trkpt lat="45.5626" lon="4.54878">
        <ele>612.8</ele>
        <time>2018-05-06T06:28:59Z</time>
      </trkpt>
      <trkpt lat="45.56264" lon="4.54876">
        <ele>613.4</ele>
        <time>2018-05-06T06:29:00Z</time>
      </trkpt>
      <trkpt lat="45.56276" lon="4.54868">
        <ele>615.9</ele>
        <time>2018-05-06T06:29:04Z</time>
      </trkpt>
      <trkpt lat="45.56286" lon="4.54863">
        <ele>617.8</ele>
        <time>2018-05-06T06:29:07Z</time>
      </trkpt>
      <trkpt lat="45.56292" lon="4.5486">
        <ele>619</ele>
        <time>2018-05-06T06:29:09Z</time>
      </trkpt>
      <trkpt lat="45.56309" lon="4.5485">
        <ele>621.3</ele>
        <time>2018-05-06T06:29:15Z</time>
      </trkpt>
      <trkpt lat="45.56312" lon="4.54849">
        <ele>622.1</ele>
        <time>2018-05-06T06:29:16Z</time>
      </trkpt>
      <trkpt lat="45.56331" lon="4.54839">
        <ele>623.7</ele>
        <time>2018-05-06T06:29:22Z</time>
      </trkpt>
      <trkpt lat="45.56345" lon="4.54831">
        <ele>623.7</ele>
        <time>2018-05-06T06:29:27Z</time>
      </trkpt>
      <trkpt lat="45.56359" lon="4.54822">
        <ele>623.7</ele>
        <time>2018-05-06T06:29:32Z</time>
      </trkpt>
      <trkpt lat="45.56369" lon="4.54816">
        <ele>623.3</ele>
        <time>2018-05-06T06:29:36Z</time>
      </trkpt>
      <trkpt lat="45.56374" lon="4.54813">
        <ele>624.2</ele>
        <time>2018-05-06T06:29:38Z</time>
      </trkpt>
      <trkpt lat="45.56377" lon="4.54812">
        <ele>623.9</ele>
        <time>2018-05-06T06:29:39Z</time>
      </trkpt>
      <trkpt lat="45.56382" lon="4.5481">
        <ele>624.6</ele>
        <time>2018-05-06T06:29:41Z</time>
      </trkpt>
      <trkpt lat="45.5639" lon="4.54806">
        <ele>625.3</ele>
        <time>2018-05-06T06:29:44Z</time>
      </trkpt>
      <trkpt lat="45.56395" lon="4.54803">
        <ele>625.5</ele>
        <time>2018-05-06T06:29:46Z</time>
      </trkpt>
      <trkpt lat="45.56401" lon="4.54801">
        <ele>626.6</ele>
        <time>2018-05-06T06:29:48Z</time>
      </trkpt>
      <trkpt lat="45.56408" lon="4.54795">
        <ele>625.6</ele>
        <time>2018-05-06T06:29:50Z</time>
      </trkpt>
      <trkpt lat="45.56418" lon="4.54787">
        <ele>626.3</ele>
        <time>2018-05-06T06:29:53Z</time>
      </trkpt>
      <trkpt lat="45.56435" lon="4.54776">
        <ele>626.1</ele>
        <time>2018-05-06T06:29:57Z</time>
      </trkpt>
      <trkpt lat="45.56446" lon="4.54767">
        <ele>626.5</ele>
        <time>2018-05-06T06:30:00Z</time>
      </trkpt>
      <trkpt lat="45.56466" lon="4.54746">
        <ele>625.4</ele>
        <time>2018-05-06T06:30:04Z</time>
      </trkpt>
      <trkpt lat="45.56478" lon="4.5472">
        <ele>623.3</ele>
        <time>2018-05-06T06:30:07Z</time>
      </trkpt>
      <trkpt lat="45.56482" lon="4.54711">
        <ele>623.3</ele>
        <time>2018-05-06T06:30:08Z</time>
      </trkpt>
      <trkpt lat="45.56494" lon="4.54687">
        <ele>621.4</ele>
        <time>2018-05-06T06:30:11Z</time>
      </trkpt>
      <trkpt lat="45.56504" lon="4.54675">
        <ele>621.6</ele>
        <time>2018-05-06T06:30:13Z</time>
      </trkpt>
      <trkpt lat="45.56518" lon="4.54664">
        <ele>622.6</ele>
        <time>2018-05-06T06:30:16Z</time>
      </trkpt>
      <trkpt lat="45.56522" lon="4.54663">
        <ele>623.3</ele>
        <time>2018-05-06T06:30:17Z</time>
      </trkpt>
      <trkpt lat="45.56531" lon="4.54665">
        <ele>624.8</ele>
        <time>2018-05-06T06:30:20Z</time>
      </trkpt>
      <trkpt lat="45.56538" lon="4.54678">
        <ele>627.8</ele>
        <time>2018-05-06T06:30:25Z</time>
      </trkpt>
      <trkpt lat="45.5654" lon="4.54679">
        <ele>628.4</ele>
        <time>2018-05-06T06:30:26Z</time>
      </trkpt>
      <trkpt lat="45.56544" lon="4.54685">
        <ele>630.2</ele>
        <time>2018-05-06T06:30:29Z</time>
      </trkpt>
      <trkpt lat="45.56547" lon="4.5469">
        <ele>631.5</ele>
        <time>2018-05-06T06:30:32Z</time>
      </trkpt>
      <trkpt lat="45.56549" lon="4.54691">
        <ele>632.2</ele>
        <time>2018-05-06T06:30:33Z</time>
      </trkpt>
      <trkpt lat="45.56555" lon="4.54694">
        <ele>634.2</ele>
        <time>2018-05-06T06:30:37Z</time>
      </trkpt>
      <trkpt lat="45.56563" lon="4.54696">
        <ele>635.5</ele>
        <time>2018-05-06T06:30:41Z</time>
      </trkpt>
      <trkpt lat="45.56565" lon="4.54697">
        <ele>637.1</ele>
        <time>2018-05-06T06:30:42Z</time>
      </trkpt>
      <trkpt lat="45.56574" lon="4.54698">
        <ele>638.8</ele>
        <time>2018-05-06T06:30:47Z</time>
      </trkpt>
      <trkpt lat="45.56576" lon="4.54698">
        <ele>639.6</ele>
        <time>2018-05-06T06:30:48Z</time>
      </trkpt>
      <trkpt lat="45.56584" lon="4.54697">
        <ele>641.7</ele>
        <time>2018-05-06T06:30:52Z</time>
      </trkpt>
      <trkpt lat="45.56589" lon="4.54697">
        <ele>642.7</ele>
        <time>2018-05-06T06:30:55Z</time>
      </trkpt>
      <trkpt lat="45.56593" lon="4.54697">
        <ele>644.3</ele>
        <time>2018-05-06T06:30:57Z</time>
      </trkpt>
      <trkpt lat="45.56605" lon="4.54695">
        <ele>646</ele>
        <time>2018-05-06T06:31:03Z</time>
      </trkpt>
      <trkpt lat="45.56607" lon="4.54695">
        <ele>646.2</ele>
        <time>2018-05-06T06:31:04Z</time>
      </trkpt>
      <trkpt lat="45.56618" lon="4.54689">
        <ele>648.9</ele>
        <time>2018-05-06T06:31:09Z</time>
      </trkpt>
      <trkpt lat="45.56623" lon="4.54687">
        <ele>649.9</ele>
        <time>2018-05-06T06:31:12Z</time>
      </trkpt>
      <trkpt lat="45.5663" lon="4.54683">
        <ele>651.2</ele>
        <time>2018-05-06T06:31:16Z</time>
      </trkpt>
      <trkpt lat="45.56631" lon="4.54682">
        <ele>651.4</ele>
        <time>2018-05-06T06:31:17Z</time>
      </trkpt>
      <trkpt lat="45.56641" lon="4.54674">
        <ele>654.4</ele>
        <time>2018-05-06T06:31:24Z</time>
      </trkpt>
      <trkpt lat="45.56647" lon="4.54668">
        <ele>654</ele>
        <time>2018-05-06T06:31:29Z</time>
      </trkpt>
      <trkpt lat="45.56651" lon="4.54663">
        <ele>653.7</ele>
        <time>2018-05-06T06:31:32Z</time>
      </trkpt>
      <trkpt lat="45.56652" lon="4.54662">
        <ele>653.6</ele>
        <time>2018-05-06T06:31:33Z</time>
      </trkpt>
      <trkpt lat="45.56654" lon="4.54661">
        <ele>653.5</ele>
        <time>2018-05-06T06:31:35Z</time>
      </trkpt>
      <trkpt lat="45.56657" lon="4.54664">
        <ele>653.7</ele>
        <time>2018-05-06T06:31:38Z</time>
      </trkpt>
      <trkpt lat="45.56656" lon="4.5467">
        <ele>654</ele>
        <time>2018-05-06T06:31:41Z</time>
      </trkpt>
      <trkpt lat="45.56655" lon="4.54672">
        <ele>654.1</ele>
        <time>2018-05-06T06:31:42Z</time>
      </trkpt>
      <trkpt lat="45.56654" lon="4.54674">
        <ele>654.2</ele>
        <time>2018-05-06T06:31:43Z</time>
      </trkpt>
      <trkpt lat="45.5665" lon="4.54693">
        <ele>655.1</ele>
        <time>2018-05-06T06:31:51Z</time>
      </trkpt>
      <trkpt lat="45.56644" lon="4.5471">
        <ele>656</ele>
        <time>2018-05-06T06:31:58Z</time>
      </trkpt>
      <trkpt lat="45.56641" lon="4.54717">
        <ele>656.4</ele>
        <time>2018-05-06T06:32:01Z</time>
      </trkpt>
      <trkpt lat="45.56635" lon="4.54727">
        <ele>657</ele>
        <time>2018-05-06T06:32:06Z</time>
      </trkpt>
      <trkpt lat="45.56634" lon="4.54728">
        <ele>657.1</ele>
        <time>2018-05-06T06:32:07Z</time>
      </trkpt>
      <trkpt lat="45.56627" lon="4.54743">
        <ele>658.1</ele>
        <time>2018-05-06T06:32:14Z</time>
      </trkpt>
      <trkpt lat="45.56626" lon="4.54747">
        <ele>658.3</ele>
        <time>2018-05-06T06:32:16Z</time>
      </trkpt>
      <trkpt lat="45.56621" lon="4.54757">
        <ele>658.7</ele>
        <time>2018-05-06T06:32:21Z</time>
      </trkpt>
      <trkpt lat="45.5662" lon="4.5476">
        <ele>658.8</ele>
        <time>2018-05-06T06:32:22Z</time>
      </trkpt>
      <trkpt lat="45.56618" lon="4.54765">
        <ele>659.1</ele>
        <time>2018-05-06T06:32:25Z</time>
      </trkpt>
      <trkpt lat="45.56615" lon="4.54769">
        <ele>659.3</ele>
        <time>2018-05-06T06:32:28Z</time>
      </trkpt>
      <trkpt lat="45.5661" lon="4.54782">
        <ele>660.1</ele>
        <time>2018-05-06T06:32:35Z</time>
      </trkpt>
      <trkpt lat="45.5661" lon="4.54784">
        <ele>660.3</ele>
        <time>2018-05-06T06:32:36Z</time>
      </trkpt>
      <trkpt lat="45.56607" lon="4.54792">
        <ele>660.7</ele>
        <time>2018-05-06T06:32:40Z</time>
      </trkpt>
      <trkpt lat="45.56605" lon="4.54795">
        <ele>661</ele>
        <time>2018-05-06T06:32:42Z</time>
      </trkpt>
      <trkpt lat="45.56604" lon="4.54796">
        <ele>661.1</ele>
        <time>2018-05-06T06:32:43Z</time>
      </trkpt>
      <trkpt lat="45.56602" lon="4.54803">
        <ele>661.5</ele>
        <time>2018-05-06T06:32:46Z</time>
      </trkpt>
      <trkpt lat="45.56601" lon="4.54807">
        <ele>661.8</ele>
        <time>2018-05-06T06:32:48Z</time>
      </trkpt>
      <trkpt lat="45.566" lon="4.54809">
        <ele>661.9</ele>
        <time>2018-05-06T06:32:49Z</time>
      </trkpt>
      <trkpt lat="45.56598" lon="4.54819">
        <ele>662.5</ele>
        <time>2018-05-06T06:32:54Z</time>
      </trkpt>
      <trkpt lat="45.56598" lon="4.5482">
        <ele>662.7</ele>
        <time>2018-05-06T06:32:55Z</time>
      </trkpt>
      <trkpt lat="45.56596" lon="4.54823">
        <ele>662.9</ele>
        <time>2018-05-06T06:32:57Z</time>
      </trkpt>
      <trkpt lat="45.56593" lon="4.54829">
        <ele>663.4</ele>
        <time>2018-05-06T06:33:00Z</time>
      </trkpt>
      <trkpt lat="45.56591" lon="4.54832">
        <ele>663.6</ele>
        <time>2018-05-06T06:33:02Z</time>
      </trkpt>
      <trkpt lat="45.56589" lon="4.54835">
        <ele>663.9</ele>
        <time>2018-05-06T06:33:04Z</time>
      </trkpt>
      <trkpt lat="45.56584" lon="4.54841">
        <ele>664.5</ele>
        <time>2018-05-06T06:33:08Z</time>
      </trkpt>
      <trkpt lat="45.56582" lon="4.54843">
        <ele>664.6</ele>
        <time>2018-05-06T06:33:09Z</time>
      </trkpt>
      <trkpt lat="45.56577" lon="4.54848">
        <ele>665.3</ele>
        <time>2018-05-06T06:33:13Z</time>
      </trkpt>
      <trkpt lat="45.56573" lon="4.54852">
        <ele>665.7</ele>
        <time>2018-05-06T06:33:16Z</time>
      </trkpt>
      <trkpt lat="45.56566" lon="4.54863">
        <ele>666.5</ele>
        <time>2018-05-06T06:33:22Z</time>
      </trkpt>
      <trkpt lat="45.56564" lon="4.54864">
        <ele>666.6</ele>
        <time>2018-05-06T06:33:23Z</time>
      </trkpt>
      <trkpt lat="45.56557" lon="4.54879">
        <ele>667.4</ele>
        <time>2018-05-06T06:33:30Z</time>
      </trkpt>
      <trkpt lat="45.56556" lon="4.54882">
        <ele>667.6</ele>
        <time>2018-05-06T06:33:31Z</time>
      </trkpt>
      <trkpt lat="45.56552" lon="4.54892">
        <ele>668.1</ele>
        <time>2018-05-06T06:33:36Z</time>
      </trkpt>
      <trkpt lat="45.56551" lon="4.54894">
        <ele>668.2</ele>
        <time>2018-05-06T06:33:37Z</time>
      </trkpt>
      <trkpt lat="45.56548" lon="4.54904">
        <ele>668.6</ele>
        <time>2018-05-06T06:33:42Z</time>
      </trkpt>
      <trkpt lat="45.56546" lon="4.54909">
        <ele>668.9</ele>
        <time>2018-05-06T06:33:45Z</time>
      </trkpt>
      <trkpt lat="45.56545" lon="4.54913">
        <ele>669.1</ele>
        <time>2018-05-06T06:33:47Z</time>
      </trkpt>
      <trkpt lat="45.56542" lon="4.54918">
        <ele>669.4</ele>
        <time>2018-05-06T06:33:50Z</time>
      </trkpt>
      <trkpt lat="45.5654" lon="4.54922">
        <ele>669.7</ele>
        <time>2018-05-06T06:33:52Z</time>
      </trkpt>
      <trkpt lat="45.56537" lon="4.54929">
        <ele>670.2</ele>
        <time>2018-05-06T06:33:56Z</time>
      </trkpt>
      <trkpt lat="45.56535" lon="4.54932">
        <ele>670.5</ele>
        <time>2018-05-06T06:33:58Z</time>
      </trkpt>
      <trkpt lat="45.5653" lon="4.5494">
        <ele>671</ele>
        <time>2018-05-06T06:34:02Z</time>
      </trkpt>
      <trkpt lat="45.56526" lon="4.54947">
        <ele>671.4</ele>
        <time>2018-05-06T06:34:06Z</time>
      </trkpt>
      <trkpt lat="45.56517" lon="4.54959">
        <ele>672.1</ele>
        <time>2018-05-06T06:34:13Z</time>
      </trkpt>
      <trkpt lat="45.56514" lon="4.54965">
        <ele>672.3</ele>
        <time>2018-05-06T06:34:16Z</time>
      </trkpt>
      <trkpt lat="45.56514" lon="4.54973">
        <ele>672.6</ele>
        <time>2018-05-06T06:34:19Z</time>
      </trkpt>
      <trkpt lat="45.56515" lon="4.5498">
        <ele>672.7</ele>
        <time>2018-05-06T06:34:22Z</time>
      </trkpt>
      <trkpt lat="45.56517" lon="4.54983">
        <ele>672.9</ele>
        <time>2018-05-06T06:34:24Z</time>
      </trkpt>
      <trkpt lat="45.56519" lon="4.54986">
        <ele>673</ele>
        <time>2018-05-06T06:34:26Z</time>
      </trkpt>
      <trkpt lat="45.56524" lon="4.54994">
        <ele>674.3</ele>
        <time>2018-05-06T06:34:31Z</time>
      </trkpt>
      <trkpt lat="45.56527" lon="4.54999">
        <ele>674.9</ele>
        <time>2018-05-06T06:34:34Z</time>
      </trkpt>
      <trkpt lat="45.56528" lon="4.55001">
        <ele>674.6</ele>
        <time>2018-05-06T06:34:35Z</time>
      </trkpt>
      <trkpt lat="45.5653" lon="4.55009">
        <ele>675.6</ele>
        <time>2018-05-06T06:34:39Z</time>
      </trkpt>
      <trkpt lat="45.56531" lon="4.55013">
        <ele>675.6</ele>
        <time>2018-05-06T06:34:41Z</time>
      </trkpt>
      <trkpt lat="45.56532" lon="4.55017">
        <ele>675.6</ele>
        <time>2018-05-06T06:34:43Z</time>
      </trkpt>
      <trkpt lat="45.56535" lon="4.55027">
        <ele>676.2</ele>
        <time>2018-05-06T06:34:47Z</time>
      </trkpt>
      <trkpt lat="45.56535" lon="4.5503">
        <ele>676.1</ele>
        <time>2018-05-06T06:34:48Z</time>
      </trkpt>
      <trkpt lat="45.56537" lon="4.5504">
        <ele>676.5</ele>
        <time>2018-05-06T06:34:52Z</time>
      </trkpt>
      <trkpt lat="45.56539" lon="4.5505">
        <ele>676.5</ele>
        <time>2018-05-06T06:34:55Z</time>
      </trkpt>
      <trkpt lat="45.56542" lon="4.55068">
        <ele>675.9</ele>
        <time>2018-05-06T06:34:58Z</time>
      </trkpt>
      <trkpt lat="45.56543" lon="4.55075">
        <ele>675.1</ele>
        <time>2018-05-06T06:34:59Z</time>
      </trkpt>
      <trkpt lat="45.56555" lon="4.55109">
        <ele>675</ele>
        <time>2018-05-06T06:35:04Z</time>
      </trkpt>
      <trkpt lat="45.56564" lon="4.55141">
        <ele>673</ele>
        <time>2018-05-06T06:35:08Z</time>
      </trkpt>
      <trkpt lat="45.56574" lon="4.55157">
        <ele>671.1</ele>
        <time>2018-05-06T06:35:10Z</time>
      </trkpt>
      <trkpt lat="45.56579" lon="4.55164">
        <ele>671</ele>
        <time>2018-05-06T06:35:11Z</time>
      </trkpt>
      <trkpt lat="45.5659" lon="4.55175">
        <ele>669.9</ele>
        <time>2018-05-06T06:35:13Z</time>
      </trkpt>
      <trkpt lat="45.56602" lon="4.55184">
        <ele>669.3</ele>
        <time>2018-05-06T06:35:15Z</time>
      </trkpt>
      <trkpt lat="45.56608" lon="4.55188">
        <ele>668.5</ele>
        <time>2018-05-06T06:35:16Z</time>
      </trkpt>
      <trkpt lat="45.5662" lon="4.55195">
        <ele>667.8</ele>
        <time>2018-05-06T06:35:18Z</time>
      </trkpt>
      <trkpt lat="45.56626" lon="4.55198">
        <ele>668.1</ele>
        <time>2018-05-06T06:35:19Z</time>
      </trkpt>
      <trkpt lat="45.56637" lon="4.55199">
        <ele>667.7</ele>
        <time>2018-05-06T06:35:21Z</time>
      </trkpt>
      <trkpt lat="45.5666" lon="4.55199">
        <ele>668.3</ele>
        <time>2018-05-06T06:35:26Z</time>
      </trkpt>
      <trkpt lat="45.56671" lon="4.55197">
        <ele>668.9</ele>
        <time>2018-05-06T06:35:28Z</time>
      </trkpt>
      <trkpt lat="45.56696" lon="4.5519">
        <ele>669.3</ele>
        <time>2018-05-06T06:35:33Z</time>
      </trkpt>
      <trkpt lat="45.56721" lon="4.55181">
        <ele>669.3</ele>
        <time>2018-05-06T06:35:38Z</time>
      </trkpt>
      <trkpt lat="45.56726" lon="4.55178">
        <ele>668.8</ele>
        <time>2018-05-06T06:35:39Z</time>
      </trkpt>
      <trkpt lat="45.56749" lon="4.55165">
        <ele>670.3</ele>
        <time>2018-05-06T06:35:43Z</time>
      </trkpt>
      <trkpt lat="45.5676" lon="4.55162">
        <ele>671</ele>
        <time>2018-05-06T06:35:45Z</time>
      </trkpt>
      <trkpt lat="45.56773" lon="4.55164">
        <ele>671.2</ele>
        <time>2018-05-06T06:35:47Z</time>
      </trkpt>
      <trkpt lat="45.56789" lon="4.55167">
        <ele>672</ele>
        <time>2018-05-06T06:35:50Z</time>
      </trkpt>
      <trkpt lat="45.56798" lon="4.55171">
        <ele>672.5</ele>
        <time>2018-05-06T06:35:52Z</time>
      </trkpt>
      <trkpt lat="45.56815" lon="4.55181">
        <ele>674.7</ele>
        <time>2018-05-06T06:35:58Z</time>
      </trkpt>
      <trkpt lat="45.56877" lon="4.55193">
        <ele>685.1</ele>
        <time>2018-05-06T06:37:11Z</time>
      </trkpt>
      <trkpt lat="45.56883" lon="4.55195">
        <ele>684.4</ele>
        <time>2018-05-06T06:37:15Z</time>
      </trkpt>
      <trkpt lat="45.56891" lon="4.55197">
        <ele>684.7</ele>
        <time>2018-05-06T06:37:20Z</time>
      </trkpt>
      <trkpt lat="45.5692" lon="4.55188">
        <ele>686.1</ele>
        <time>2018-05-06T06:37:35Z</time>
      </trkpt>
      <trkpt lat="45.56928" lon="4.55184">
        <ele>686</ele>
        <time>2018-05-06T06:37:39Z</time>
      </trkpt>
      <trkpt lat="45.56938" lon="4.55178">
        <ele>685.5</ele>
        <time>2018-05-06T06:37:43Z</time>
      </trkpt>
      <trkpt lat="45.56948" lon="4.55175">
        <ele>683.6</ele>
        <time>2018-05-06T06:37:46Z</time>
      </trkpt>
      <trkpt lat="45.56972" lon="4.55159">
        <ele>682.1</ele>
        <time>2018-05-06T06:37:52Z</time>
      </trkpt>
      <trkpt lat="45.56993" lon="4.55139">
        <ele>682.3</ele>
        <time>2018-05-06T06:37:58Z</time>
      </trkpt>
      <trkpt lat="45.56997" lon="4.55135">
        <ele>682.6</ele>
        <time>2018-05-06T06:37:59Z</time>
      </trkpt>
      <trkpt lat="45.57009" lon="4.55113">
        <ele>685</ele>
        <time>2018-05-06T06:38:03Z</time>
      </trkpt>
      <trkpt lat="45.57031" lon="4.55089">
        <ele>683.7</ele>
        <time>2018-05-06T06:38:08Z</time>
      </trkpt>
      <trkpt lat="45.57064" lon="4.55059">
        <ele>677.8</ele>
        <time>2018-05-06T06:38:13Z</time>
      </trkpt>
      <trkpt lat="45.57076" lon="4.55045">
        <ele>676.1</ele>
        <time>2018-05-06T06:38:15Z</time>
      </trkpt>
      <trkpt lat="45.57101" lon="4.55021">
        <ele>669.5</ele>
        <time>2018-05-06T06:38:19Z</time>
      </trkpt>
      <trkpt lat="45.57134" lon="4.54994">
        <ele>661.9</ele>
        <time>2018-05-06T06:38:24Z</time>
      </trkpt>
      <trkpt lat="45.57178" lon="4.54965">
        <ele>659.8</ele>
        <time>2018-05-06T06:38:29Z</time>
      </trkpt>
      <trkpt lat="45.57185" lon="4.54962">
        <ele>660.2</ele>
        <time>2018-05-06T06:38:30Z</time>
      </trkpt>
      <trkpt lat="45.57194" lon="4.54962">
        <ele>660.7</ele>
        <time>2018-05-06T06:38:31Z</time>
      </trkpt>
      <trkpt lat="45.57202" lon="4.54965">
        <ele>661.1</ele>
        <time>2018-05-06T06:38:32Z</time>
      </trkpt>
      <trkpt lat="45.5721" lon="4.54966">
        <ele>661.6</ele>
        <time>2018-05-06T06:38:33Z</time>
      </trkpt>
      <trkpt lat="45.57222" lon="4.5497">
        <ele>662.1</ele>
        <time>2018-05-06T06:38:35Z</time>
      </trkpt>
      <trkpt lat="45.57228" lon="4.54974">
        <ele>662.3</ele>
        <time>2018-05-06T06:38:36Z</time>
      </trkpt>
      <trkpt lat="45.57232" lon="4.54977">
        <ele>662.6</ele>
        <time>2018-05-06T06:38:37Z</time>
      </trkpt>
      <trkpt lat="45.57239" lon="4.54985">
        <ele>663</ele>
        <time>2018-05-06T06:38:39Z</time>
      </trkpt>
      <trkpt lat="45.57244" lon="4.54993">
        <ele>663.4</ele>
        <time>2018-05-06T06:38:41Z</time>
      </trkpt>
      <trkpt lat="45.57252" lon="4.55009">
        <ele>664.1</ele>
        <time>2018-05-06T06:38:45Z</time>
      </trkpt>
      <trkpt lat="45.57255" lon="4.55017">
        <ele>664.4</ele>
        <time>2018-05-06T06:38:47Z</time>
      </trkpt>
      <trkpt lat="45.57261" lon="4.55038">
        <ele>665.1</ele>
        <time>2018-05-06T06:38:52Z</time>
      </trkpt>
      <trkpt lat="45.57262" lon="4.55042">
        <ele>665.2</ele>
        <time>2018-05-06T06:38:53Z</time>
      </trkpt>
      <trkpt lat="45.57266" lon="4.55062">
        <ele>665.6</ele>
        <time>2018-05-06T06:38:58Z</time>
      </trkpt>
      <trkpt lat="45.5727" lon="4.55091">
        <ele>666.6</ele>
        <time>2018-05-06T06:39:05Z</time>
      </trkpt>
      <trkpt lat="45.57275" lon="4.55118">
        <ele>667.4</ele>
        <time>2018-05-06T06:39:12Z</time>
      </trkpt>
      <trkpt lat="45.57279" lon="4.5514">
        <ele>668</ele>
        <time>2018-05-06T06:39:18Z</time>
      </trkpt>
      <trkpt lat="45.57282" lon="4.55153">
        <ele>668.4</ele>
        <time>2018-05-06T06:39:21Z</time>
      </trkpt>
      <trkpt lat="45.57284" lon="4.55158">
        <ele>668.5</ele>
        <time>2018-05-06T06:39:22Z</time>
      </trkpt>
      <trkpt lat="45.57286" lon="4.55166">
        <ele>668.8</ele>
        <time>2018-05-06T06:39:24Z</time>
      </trkpt>
      <trkpt lat="45.57289" lon="4.55174">
        <ele>669.1</ele>
        <time>2018-05-06T06:39:26Z</time>
      </trkpt>
      <trkpt lat="45.5729" lon="4.55178">
        <ele>669.2</ele>
        <time>2018-05-06T06:39:27Z</time>
      </trkpt>
      <trkpt lat="45.573" lon="4.55199">
        <ele>670.1</ele>
        <time>2018-05-06T06:39:33Z</time>
      </trkpt>
      <trkpt lat="45.57315" lon="4.5523">
        <ele>671.2</ele>
        <time>2018-05-06T06:39:42Z</time>
      </trkpt>
      <trkpt lat="45.57317" lon="4.55233">
        <ele>671.4</ele>
        <time>2018-05-06T06:39:43Z</time>
      </trkpt>
      <trkpt lat="45.57332" lon="4.55251">
        <ele>672.3</ele>
        <time>2018-05-06T06:39:50Z</time>
      </trkpt>
      <trkpt lat="45.57337" lon="4.55255">
        <ele>672.5</ele>
        <time>2018-05-06T06:39:52Z</time>
      </trkpt>
      <trkpt lat="45.57352" lon="4.55259">
        <ele>673.3</ele>
        <time>2018-05-06T06:39:57Z</time>
      </trkpt>
      <trkpt lat="45.57354" lon="4.5526">
        <ele>673.4</ele>
        <time>2018-05-06T06:39:58Z</time>
      </trkpt>
      <trkpt lat="45.57364" lon="4.55261">
        <ele>673.8</ele>
        <time>2018-05-06T06:40:01Z</time>
      </trkpt>
      <trkpt lat="45.57381" lon="4.55262">
        <ele>674.5</ele>
        <time>2018-05-06T06:40:07Z</time>
      </trkpt>
      <trkpt lat="45.57408" lon="4.55268">
        <ele>675.5</ele>
        <time>2018-05-06T06:40:16Z</time>
      </trkpt>
      <trkpt lat="45.57431" lon="4.55278">
        <ele>675.7</ele>
        <time>2018-05-06T06:40:23Z</time>
      </trkpt>
      <trkpt lat="45.57463" lon="4.55289">
        <ele>675.6</ele>
        <time>2018-05-06T06:40:31Z</time>
      </trkpt>
      <trkpt lat="45.57477" lon="4.55305">
        <ele>675.6</ele>
        <time>2018-05-06T06:40:35Z</time>
      </trkpt>
      <trkpt lat="45.57478" lon="4.5533">
        <ele>675.7</ele>
        <time>2018-05-06T06:40:39Z</time>
      </trkpt>
      <trkpt lat="45.57477" lon="4.55336">
        <ele>675.8</ele>
        <time>2018-05-06T06:40:40Z</time>
      </trkpt>
      <trkpt lat="45.57473" lon="4.5537">
        <ele>676.2</ele>
        <time>2018-05-06T06:40:46Z</time>
      </trkpt>
      <trkpt lat="45.57472" lon="4.55381">
        <ele>676.3</ele>
        <time>2018-05-06T06:40:48Z</time>
      </trkpt>
      <trkpt lat="45.57468" lon="4.55413">
        <ele>676.9</ele>
        <time>2018-05-06T06:40:54Z</time>
      </trkpt>
      <trkpt lat="45.57465" lon="4.55434">
        <ele>677.2</ele>
        <time>2018-05-06T06:40:58Z</time>
      </trkpt>
      <trkpt lat="45.57464" lon="4.55457">
        <ele>678</ele>
        <time>2018-05-06T06:41:03Z</time>
      </trkpt>
      <trkpt lat="45.57468" lon="4.5548">
        <ele>678.9</ele>
        <time>2018-05-06T06:41:08Z</time>
      </trkpt>
      <trkpt lat="45.57471" lon="4.55491">
        <ele>679.4</ele>
        <time>2018-05-06T06:41:11Z</time>
      </trkpt>
      <trkpt lat="45.57476" lon="4.55504">
        <ele>685.1</ele>
        <time>2018-05-06T06:41:15Z</time>
      </trkpt>
      <trkpt lat="45.57483" lon="4.55516">
        <ele>690.4</ele>
        <time>2018-05-06T06:41:19Z</time>
      </trkpt>
      <trkpt lat="45.57496" lon="4.55529">
        <ele>698.2</ele>
        <time>2018-05-06T06:41:26Z</time>
      </trkpt>
      <trkpt lat="45.57503" lon="4.55536">
        <ele>702.2</ele>
        <time>2018-05-06T06:41:30Z</time>
      </trkpt>
      <trkpt lat="45.57507" lon="4.55542">
        <ele>705</ele>
        <time>2018-05-06T06:41:33Z</time>
      </trkpt>
      <trkpt lat="45.57523" lon="4.55559">
        <ele>704.6</ele>
        <time>2018-05-06T06:41:40Z</time>
      </trkpt>
      <trkpt lat="45.57527" lon="4.55563">
        <ele>704.5</ele>
        <time>2018-05-06T06:41:41Z</time>
      </trkpt>
      <trkpt lat="45.57543" lon="4.55576">
        <ele>704.3</ele>
        <time>2018-05-06T06:41:44Z</time>
      </trkpt>
      <trkpt lat="45.57571" lon="4.55597">
        <ele>704.5</ele>
        <time>2018-05-06T06:41:49Z</time>
      </trkpt>
      <trkpt lat="45.57582" lon="4.55606">
        <ele>704.5</ele>
        <time>2018-05-06T06:41:51Z</time>
      </trkpt>
      <trkpt lat="45.57592" lon="4.55615">
        <ele>704.4</ele>
        <time>2018-05-06T06:41:53Z</time>
      </trkpt>
      <trkpt lat="45.576" lon="4.55628">
        <ele>704.2</ele>
        <time>2018-05-06T06:41:55Z</time>
      </trkpt>
      <trkpt lat="45.57607" lon="4.55643">
        <ele>703.6</ele>
        <time>2018-05-06T06:41:57Z</time>
      </trkpt>
      <trkpt lat="45.57616" lon="4.55671">
        <ele>702.4</ele>
        <time>2018-05-06T06:42:00Z</time>
      </trkpt>
      <trkpt lat="45.57632" lon="4.55714">
        <ele>701.5</ele>
        <time>2018-05-06T06:42:04Z</time>
      </trkpt>
      <trkpt lat="45.57637" lon="4.55725">
        <ele>701.5</ele>
        <time>2018-05-06T06:42:05Z</time>
      </trkpt>
      <trkpt lat="45.57649" lon="4.5577">
        <ele>702.2</ele>
        <time>2018-05-06T06:42:09Z</time>
      </trkpt>
      <trkpt lat="45.57651" lon="4.5578">
        <ele>702.4</ele>
        <time>2018-05-06T06:42:10Z</time>
      </trkpt>
      <trkpt lat="45.57654" lon="4.55813">
        <ele>703.1</ele>
        <time>2018-05-06T06:42:14Z</time>
      </trkpt>
      <trkpt lat="45.57656" lon="4.55826">
        <ele>703.4</ele>
        <time>2018-05-06T06:42:16Z</time>
      </trkpt>
      <trkpt lat="45.57657" lon="4.55839">
        <ele>703.6</ele>
        <time>2018-05-06T06:42:18Z</time>
      </trkpt>
      <trkpt lat="45.57658" lon="4.55845">
        <ele>703.7</ele>
        <time>2018-05-06T06:42:19Z</time>
      </trkpt>
      <trkpt lat="45.57661" lon="4.55861">
        <ele>703.7</ele>
        <time>2018-05-06T06:42:22Z</time>
      </trkpt>
      <trkpt lat="45.57665" lon="4.55869">
        <ele>703.3</ele>
        <time>2018-05-06T06:42:24Z</time>
      </trkpt>
      <trkpt lat="45.57672" lon="4.55896">
        <ele>701.8</ele>
        <time>2018-05-06T06:42:30Z</time>
      </trkpt>
      <trkpt lat="45.57673" lon="4.5592">
        <ele>701</ele>
        <time>2018-05-06T06:42:35Z</time>
      </trkpt>
      <trkpt lat="45.57674" lon="4.5594">
        <ele>700.1</ele>
        <time>2018-05-06T06:42:39Z</time>
      </trkpt>
      <trkpt lat="45.57677" lon="4.55958">
        <ele>699.6</ele>
        <time>2018-05-06T06:42:42Z</time>
      </trkpt>
      <trkpt lat="45.57678" lon="4.55965">
        <ele>699.4</ele>
        <time>2018-05-06T06:42:43Z</time>
      </trkpt>
      <trkpt lat="45.57687" lon="4.56017">
        <ele>698.6</ele>
        <time>2018-05-06T06:42:50Z</time>
      </trkpt>
      <trkpt lat="45.57687" lon="4.56032">
        <ele>698.5</ele>
        <time>2018-05-06T06:42:52Z</time>
      </trkpt>
      <trkpt lat="45.57689" lon="4.56054">
        <ele>698.5</ele>
        <time>2018-05-06T06:42:55Z</time>
      </trkpt>
      <trkpt lat="45.57689" lon="4.56062">
        <ele>698.5</ele>
        <time>2018-05-06T06:42:56Z</time>
      </trkpt>
      <trkpt lat="45.57694" lon="4.5612">
        <ele>698.3</ele>
        <time>2018-05-06T06:43:04Z</time>
      </trkpt>
      <trkpt lat="45.57698" lon="4.5618">
        <ele>698.5</ele>
        <time>2018-05-06T06:43:12Z</time>
      </trkpt>
      <trkpt lat="45.577" lon="4.5622">
        <ele>698.4</ele>
        <time>2018-05-06T06:43:18Z</time>
      </trkpt>
      <trkpt lat="45.57705" lon="4.56265">
        <ele>697.7</ele>
        <time>2018-05-06T06:43:25Z</time>
      </trkpt>
      <trkpt lat="45.57708" lon="4.563">
        <ele>697.3</ele>
        <time>2018-05-06T06:43:30Z</time>
      </trkpt>
      <trkpt lat="45.5771" lon="4.56315">
        <ele>697.1</ele>
        <time>2018-05-06T06:43:32Z</time>
      </trkpt>
      <trkpt lat="45.57711" lon="4.56343">
        <ele>696.6</ele>
        <time>2018-05-06T06:43:36Z</time>
      </trkpt>
      <trkpt lat="45.5771" lon="4.56366">
        <ele>696.6</ele>
        <time>2018-05-06T06:43:39Z</time>
      </trkpt>
      <trkpt lat="45.57709" lon="4.56374">
        <ele>696.7</ele>
        <time>2018-05-06T06:43:40Z</time>
      </trkpt>
      <trkpt lat="45.57702" lon="4.56411">
        <ele>697.1</ele>
        <time>2018-05-06T06:43:45Z</time>
      </trkpt>
      <trkpt lat="45.57701" lon="4.56418">
        <ele>697.2</ele>
        <time>2018-05-06T06:43:46Z</time>
      </trkpt>
      <trkpt lat="45.57702" lon="4.56437">
        <ele>697.6</ele>
        <time>2018-05-06T06:43:49Z</time>
      </trkpt>
      <trkpt lat="45.57705" lon="4.56456">
        <ele>697.9</ele>
        <time>2018-05-06T06:43:52Z</time>
      </trkpt>
      <trkpt lat="45.57709" lon="4.56472">
        <ele>698.2</ele>
        <time>2018-05-06T06:43:55Z</time>
      </trkpt>
      <trkpt lat="45.57724" lon="4.56506">
        <ele>698.7</ele>
        <time>2018-05-06T06:44:02Z</time>
      </trkpt>
      <trkpt lat="45.5773" lon="4.56514">
        <ele>698.9</ele>
        <time>2018-05-06T06:44:04Z</time>
      </trkpt>
      <trkpt lat="45.57743" lon="4.56536">
        <ele>699.4</ele>
        <time>2018-05-06T06:44:09Z</time>
      </trkpt>
      <trkpt lat="45.57748" lon="4.56545">
        <ele>699.7</ele>
        <time>2018-05-06T06:44:11Z</time>
      </trkpt>
      <trkpt lat="45.57756" lon="4.56563">
        <ele>700.5</ele>
        <time>2018-05-06T06:44:15Z</time>
      </trkpt>
      <trkpt lat="45.5776" lon="4.56573">
        <ele>700.9</ele>
        <time>2018-05-06T06:44:17Z</time>
      </trkpt>
      <trkpt lat="45.57769" lon="4.56595">
        <ele>702.1</ele>
        <time>2018-05-06T06:44:22Z</time>
      </trkpt>
      <trkpt lat="45.57771" lon="4.566">
        <ele>702.4</ele>
        <time>2018-05-06T06:44:23Z</time>
      </trkpt>
      <trkpt lat="45.57777" lon="4.56615">
        <ele>703.5</ele>
        <time>2018-05-06T06:44:26Z</time>
      </trkpt>
      <trkpt lat="45.5778" lon="4.56625">
        <ele>704.7</ele>
        <time>2018-05-06T06:44:28Z</time>
      </trkpt>
      <trkpt lat="45.57781" lon="4.5663">
        <ele>705.2</ele>
        <time>2018-05-06T06:44:29Z</time>
      </trkpt>
      <trkpt lat="45.57786" lon="4.56644">
        <ele>706.9</ele>
        <time>2018-05-06T06:44:32Z</time>
      </trkpt>
      <trkpt lat="45.57793" lon="4.56656">
        <ele>708.4</ele>
        <time>2018-05-06T06:44:35Z</time>
      </trkpt>
      <trkpt lat="45.57795" lon="4.56659">
        <ele>708.9</ele>
        <time>2018-05-06T06:44:36Z</time>
      </trkpt>
      <trkpt lat="45.57806" lon="4.56673">
        <ele>711.2</ele>
        <time>2018-05-06T06:44:41Z</time>
      </trkpt>
      <trkpt lat="45.57809" lon="4.56675">
        <ele>711.7</ele>
        <time>2018-05-06T06:44:42Z</time>
      </trkpt>
      <trkpt lat="45.57816" lon="4.56677">
        <ele>713</ele>
        <time>2018-05-06T06:44:45Z</time>
      </trkpt>
      <trkpt lat="45.57821" lon="4.56679">
        <ele>713.9</ele>
        <time>2018-05-06T06:44:47Z</time>
      </trkpt>
      <trkpt lat="45.57823" lon="4.56679">
        <ele>714.4</ele>
        <time>2018-05-06T06:44:48Z</time>
      </trkpt>
      <trkpt lat="45.57831" lon="4.56679">
        <ele>715.8</ele>
        <time>2018-05-06T06:44:51Z</time>
      </trkpt>
      <trkpt lat="45.57837" lon="4.56679">
        <ele>716.8</ele>
        <time>2018-05-06T06:44:54Z</time>
      </trkpt>
      <trkpt lat="45.57845" lon="4.56681">
        <ele>719</ele>
        <time>2018-05-06T06:44:58Z</time>
      </trkpt>
      <trkpt lat="45.57854" lon="4.56681">
        <ele>720.1</ele>
        <time>2018-05-06T06:45:02Z</time>
      </trkpt>
      <trkpt lat="45.57855" lon="4.56681">
        <ele>720.3</ele>
        <time>2018-05-06T06:45:03Z</time>
      </trkpt>
      <trkpt lat="45.57867" lon="4.56682">
        <ele>721.9</ele>
        <time>2018-05-06T06:45:09Z</time>
      </trkpt>
      <trkpt lat="45.57873" lon="4.56682">
        <ele>722.5</ele>
        <time>2018-05-06T06:45:12Z</time>
      </trkpt>
      <trkpt lat="45.57876" lon="4.56682">
        <ele>723</ele>
        <time>2018-05-06T06:45:14Z</time>
      </trkpt>
      <trkpt lat="45.57884" lon="4.56682">
        <ele>724</ele>
        <time>2018-05-06T06:45:19Z</time>
      </trkpt>
      <trkpt lat="45.57886" lon="4.56682">
        <ele>724.3</ele>
        <time>2018-05-06T06:45:20Z</time>
      </trkpt>
      <trkpt lat="45.57889" lon="4.56682">
        <ele>724.6</ele>
        <time>2018-05-06T06:45:22Z</time>
      </trkpt>
      <trkpt lat="45.57893" lon="4.56682">
        <ele>725.5</ele>
        <time>2018-05-06T06:45:25Z</time>
      </trkpt>
      <trkpt lat="45.57905" lon="4.56683">
        <ele>728</ele>
        <time>2018-05-06T06:45:33Z</time>
      </trkpt>
      <trkpt lat="45.57914" lon="4.56684">
        <ele>730.4</ele>
        <time>2018-05-06T06:45:39Z</time>
      </trkpt>
      <trkpt lat="45.57916" lon="4.56685">
        <ele>730.8</ele>
        <time>2018-05-06T06:45:40Z</time>
      </trkpt>
      <trkpt lat="45.57922" lon="4.56686">
        <ele>732</ele>
        <time>2018-05-06T06:45:43Z</time>
      </trkpt>
      <trkpt lat="45.57925" lon="4.56687">
        <ele>732.8</ele>
        <time>2018-05-06T06:45:45Z</time>
      </trkpt>
      <trkpt lat="45.57929" lon="4.56687">
        <ele>733.5</ele>
        <time>2018-05-06T06:45:47Z</time>
      </trkpt>
      <trkpt lat="45.57935" lon="4.56688">
        <ele>734.7</ele>
        <time>2018-05-06T06:45:50Z</time>
      </trkpt>
      <trkpt lat="45.57938" lon="4.56689">
        <ele>735.4</ele>
        <time>2018-05-06T06:45:52Z</time>
      </trkpt>
      <trkpt lat="45.57942" lon="4.56691">
        <ele>736.1</ele>
        <time>2018-05-06T06:45:54Z</time>
      </trkpt>
      <trkpt lat="45.57947" lon="4.56693">
        <ele>737.2</ele>
        <time>2018-05-06T06:45:57Z</time>
      </trkpt>
      <trkpt lat="45.57953" lon="4.56694">
        <ele>737.7</ele>
        <time>2018-05-06T06:46:00Z</time>
      </trkpt>
      <trkpt lat="45.57954" lon="4.56694">
        <ele>737.7</ele>
        <time>2018-05-06T06:46:01Z</time>
      </trkpt>
      <trkpt lat="45.57955" lon="4.56695">
        <ele>737.6</ele>
        <time>2018-05-06T06:46:02Z</time>
      </trkpt>
      <trkpt lat="45.57957" lon="4.56695">
        <ele>737.5</ele>
        <time>2018-05-06T06:46:04Z</time>
      </trkpt>
      <trkpt lat="45.57959" lon="4.56695">
        <ele>737.4</ele>
        <time>2018-05-06T06:46:05Z</time>
      </trkpt>
      <trkpt lat="45.5796" lon="4.56696">
        <ele>737.4</ele>
        <time>2018-05-06T06:46:06Z</time>
      </trkpt>
      <trkpt lat="45.57963" lon="4.56697">
        <ele>737.2</ele>
        <time>2018-05-06T06:46:08Z</time>
      </trkpt>
      <trkpt lat="45.57966" lon="4.56699">
        <ele>737</ele>
        <time>2018-05-06T06:46:10Z</time>
      </trkpt>
      <trkpt lat="45.57968" lon="4.56701">
        <ele>736.9</ele>
        <time>2018-05-06T06:46:12Z</time>
      </trkpt>
      <trkpt lat="45.57971" lon="4.56701">
        <ele>736.7</ele>
        <time>2018-05-06T06:46:14Z</time>
      </trkpt>
      <trkpt lat="45.57972" lon="4.567">
        <ele>736.6</ele>
        <time>2018-05-06T06:46:15Z</time>
      </trkpt>
      <trkpt lat="45.57974" lon="4.567">
        <ele>736.6</ele>
        <time>2018-05-06T06:46:16Z</time>
      </trkpt>
      <trkpt lat="45.57977" lon="4.56699">
        <ele>736.4</ele>
        <time>2018-05-06T06:46:18Z</time>
      </trkpt>
      <trkpt lat="45.57982" lon="4.56698">
        <ele>736.1</ele>
        <time>2018-05-06T06:46:21Z</time>
      </trkpt>
      <trkpt lat="45.57984" lon="4.56696">
        <ele>736</ele>
        <time>2018-05-06T06:46:23Z</time>
      </trkpt>
      <trkpt lat="45.57986" lon="4.56696">
        <ele>735.9</ele>
        <time>2018-05-06T06:46:24Z</time>
      </trkpt>
      <trkpt lat="45.57991" lon="4.56695">
        <ele>735.7</ele>
        <time>2018-05-06T06:46:27Z</time>
      </trkpt>
      <trkpt lat="45.58146" lon="4.56682">
        <ele>769</ele>
        <time>2018-05-06T06:48:25Z</time>
      </trkpt>
      <trkpt lat="45.58185" lon="4.56718">
        <ele>774.4</ele>
        <time>2018-05-06T06:48:56Z</time>
      </trkpt>
      <trkpt lat="45.58187" lon="4.56722">
        <ele>774.8</ele>
        <time>2018-05-06T06:48:58Z</time>
      </trkpt>
      <trkpt lat="45.58203" lon="4.56737">
        <ele>777.2</ele>
        <time>2018-05-06T06:49:12Z</time>
      </trkpt>
      <trkpt lat="45.58204" lon="4.56738">
        <ele>777.4</ele>
        <time>2018-05-06T06:49:13Z</time>
      </trkpt>
      <trkpt lat="45.58303" lon="4.56804">
        <ele>794.6</ele>
        <time>2018-05-06T06:50:34Z</time>
      </trkpt>
      <trkpt lat="45.58343" lon="4.56822">
        <ele>801.2</ele>
        <time>2018-05-06T06:51:04Z</time>
      </trkpt>
      <trkpt lat="45.58357" lon="4.56832">
        <ele>802.7</ele>
        <time>2018-05-06T06:51:16Z</time>
      </trkpt>
      <trkpt lat="45.58359" lon="4.56835">
        <ele>802.8</ele>
        <time>2018-05-06T06:51:18Z</time>
      </trkpt>
      <trkpt lat="45.58365" lon="4.56846">
        <ele>802.6</ele>
        <time>2018-05-06T06:51:24Z</time>
      </trkpt>
      <trkpt lat="45.58371" lon="4.56851">
        <ele>802.4</ele>
        <time>2018-05-06T06:51:28Z</time>
      </trkpt>
      <trkpt lat="45.58375" lon="4.56853">
        <ele>802.4</ele>
        <time>2018-05-06T06:51:30Z</time>
      </trkpt>
      <trkpt lat="45.58383" lon="4.56855">
        <ele>802.2</ele>
        <time>2018-05-06T06:51:33Z</time>
      </trkpt>
      <trkpt lat="45.58391" lon="4.56858">
        <ele>802.2</ele>
        <time>2018-05-06T06:51:36Z</time>
      </trkpt>
      <trkpt lat="45.58394" lon="4.56858">
        <ele>802.1</ele>
        <time>2018-05-06T06:51:37Z</time>
      </trkpt>
      <trkpt lat="45.58398" lon="4.56862">
        <ele>802.1</ele>
        <time>2018-05-06T06:51:39Z</time>
      </trkpt>
      <trkpt lat="45.58405" lon="4.5687">
        <ele>802.1</ele>
        <time>2018-05-06T06:51:42Z</time>
      </trkpt>
      <trkpt lat="45.58407" lon="4.56872">
        <ele>802.1</ele>
        <time>2018-05-06T06:51:43Z</time>
      </trkpt>
      <trkpt lat="45.58413" lon="4.56879">
        <ele>802</ele>
        <time>2018-05-06T06:51:46Z</time>
      </trkpt>
      <trkpt lat="45.58421" lon="4.56886">
        <ele>802</ele>
        <time>2018-05-06T06:51:50Z</time>
      </trkpt>
      <trkpt lat="45.58427" lon="4.56892">
        <ele>802</ele>
        <time>2018-05-06T06:51:53Z</time>
      </trkpt>
      <trkpt lat="45.58435" lon="4.56901">
        <ele>802.1</ele>
        <time>2018-05-06T06:51:57Z</time>
      </trkpt>
      <trkpt lat="45.58443" lon="4.56913">
        <ele>802.2</ele>
        <time>2018-05-06T06:52:02Z</time>
      </trkpt>
      <trkpt lat="45.58446" lon="4.56918">
        <ele>802.3</ele>
        <time>2018-05-06T06:52:04Z</time>
      </trkpt>
      <trkpt lat="45.58452" lon="4.56924">
        <ele>802.5</ele>
        <time>2018-05-06T06:52:07Z</time>
      </trkpt>
      <trkpt lat="45.58456" lon="4.56927">
        <ele>802.7</ele>
        <time>2018-05-06T06:52:11Z</time>
      </trkpt>
      <trkpt lat="45.58464" lon="4.56928">
        <ele>802.9</ele>
        <time>2018-05-06T06:52:15Z</time>
      </trkpt>
      <trkpt lat="45.58475" lon="4.5693">
        <ele>803.2</ele>
        <time>2018-05-06T06:52:21Z</time>
      </trkpt>
      <trkpt lat="45.58489" lon="4.56939">
        <ele>803.6</ele>
        <time>2018-05-06T06:52:28Z</time>
      </trkpt>
      <trkpt lat="45.58502" lon="4.56953">
        <ele>804.1</ele>
        <time>2018-05-06T06:52:36Z</time>
      </trkpt>
      <trkpt lat="45.58516" lon="4.56963">
        <ele>804.8</ele>
        <time>2018-05-06T06:52:43Z</time>
      </trkpt>
      <trkpt lat="45.58527" lon="4.56973">
        <ele>805.4</ele>
        <time>2018-05-06T06:52:49Z</time>
      </trkpt>
      <trkpt lat="45.58529" lon="4.56974">
        <ele>805.4</ele>
        <time>2018-05-06T06:52:50Z</time>
      </trkpt>
      <trkpt lat="45.58543" lon="4.56985">
        <ele>806.1</ele>
        <time>2018-05-06T06:52:58Z</time>
      </trkpt>
      <trkpt lat="45.58553" lon="4.5699">
        <ele>806.6</ele>
        <time>2018-05-06T06:53:04Z</time>
      </trkpt>
      <trkpt lat="45.58554" lon="4.56991">
        <ele>806.7</ele>
        <time>2018-05-06T06:53:05Z</time>
      </trkpt>
      <trkpt lat="45.58561" lon="4.56996">
        <ele>807.7</ele>
        <time>2018-05-06T06:53:09Z</time>
      </trkpt>
      <trkpt lat="45.58564" lon="4.57">
        <ele>808.6</ele>
        <time>2018-05-06T06:53:11Z</time>
      </trkpt>
      <trkpt lat="45.58567" lon="4.57005">
        <ele>809.6</ele>
        <time>2018-05-06T06:53:13Z</time>
      </trkpt>
      <trkpt lat="45.58575" lon="4.57018">
        <ele>812.2</ele>
        <time>2018-05-06T06:53:18Z</time>
      </trkpt>
      <trkpt lat="45.58576" lon="4.5702">
        <ele>812.7</ele>
        <time>2018-05-06T06:53:19Z</time>
      </trkpt>
      <trkpt lat="45.58585" lon="4.57037">
        <ele>816.4</ele>
        <time>2018-05-06T06:53:25Z</time>
      </trkpt>
      <trkpt lat="45.58586" lon="4.57039">
        <ele>817</ele>
        <time>2018-05-06T06:53:26Z</time>
      </trkpt>
      <trkpt lat="45.58594" lon="4.57059">
        <ele>819.9</ele>
        <time>2018-05-06T06:53:33Z</time>
      </trkpt>
      <trkpt lat="45.58597" lon="4.57068">
        <ele>819.8</ele>
        <time>2018-05-06T06:53:37Z</time>
      </trkpt>
      <trkpt lat="45.58602" lon="4.5708">
        <ele>819.7</ele>
        <time>2018-05-06T06:53:41Z</time>
      </trkpt>
      <trkpt lat="45.58614" lon="4.57104">
        <ele>819.3</ele>
        <time>2018-05-06T06:53:46Z</time>
      </trkpt>
      <trkpt lat="45.58634" lon="4.5714">
        <ele>818.9</ele>
        <time>2018-05-06T06:53:52Z</time>
      </trkpt>
      <trkpt lat="45.58655" lon="4.57171">
        <ele>818.7</ele>
        <time>2018-05-06T06:53:58Z</time>
      </trkpt>
      <trkpt lat="45.58658" lon="4.57176">
        <ele>818.7</ele>
        <time>2018-05-06T06:53:59Z</time>
      </trkpt>
      <trkpt lat="45.58679" lon="4.57205">
        <ele>818.6</ele>
        <time>2018-05-06T06:54:06Z</time>
      </trkpt>
      <trkpt lat="45.58704" lon="4.57233">
        <ele>818.3</ele>
        <time>2018-05-06T06:54:15Z</time>
      </trkpt>
      <trkpt lat="45.58713" lon="4.5724">
        <ele>818.1</ele>
        <time>2018-05-06T06:54:18Z</time>
      </trkpt>
      <trkpt lat="45.5873" lon="4.57251">
        <ele>817.5</ele>
        <time>2018-05-06T06:54:23Z</time>
      </trkpt>
      <trkpt lat="45.58749" lon="4.57259">
        <ele>816.5</ele>
        <time>2018-05-06T06:54:28Z</time>
      </trkpt>
      <trkpt lat="45.58765" lon="4.57264">
        <ele>815.6</ele>
        <time>2018-05-06T06:54:31Z</time>
      </trkpt>
      <trkpt lat="45.58769" lon="4.57267">
        <ele>815.2</ele>
        <time>2018-05-06T06:54:32Z</time>
      </trkpt>
      <trkpt lat="45.58774" lon="4.5727">
        <ele>814.9</ele>
        <time>2018-05-06T06:54:33Z</time>
      </trkpt>
      <trkpt lat="45.58789" lon="4.57278">
        <ele>813.7</ele>
        <time>2018-05-06T06:54:36Z</time>
      </trkpt>
      <trkpt lat="45.58794" lon="4.57278">
        <ele>813.2</ele>
        <time>2018-05-06T06:54:37Z</time>
      </trkpt>
      <trkpt lat="45.588" lon="4.57278">
        <ele>812.6</ele>
        <time>2018-05-06T06:54:38Z</time>
      </trkpt>
      <trkpt lat="45.58814" lon="4.57273">
        <ele>811.2</ele>
        <time>2018-05-06T06:54:40Z</time>
      </trkpt>
      <trkpt lat="45.58827" lon="4.57267">
        <ele>809.7</ele>
        <time>2018-05-06T06:54:42Z</time>
      </trkpt>
      <trkpt lat="45.58833" lon="4.57266">
        <ele>809.2</ele>
        <time>2018-05-06T06:54:43Z</time>
      </trkpt>
      <trkpt lat="45.58839" lon="4.57267">
        <ele>808.8</ele>
        <time>2018-05-06T06:54:44Z</time>
      </trkpt>
      <trkpt lat="45.58844" lon="4.57269">
        <ele>808.3</ele>
        <time>2018-05-06T06:54:45Z</time>
      </trkpt>
      <trkpt lat="45.58849" lon="4.57271">
        <ele>807.8</ele>
        <time>2018-05-06T06:54:46Z</time>
      </trkpt>
      <trkpt lat="45.58855" lon="4.57273">
        <ele>807</ele>
        <time>2018-05-06T06:54:47Z</time>
      </trkpt>
      <trkpt lat="45.58861" lon="4.57275">
        <ele>806.7</ele>
        <time>2018-05-06T06:54:48Z</time>
      </trkpt>
      <trkpt lat="45.58867" lon="4.57276">
        <ele>806.4</ele>
        <time>2018-05-06T06:54:49Z</time>
      </trkpt>
      <trkpt lat="45.58871" lon="4.57276">
        <ele>806.2</ele>
        <time>2018-05-06T06:54:50Z</time>
      </trkpt>
      <trkpt lat="45.58879" lon="4.57277">
        <ele>804.8</ele>
        <time>2018-05-06T06:54:52Z</time>
      </trkpt>
      <trkpt lat="45.58888" lon="4.57275">
        <ele>802.4</ele>
        <time>2018-05-06T06:54:54Z</time>
      </trkpt>
      <trkpt lat="45.58897" lon="4.57273">
        <ele>799.5</ele>
        <time>2018-05-06T06:54:56Z</time>
      </trkpt>
      <trkpt lat="45.58908" lon="4.57272">
        <ele>796.4</ele>
        <time>2018-05-06T06:54:58Z</time>
      </trkpt>
      <trkpt lat="45.58921" lon="4.57274">
        <ele>793.4</ele>
        <time>2018-05-06T06:55:00Z</time>
      </trkpt>
      <trkpt lat="45.58928" lon="4.57275">
        <ele>792.4</ele>
        <time>2018-05-06T06:55:01Z</time>
      </trkpt>
      <trkpt lat="45.58934" lon="4.57276">
        <ele>791.5</ele>
        <time>2018-05-06T06:55:02Z</time>
      </trkpt>
      <trkpt lat="45.58947" lon="4.57279">
        <ele>789.1</ele>
        <time>2018-05-06T06:55:04Z</time>
      </trkpt>
      <trkpt lat="45.58952" lon="4.5728">
        <ele>788.3</ele>
        <time>2018-05-06T06:55:05Z</time>
      </trkpt>
      <trkpt lat="45.58957" lon="4.57278">
        <ele>787.5</ele>
        <time>2018-05-06T06:55:06Z</time>
      </trkpt>
      <trkpt lat="45.58967" lon="4.5727">
        <ele>785.7</ele>
        <time>2018-05-06T06:55:08Z</time>
      </trkpt>
      <trkpt lat="45.58978" lon="4.57262">
        <ele>783.7</ele>
        <time>2018-05-06T06:55:10Z</time>
      </trkpt>
      <trkpt lat="45.5899" lon="4.57255">
        <ele>781.8</ele>
        <time>2018-05-06T06:55:12Z</time>
      </trkpt>
      <trkpt lat="45.59001" lon="4.5725">
        <ele>779.8</ele>
        <time>2018-05-06T06:55:14Z</time>
      </trkpt>
      <trkpt lat="45.59007" lon="4.57247">
        <ele>779</ele>
        <time>2018-05-06T06:55:15Z</time>
      </trkpt>
      <trkpt lat="45.59012" lon="4.57244">
        <ele>778.1</ele>
        <time>2018-05-06T06:55:16Z</time>
      </trkpt>
      <trkpt lat="45.59018" lon="4.57241">
        <ele>777</ele>
        <time>2018-05-06T06:55:17Z</time>
      </trkpt>
      <trkpt lat="45.59024" lon="4.57237">
        <ele>775.9</ele>
        <time>2018-05-06T06:55:18Z</time>
      </trkpt>
      <trkpt lat="45.59035" lon="4.57231">
        <ele>774</ele>
        <time>2018-05-06T06:55:20Z</time>
      </trkpt>
      <trkpt lat="45.59044" lon="4.57224">
        <ele>772</ele>
        <time>2018-05-06T06:55:22Z</time>
      </trkpt>
      <trkpt lat="45.59053" lon="4.57219">
        <ele>770.4</ele>
        <time>2018-05-06T06:55:24Z</time>
      </trkpt>
      <trkpt lat="45.59057" lon="4.57217">
        <ele>769.7</ele>
        <time>2018-05-06T06:55:25Z</time>
      </trkpt>
      <trkpt lat="45.59062" lon="4.57215">
        <ele>768.5</ele>
        <time>2018-05-06T06:55:26Z</time>
      </trkpt>
      <trkpt lat="45.59071" lon="4.57209">
        <ele>767</ele>
        <time>2018-05-06T06:55:28Z</time>
      </trkpt>
      <trkpt lat="45.5908" lon="4.57203">
        <ele>765.5</ele>
        <time>2018-05-06T06:55:30Z</time>
      </trkpt>
      <trkpt lat="45.59084" lon="4.57199">
        <ele>764.6</ele>
        <time>2018-05-06T06:55:31Z</time>
      </trkpt>
      <trkpt lat="45.59088" lon="4.57194">
        <ele>763.6</ele>
        <time>2018-05-06T06:55:32Z</time>
      </trkpt>
      <trkpt lat="45.59099" lon="4.57185">
        <ele>761.5</ele>
        <time>2018-05-06T06:55:34Z</time>
      </trkpt>
      <trkpt lat="45.5911" lon="4.57177">
        <ele>760</ele>
        <time>2018-05-06T06:55:36Z</time>
      </trkpt>
      <trkpt lat="45.59121" lon="4.5717">
        <ele>758.2</ele>
        <time>2018-05-06T06:55:38Z</time>
      </trkpt>
      <trkpt lat="45.59132" lon="4.57166">
        <ele>757.1</ele>
        <time>2018-05-06T06:55:40Z</time>
      </trkpt>
      <trkpt lat="45.59142" lon="4.57167">
        <ele>756</ele>
        <time>2018-05-06T06:55:42Z</time>
      </trkpt>
      <trkpt lat="45.59155" lon="4.57181">
        <ele>754.4</ele>
        <time>2018-05-06T06:55:45Z</time>
      </trkpt>
      <trkpt lat="45.5916" lon="4.57187">
        <ele>753.8</ele>
        <time>2018-05-06T06:55:46Z</time>
      </trkpt>
      <trkpt lat="45.59172" lon="4.57204">
        <ele>752.6</ele>
        <time>2018-05-06T06:55:49Z</time>
      </trkpt>
      <trkpt lat="45.59175" lon="4.57207">
        <ele>752.4</ele>
        <time>2018-05-06T06:55:50Z</time>
      </trkpt>
      <trkpt lat="45.59178" lon="4.57209">
        <ele>752.1</ele>
        <time>2018-05-06T06:55:51Z</time>
      </trkpt>
      <trkpt lat="45.59186" lon="4.57208">
        <ele>751.3</ele>
        <time>2018-05-06T06:55:53Z</time>
      </trkpt>
      <trkpt lat="45.59196" lon="4.57203">
        <ele>749.9</ele>
        <time>2018-05-06T06:55:55Z</time>
      </trkpt>
      <trkpt lat="45.59208" lon="4.57197">
        <ele>748.1</ele>
        <time>2018-05-06T06:55:57Z</time>
      </trkpt>
      <trkpt lat="45.5922" lon="4.5719">
        <ele>746.2</ele>
        <time>2018-05-06T06:55:59Z</time>
      </trkpt>
      <trkpt lat="45.59235" lon="4.57184">
        <ele>744.3</ele>
        <time>2018-05-06T06:56:01Z</time>
      </trkpt>
      <trkpt lat="45.5925" lon="4.57176">
        <ele>742.3</ele>
        <time>2018-05-06T06:56:03Z</time>
      </trkpt>
      <trkpt lat="45.59265" lon="4.57168">
        <ele>740.5</ele>
        <time>2018-05-06T06:56:05Z</time>
      </trkpt>
      <trkpt lat="45.59277" lon="4.57163">
        <ele>739.4</ele>
        <time>2018-05-06T06:56:07Z</time>
      </trkpt>
      <trkpt lat="45.59283" lon="4.57163">
        <ele>738.8</ele>
        <time>2018-05-06T06:56:08Z</time>
      </trkpt>
      <trkpt lat="45.59289" lon="4.57162">
        <ele>738.2</ele>
        <time>2018-05-06T06:56:09Z</time>
      </trkpt>
      <trkpt lat="45.59299" lon="4.57157">
        <ele>737.2</ele>
        <time>2018-05-06T06:56:11Z</time>
      </trkpt>
      <trkpt lat="45.59302" lon="4.57152">
        <ele>736.6</ele>
        <time>2018-05-06T06:56:12Z</time>
      </trkpt>
      <trkpt lat="45.59304" lon="4.57145">
        <ele>736</ele>
        <time>2018-05-06T06:56:13Z</time>
      </trkpt>
      <trkpt lat="45.59308" lon="4.57134">
        <ele>735</ele>
        <time>2018-05-06T06:56:15Z</time>
      </trkpt>
      <trkpt lat="45.59312" lon="4.57126">
        <ele>734.6</ele>
        <time>2018-05-06T06:56:17Z</time>
      </trkpt>
      <trkpt lat="45.59315" lon="4.57116">
        <ele>734</ele>
        <time>2018-05-06T06:56:19Z</time>
      </trkpt>
      <trkpt lat="45.59318" lon="4.57102">
        <ele>733.2</ele>
        <time>2018-05-06T06:56:22Z</time>
      </trkpt>
      <trkpt lat="45.5932" lon="4.57097">
        <ele>732.9</ele>
        <time>2018-05-06T06:56:23Z</time>
      </trkpt>
      <trkpt lat="45.59324" lon="4.57088">
        <ele>732.3</ele>
        <time>2018-05-06T06:56:25Z</time>
      </trkpt>
      <trkpt lat="45.59328" lon="4.57079">
        <ele>731.7</ele>
        <time>2018-05-06T06:56:27Z</time>
      </trkpt>
      <trkpt lat="45.5933" lon="4.57075">
        <ele>731.5</ele>
        <time>2018-05-06T06:56:28Z</time>
      </trkpt>
      <trkpt lat="45.59331" lon="4.5707">
        <ele>731.2</ele>
        <time>2018-05-06T06:56:29Z</time>
      </trkpt>
      <trkpt lat="45.59338" lon="4.57056">
        <ele>730.4</ele>
        <time>2018-05-06T06:56:32Z</time>
      </trkpt>
      <trkpt lat="45.59341" lon="4.57051">
        <ele>730.1</ele>
        <time>2018-05-06T06:56:33Z</time>
      </trkpt>
      <trkpt lat="45.59343" lon="4.57046">
        <ele>729.8</ele>
        <time>2018-05-06T06:56:34Z</time>
      </trkpt>
      <trkpt lat="45.59348" lon="4.57033">
        <ele>729.1</ele>
        <time>2018-05-06T06:56:36Z</time>
      </trkpt>
      <trkpt lat="45.59353" lon="4.57019">
        <ele>728.5</ele>
        <time>2018-05-06T06:56:38Z</time>
      </trkpt>
      <trkpt lat="45.59358" lon="4.57008">
        <ele>728</ele>
        <time>2018-05-06T06:56:40Z</time>
      </trkpt>
      <trkpt lat="45.59361" lon="4.57005">
        <ele>728</ele>
        <time>2018-05-06T06:56:42Z</time>
      </trkpt>
      <trkpt lat="45.59362" lon="4.57005">
        <ele>727.9</ele>
        <time>2018-05-06T06:56:43Z</time>
      </trkpt>
      <trkpt lat="45.59363" lon="4.57008">
        <ele>727.9</ele>
        <time>2018-05-06T06:56:46Z</time>
      </trkpt>
      <trkpt lat="45.59365" lon="4.57012">
        <ele>727.9</ele>
        <time>2018-05-06T06:56:48Z</time>
      </trkpt>
      <trkpt lat="45.5937" lon="4.57019">
        <ele>727.8</ele>
        <time>2018-05-06T06:56:50Z</time>
      </trkpt>
      <trkpt lat="45.59375" lon="4.57023">
        <ele>727.7</ele>
        <time>2018-05-06T06:56:51Z</time>
      </trkpt>
      <trkpt lat="45.5938" lon="4.57027">
        <ele>727.5</ele>
        <time>2018-05-06T06:56:52Z</time>
      </trkpt>
      <trkpt lat="45.59384" lon="4.57032">
        <ele>727.3</ele>
        <time>2018-05-06T06:56:53Z</time>
      </trkpt>
      <trkpt lat="45.59389" lon="4.57038">
        <ele>727.1</ele>
        <time>2018-05-06T06:56:54Z</time>
      </trkpt>
      <trkpt lat="45.59393" lon="4.57043">
        <ele>726.8</ele>
        <time>2018-05-06T06:56:55Z</time>
      </trkpt>
      <trkpt lat="45.59398" lon="4.57049">
        <ele>726.3</ele>
        <time>2018-05-06T06:56:56Z</time>
      </trkpt>
      <trkpt lat="45.59408" lon="4.57063">
        <ele>725.3</ele>
        <time>2018-05-06T06:56:59Z</time>
      </trkpt>
      <trkpt lat="45.59411" lon="4.57069">
        <ele>724.9</ele>
        <time>2018-05-06T06:57:00Z</time>
      </trkpt>
      <trkpt lat="45.59416" lon="4.57084">
        <ele>724</ele>
        <time>2018-05-06T06:57:02Z</time>
      </trkpt>
      <trkpt lat="45.59416" lon="4.57092">
        <ele>723.5</ele>
        <time>2018-05-06T06:57:03Z</time>
      </trkpt>
      <trkpt lat="45.59418" lon="4.57108">
        <ele>722.6</ele>
        <time>2018-05-06T06:57:05Z</time>
      </trkpt>
      <trkpt lat="45.59425" lon="4.57115">
        <ele>721.8</ele>
        <time>2018-05-06T06:57:07Z</time>
      </trkpt>
      <trkpt lat="45.5943" lon="4.57115">
        <ele>721.4</ele>
        <time>2018-05-06T06:57:08Z</time>
      </trkpt>
      <trkpt lat="45.59443" lon="4.57111">
        <ele>720.6</ele>
        <time>2018-05-06T06:57:10Z</time>
      </trkpt>
      <trkpt lat="45.5945" lon="4.57108">
        <ele>720.3</ele>
        <time>2018-05-06T06:57:11Z</time>
      </trkpt>
      <trkpt lat="45.59457" lon="4.57104">
        <ele>720.2</ele>
        <time>2018-05-06T06:57:12Z</time>
      </trkpt>
      <trkpt lat="45.59469" lon="4.57092">
        <ele>719.9</ele>
        <time>2018-05-06T06:57:14Z</time>
      </trkpt>
      <trkpt lat="45.59482" lon="4.57084">
        <ele>720</ele>
        <time>2018-05-06T06:57:16Z</time>
      </trkpt>
      <trkpt lat="45.59496" lon="4.57084">
        <ele>718.6</ele>
        <time>2018-05-06T06:57:18Z</time>
      </trkpt>
      <trkpt lat="45.59512" lon="4.57089">
        <ele>715.8</ele>
        <time>2018-05-06T06:57:20Z</time>
      </trkpt>
      <trkpt lat="45.59521" lon="4.57092">
        <ele>713.8</ele>
        <time>2018-05-06T06:57:21Z</time>
      </trkpt>
      <trkpt lat="45.59529" lon="4.57095">
        <ele>712</ele>
        <time>2018-05-06T06:57:22Z</time>
      </trkpt>
      <trkpt lat="45.59539" lon="4.57097">
        <ele>710.3</ele>
        <time>2018-05-06T06:57:23Z</time>
      </trkpt>
      <trkpt lat="45.59559" lon="4.57101">
        <ele>706.3</ele>
        <time>2018-05-06T06:57:25Z</time>
      </trkpt>
      <trkpt lat="45.59569" lon="4.57102">
        <ele>705</ele>
        <time>2018-05-06T06:57:26Z</time>
      </trkpt>
      <trkpt lat="45.59579" lon="4.57104">
        <ele>703.7</ele>
        <time>2018-05-06T06:57:27Z</time>
      </trkpt>
      <trkpt lat="45.596" lon="4.57105">
        <ele>701.9</ele>
        <time>2018-05-06T06:57:29Z</time>
      </trkpt>
      <trkpt lat="45.5962" lon="4.57106">
        <ele>700.1</ele>
        <time>2018-05-06T06:57:31Z</time>
      </trkpt>
      <trkpt lat="45.59639" lon="4.57105">
        <ele>698.6</ele>
        <time>2018-05-06T06:57:33Z</time>
      </trkpt>
      <trkpt lat="45.59657" lon="4.57104">
        <ele>697.2</ele>
        <time>2018-05-06T06:57:35Z</time>
      </trkpt>
      <trkpt lat="45.59682" lon="4.57103">
        <ele>694.7</ele>
        <time>2018-05-06T06:57:38Z</time>
      </trkpt>
      <trkpt lat="45.59706" lon="4.57107">
        <ele>694</ele>
        <time>2018-05-06T06:57:41Z</time>
      </trkpt>
      <trkpt lat="45.59721" lon="4.57111">
        <ele>693.3</ele>
        <time>2018-05-06T06:57:43Z</time>
      </trkpt>
      <trkpt lat="45.59729" lon="4.57113">
        <ele>693.1</ele>
        <time>2018-05-06T06:57:44Z</time>
      </trkpt>
      <trkpt lat="45.59752" lon="4.57117">
        <ele>692.7</ele>
        <time>2018-05-06T06:57:47Z</time>
      </trkpt>
      <trkpt lat="45.59774" lon="4.5712">
        <ele>692.3</ele>
        <time>2018-05-06T06:57:50Z</time>
      </trkpt>
      <trkpt lat="45.59784" lon="4.57123">
        <ele>692.1</ele>
        <time>2018-05-06T06:57:52Z</time>
      </trkpt>
      <trkpt lat="45.59787" lon="4.57124">
        <ele>692.1</ele>
        <time>2018-05-06T06:57:53Z</time>
      </trkpt>
      <trkpt lat="45.598" lon="4.57121">
        <ele>692</ele>
        <time>2018-05-06T06:57:57Z</time>
      </trkpt>
      <trkpt lat="45.59822" lon="4.57105">
        <ele>692.4</ele>
        <time>2018-05-06T06:58:03Z</time>
      </trkpt>
      <trkpt lat="45.5984" lon="4.57092">
        <ele>693.1</ele>
        <time>2018-05-06T06:58:08Z</time>
      </trkpt>
      <trkpt lat="45.59848" lon="4.57088">
        <ele>693.3</ele>
        <time>2018-05-06T06:58:10Z</time>
      </trkpt>
      <trkpt lat="45.59851" lon="4.57086">
        <ele>693.4</ele>
        <time>2018-05-06T06:58:11Z</time>
      </trkpt>
      <trkpt lat="45.5987" lon="4.5708">
        <ele>693.9</ele>
        <time>2018-05-06T06:58:16Z</time>
      </trkpt>
      <trkpt lat="45.59872" lon="4.5708">
        <ele>694</ele>
        <time>2018-05-06T06:58:17Z</time>
      </trkpt>
      <trkpt lat="45.59885" lon="4.57076">
        <ele>694.8</ele>
        <time>2018-05-06T06:58:21Z</time>
      </trkpt>
      <trkpt lat="45.59896" lon="4.57072">
        <ele>695.5</ele>
        <time>2018-05-06T06:58:24Z</time>
      </trkpt>
      <trkpt lat="45.59914" lon="4.5706">
        <ele>697</ele>
        <time>2018-05-06T06:58:30Z</time>
      </trkpt>
      <trkpt lat="45.59926" lon="4.57044">
        <ele>698.2</ele>
        <time>2018-05-06T06:58:35Z</time>
      </trkpt>
      <trkpt lat="45.59928" lon="4.57041">
        <ele>698.5</ele>
        <time>2018-05-06T06:58:36Z</time>
      </trkpt>
      <trkpt lat="45.5994" lon="4.57029">
        <ele>699.8</ele>
        <time>2018-05-06T06:58:42Z</time>
      </trkpt>
      <trkpt lat="45.59942" lon="4.5703">
        <ele>700</ele>
        <time>2018-05-06T06:58:43Z</time>
      </trkpt>
      <trkpt lat="45.5995" lon="4.5704">
        <ele>700</ele>
        <time>2018-05-06T06:58:46Z</time>
      </trkpt>
      <trkpt lat="45.59966" lon="4.57056">
        <ele>700</ele>
        <time>2018-05-06T06:58:52Z</time>
      </trkpt>
      <trkpt lat="45.59972" lon="4.5706">
        <ele>700</ele>
        <time>2018-05-06T06:58:54Z</time>
      </trkpt>
      <trkpt lat="45.59975" lon="4.57061">
        <ele>700</ele>
        <time>2018-05-06T06:58:55Z</time>
      </trkpt>
      <trkpt lat="45.59981" lon="4.57063">
        <ele>700.2</ele>
        <time>2018-05-06T06:58:57Z</time>
      </trkpt>
      <trkpt lat="45.59986" lon="4.57064">
        <ele>700.7</ele>
        <time>2018-05-06T06:58:59Z</time>
      </trkpt>
      <trkpt lat="45.59989" lon="4.57065">
        <ele>700.9</ele>
        <time>2018-05-06T06:59:00Z</time>
      </trkpt>
      <trkpt lat="45.59994" lon="4.5707">
        <ele>701.4</ele>
        <time>2018-05-06T06:59:03Z</time>
      </trkpt>
      <trkpt lat="45.59995" lon="4.57072">
        <ele>701.6</ele>
        <time>2018-05-06T06:59:04Z</time>
      </trkpt>
      <trkpt lat="45.59999" lon="4.57086">
        <ele>702.9</ele>
        <time>2018-05-06T06:59:10Z</time>
      </trkpt>
      <trkpt lat="45.60003" lon="4.57095">
        <ele>703.5</ele>
        <time>2018-05-06T06:59:14Z</time>
      </trkpt>
      <trkpt lat="45.60008" lon="4.57105">
        <ele>704.1</ele>
        <time>2018-05-06T06:59:18Z</time>
      </trkpt>
      <trkpt lat="45.60014" lon="4.57115">
        <ele>704.9</ele>
        <time>2018-05-06T06:59:23Z</time>
      </trkpt>
      <trkpt lat="45.60016" lon="4.57123">
        <ele>705</ele>
        <time>2018-05-06T06:59:26Z</time>
      </trkpt>
      <trkpt lat="45.60024" lon="4.57141">
        <ele>705</ele>
        <time>2018-05-06T06:59:33Z</time>
      </trkpt>
      <trkpt lat="45.60025" lon="4.57143">
        <ele>705</ele>
        <time>2018-05-06T06:59:34Z</time>
      </trkpt>
      <trkpt lat="45.60032" lon="4.57157">
        <ele>705.5</ele>
        <time>2018-05-06T06:59:40Z</time>
      </trkpt>
      <trkpt lat="45.60039" lon="4.57173">
        <ele>706.8</ele>
        <time>2018-05-06T06:59:46Z</time>
      </trkpt>
      <trkpt lat="45.60044" lon="4.57183">
        <ele>707.6</ele>
        <time>2018-05-06T06:59:50Z</time>
      </trkpt>
      <trkpt lat="45.60048" lon="4.57195">
        <ele>708.5</ele>
        <time>2018-05-06T06:59:55Z</time>
      </trkpt>
      <trkpt lat="45.60049" lon="4.57198">
        <ele>708.7</ele>
        <time>2018-05-06T06:59:56Z</time>
      </trkpt>
      <trkpt lat="45.60053" lon="4.5721">
        <ele>709.5</ele>
        <time>2018-05-06T07:00:01Z</time>
      </trkpt>
      <trkpt lat="45.60054" lon="4.57213">
        <ele>709.6</ele>
        <time>2018-05-06T07:00:02Z</time>
      </trkpt>
      <trkpt lat="45.60056" lon="4.5722">
        <ele>710.1</ele>
        <time>2018-05-06T07:00:05Z</time>
      </trkpt>
      <trkpt lat="45.60058" lon="4.57229">
        <ele>710.7</ele>
        <time>2018-05-06T07:00:09Z</time>
      </trkpt>
      <trkpt lat="45.60059" lon="4.57231">
        <ele>710.8</ele>
        <time>2018-05-06T07:00:10Z</time>
      </trkpt>
      <trkpt lat="45.60061" lon="4.57242">
        <ele>711.4</ele>
        <time>2018-05-06T07:00:15Z</time>
      </trkpt>
      <trkpt lat="45.60062" lon="4.57248">
        <ele>711.7</ele>
        <time>2018-05-06T07:00:17Z</time>
      </trkpt>
      <trkpt lat="45.60062" lon="4.57263">
        <ele>712.4</ele>
        <time>2018-05-06T07:00:22Z</time>
      </trkpt>
      <trkpt lat="45.60063" lon="4.57274">
        <ele>712.9</ele>
        <time>2018-05-06T07:00:26Z</time>
      </trkpt>
      <trkpt lat="45.60063" lon="4.57277">
        <ele>713.3</ele>
        <time>2018-05-06T07:00:27Z</time>
      </trkpt>
      <trkpt lat="45.60067" lon="4.57295">
        <ele>714.5</ele>
        <time>2018-05-06T07:00:34Z</time>
      </trkpt>
      <trkpt lat="45.60068" lon="4.57297">
        <ele>714.7</ele>
        <time>2018-05-06T07:00:35Z</time>
      </trkpt>
      <trkpt lat="45.60072" lon="4.5731">
        <ele>715.8</ele>
        <time>2018-05-06T07:00:40Z</time>
      </trkpt>
      <trkpt lat="45.60072" lon="4.57312">
        <ele>716</ele>
        <time>2018-05-06T07:00:41Z</time>
      </trkpt>
      <trkpt lat="45.60074" lon="4.57318">
        <ele>716.5</ele>
        <time>2018-05-06T07:00:44Z</time>
      </trkpt>
      <trkpt lat="45.60077" lon="4.57325">
        <ele>717.1</ele>
        <time>2018-05-06T07:00:47Z</time>
      </trkpt>
      <trkpt lat="45.60078" lon="4.57328">
        <ele>717.3</ele>
        <time>2018-05-06T07:00:48Z</time>
      </trkpt>
      <trkpt lat="45.60081" lon="4.57334">
        <ele>717.8</ele>
        <time>2018-05-06T07:00:51Z</time>
      </trkpt>
      <trkpt lat="45.60084" lon="4.5734">
        <ele>718.2</ele>
        <time>2018-05-06T07:00:54Z</time>
      </trkpt>
      <trkpt lat="45.60086" lon="4.57349">
        <ele>718.8</ele>
        <time>2018-05-06T07:00:59Z</time>
      </trkpt>
      <trkpt lat="45.60086" lon="4.57353">
        <ele>719</ele>
        <time>2018-05-06T07:01:01Z</time>
      </trkpt>
      <trkpt lat="45.60087" lon="4.57357">
        <ele>719.4</ele>
        <time>2018-05-06T07:01:03Z</time>
      </trkpt>
      <trkpt lat="45.6009" lon="4.57363">
        <ele>719.9</ele>
        <time>2018-05-06T07:01:06Z</time>
      </trkpt>
      <trkpt lat="45.60093" lon="4.57369">
        <ele>720.4</ele>
        <time>2018-05-06T07:01:09Z</time>
      </trkpt>
      <trkpt lat="45.60096" lon="4.57376">
        <ele>721.1</ele>
        <time>2018-05-06T07:01:12Z</time>
      </trkpt>
      <trkpt lat="45.60098" lon="4.57383">
        <ele>721.9</ele>
        <time>2018-05-06T07:01:15Z</time>
      </trkpt>
      <trkpt lat="45.60099" lon="4.57387">
        <ele>722.4</ele>
        <time>2018-05-06T07:01:17Z</time>
      </trkpt>
      <trkpt lat="45.601" lon="4.57388">
        <ele>722.9</ele>
        <time>2018-05-06T07:01:18Z</time>
      </trkpt>
      <trkpt lat="45.60103" lon="4.57393">
        <ele>723.7</ele>
        <time>2018-05-06T07:01:21Z</time>
      </trkpt>
      <trkpt lat="45.60106" lon="4.57399">
        <ele>724.5</ele>
        <time>2018-05-06T07:01:24Z</time>
      </trkpt>
      <trkpt lat="45.60108" lon="4.57405">
        <ele>725.2</ele>
        <time>2018-05-06T07:01:27Z</time>
      </trkpt>
      <trkpt lat="45.6011" lon="4.57411">
        <ele>725.8</ele>
        <time>2018-05-06T07:01:30Z</time>
      </trkpt>
      <trkpt lat="45.60112" lon="4.57414">
        <ele>726.2</ele>
        <time>2018-05-06T07:01:32Z</time>
      </trkpt>
      <trkpt lat="45.60113" lon="4.57416">
        <ele>726.4</ele>
        <time>2018-05-06T07:01:33Z</time>
      </trkpt>
      <trkpt lat="45.60116" lon="4.57423">
        <ele>727.1</ele>
        <time>2018-05-06T07:01:37Z</time>
      </trkpt>
      <trkpt lat="45.60117" lon="4.57427">
        <ele>727.5</ele>
        <time>2018-05-06T07:01:39Z</time>
      </trkpt>
      <trkpt lat="45.60119" lon="4.57431">
        <ele>727.8</ele>
        <time>2018-05-06T07:01:41Z</time>
      </trkpt>
      <trkpt lat="45.60121" lon="4.57438">
        <ele>728.1</ele>
        <time>2018-05-06T07:01:44Z</time>
      </trkpt>
      <trkpt lat="45.60122" lon="4.57443">
        <ele>728.4</ele>
        <time>2018-05-06T07:01:47Z</time>
      </trkpt>
      <trkpt lat="45.60123" lon="4.57447">
        <ele>728.6</ele>
        <time>2018-05-06T07:01:49Z</time>
      </trkpt>
      <trkpt lat="45.60126" lon="4.57458">
        <ele>729</ele>
        <time>2018-05-06T07:01:54Z</time>
      </trkpt>
      <trkpt lat="45.60127" lon="4.57462">
        <ele>729.1</ele>
        <time>2018-05-06T07:01:56Z</time>
      </trkpt>
      <trkpt lat="45.60133" lon="4.57476">
        <ele>729.5</ele>
        <time>2018-05-06T07:02:02Z</time>
      </trkpt>
      <trkpt lat="45.60136" lon="4.57484">
        <ele>729.7</ele>
        <time>2018-05-06T07:02:05Z</time>
      </trkpt>
      <trkpt lat="45.6014" lon="4.57493">
        <ele>730</ele>
        <time>2018-05-06T07:02:09Z</time>
      </trkpt>
      <trkpt lat="45.60141" lon="4.57498">
        <ele>730.1</ele>
        <time>2018-05-06T07:02:11Z</time>
      </trkpt>
      <trkpt lat="45.60146" lon="4.57506">
        <ele>730.4</ele>
        <time>2018-05-06T07:02:15Z</time>
      </trkpt>
      <trkpt lat="45.60147" lon="4.5751">
        <ele>730.5</ele>
        <time>2018-05-06T07:02:17Z</time>
      </trkpt>
      <trkpt lat="45.6015" lon="4.57514">
        <ele>730.7</ele>
        <time>2018-05-06T07:02:19Z</time>
      </trkpt>
      <trkpt lat="45.60151" lon="4.57519">
        <ele>730.8</ele>
        <time>2018-05-06T07:02:21Z</time>
      </trkpt>
      <trkpt lat="45.60152" lon="4.57521">
        <ele>730.9</ele>
        <time>2018-05-06T07:02:22Z</time>
      </trkpt>
      <trkpt lat="45.60153" lon="4.57523">
        <ele>731</ele>
        <time>2018-05-06T07:02:23Z</time>
      </trkpt>
      <trkpt lat="45.60157" lon="4.57533">
        <ele>731.4</ele>
        <time>2018-05-06T07:02:27Z</time>
      </trkpt>
      <trkpt lat="45.60161" lon="4.5754">
        <ele>731.7</ele>
        <time>2018-05-06T07:02:30Z</time>
      </trkpt>
      <trkpt lat="45.60168" lon="4.57549">
        <ele>732.6</ele>
        <time>2018-05-06T07:02:34Z</time>
      </trkpt>
      <trkpt lat="45.6017" lon="4.57551">
        <ele>732.7</ele>
        <time>2018-05-06T07:02:35Z</time>
      </trkpt>
      <trkpt lat="45.60176" lon="4.57562">
        <ele>733.5</ele>
        <time>2018-05-06T07:02:40Z</time>
      </trkpt>
      <trkpt lat="45.60177" lon="4.57565">
        <ele>733.6</ele>
        <time>2018-05-06T07:02:41Z</time>
      </trkpt>
      <trkpt lat="45.60184" lon="4.57575">
        <ele>734.2</ele>
        <time>2018-05-06T07:02:45Z</time>
      </trkpt>
      <trkpt lat="45.6019" lon="4.57585">
        <ele>734.7</ele>
        <time>2018-05-06T07:02:49Z</time>
      </trkpt>
      <trkpt lat="45.602" lon="4.57597">
        <ele>735.4</ele>
        <time>2018-05-06T07:02:56Z</time>
      </trkpt>
      <trkpt lat="45.60203" lon="4.576">
        <ele>735.6</ele>
        <time>2018-05-06T07:02:58Z</time>
      </trkpt>
      <trkpt lat="45.60212" lon="4.57609">
        <ele>736.3</ele>
        <time>2018-05-06T07:03:04Z</time>
      </trkpt>
      <trkpt lat="45.60217" lon="4.57612">
        <ele>736.6</ele>
        <time>2018-05-06T07:03:07Z</time>
      </trkpt>
      <trkpt lat="45.60222" lon="4.57617">
        <ele>737.2</ele>
        <time>2018-05-06T07:03:11Z</time>
      </trkpt>
      <trkpt lat="45.60224" lon="4.57618">
        <ele>737.4</ele>
        <time>2018-05-06T07:03:12Z</time>
      </trkpt>
      <trkpt lat="45.60228" lon="4.5762">
        <ele>737.6</ele>
        <time>2018-05-06T07:03:15Z</time>
      </trkpt>
      <trkpt lat="45.60232" lon="4.57624">
        <ele>738</ele>
        <time>2018-05-06T07:03:18Z</time>
      </trkpt>
      <trkpt lat="45.60237" lon="4.57628">
        <ele>738.3</ele>
        <time>2018-05-06T07:03:20Z</time>
      </trkpt>
      <trkpt lat="45.60239" lon="4.5763">
        <ele>738.4</ele>
        <time>2018-05-06T07:03:21Z</time>
      </trkpt>
      <trkpt lat="45.60244" lon="4.57637">
        <ele>738.7</ele>
        <time>2018-05-06T07:03:25Z</time>
      </trkpt>
      <trkpt lat="45.60245" lon="4.5764">
        <ele>738.5</ele>
        <time>2018-05-06T07:03:26Z</time>
      </trkpt>
      <trkpt lat="45.60246" lon="4.57661">
        <ele>736.7</ele>
        <time>2018-05-06T07:03:32Z</time>
      </trkpt>
      <trkpt lat="45.60248" lon="4.57692">
        <ele>733.9</ele>
        <time>2018-05-06T07:03:39Z</time>
      </trkpt>
      <trkpt lat="45.60251" lon="4.57718">
        <ele>731.1</ele>
        <time>2018-05-06T07:03:45Z</time>
      </trkpt>
      <trkpt lat="45.60251" lon="4.57729">
        <ele>729.8</ele>
        <time>2018-05-06T07:03:47Z</time>
      </trkpt>
      <trkpt lat="45.60251" lon="4.57747">
        <ele>727.6</ele>
        <time>2018-05-06T07:03:51Z</time>
      </trkpt>
      <trkpt lat="45.60246" lon="4.57763">
        <ele>724.5</ele>
        <time>2018-05-06T07:03:55Z</time>
      </trkpt>
      <trkpt lat="45.60245" lon="4.57769">
        <ele>723.5</ele>
        <time>2018-05-06T07:03:56Z</time>
      </trkpt>
      <trkpt lat="45.60245" lon="4.5779">
        <ele>724.4</ele>
        <time>2018-05-06T07:03:59Z</time>
      </trkpt>
      <trkpt lat="45.60246" lon="4.57796">
        <ele>724.9</ele>
        <time>2018-05-06T07:04:00Z</time>
      </trkpt>
      <trkpt lat="45.60249" lon="4.57808">
        <ele>725.8</ele>
        <time>2018-05-06T07:04:02Z</time>
      </trkpt>
      <trkpt lat="45.60252" lon="4.57817">
        <ele>726.6</ele>
        <time>2018-05-06T07:04:04Z</time>
      </trkpt>
      <trkpt lat="45.60264" lon="4.5785">
        <ele>729.6</ele>
        <time>2018-05-06T07:04:11Z</time>
      </trkpt>
      <trkpt lat="45.60278" lon="4.57883">
        <ele>733.1</ele>
        <time>2018-05-06T07:04:18Z</time>
      </trkpt>
      <trkpt lat="45.60279" lon="4.57887">
        <ele>733.5</ele>
        <time>2018-05-06T07:04:19Z</time>
      </trkpt>
      <trkpt lat="45.60291" lon="4.57912">
        <ele>735.8</ele>
        <time>2018-05-06T07:04:26Z</time>
      </trkpt>
      <trkpt lat="45.60299" lon="4.57935">
        <ele>737.5</ele>
        <time>2018-05-06T07:04:32Z</time>
      </trkpt>
      <trkpt lat="45.60307" lon="4.57964">
        <ele>739.7</ele>
        <time>2018-05-06T07:04:40Z</time>
      </trkpt>
      <trkpt lat="45.60313" lon="4.57994">
        <ele>742</ele>
        <time>2018-05-06T07:04:48Z</time>
      </trkpt>
      <trkpt lat="45.6032" lon="4.58016">
        <ele>743.8</ele>
        <time>2018-05-06T07:04:54Z</time>
      </trkpt>
      <trkpt lat="45.60321" lon="4.58019">
        <ele>744.1</ele>
        <time>2018-05-06T07:04:55Z</time>
      </trkpt>
      <trkpt lat="45.60325" lon="4.58032">
        <ele>745.3</ele>
        <time>2018-05-06T07:04:59Z</time>
      </trkpt>
      <trkpt lat="45.60328" lon="4.58042">
        <ele>746.3</ele>
        <time>2018-05-06T07:05:02Z</time>
      </trkpt>
      <trkpt lat="45.60329" lon="4.58045">
        <ele>746.6</ele>
        <time>2018-05-06T07:05:03Z</time>
      </trkpt>
      <trkpt lat="45.60334" lon="4.58061">
        <ele>747.9</ele>
        <time>2018-05-06T07:05:08Z</time>
      </trkpt>
      <trkpt lat="45.60336" lon="4.58068">
        <ele>748.5</ele>
        <time>2018-05-06T07:05:10Z</time>
      </trkpt>
      <trkpt lat="45.60338" lon="4.58075">
        <ele>749.1</ele>
        <time>2018-05-06T07:05:12Z</time>
      </trkpt>
      <trkpt lat="45.60344" lon="4.58092">
        <ele>750.5</ele>
        <time>2018-05-06T07:05:17Z</time>
      </trkpt>
      <trkpt lat="45.60346" lon="4.58099">
        <ele>751.1</ele>
        <time>2018-05-06T07:05:19Z</time>
      </trkpt>
      <trkpt lat="45.60353" lon="4.58121">
        <ele>752.9</ele>
        <time>2018-05-06T07:05:25Z</time>
      </trkpt>
      <trkpt lat="45.60359" lon="4.58145">
        <ele>754.7</ele>
        <time>2018-05-06T07:05:31Z</time>
      </trkpt>
      <trkpt lat="45.60361" lon="4.58157">
        <ele>755.5</ele>
        <time>2018-05-06T07:05:34Z</time>
      </trkpt>
      <trkpt lat="45.60366" lon="4.58187">
        <ele>757.4</ele>
        <time>2018-05-06T07:05:41Z</time>
      </trkpt>
      <trkpt lat="45.60373" lon="4.58209">
        <ele>758.5</ele>
        <time>2018-05-06T07:05:45Z</time>
      </trkpt>
      <trkpt lat="45.60376" lon="4.58223">
        <ele>759.3</ele>
        <time>2018-05-06T07:05:47Z</time>
      </trkpt>
      <trkpt lat="45.60386" lon="4.58271">
        <ele>762.1</ele>
        <time>2018-05-06T07:05:54Z</time>
      </trkpt>
      <trkpt lat="45.60388" lon="4.58277">
        <ele>762.4</ele>
        <time>2018-05-06T07:05:55Z</time>
      </trkpt>
      <trkpt lat="45.60393" lon="4.58295">
        <ele>763.4</ele>
        <time>2018-05-06T07:05:58Z</time>
      </trkpt>
      <trkpt lat="45.60401" lon="4.5831">
        <ele>764.3</ele>
        <time>2018-05-06T07:06:01Z</time>
      </trkpt>
      <trkpt lat="45.60406" lon="4.58318">
        <ele>765</ele>
        <time>2018-05-06T07:06:03Z</time>
      </trkpt>
      <trkpt lat="45.60418" lon="4.5834">
        <ele>766.7</ele>
        <time>2018-05-06T07:06:09Z</time>
      </trkpt>
      <trkpt lat="45.60423" lon="4.58365">
        <ele>767.4</ele>
        <time>2018-05-06T07:06:15Z</time>
      </trkpt>
      <trkpt lat="45.60428" lon="4.58378">
        <ele>767.7</ele>
        <time>2018-05-06T07:06:18Z</time>
      </trkpt>
      <trkpt lat="45.60432" lon="4.58386">
        <ele>767.9</ele>
        <time>2018-05-06T07:06:20Z</time>
      </trkpt>
      <trkpt lat="45.60447" lon="4.58419">
        <ele>768.6</ele>
        <time>2018-05-06T07:06:28Z</time>
      </trkpt>
      <trkpt lat="45.60453" lon="4.5843">
        <ele>768.9</ele>
        <time>2018-05-06T07:06:31Z</time>
      </trkpt>
      <trkpt lat="45.60463" lon="4.58448">
        <ele>769.2</ele>
        <time>2018-05-06T07:06:36Z</time>
      </trkpt>
      <trkpt lat="45.60465" lon="4.58452">
        <ele>769.3</ele>
        <time>2018-05-06T07:06:37Z</time>
      </trkpt>
      <trkpt lat="45.60472" lon="4.58469">
        <ele>769.5</ele>
        <time>2018-05-06T07:06:42Z</time>
      </trkpt>
      <trkpt lat="45.60474" lon="4.58477">
        <ele>769.6</ele>
        <time>2018-05-06T07:06:44Z</time>
      </trkpt>
      <trkpt lat="45.60479" lon="4.58498">
        <ele>769.9</ele>
        <time>2018-05-06T07:06:49Z</time>
      </trkpt>
      <trkpt lat="45.60483" lon="4.58513">
        <ele>770</ele>
        <time>2018-05-06T07:06:52Z</time>
      </trkpt>
      <trkpt lat="45.60496" lon="4.58551">
        <ele>770.8</ele>
        <time>2018-05-06T07:07:00Z</time>
      </trkpt>
      <trkpt lat="45.60498" lon="4.58556">
        <ele>770.9</ele>
        <time>2018-05-06T07:07:01Z</time>
      </trkpt>
      <trkpt lat="45.60512" lon="4.586">
        <ele>771.7</ele>
        <time>2018-05-06T07:07:10Z</time>
      </trkpt>
      <trkpt lat="45.60522" lon="4.58637">
        <ele>772.5</ele>
        <time>2018-05-06T07:07:18Z</time>
      </trkpt>
      <trkpt lat="45.60526" lon="4.58646">
        <ele>772.7</ele>
        <time>2018-05-06T07:07:20Z</time>
      </trkpt>
      <trkpt lat="45.60534" lon="4.58661">
        <ele>773.2</ele>
        <time>2018-05-06T07:07:24Z</time>
      </trkpt>
      <trkpt lat="45.60547" lon="4.58681">
        <ele>774</ele>
        <time>2018-05-06T07:07:30Z</time>
      </trkpt>
      <trkpt lat="45.6055" lon="4.58685">
        <ele>774.1</ele>
        <time>2018-05-06T07:07:31Z</time>
      </trkpt>
      <trkpt lat="45.6056" lon="4.58694">
        <ele>774.5</ele>
        <time>2018-05-06T07:07:35Z</time>
      </trkpt>
      <trkpt lat="45.60563" lon="4.58696">
        <ele>774.6</ele>
        <time>2018-05-06T07:07:36Z</time>
      </trkpt>
      <trkpt lat="45.60582" lon="4.58715">
        <ele>775.1</ele>
        <time>2018-05-06T07:07:43Z</time>
      </trkpt>
      <trkpt lat="45.60589" lon="4.5872">
        <ele>775.2</ele>
        <time>2018-05-06T07:07:45Z</time>
      </trkpt>
      <trkpt lat="45.60617" lon="4.58747">
        <ele>775.8</ele>
        <time>2018-05-06T07:07:54Z</time>
      </trkpt>
      <trkpt lat="45.60619" lon="4.58749">
        <ele>775.9</ele>
        <time>2018-05-06T07:07:55Z</time>
      </trkpt>
      <trkpt lat="45.6063" lon="4.58757">
        <ele>776</ele>
        <time>2018-05-06T07:07:59Z</time>
      </trkpt>
      <trkpt lat="45.60646" lon="4.58774">
        <ele>776</ele>
        <time>2018-05-06T07:08:05Z</time>
      </trkpt>
      <trkpt lat="45.60648" lon="4.58777">
        <ele>776</ele>
        <time>2018-05-06T07:08:06Z</time>
      </trkpt>
      <trkpt lat="45.6066" lon="4.58804">
        <ele>775.5</ele>
        <time>2018-05-06T07:08:12Z</time>
      </trkpt>
      <trkpt lat="45.60662" lon="4.58811">
        <ele>775.4</ele>
        <time>2018-05-06T07:08:13Z</time>
      </trkpt>
      <trkpt lat="45.6067" lon="4.58834">
        <ele>774.8</ele>
        <time>2018-05-06T07:08:16Z</time>
      </trkpt>
      <trkpt lat="45.60673" lon="4.58842">
        <ele>774.7</ele>
        <time>2018-05-06T07:08:17Z</time>
      </trkpt>
      <trkpt lat="45.60679" lon="4.58859">
        <ele>774.4</ele>
        <time>2018-05-06T07:08:19Z</time>
      </trkpt>
      <trkpt lat="45.6069" lon="4.58886">
        <ele>774</ele>
        <time>2018-05-06T07:08:22Z</time>
      </trkpt>
      <trkpt lat="45.60695" lon="4.58895">
        <ele>773.8</ele>
        <time>2018-05-06T07:08:23Z</time>
      </trkpt>
      <trkpt lat="45.607" lon="4.58904">
        <ele>773.5</ele>
        <time>2018-05-06T07:08:24Z</time>
      </trkpt>
      <trkpt lat="45.6071" lon="4.58919">
        <ele>773.1</ele>
        <time>2018-05-06T07:08:26Z</time>
      </trkpt>
      <trkpt lat="45.60716" lon="4.58925">
        <ele>772.8</ele>
        <time>2018-05-06T07:08:27Z</time>
      </trkpt>
      <trkpt lat="45.60722" lon="4.58932">
        <ele>772.7</ele>
        <time>2018-05-06T07:08:28Z</time>
      </trkpt>
      <trkpt lat="45.60733" lon="4.58943">
        <ele>772.4</ele>
        <time>2018-05-06T07:08:30Z</time>
      </trkpt>
      <trkpt lat="45.60745" lon="4.58955">
        <ele>771.9</ele>
        <time>2018-05-06T07:08:32Z</time>
      </trkpt>
      <trkpt lat="45.60755" lon="4.58965">
        <ele>771.6</ele>
        <time>2018-05-06T07:08:34Z</time>
      </trkpt>
      <trkpt lat="45.6076" lon="4.58969">
        <ele>771.5</ele>
        <time>2018-05-06T07:08:35Z</time>
      </trkpt>
      <trkpt lat="45.60764" lon="4.58973">
        <ele>771.4</ele>
        <time>2018-05-06T07:08:36Z</time>
      </trkpt>
      <trkpt lat="45.60773" lon="4.58978">
        <ele>771.3</ele>
        <time>2018-05-06T07:08:38Z</time>
      </trkpt>
      <trkpt lat="45.60776" lon="4.58979">
        <ele>771.2</ele>
        <time>2018-05-06T07:08:39Z</time>
      </trkpt>
      <trkpt lat="45.60777" lon="4.5898">
        <ele>771.2</ele>
        <time>2018-05-06T07:12:39Z</time>
      </trkpt>
      <trkpt lat="45.60779" lon="4.58987">
        <ele>771.1</ele>
        <time>2018-05-06T07:12:41Z</time>
      </trkpt>
      <trkpt lat="45.6078" lon="4.58989">
        <ele>771.1</ele>
        <time>2018-05-06T07:12:42Z</time>
      </trkpt>
      <trkpt lat="45.60782" lon="4.58994">
        <ele>771.1</ele>
        <time>2018-05-06T07:12:44Z</time>
      </trkpt>
      <trkpt lat="45.60789" lon="4.58995">
        <ele>770.8</ele>
        <time>2018-05-06T07:12:47Z</time>
      </trkpt>
      <trkpt lat="45.60797" lon="4.58995">
        <ele>770.3</ele>
        <time>2018-05-06T07:12:51Z</time>
      </trkpt>
      <trkpt lat="45.60803" lon="4.58996">
        <ele>769.8</ele>
        <time>2018-05-06T07:12:54Z</time>
      </trkpt>
      <trkpt lat="45.60818" lon="4.59">
        <ele>768.7</ele>
        <time>2018-05-06T07:13:01Z</time>
      </trkpt>
      <trkpt lat="45.60833" lon="4.59009">
        <ele>767.7</ele>
        <time>2018-05-06T07:13:08Z</time>
      </trkpt>
      <trkpt lat="45.60834" lon="4.59011">
        <ele>767.5</ele>
        <time>2018-05-06T07:13:09Z</time>
      </trkpt>
      <trkpt lat="45.60842" lon="4.59018">
        <ele>766.9</ele>
        <time>2018-05-06T07:13:13Z</time>
      </trkpt>
      <trkpt lat="45.60847" lon="4.59025">
        <ele>766.5</ele>
        <time>2018-05-06T07:13:16Z</time>
      </trkpt>
      <trkpt lat="45.60852" lon="4.59031">
        <ele>766.1</ele>
        <time>2018-05-06T07:13:19Z</time>
      </trkpt>
      <trkpt lat="45.60858" lon="4.59033">
        <ele>766.3</ele>
        <time>2018-05-06T07:13:22Z</time>
      </trkpt>
      <trkpt lat="45.6086" lon="4.59032">
        <ele>766.4</ele>
        <time>2018-05-06T07:13:23Z</time>
      </trkpt>
      <trkpt lat="45.60867" lon="4.59029">
        <ele>766.8</ele>
        <time>2018-05-06T07:13:27Z</time>
      </trkpt>
      <trkpt lat="45.60868" lon="4.59028">
        <ele>766.9</ele>
        <time>2018-05-06T07:13:28Z</time>
      </trkpt>
      <trkpt lat="45.60876" lon="4.59025">
        <ele>767.3</ele>
        <time>2018-05-06T07:13:32Z</time>
      </trkpt>
      <trkpt lat="45.60882" lon="4.59025">
        <ele>767.6</ele>
        <time>2018-05-06T07:13:35Z</time>
      </trkpt>
      <trkpt lat="45.60887" lon="4.59025">
        <ele>767.9</ele>
        <time>2018-05-06T07:13:38Z</time>
      </trkpt>
      <trkpt lat="45.60893" lon="4.59024">
        <ele>768.2</ele>
        <time>2018-05-06T07:13:41Z</time>
      </trkpt>
      <trkpt lat="45.60897" lon="4.59025">
        <ele>768.5</ele>
        <time>2018-05-06T07:13:43Z</time>
      </trkpt>
      <trkpt lat="45.60902" lon="4.59026">
        <ele>768.7</ele>
        <time>2018-05-06T07:13:46Z</time>
      </trkpt>
      <trkpt lat="45.60909" lon="4.59028">
        <ele>769</ele>
        <time>2018-05-06T07:13:50Z</time>
      </trkpt>
      <trkpt lat="45.60913" lon="4.5903">
        <ele>769.3</ele>
        <time>2018-05-06T07:13:53Z</time>
      </trkpt>
      <trkpt lat="45.60923" lon="4.59034">
        <ele>769.7</ele>
        <time>2018-05-06T07:13:59Z</time>
      </trkpt>
      <trkpt lat="45.60928" lon="4.59036">
        <ele>770</ele>
        <time>2018-05-06T07:14:02Z</time>
      </trkpt>
      <trkpt lat="45.60939" lon="4.59038">
        <ele>770.7</ele>
        <time>2018-05-06T07:14:08Z</time>
      </trkpt>
      <trkpt lat="45.60942" lon="4.59038">
        <ele>770.8</ele>
        <time>2018-05-06T07:14:10Z</time>
      </trkpt>
      <trkpt lat="45.60952" lon="4.59041">
        <ele>771.4</ele>
        <time>2018-05-06T07:14:16Z</time>
      </trkpt>
      <trkpt lat="45.60955" lon="4.59042">
        <ele>771.6</ele>
        <time>2018-05-06T07:14:18Z</time>
      </trkpt>
      <trkpt lat="45.60964" lon="4.59044">
        <ele>772.3</ele>
        <time>2018-05-06T07:14:23Z</time>
      </trkpt>
      <trkpt lat="45.60969" lon="4.59046">
        <ele>773</ele>
        <time>2018-05-06T07:14:26Z</time>
      </trkpt>
      <trkpt lat="45.60974" lon="4.59046">
        <ele>773.6</ele>
        <time>2018-05-06T07:14:29Z</time>
      </trkpt>
      <trkpt lat="45.60982" lon="4.59048">
        <ele>775.6</ele>
        <time>2018-05-06T07:14:34Z</time>
      </trkpt>
      <trkpt lat="45.60986" lon="4.59048">
        <ele>776.3</ele>
        <time>2018-05-06T07:14:36Z</time>
      </trkpt>
      <trkpt lat="45.60997" lon="4.59049">
        <ele>777.2</ele>
        <time>2018-05-06T07:14:43Z</time>
      </trkpt>
      <trkpt lat="45.60999" lon="4.5905">
        <ele>777.3</ele>
        <time>2018-05-06T07:14:44Z</time>
      </trkpt>
      <trkpt lat="45.61008" lon="4.59052">
        <ele>777.8</ele>
        <time>2018-05-06T07:14:49Z</time>
      </trkpt>
      <trkpt lat="45.61015" lon="4.59052">
        <ele>778.1</ele>
        <time>2018-05-06T07:14:53Z</time>
      </trkpt>
      <trkpt lat="45.61017" lon="4.59052">
        <ele>778.2</ele>
        <time>2018-05-06T07:14:54Z</time>
      </trkpt>
      <trkpt lat="45.61027" lon="4.59054">
        <ele>778.7</ele>
        <time>2018-05-06T07:15:00Z</time>
      </trkpt>
      <trkpt lat="45.61039" lon="4.59059">
        <ele>779.4</ele>
        <time>2018-05-06T07:15:07Z</time>
      </trkpt>
      <trkpt lat="45.61041" lon="4.5906">
        <ele>779.5</ele>
        <time>2018-05-06T07:15:08Z</time>
      </trkpt>
      <trkpt lat="45.61047" lon="4.59064">
        <ele>779.9</ele>
        <time>2018-05-06T07:15:12Z</time>
      </trkpt>
      <trkpt lat="45.61053" lon="4.59067">
        <ele>780.5</ele>
        <time>2018-05-06T07:15:16Z</time>
      </trkpt>
      <trkpt lat="45.61055" lon="4.59068">
        <ele>780.6</ele>
        <time>2018-05-06T07:15:17Z</time>
      </trkpt>
      <trkpt lat="45.61062" lon="4.59077">
        <ele>781.6</ele>
        <time>2018-05-06T07:15:23Z</time>
      </trkpt>
      <trkpt lat="45.61066" lon="4.59082">
        <ele>783.2</ele>
        <time>2018-05-06T07:15:26Z</time>
      </trkpt>
      <trkpt lat="45.61072" lon="4.59087">
        <ele>784.7</ele>
        <time>2018-05-06T07:15:30Z</time>
      </trkpt>
      <trkpt lat="45.61073" lon="4.59088">
        <ele>784.9</ele>
        <time>2018-05-06T07:15:31Z</time>
      </trkpt>
      <trkpt lat="45.61078" lon="4.59094">
        <ele>785.7</ele>
        <time>2018-05-06T07:15:35Z</time>
      </trkpt>
      <trkpt lat="45.61082" lon="4.591">
        <ele>786.3</ele>
        <time>2018-05-06T07:15:38Z</time>
      </trkpt>
      <trkpt lat="45.61085" lon="4.59103">
        <ele>786.6</ele>
        <time>2018-05-06T07:15:40Z</time>
      </trkpt>
      <trkpt lat="45.6109" lon="4.59107">
        <ele>787.1</ele>
        <time>2018-05-06T07:15:44Z</time>
      </trkpt>
      <trkpt lat="45.61094" lon="4.59109">
        <ele>787.5</ele>
        <time>2018-05-06T07:15:46Z</time>
      </trkpt>
      <trkpt lat="45.61097" lon="4.59111">
        <ele>787.9</ele>
        <time>2018-05-06T07:15:48Z</time>
      </trkpt>
      <trkpt lat="45.61105" lon="4.59114">
        <ele>788.6</ele>
        <time>2018-05-06T07:15:53Z</time>
      </trkpt>
      <trkpt lat="45.61106" lon="4.59114">
        <ele>788.7</ele>
        <time>2018-05-06T07:15:54Z</time>
      </trkpt>
      <trkpt lat="45.61111" lon="4.59117">
        <ele>789.6</ele>
        <time>2018-05-06T07:15:57Z</time>
      </trkpt>
      <trkpt lat="45.61119" lon="4.59119">
        <ele>792.3</ele>
        <time>2018-05-06T07:16:02Z</time>
      </trkpt>
      <trkpt lat="45.6113" lon="4.59126">
        <ele>793.9</ele>
        <time>2018-05-06T07:16:09Z</time>
      </trkpt>
      <trkpt lat="45.61133" lon="4.59129">
        <ele>794.4</ele>
        <time>2018-05-06T07:16:11Z</time>
      </trkpt>
      <trkpt lat="45.61138" lon="4.59134">
        <ele>794.9</ele>
        <time>2018-05-06T07:16:15Z</time>
      </trkpt>
      <trkpt lat="45.6114" lon="4.59137">
        <ele>795.2</ele>
        <time>2018-05-06T07:16:17Z</time>
      </trkpt>
      <trkpt lat="45.61147" lon="4.59146">
        <ele>796.1</ele>
        <time>2018-05-06T07:16:23Z</time>
      </trkpt>
      <trkpt lat="45.61152" lon="4.59151">
        <ele>796.8</ele>
        <time>2018-05-06T07:16:27Z</time>
      </trkpt>
      <trkpt lat="45.61155" lon="4.59156">
        <ele>798.1</ele>
        <time>2018-05-06T07:16:30Z</time>
      </trkpt>
      <trkpt lat="45.61158" lon="4.59158">
        <ele>799.1</ele>
        <time>2018-05-06T07:16:32Z</time>
      </trkpt>
      <trkpt lat="45.61163" lon="4.59163">
        <ele>800.2</ele>
        <time>2018-05-06T07:16:36Z</time>
      </trkpt>
      <trkpt lat="45.61165" lon="4.59165">
        <ele>800.7</ele>
        <time>2018-05-06T07:16:38Z</time>
      </trkpt>
      <trkpt lat="45.61169" lon="4.59169">
        <ele>801.4</ele>
        <time>2018-05-06T07:16:41Z</time>
      </trkpt>
      <trkpt lat="45.61175" lon="4.59177">
        <ele>802.3</ele>
        <time>2018-05-06T07:16:46Z</time>
      </trkpt>
      <trkpt lat="45.61176" lon="4.59179">
        <ele>802.4</ele>
        <time>2018-05-06T07:16:47Z</time>
      </trkpt>
      <trkpt lat="45.6118" lon="4.59185">
        <ele>802.9</ele>
        <time>2018-05-06T07:16:51Z</time>
      </trkpt>
      <trkpt lat="45.61184" lon="4.59189">
        <ele>803.4</ele>
        <time>2018-05-06T07:16:54Z</time>
      </trkpt>
      <trkpt lat="45.61187" lon="4.59192">
        <ele>803.8</ele>
        <time>2018-05-06T07:16:57Z</time>
      </trkpt>
      <trkpt lat="45.61191" lon="4.59198">
        <ele>804.3</ele>
        <time>2018-05-06T07:17:01Z</time>
      </trkpt>
      <trkpt lat="45.61194" lon="4.59201">
        <ele>804.7</ele>
        <time>2018-05-06T07:17:03Z</time>
      </trkpt>
      <trkpt lat="45.61198" lon="4.59205">
        <ele>805.5</ele>
        <time>2018-05-06T07:17:06Z</time>
      </trkpt>
      <trkpt lat="45.612" lon="4.59208">
        <ele>806.4</ele>
        <time>2018-05-06T07:17:08Z</time>
      </trkpt>
      <trkpt lat="45.61201" lon="4.59209">
        <ele>806.9</ele>
        <time>2018-05-06T07:17:09Z</time>
      </trkpt>
      <trkpt lat="45.61206" lon="4.59215">
        <ele>808.1</ele>
        <time>2018-05-06T07:17:13Z</time>
      </trkpt>
      <trkpt lat="45.61209" lon="4.59217">
        <ele>808.4</ele>
        <time>2018-05-06T07:17:15Z</time>
      </trkpt>
      <trkpt lat="45.6121" lon="4.59218">
        <ele>808.5</ele>
        <time>2018-05-06T07:17:16Z</time>
      </trkpt>
      <trkpt lat="45.61212" lon="4.59221">
        <ele>808.8</ele>
        <time>2018-05-06T07:17:19Z</time>
      </trkpt>
      <trkpt lat="45.61216" lon="4.59227">
        <ele>809.6</ele>
        <time>2018-05-06T07:17:24Z</time>
      </trkpt>
      <trkpt lat="45.61219" lon="4.59232">
        <ele>810.1</ele>
        <time>2018-05-06T07:17:27Z</time>
      </trkpt>
      <trkpt lat="45.61258" lon="4.59247">
        <ele>816.5</ele>
        <time>2018-05-06T07:17:58Z</time>
      </trkpt>
      <trkpt lat="45.61259" lon="4.59248">
        <ele>816.6</ele>
        <time>2018-05-06T07:17:59Z</time>
      </trkpt>
      <trkpt lat="45.61266" lon="4.59249">
        <ele>817.3</ele>
        <time>2018-05-06T07:18:03Z</time>
      </trkpt>
      <trkpt lat="45.61267" lon="4.59249">
        <ele>817.4</ele>
        <time>2018-05-06T07:18:04Z</time>
      </trkpt>
      <trkpt lat="45.6127" lon="4.59251">
        <ele>817.7</ele>
        <time>2018-05-06T07:18:06Z</time>
      </trkpt>
      <trkpt lat="45.61275" lon="4.59253">
        <ele>818.1</ele>
        <time>2018-05-06T07:18:09Z</time>
      </trkpt>
      <trkpt lat="45.61278" lon="4.59254">
        <ele>818.3</ele>
        <time>2018-05-06T07:18:11Z</time>
      </trkpt>
      <trkpt lat="45.61285" lon="4.59257">
        <ele>819</ele>
        <time>2018-05-06T07:18:15Z</time>
      </trkpt>
      <trkpt lat="45.6129" lon="4.5926">
        <ele>819.4</ele>
        <time>2018-05-06T07:18:18Z</time>
      </trkpt>
      <trkpt lat="45.61295" lon="4.5926">
        <ele>819.9</ele>
        <time>2018-05-06T07:18:21Z</time>
      </trkpt>
      <trkpt lat="45.61301" lon="4.59262">
        <ele>820.5</ele>
        <time>2018-05-06T07:18:25Z</time>
      </trkpt>
      <trkpt lat="45.61302" lon="4.59263">
        <ele>820.6</ele>
        <time>2018-05-06T07:18:26Z</time>
      </trkpt>
      <trkpt lat="45.61312" lon="4.59267">
        <ele>821.9</ele>
        <time>2018-05-06T07:18:33Z</time>
      </trkpt>
      <trkpt lat="45.61314" lon="4.59267">
        <ele>822.2</ele>
        <time>2018-05-06T07:18:34Z</time>
      </trkpt>
      <trkpt lat="45.61323" lon="4.59271">
        <ele>825.2</ele>
        <time>2018-05-06T07:18:40Z</time>
      </trkpt>
      <trkpt lat="45.61325" lon="4.59272">
        <ele>825.6</ele>
        <time>2018-05-06T07:18:41Z</time>
      </trkpt>
      <trkpt lat="45.61338" lon="4.59276">
        <ele>827.9</ele>
        <time>2018-05-06T07:18:49Z</time>
      </trkpt>
      <trkpt lat="45.6134" lon="4.59276">
        <ele>828.3</ele>
        <time>2018-05-06T07:18:50Z</time>
      </trkpt>
      <trkpt lat="45.61352" lon="4.5928">
        <ele>832.2</ele>
        <time>2018-05-06T07:18:57Z</time>
      </trkpt>
      <trkpt lat="45.61367" lon="4.59286">
        <ele>836.2</ele>
        <time>2018-05-06T07:19:05Z</time>
      </trkpt>
      <trkpt lat="45.61383" lon="4.59295">
        <ele>841.8</ele>
        <time>2018-05-06T07:19:13Z</time>
      </trkpt>
      <trkpt lat="45.61396" lon="4.593">
        <ele>843.1</ele>
        <time>2018-05-06T07:19:19Z</time>
      </trkpt>
      <trkpt lat="45.61398" lon="4.59301">
        <ele>843.2</ele>
        <time>2018-05-06T07:19:20Z</time>
      </trkpt>
      <trkpt lat="45.61415" lon="4.59305">
        <ele>843.4</ele>
        <time>2018-05-06T07:19:27Z</time>
      </trkpt>
      <trkpt lat="45.61417" lon="4.59305">
        <ele>843.4</ele>
        <time>2018-05-06T07:19:28Z</time>
      </trkpt>
      <trkpt lat="45.61431" lon="4.59307">
        <ele>843.5</ele>
        <time>2018-05-06T07:19:34Z</time>
      </trkpt>
      <trkpt lat="45.61433" lon="4.59308">
        <ele>843.6</ele>
        <time>2018-05-06T07:19:35Z</time>
      </trkpt>
      <trkpt lat="45.61449" lon="4.59311">
        <ele>844.2</ele>
        <time>2018-05-06T07:19:42Z</time>
      </trkpt>
      <trkpt lat="45.61454" lon="4.59311">
        <ele>844.3</ele>
        <time>2018-05-06T07:19:44Z</time>
      </trkpt>
      <trkpt lat="45.61463" lon="4.59312">
        <ele>844.9</ele>
        <time>2018-05-06T07:19:48Z</time>
      </trkpt>
      <trkpt lat="45.61475" lon="4.59313">
        <ele>845.5</ele>
        <time>2018-05-06T07:19:53Z</time>
      </trkpt>
      <trkpt lat="45.61477" lon="4.59313">
        <ele>845.7</ele>
        <time>2018-05-06T07:19:54Z</time>
      </trkpt>
      <trkpt lat="45.61489" lon="4.59315">
        <ele>846.2</ele>
        <time>2018-05-06T07:19:59Z</time>
      </trkpt>
      <trkpt lat="45.61493" lon="4.59314">
        <ele>846.5</ele>
        <time>2018-05-06T07:20:01Z</time>
      </trkpt>
      <trkpt lat="45.61498" lon="4.59314">
        <ele>846.8</ele>
        <time>2018-05-06T07:20:04Z</time>
      </trkpt>
      <trkpt lat="45.61506" lon="4.59315">
        <ele>847.1</ele>
        <time>2018-05-06T07:20:08Z</time>
      </trkpt>
      <trkpt lat="45.61519" lon="4.59317">
        <ele>847.9</ele>
        <time>2018-05-06T07:20:14Z</time>
      </trkpt>
      <trkpt lat="45.61521" lon="4.59317">
        <ele>848.1</ele>
        <time>2018-05-06T07:20:15Z</time>
      </trkpt>
      <trkpt lat="45.61529" lon="4.59318">
        <ele>848.4</ele>
        <time>2018-05-06T07:20:19Z</time>
      </trkpt>
      <trkpt lat="45.61538" lon="4.59319">
        <ele>848.6</ele>
        <time>2018-05-06T07:20:23Z</time>
      </trkpt>
      <trkpt lat="45.61544" lon="4.59319">
        <ele>848.8</ele>
        <time>2018-05-06T07:20:26Z</time>
      </trkpt>
      <trkpt lat="45.6155" lon="4.59321">
        <ele>849.1</ele>
        <time>2018-05-06T07:20:29Z</time>
      </trkpt>
      <trkpt lat="45.61553" lon="4.59322">
        <ele>849.2</ele>
        <time>2018-05-06T07:20:30Z</time>
      </trkpt>
      <trkpt lat="45.61568" lon="4.59326">
        <ele>849.7</ele>
        <time>2018-05-06T07:20:37Z</time>
      </trkpt>
      <trkpt lat="45.61571" lon="4.59326">
        <ele>849.8</ele>
        <time>2018-05-06T07:20:38Z</time>
      </trkpt>
      <trkpt lat="45.61579" lon="4.59329">
        <ele>850</ele>
        <time>2018-05-06T07:20:42Z</time>
      </trkpt>
      <trkpt lat="45.61589" lon="4.5933">
        <ele>850.2</ele>
        <time>2018-05-06T07:20:46Z</time>
      </trkpt>
      <trkpt lat="45.61596" lon="4.59331">
        <ele>850.6</ele>
        <time>2018-05-06T07:20:49Z</time>
      </trkpt>
      <trkpt lat="45.61611" lon="4.59333">
        <ele>850.9</ele>
        <time>2018-05-06T07:20:54Z</time>
      </trkpt>
      <trkpt lat="45.61636" lon="4.59334">
        <ele>851.7</ele>
        <time>2018-05-06T07:21:01Z</time>
      </trkpt>
      <trkpt lat="45.61668" lon="4.59337">
        <ele>852.5</ele>
        <time>2018-05-06T07:21:08Z</time>
      </trkpt>
      <trkpt lat="45.61717" lon="4.59346">
        <ele>853.2</ele>
        <time>2018-05-06T07:21:18Z</time>
      </trkpt>
      <trkpt lat="45.61737" lon="4.59352">
        <ele>853.5</ele>
        <time>2018-05-06T07:21:22Z</time>
      </trkpt>
      <trkpt lat="45.61746" lon="4.59355">
        <ele>853.5</ele>
        <time>2018-05-06T07:21:24Z</time>
      </trkpt>
      <trkpt lat="45.61771" lon="4.5936">
        <ele>853.7</ele>
        <time>2018-05-06T07:21:29Z</time>
      </trkpt>
      <trkpt lat="45.61786" lon="4.59361">
        <ele>854.2</ele>
        <time>2018-05-06T07:21:32Z</time>
      </trkpt>
      <trkpt lat="45.61829" lon="4.59362">
        <ele>854.9</ele>
        <time>2018-05-06T07:21:41Z</time>
      </trkpt>
      <trkpt lat="45.61864" lon="4.59357">
        <ele>855.7</ele>
        <time>2018-05-06T07:21:49Z</time>
      </trkpt>
      <trkpt lat="45.61868" lon="4.59356">
        <ele>855.7</ele>
        <time>2018-05-06T07:21:50Z</time>
      </trkpt>
      <trkpt lat="45.6188" lon="4.59353">
        <ele>855.9</ele>
        <time>2018-05-06T07:21:53Z</time>
      </trkpt>
      <trkpt lat="45.61891" lon="4.5935">
        <ele>856.2</ele>
        <time>2018-05-06T07:21:56Z</time>
      </trkpt>
      <trkpt lat="45.61899" lon="4.5934">
        <ele>856.5</ele>
        <time>2018-05-06T07:21:59Z</time>
      </trkpt>
      <trkpt lat="45.61902" lon="4.59335">
        <ele>856.7</ele>
        <time>2018-05-06T07:22:00Z</time>
      </trkpt>
      <trkpt lat="45.61914" lon="4.59315">
        <ele>857.3</ele>
        <time>2018-05-06T07:22:05Z</time>
      </trkpt>
      <trkpt lat="45.61917" lon="4.59311">
        <ele>857.4</ele>
        <time>2018-05-06T07:22:06Z</time>
      </trkpt>
      <trkpt lat="45.61932" lon="4.5929">
        <ele>858.1</ele>
        <time>2018-05-06T07:22:12Z</time>
      </trkpt>
      <trkpt lat="45.61939" lon="4.59281">
        <ele>858.4</ele>
        <time>2018-05-06T07:22:15Z</time>
      </trkpt>
      <trkpt lat="45.61957" lon="4.5926">
        <ele>859.7</ele>
        <time>2018-05-06T07:22:22Z</time>
      </trkpt>
      <trkpt lat="45.6196" lon="4.59257">
        <ele>859.9</ele>
        <time>2018-05-06T07:22:23Z</time>
      </trkpt>
      <trkpt lat="45.61986" lon="4.59229">
        <ele>862.3</ele>
        <time>2018-05-06T07:22:32Z</time>
      </trkpt>
      <trkpt lat="45.61997" lon="4.5921">
        <ele>863</ele>
        <time>2018-05-06T07:22:36Z</time>
      </trkpt>
      <trkpt lat="45.61999" lon="4.59204">
        <ele>863.1</ele>
        <time>2018-05-06T07:22:37Z</time>
      </trkpt>
      <trkpt lat="45.62014" lon="4.59168">
        <ele>864.1</ele>
        <time>2018-05-06T07:22:43Z</time>
      </trkpt>
      <trkpt lat="45.62016" lon="4.59163">
        <ele>864.2</ele>
        <time>2018-05-06T07:22:44Z</time>
      </trkpt>
      <trkpt lat="45.62024" lon="4.59141">
        <ele>864.8</ele>
        <time>2018-05-06T07:22:48Z</time>
      </trkpt>
      <trkpt lat="45.62031" lon="4.59125">
        <ele>865</ele>
        <time>2018-05-06T07:22:51Z</time>
      </trkpt>
      <trkpt lat="45.62042" lon="4.59088">
        <ele>863.2</ele>
        <time>2018-05-06T07:22:58Z</time>
      </trkpt>
      <trkpt lat="45.62049" lon="4.59052">
        <ele>859.5</ele>
        <time>2018-05-06T07:23:03Z</time>
      </trkpt>
      <trkpt lat="45.62052" lon="4.59043">
        <ele>858.8</ele>
        <time>2018-05-06T07:23:04Z</time>
      </trkpt>
      <trkpt lat="45.62068" lon="4.59004">
        <ele>855.3</ele>
        <time>2018-05-06T07:23:08Z</time>
      </trkpt>
      <trkpt lat="45.62086" lon="4.58976">
        <ele>853.9</ele>
        <time>2018-05-06T07:23:11Z</time>
      </trkpt>
      <trkpt lat="45.62098" lon="4.58958">
        <ele>851.8</ele>
        <time>2018-05-06T07:23:13Z</time>
      </trkpt>
      <trkpt lat="45.62104" lon="4.58948">
        <ele>850.3</ele>
        <time>2018-05-06T07:23:14Z</time>
      </trkpt>
      <trkpt lat="45.62116" lon="4.5893">
        <ele>847.4</ele>
        <time>2018-05-06T07:23:16Z</time>
      </trkpt>
      <trkpt lat="45.62134" lon="4.58899">
        <ele>841</ele>
        <time>2018-05-06T07:23:19Z</time>
      </trkpt>
      <trkpt lat="45.6215" lon="4.58877">
        <ele>841.2</ele>
        <time>2018-05-06T07:23:21Z</time>
      </trkpt>
      <trkpt lat="45.62169" lon="4.58853">
        <ele>841.4</ele>
        <time>2018-05-06T07:23:23Z</time>
      </trkpt>
      <trkpt lat="45.62186" lon="4.58828">
        <ele>841.5</ele>
        <time>2018-05-06T07:23:25Z</time>
      </trkpt>
      <trkpt lat="45.62197" lon="4.58805">
        <ele>841.8</ele>
        <time>2018-05-06T07:23:27Z</time>
      </trkpt>
      <trkpt lat="45.62202" lon="4.58797">
        <ele>841.9</ele>
        <time>2018-05-06T07:23:28Z</time>
      </trkpt>
      <trkpt lat="45.62207" lon="4.58793">
        <ele>842</ele>
        <time>2018-05-06T07:23:29Z</time>
      </trkpt>
      <trkpt lat="45.62217" lon="4.58793">
        <ele>842</ele>
        <time>2018-05-06T07:23:31Z</time>
      </trkpt>
      <trkpt lat="45.62222" lon="4.58794">
        <ele>842</ele>
        <time>2018-05-06T07:23:32Z</time>
      </trkpt>
      <trkpt lat="45.6223" lon="4.58794">
        <ele>842</ele>
        <time>2018-05-06T07:23:34Z</time>
      </trkpt>
      <trkpt lat="45.62242" lon="4.58795">
        <ele>842</ele>
        <time>2018-05-06T07:23:37Z</time>
      </trkpt>
      <trkpt lat="45.62245" lon="4.58797">
        <ele>842</ele>
        <time>2018-05-06T07:23:38Z</time>
      </trkpt>
      <trkpt lat="45.62249" lon="4.58799">
        <ele>841.9</ele>
        <time>2018-05-06T07:23:39Z</time>
      </trkpt>
      <trkpt lat="45.62265" lon="4.58806">
        <ele>839.8</ele>
        <time>2018-05-06T07:23:43Z</time>
      </trkpt>
      <trkpt lat="45.62269" lon="4.58809">
        <ele>838.9</ele>
        <time>2018-05-06T07:23:44Z</time>
      </trkpt>
      <trkpt lat="45.62278" lon="4.58815">
        <ele>836.9</ele>
        <time>2018-05-06T07:23:46Z</time>
      </trkpt>
      <trkpt lat="45.62288" lon="4.58823">
        <ele>834.4</ele>
        <time>2018-05-06T07:23:48Z</time>
      </trkpt>
      <trkpt lat="45.62293" lon="4.58827">
        <ele>833.9</ele>
        <time>2018-05-06T07:23:49Z</time>
      </trkpt>
      <trkpt lat="45.62298" lon="4.5883">
        <ele>833</ele>
        <time>2018-05-06T07:23:50Z</time>
      </trkpt>
      <trkpt lat="45.62308" lon="4.58832">
        <ele>831.8</ele>
        <time>2018-05-06T07:23:52Z</time>
      </trkpt>
      <trkpt lat="45.62314" lon="4.58831">
        <ele>831.2</ele>
        <time>2018-05-06T07:23:53Z</time>
      </trkpt>
      <trkpt lat="45.62319" lon="4.5883">
        <ele>830.6</ele>
        <time>2018-05-06T07:23:54Z</time>
      </trkpt>
      <trkpt lat="45.62328" lon="4.58827">
        <ele>829.6</ele>
        <time>2018-05-06T07:23:56Z</time>
      </trkpt>
      <trkpt lat="45.62332" lon="4.58826">
        <ele>828.8</ele>
        <time>2018-05-06T07:23:57Z</time>
      </trkpt>
      <trkpt lat="45.62337" lon="4.58825">
        <ele>828</ele>
        <time>2018-05-06T07:23:58Z</time>
      </trkpt>
      <trkpt lat="45.62343" lon="4.58822">
        <ele>827.7</ele>
        <time>2018-05-06T07:23:59Z</time>
      </trkpt>
      <trkpt lat="45.62348" lon="4.58819">
        <ele>827</ele>
        <time>2018-05-06T07:24:00Z</time>
      </trkpt>
      <trkpt lat="45.6236" lon="4.58812">
        <ele>824.8</ele>
        <time>2018-05-06T07:24:02Z</time>
      </trkpt>
      <trkpt lat="45.6237" lon="4.58806">
        <ele>821.4</ele>
        <time>2018-05-06T07:24:04Z</time>
      </trkpt>
      <trkpt lat="45.62379" lon="4.588">
        <ele>819.7</ele>
        <time>2018-05-06T07:24:06Z</time>
      </trkpt>
      <trkpt lat="45.62388" lon="4.58794">
        <ele>819.1</ele>
        <time>2018-05-06T07:24:08Z</time>
      </trkpt>
      <trkpt lat="45.62397" lon="4.58787">
        <ele>817.4</ele>
        <time>2018-05-06T07:24:10Z</time>
      </trkpt>
      <trkpt lat="45.62402" lon="4.58783">
        <ele>816.2</ele>
        <time>2018-05-06T07:24:11Z</time>
      </trkpt>
      <trkpt lat="45.62406" lon="4.58778">
        <ele>815.5</ele>
        <time>2018-05-06T07:24:12Z</time>
      </trkpt>
      <trkpt lat="45.6241" lon="4.58774">
        <ele>815.1</ele>
        <time>2018-05-06T07:24:13Z</time>
      </trkpt>
      <trkpt lat="45.62413" lon="4.5877">
        <ele>814.8</ele>
        <time>2018-05-06T07:24:14Z</time>
      </trkpt>
      <trkpt lat="45.62419" lon="4.58761">
        <ele>813.7</ele>
        <time>2018-05-06T07:24:16Z</time>
      </trkpt>
      <trkpt lat="45.62426" lon="4.58752">
        <ele>812.6</ele>
        <time>2018-05-06T07:24:18Z</time>
      </trkpt>
      <trkpt lat="45.62428" lon="4.58748">
        <ele>811.8</ele>
        <time>2018-05-06T07:24:19Z</time>
      </trkpt>
      <trkpt lat="45.62431" lon="4.58744">
        <ele>811.5</ele>
        <time>2018-05-06T07:24:20Z</time>
      </trkpt>
      <trkpt lat="45.62436" lon="4.58736">
        <ele>810.7</ele>
        <time>2018-05-06T07:24:23Z</time>
      </trkpt>
      <trkpt lat="45.62438" lon="4.58733">
        <ele>810.2</ele>
        <time>2018-05-06T07:24:24Z</time>
      </trkpt>
      <trkpt lat="45.6244" lon="4.5873">
        <ele>809.7</ele>
        <time>2018-05-06T07:24:25Z</time>
      </trkpt>
      <trkpt lat="45.62444" lon="4.58722">
        <ele>809</ele>
        <time>2018-05-06T07:24:27Z</time>
      </trkpt>
      <trkpt lat="45.62449" lon="4.58713">
        <ele>807.7</ele>
        <time>2018-05-06T07:24:29Z</time>
      </trkpt>
      <trkpt lat="45.62453" lon="4.58707">
        <ele>807.2</ele>
        <time>2018-05-06T07:24:31Z</time>
      </trkpt>
      <trkpt lat="45.62459" lon="4.58699">
        <ele>806.6</ele>
        <time>2018-05-06T07:24:33Z</time>
      </trkpt>
      <trkpt lat="45.62465" lon="4.58691">
        <ele>805.4</ele>
        <time>2018-05-06T07:24:35Z</time>
      </trkpt>
      <trkpt lat="45.62471" lon="4.58682">
        <ele>804.7</ele>
        <time>2018-05-06T07:24:37Z</time>
      </trkpt>
      <trkpt lat="45.62482" lon="4.58667">
        <ele>802.9</ele>
        <time>2018-05-06T07:24:40Z</time>
      </trkpt>
      <trkpt lat="45.62485" lon="4.58662">
        <ele>802.3</ele>
        <time>2018-05-06T07:24:41Z</time>
      </trkpt>
      <trkpt lat="45.62494" lon="4.58651">
        <ele>801</ele>
        <time>2018-05-06T07:24:43Z</time>
      </trkpt>
      <trkpt lat="45.62498" lon="4.58644">
        <ele>800.7</ele>
        <time>2018-05-06T07:24:44Z</time>
      </trkpt>
      <trkpt lat="45.62503" lon="4.5863">
        <ele>799.6</ele>
        <time>2018-05-06T07:24:46Z</time>
      </trkpt>
      <trkpt lat="45.62506" lon="4.58623">
        <ele>799.3</ele>
        <time>2018-05-06T07:24:47Z</time>
      </trkpt>
      <trkpt lat="45.62518" lon="4.58581">
        <ele>798.7</ele>
        <time>2018-05-06T07:24:53Z</time>
      </trkpt>
      <trkpt lat="45.6252" lon="4.58574">
        <ele>798.7</ele>
        <time>2018-05-06T07:24:54Z</time>
      </trkpt>
      <trkpt lat="45.6253" lon="4.58546">
        <ele>798.4</ele>
        <time>2018-05-06T07:24:58Z</time>
      </trkpt>
      <trkpt lat="45.62546" lon="4.58515">
        <ele>796.5</ele>
        <time>2018-05-06T07:25:02Z</time>
      </trkpt>
      <trkpt lat="45.62552" lon="4.58508">
        <ele>795.9</ele>
        <time>2018-05-06T07:25:03Z</time>
      </trkpt>
      <trkpt lat="45.62582" lon="4.58478">
        <ele>792</ele>
        <time>2018-05-06T07:25:09Z</time>
      </trkpt>
      <trkpt lat="45.62585" lon="4.58475">
        <ele>791.3</ele>
        <time>2018-05-06T07:25:10Z</time>
      </trkpt>
      <trkpt lat="45.62593" lon="4.58467">
        <ele>789.5</ele>
        <time>2018-05-06T07:25:13Z</time>
      </trkpt>
      <trkpt lat="45.62603" lon="4.5846">
        <ele>787.2</ele>
        <time>2018-05-06T07:25:16Z</time>
      </trkpt>
      <trkpt lat="45.6261" lon="4.58453">
        <ele>786.2</ele>
        <time>2018-05-06T07:25:18Z</time>
      </trkpt>
      <trkpt lat="45.62619" lon="4.58443">
        <ele>784.3</ele>
        <time>2018-05-06T07:25:20Z</time>
      </trkpt>
      <trkpt lat="45.62634" lon="4.58424">
        <ele>780.8</ele>
        <time>2018-05-06T07:25:23Z</time>
      </trkpt>
      <trkpt lat="45.62639" lon="4.58417">
        <ele>780.2</ele>
        <time>2018-05-06T07:25:24Z</time>
      </trkpt>
      <trkpt lat="45.62652" lon="4.58392">
        <ele>778</ele>
        <time>2018-05-06T07:25:28Z</time>
      </trkpt>
      <trkpt lat="45.62655" lon="4.58388">
        <ele>777.2</ele>
        <time>2018-05-06T07:25:29Z</time>
      </trkpt>
      <trkpt lat="45.62666" lon="4.58372">
        <ele>774.2</ele>
        <time>2018-05-06T07:25:33Z</time>
      </trkpt>
      <trkpt lat="45.6267" lon="4.58367">
        <ele>773.7</ele>
        <time>2018-05-06T07:25:34Z</time>
      </trkpt>
      <trkpt lat="45.62673" lon="4.58363">
        <ele>773</ele>
        <time>2018-05-06T07:25:35Z</time>
      </trkpt>
      <trkpt lat="45.6268" lon="4.58352">
        <ele>771.6</ele>
        <time>2018-05-06T07:25:37Z</time>
      </trkpt>
      <trkpt lat="45.62686" lon="4.58342">
        <ele>769.7</ele>
        <time>2018-05-06T07:25:39Z</time>
      </trkpt>
      <trkpt lat="45.62692" lon="4.58335">
        <ele>768.5</ele>
        <time>2018-05-06T07:25:41Z</time>
      </trkpt>
      <trkpt lat="45.62697" lon="4.58329">
        <ele>767.2</ele>
        <time>2018-05-06T07:25:43Z</time>
      </trkpt>
      <trkpt lat="45.62703" lon="4.58321">
        <ele>766</ele>
        <time>2018-05-06T07:25:45Z</time>
      </trkpt>
      <trkpt lat="45.62709" lon="4.58313">
        <ele>765.1</ele>
        <time>2018-05-06T07:25:47Z</time>
      </trkpt>
      <trkpt lat="45.62713" lon="4.58309">
        <ele>764.2</ele>
        <time>2018-05-06T07:25:48Z</time>
      </trkpt>
      <trkpt lat="45.62717" lon="4.58304">
        <ele>763.5</ele>
        <time>2018-05-06T07:25:49Z</time>
      </trkpt>
      <trkpt lat="45.62725" lon="4.58295">
        <ele>762.4</ele>
        <time>2018-05-06T07:25:51Z</time>
      </trkpt>
      <trkpt lat="45.62729" lon="4.58291">
        <ele>761.4</ele>
        <time>2018-05-06T07:25:52Z</time>
      </trkpt>
      <trkpt lat="45.62733" lon="4.58286">
        <ele>760.7</ele>
        <time>2018-05-06T07:25:53Z</time>
      </trkpt>
      <trkpt lat="45.6274" lon="4.58277">
        <ele>759.3</ele>
        <time>2018-05-06T07:25:55Z</time>
      </trkpt>
      <trkpt lat="45.62746" lon="4.58266">
        <ele>758.2</ele>
        <time>2018-05-06T07:25:57Z</time>
      </trkpt>
      <trkpt lat="45.62752" lon="4.58256">
        <ele>757.1</ele>
        <time>2018-05-06T07:25:59Z</time>
      </trkpt>
      <trkpt lat="45.62761" lon="4.58254">
        <ele>756.5</ele>
        <time>2018-05-06T07:26:01Z</time>
      </trkpt>
      <trkpt lat="45.6277" lon="4.58258">
        <ele>755.6</ele>
        <time>2018-05-06T07:26:03Z</time>
      </trkpt>
      <trkpt lat="45.62775" lon="4.58261">
        <ele>755.2</ele>
        <time>2018-05-06T07:26:04Z</time>
      </trkpt>
      <trkpt lat="45.6278" lon="4.58263">
        <ele>754.3</ele>
        <time>2018-05-06T07:26:05Z</time>
      </trkpt>
      <trkpt lat="45.62786" lon="4.58265">
        <ele>753.1</ele>
        <time>2018-05-06T07:26:06Z</time>
      </trkpt>
      <trkpt lat="45.62791" lon="4.58267">
        <ele>752.2</ele>
        <time>2018-05-06T07:26:07Z</time>
      </trkpt>
      <trkpt lat="45.62797" lon="4.58267">
        <ele>751.1</ele>
        <time>2018-05-06T07:26:08Z</time>
      </trkpt>
      <trkpt lat="45.62809" lon="4.58266">
        <ele>749</ele>
        <time>2018-05-06T07:26:10Z</time>
      </trkpt>
      <trkpt lat="45.62821" lon="4.58266">
        <ele>748</ele>
        <time>2018-05-06T07:26:12Z</time>
      </trkpt>
      <trkpt lat="45.62827" lon="4.5827">
        <ele>747.7</ele>
        <time>2018-05-06T07:26:13Z</time>
      </trkpt>
      <trkpt lat="45.62833" lon="4.58274">
        <ele>747.5</ele>
        <time>2018-05-06T07:26:14Z</time>
      </trkpt>
      <trkpt lat="45.62839" lon="4.58279">
        <ele>747.3</ele>
        <time>2018-05-06T07:26:15Z</time>
      </trkpt>
      <trkpt lat="45.62852" lon="4.58286">
        <ele>747</ele>
        <time>2018-05-06T07:26:17Z</time>
      </trkpt>
      <trkpt lat="45.62858" lon="4.58288">
        <ele>747</ele>
        <time>2018-05-06T07:26:18Z</time>
      </trkpt>
      <trkpt lat="45.62865" lon="4.58289">
        <ele>747</ele>
        <time>2018-05-06T07:26:19Z</time>
      </trkpt>
      <trkpt lat="45.62876" lon="4.58286">
        <ele>746.7</ele>
        <time>2018-05-06T07:26:21Z</time>
      </trkpt>
      <trkpt lat="45.6288" lon="4.58283">
        <ele>746.7</ele>
        <time>2018-05-06T07:26:22Z</time>
      </trkpt>
      <trkpt lat="45.62887" lon="4.58277">
        <ele>746.8</ele>
        <time>2018-05-06T07:26:24Z</time>
      </trkpt>
      <trkpt lat="45.6289" lon="4.58275">
        <ele>746.7</ele>
        <time>2018-05-06T07:26:25Z</time>
      </trkpt>
      <trkpt lat="45.62892" lon="4.58273">
        <ele>746.7</ele>
        <time>2018-05-06T07:26:26Z</time>
      </trkpt>
      <trkpt lat="45.62901" lon="4.58259">
        <ele>747</ele>
        <time>2018-05-06T07:26:32Z</time>
      </trkpt>
      <trkpt lat="45.62907" lon="4.5824">
        <ele>747.6</ele>
        <time>2018-05-06T07:26:37Z</time>
      </trkpt>
      <trkpt lat="45.62914" lon="4.5822">
        <ele>748.3</ele>
        <time>2018-05-06T07:26:42Z</time>
      </trkpt>
      <trkpt lat="45.62915" lon="4.58193">
        <ele>749.1</ele>
        <time>2018-05-06T07:26:47Z</time>
      </trkpt>
      <trkpt lat="45.6291" lon="4.58157">
        <ele>749.6</ele>
        <time>2018-05-06T07:26:54Z</time>
      </trkpt>
      <trkpt lat="45.62905" lon="4.58122">
        <ele>750.3</ele>
        <time>2018-05-06T07:27:01Z</time>
      </trkpt>
      <trkpt lat="45.62902" lon="4.5808">
        <ele>750.1</ele>
        <time>2018-05-06T07:27:10Z</time>
      </trkpt>
      <trkpt lat="45.62901" lon="4.58042">
        <ele>750.9</ele>
        <time>2018-05-06T07:27:18Z</time>
      </trkpt>
      <trkpt lat="45.629" lon="4.58002">
        <ele>751.9</ele>
        <time>2018-05-06T07:27:27Z</time>
      </trkpt>
      <trkpt lat="45.62899" lon="4.57989">
        <ele>752.2</ele>
        <time>2018-05-06T07:27:30Z</time>
      </trkpt>
      <trkpt lat="45.62898" lon="4.57963">
        <ele>753.3</ele>
        <time>2018-05-06T07:27:36Z</time>
      </trkpt>
      <trkpt lat="45.62898" lon="4.57951">
        <ele>753.8</ele>
        <time>2018-05-06T07:27:39Z</time>
      </trkpt>
      <trkpt lat="45.62899" lon="4.57922">
        <ele>755.2</ele>
        <time>2018-05-06T07:27:46Z</time>
      </trkpt>
      <trkpt lat="45.62903" lon="4.57887">
        <ele>757.1</ele>
        <time>2018-05-06T07:27:54Z</time>
      </trkpt>
      <trkpt lat="45.62904" lon="4.57879">
        <ele>757.7</ele>
        <time>2018-05-06T07:27:56Z</time>
      </trkpt>
      <trkpt lat="45.62908" lon="4.57852">
        <ele>759.1</ele>
        <time>2018-05-06T07:28:02Z</time>
      </trkpt>
      <trkpt lat="45.62909" lon="4.57844">
        <ele>759.2</ele>
        <time>2018-05-06T07:28:04Z</time>
      </trkpt>
      <trkpt lat="45.62912" lon="4.57817">
        <ele>760.2</ele>
        <time>2018-05-06T07:28:10Z</time>
      </trkpt>
      <trkpt lat="45.62912" lon="4.57813">
        <ele>760.4</ele>
        <time>2018-05-06T07:28:11Z</time>
      </trkpt>
      <trkpt lat="45.62914" lon="4.578">
        <ele>761</ele>
        <time>2018-05-06T07:28:14Z</time>
      </trkpt>
      <trkpt lat="45.62918" lon="4.57785">
        <ele>761.4</ele>
        <time>2018-05-06T07:28:18Z</time>
      </trkpt>
      <trkpt lat="45.6292" lon="4.5778">
        <ele>761.5</ele>
        <time>2018-05-06T07:28:19Z</time>
      </trkpt>
      <trkpt lat="45.62931" lon="4.57758">
        <ele>762.5</ele>
        <time>2018-05-06T07:28:25Z</time>
      </trkpt>
      <trkpt lat="45.62933" lon="4.57754">
        <ele>762.4</ele>
        <time>2018-05-06T07:28:26Z</time>
      </trkpt>
      <trkpt lat="45.62949" lon="4.57733">
        <ele>763.6</ele>
        <time>2018-05-06T07:28:33Z</time>
      </trkpt>
      <trkpt lat="45.62951" lon="4.5773">
        <ele>763.7</ele>
        <time>2018-05-06T07:28:34Z</time>
      </trkpt>
      <trkpt lat="45.62976" lon="4.57699">
        <ele>763.6</ele>
        <time>2018-05-06T07:28:42Z</time>
      </trkpt>
      <trkpt lat="45.63009" lon="4.57663">
        <ele>762.1</ele>
        <time>2018-05-06T07:28:50Z</time>
      </trkpt>
      <trkpt lat="45.63032" lon="4.57638">
        <ele>761.4</ele>
        <time>2018-05-06T07:28:55Z</time>
      </trkpt>
      <trkpt lat="45.63037" lon="4.57633">
        <ele>761.2</ele>
        <time>2018-05-06T07:28:56Z</time>
      </trkpt>
      <trkpt lat="45.63051" lon="4.5761">
        <ele>761</ele>
        <time>2018-05-06T07:29:00Z</time>
      </trkpt>
      <trkpt lat="45.63062" lon="4.57594">
        <ele>761</ele>
        <time>2018-05-06T07:29:03Z</time>
      </trkpt>
      <trkpt lat="45.6308" lon="4.57571">
        <ele>760.8</ele>
        <time>2018-05-06T07:29:08Z</time>
      </trkpt>
      <trkpt lat="45.63098" lon="4.57557">
        <ele>761</ele>
        <time>2018-05-06T07:29:13Z</time>
      </trkpt>
      <trkpt lat="45.63111" lon="4.5756">
        <ele>761</ele>
        <time>2018-05-06T07:29:17Z</time>
      </trkpt>
      <trkpt lat="45.63121" lon="4.57565">
        <ele>761</ele>
        <time>2018-05-06T07:29:20Z</time>
      </trkpt>
      <trkpt lat="45.63127" lon="4.57568">
        <ele>761</ele>
        <time>2018-05-06T07:29:22Z</time>
      </trkpt>
      <trkpt lat="45.63132" lon="4.57569">
        <ele>761</ele>
        <time>2018-05-06T07:29:24Z</time>
      </trkpt>
      <trkpt lat="45.63141" lon="4.57576">
        <ele>761.6</ele>
        <time>2018-05-06T07:29:28Z</time>
      </trkpt>
      <trkpt lat="45.63149" lon="4.57601">
        <ele>763.6</ele>
        <time>2018-05-06T07:29:35Z</time>
      </trkpt>
      <trkpt lat="45.63149" lon="4.57605">
        <ele>763.8</ele>
        <time>2018-05-06T07:29:36Z</time>
      </trkpt>
      <trkpt lat="45.63152" lon="4.57623">
        <ele>765.3</ele>
        <time>2018-05-06T07:29:41Z</time>
      </trkpt>
      <trkpt lat="45.63152" lon="4.57626">
        <ele>765.6</ele>
        <time>2018-05-06T07:29:42Z</time>
      </trkpt>
      <trkpt lat="45.63153" lon="4.5764">
        <ele>766.9</ele>
        <time>2018-05-06T07:29:46Z</time>
      </trkpt>
      <trkpt lat="45.63154" lon="4.5766">
        <ele>768.9</ele>
        <time>2018-05-06T07:29:52Z</time>
      </trkpt>
      <trkpt lat="45.63154" lon="4.57675">
        <ele>770.5</ele>
        <time>2018-05-06T07:29:57Z</time>
      </trkpt>
      <trkpt lat="45.63155" lon="4.57687">
        <ele>771.6</ele>
        <time>2018-05-06T07:30:01Z</time>
      </trkpt>
      <trkpt lat="45.63156" lon="4.5769">
        <ele>771.9</ele>
        <time>2018-05-06T07:30:02Z</time>
      </trkpt>
      <trkpt lat="45.63158" lon="4.57701">
        <ele>772.9</ele>
        <time>2018-05-06T07:30:06Z</time>
      </trkpt>
      <trkpt lat="45.63159" lon="4.57706">
        <ele>773.4</ele>
        <time>2018-05-06T07:30:08Z</time>
      </trkpt>
      <trkpt lat="45.63161" lon="4.57716">
        <ele>774.3</ele>
        <time>2018-05-06T07:30:12Z</time>
      </trkpt>
      <trkpt lat="45.63164" lon="4.57726">
        <ele>775.1</ele>
        <time>2018-05-06T07:30:16Z</time>
      </trkpt>
      <trkpt lat="45.63164" lon="4.57729">
        <ele>775.3</ele>
        <time>2018-05-06T07:30:17Z</time>
      </trkpt>
      <trkpt lat="45.63167" lon="4.57741">
        <ele>776.4</ele>
        <time>2018-05-06T07:30:22Z</time>
      </trkpt>
      <trkpt lat="45.63169" lon="4.57748">
        <ele>777</ele>
        <time>2018-05-06T07:30:25Z</time>
      </trkpt>
      <trkpt lat="45.6317" lon="4.5775">
        <ele>777.2</ele>
        <time>2018-05-06T07:30:26Z</time>
      </trkpt>
      <trkpt lat="45.63173" lon="4.57763">
        <ele>778.2</ele>
        <time>2018-05-06T07:30:31Z</time>
      </trkpt>
      <trkpt lat="45.63176" lon="4.57773">
        <ele>779</ele>
        <time>2018-05-06T07:30:35Z</time>
      </trkpt>
      <trkpt lat="45.63176" lon="4.57775">
        <ele>779.2</ele>
        <time>2018-05-06T07:30:36Z</time>
      </trkpt>
      <trkpt lat="45.6318" lon="4.57792">
        <ele>780.5</ele>
        <time>2018-05-06T07:30:43Z</time>
      </trkpt>
      <trkpt lat="45.63182" lon="4.57803">
        <ele>781.5</ele>
        <time>2018-05-06T07:30:48Z</time>
      </trkpt>
      <trkpt lat="45.63184" lon="4.57807">
        <ele>781.9</ele>
        <time>2018-05-06T07:30:50Z</time>
      </trkpt>
      <trkpt lat="45.63185" lon="4.57815">
        <ele>782.5</ele>
        <time>2018-05-06T07:30:53Z</time>
      </trkpt>
      <trkpt lat="45.63188" lon="4.57827">
        <ele>783.6</ele>
        <time>2018-05-06T07:30:58Z</time>
      </trkpt>
      <trkpt lat="45.63191" lon="4.57839">
        <ele>784.7</ele>
        <time>2018-05-06T07:31:03Z</time>
      </trkpt>
      <trkpt lat="45.63193" lon="4.57845">
        <ele>785.3</ele>
        <time>2018-05-06T07:31:06Z</time>
      </trkpt>
      <trkpt lat="45.63193" lon="4.57848">
        <ele>785.5</ele>
        <time>2018-05-06T07:31:07Z</time>
      </trkpt>
      <trkpt lat="45.63195" lon="4.57856">
        <ele>786.4</ele>
        <time>2018-05-06T07:31:11Z</time>
      </trkpt>
      <trkpt lat="45.63197" lon="4.57862">
        <ele>787</ele>
        <time>2018-05-06T07:31:14Z</time>
      </trkpt>
      <trkpt lat="45.63197" lon="4.57864">
        <ele>787.2</ele>
        <time>2018-05-06T07:31:15Z</time>
      </trkpt>
      <trkpt lat="45.63199" lon="4.57867">
        <ele>787.6</ele>
        <time>2018-05-06T07:31:17Z</time>
      </trkpt>
      <trkpt lat="45.632" lon="4.5787">
        <ele>788</ele>
        <time>2018-05-06T07:31:19Z</time>
      </trkpt>
      <trkpt lat="45.63201" lon="4.57872">
        <ele>788.2</ele>
        <time>2018-05-06T07:31:20Z</time>
      </trkpt>
      <trkpt lat="45.63203" lon="4.57876">
        <ele>788.8</ele>
        <time>2018-05-06T07:31:23Z</time>
      </trkpt>
      <trkpt lat="45.63207" lon="4.57886">
        <ele>790</ele>
        <time>2018-05-06T07:31:28Z</time>
      </trkpt>
      <trkpt lat="45.63207" lon="4.57889">
        <ele>790.2</ele>
        <time>2018-05-06T07:31:29Z</time>
      </trkpt>
      <trkpt lat="45.6321" lon="4.57896">
        <ele>791.1</ele>
        <time>2018-05-06T07:31:33Z</time>
      </trkpt>
      <trkpt lat="45.63213" lon="4.57902">
        <ele>791.8</ele>
        <time>2018-05-06T07:31:36Z</time>
      </trkpt>
      <trkpt lat="45.63216" lon="4.57913">
        <ele>792.9</ele>
        <time>2018-05-06T07:31:41Z</time>
      </trkpt>
      <trkpt lat="45.63218" lon="4.57919">
        <ele>793.5</ele>
        <time>2018-05-06T07:31:44Z</time>
      </trkpt>
      <trkpt lat="45.63219" lon="4.57924">
        <ele>794</ele>
        <time>2018-05-06T07:31:46Z</time>
      </trkpt>
      <trkpt lat="45.63222" lon="4.57935">
        <ele>795.2</ele>
        <time>2018-05-06T07:31:51Z</time>
      </trkpt>
      <trkpt lat="45.63225" lon="4.57943">
        <ele>796.2</ele>
        <time>2018-05-06T07:31:55Z</time>
      </trkpt>
      <trkpt lat="45.63227" lon="4.57947">
        <ele>796.7</ele>
        <time>2018-05-06T07:31:57Z</time>
      </trkpt>
      <trkpt lat="45.6323" lon="4.57956">
        <ele>797.7</ele>
        <time>2018-05-06T07:32:01Z</time>
      </trkpt>
      <trkpt lat="45.63232" lon="4.57963">
        <ele>798.4</ele>
        <time>2018-05-06T07:32:04Z</time>
      </trkpt>
      <trkpt lat="45.63233" lon="4.57967">
        <ele>798.8</ele>
        <time>2018-05-06T07:32:06Z</time>
      </trkpt>
      <trkpt lat="45.63238" lon="4.57979">
        <ele>800.1</ele>
        <time>2018-05-06T07:32:12Z</time>
      </trkpt>
      <trkpt lat="45.63238" lon="4.57981">
        <ele>800.3</ele>
        <time>2018-05-06T07:32:13Z</time>
      </trkpt>
      <trkpt lat="45.63241" lon="4.57989">
        <ele>801.1</ele>
        <time>2018-05-06T07:32:17Z</time>
      </trkpt>
      <trkpt lat="45.63243" lon="4.57993">
        <ele>801.5</ele>
        <time>2018-05-06T07:32:19Z</time>
      </trkpt>
      <trkpt lat="45.63245" lon="4.57999">
        <ele>802.1</ele>
        <time>2018-05-06T07:32:22Z</time>
      </trkpt>
      <trkpt lat="45.63248" lon="4.58009">
        <ele>803</ele>
        <time>2018-05-06T07:32:27Z</time>
      </trkpt>
      <trkpt lat="45.63251" lon="4.58016">
        <ele>803.8</ele>
        <time>2018-05-06T07:32:31Z</time>
      </trkpt>
      <trkpt lat="45.63253" lon="4.5802">
        <ele>804.1</ele>
        <time>2018-05-06T07:32:33Z</time>
      </trkpt>
      <trkpt lat="45.63254" lon="4.58024">
        <ele>804.5</ele>
        <time>2018-05-06T07:32:35Z</time>
      </trkpt>
      <trkpt lat="45.63256" lon="4.58033">
        <ele>805.2</ele>
        <time>2018-05-06T07:32:39Z</time>
      </trkpt>
      <trkpt lat="45.63257" lon="4.58036">
        <ele>805.6</ele>
        <time>2018-05-06T07:32:41Z</time>
      </trkpt>
      <trkpt lat="45.63259" lon="4.58038">
        <ele>805.9</ele>
        <time>2018-05-06T07:32:43Z</time>
      </trkpt>
      <trkpt lat="45.63264" lon="4.5804">
        <ele>805.9</ele>
        <time>2018-05-06T07:32:47Z</time>
      </trkpt>
      <trkpt lat="45.63265" lon="4.5804">
        <ele>805.8</ele>
        <time>2018-05-06T07:32:48Z</time>
      </trkpt>
      <trkpt lat="45.63274" lon="4.58035">
        <ele>805.6</ele>
        <time>2018-05-06T07:32:53Z</time>
      </trkpt>
      <trkpt lat="45.63281" lon="4.58032">
        <ele>805.5</ele>
        <time>2018-05-06T07:32:56Z</time>
      </trkpt>
      <trkpt lat="45.63294" lon="4.58023">
        <ele>805.3</ele>
        <time>2018-05-06T07:33:03Z</time>
      </trkpt>
      <trkpt lat="45.63312" lon="4.58011">
        <ele>805.1</ele>
        <time>2018-05-06T07:33:12Z</time>
      </trkpt>
      <trkpt lat="45.63314" lon="4.58009">
        <ele>805.1</ele>
        <time>2018-05-06T07:33:13Z</time>
      </trkpt>
      <trkpt lat="45.6333" lon="4.57997">
        <ele>804.9</ele>
        <time>2018-05-06T07:33:20Z</time>
      </trkpt>
      <trkpt lat="45.63347" lon="4.57979">
        <ele>804.8</ele>
        <time>2018-05-06T07:33:27Z</time>
      </trkpt>
      <trkpt lat="45.63367" lon="4.57957">
        <ele>804.6</ele>
        <time>2018-05-06T07:33:34Z</time>
      </trkpt>
      <trkpt lat="45.6339" lon="4.5794">
        <ele>804.2</ele>
        <time>2018-05-06T07:33:40Z</time>
      </trkpt>
      <trkpt lat="45.63419" lon="4.57925">
        <ele>803.7</ele>
        <time>2018-05-06T07:33:48Z</time>
      </trkpt>
      <trkpt lat="45.63443" lon="4.57921">
        <ele>803.4</ele>
        <time>2018-05-06T07:33:54Z</time>
      </trkpt>
      <trkpt lat="45.63446" lon="4.5792">
        <ele>803.3</ele>
        <time>2018-05-06T07:33:55Z</time>
      </trkpt>
      <trkpt lat="45.63465" lon="4.57918">
        <ele>803</ele>
        <time>2018-05-06T07:34:00Z</time>
      </trkpt>
      <trkpt lat="45.63478" lon="4.57918">
        <ele>802.7</ele>
        <time>2018-05-06T07:34:03Z</time>
      </trkpt>
      <trkpt lat="45.63488" lon="4.57921">
        <ele>802.5</ele>
        <time>2018-05-06T07:34:05Z</time>
      </trkpt>
      <trkpt lat="45.63499" lon="4.57925">
        <ele>802.2</ele>
        <time>2018-05-06T07:34:07Z</time>
      </trkpt>
      <trkpt lat="45.6351" lon="4.57935">
        <ele>801.9</ele>
        <time>2018-05-06T07:34:09Z</time>
      </trkpt>
      <trkpt lat="45.63525" lon="4.57967">
        <ele>801.4</ele>
        <time>2018-05-06T07:34:13Z</time>
      </trkpt>
      <trkpt lat="45.63528" lon="4.57976">
        <ele>801.3</ele>
        <time>2018-05-06T07:34:14Z</time>
      </trkpt>
      <trkpt lat="45.63536" lon="4.57998">
        <ele>800.9</ele>
        <time>2018-05-06T07:34:17Z</time>
      </trkpt>
      <trkpt lat="45.6354" lon="4.58">
        <ele>800.7</ele>
        <time>2018-05-06T07:34:18Z</time>
      </trkpt>
      <trkpt lat="45.63553" lon="4.57993">
        <ele>800.2</ele>
        <time>2018-05-06T07:34:21Z</time>
      </trkpt>
      <trkpt lat="45.63567" lon="4.57983">
        <ele>799.7</ele>
        <time>2018-05-06T07:34:24Z</time>
      </trkpt>
      <trkpt lat="45.63579" lon="4.57971">
        <ele>799.4</ele>
        <time>2018-05-06T07:34:27Z</time>
      </trkpt>
      <trkpt lat="45.63587" lon="4.57959">
        <ele>799.1</ele>
        <time>2018-05-06T07:34:30Z</time>
      </trkpt>
      <trkpt lat="45.63593" lon="4.57951">
        <ele>798.9</ele>
        <time>2018-05-06T07:34:32Z</time>
      </trkpt>
      <trkpt lat="45.63597" lon="4.57947">
        <ele>798.8</ele>
        <time>2018-05-06T07:34:33Z</time>
      </trkpt>
      <trkpt lat="45.63607" lon="4.57931">
        <ele>798.6</ele>
        <time>2018-05-06T07:34:37Z</time>
      </trkpt>
      <trkpt lat="45.63609" lon="4.57926">
        <ele>798.5</ele>
        <time>2018-05-06T07:34:38Z</time>
      </trkpt>
      <trkpt lat="45.63612" lon="4.57898">
        <ele>798.3</ele>
        <time>2018-05-06T07:34:43Z</time>
      </trkpt>
      <trkpt lat="45.6362" lon="4.57866">
        <ele>798.2</ele>
        <time>2018-05-06T07:34:48Z</time>
      </trkpt>
      <trkpt lat="45.63623" lon="4.57861">
        <ele>798.2</ele>
        <time>2018-05-06T07:34:49Z</time>
      </trkpt>
      <trkpt lat="45.63638" lon="4.57829">
        <ele>797.7</ele>
        <time>2018-05-06T07:34:55Z</time>
      </trkpt>
      <trkpt lat="45.63652" lon="4.57798">
        <ele>797.2</ele>
        <time>2018-05-06T07:35:01Z</time>
      </trkpt>
      <trkpt lat="45.63666" lon="4.57788">
        <ele>797.5</ele>
        <time>2018-05-06T07:35:06Z</time>
      </trkpt>
      <trkpt lat="45.63667" lon="4.57786">
        <ele>797.6</ele>
        <time>2018-05-06T07:35:07Z</time>
      </trkpt>
      <trkpt lat="45.63675" lon="4.5778">
        <ele>798</ele>
        <time>2018-05-06T07:35:11Z</time>
      </trkpt>
      <trkpt lat="45.63687" lon="4.57766">
        <ele>798.9</ele>
        <time>2018-05-06T07:35:19Z</time>
      </trkpt>
      <trkpt lat="45.63689" lon="4.57765">
        <ele>799</ele>
        <time>2018-05-06T07:35:20Z</time>
      </trkpt>
      <trkpt lat="45.63694" lon="4.57761">
        <ele>799.4</ele>
        <time>2018-05-06T07:35:23Z</time>
      </trkpt>
      <trkpt lat="45.63699" lon="4.57755">
        <ele>799.8</ele>
        <time>2018-05-06T07:35:27Z</time>
      </trkpt>
      <trkpt lat="45.63703" lon="4.57748">
        <ele>800.2</ele>
        <time>2018-05-06T07:35:31Z</time>
      </trkpt>
      <trkpt lat="45.63704" lon="4.57744">
        <ele>800.8</ele>
        <time>2018-05-06T07:35:33Z</time>
      </trkpt>
      <trkpt lat="45.63706" lon="4.57739">
        <ele>801.6</ele>
        <time>2018-05-06T07:35:35Z</time>
      </trkpt>
      <trkpt lat="45.63712" lon="4.57728">
        <ele>803.5</ele>
        <time>2018-05-06T07:35:39Z</time>
      </trkpt>
      <trkpt lat="45.63713" lon="4.57725">
        <ele>803.8</ele>
        <time>2018-05-06T07:35:40Z</time>
      </trkpt>
      <trkpt lat="45.63718" lon="4.57716">
        <ele>804.3</ele>
        <time>2018-05-06T07:35:44Z</time>
      </trkpt>
      <trkpt lat="45.63723" lon="4.577">
        <ele>805</ele>
        <time>2018-05-06T07:35:48Z</time>
      </trkpt>
      <trkpt lat="45.63726" lon="4.57668">
        <ele>806</ele>
        <time>2018-05-06T07:35:56Z</time>
      </trkpt>
      <trkpt lat="45.63727" lon="4.57635">
        <ele>806.9</ele>
        <time>2018-05-06T07:36:04Z</time>
      </trkpt>
      <trkpt lat="45.63728" lon="4.57619">
        <ele>807.4</ele>
        <time>2018-05-06T07:36:08Z</time>
      </trkpt>
      <trkpt lat="45.6373" lon="4.57607">
        <ele>807.8</ele>
        <time>2018-05-06T07:36:11Z</time>
      </trkpt>
      <trkpt lat="45.63737" lon="4.57587">
        <ele>813</ele>
        <time>2018-05-06T07:36:17Z</time>
      </trkpt>
      <trkpt lat="45.63743" lon="4.57576">
        <ele>815.3</ele>
        <time>2018-05-06T07:36:20Z</time>
      </trkpt>
      <trkpt lat="45.6375" lon="4.57562">
        <ele>819.2</ele>
        <time>2018-05-06T07:36:24Z</time>
      </trkpt>
      <trkpt lat="45.63758" lon="4.57548">
        <ele>823</ele>
        <time>2018-05-06T07:36:28Z</time>
      </trkpt>
      <trkpt lat="45.63763" lon="4.57537">
        <ele>823</ele>
        <time>2018-05-06T07:36:31Z</time>
      </trkpt>
      <trkpt lat="45.63781" lon="4.57508">
        <ele>821.8</ele>
        <time>2018-05-06T07:36:37Z</time>
      </trkpt>
      <trkpt lat="45.63809" lon="4.57477">
        <ele>819.3</ele>
        <time>2018-05-06T07:36:42Z</time>
      </trkpt>
      <trkpt lat="45.63814" lon="4.57472">
        <ele>818.8</ele>
        <time>2018-05-06T07:36:43Z</time>
      </trkpt>
      <trkpt lat="45.63833" lon="4.57465">
        <ele>816.3</ele>
        <time>2018-05-06T07:36:46Z</time>
      </trkpt>
      <trkpt lat="45.63854" lon="4.57459">
        <ele>812.6</ele>
        <time>2018-05-06T07:36:49Z</time>
      </trkpt>
      <trkpt lat="45.63871" lon="4.57456">
        <ele>809.5</ele>
        <time>2018-05-06T07:36:51Z</time>
      </trkpt>
      <trkpt lat="45.6388" lon="4.57457">
        <ele>807.7</ele>
        <time>2018-05-06T07:36:52Z</time>
      </trkpt>
      <trkpt lat="45.63898" lon="4.5746">
        <ele>804.9</ele>
        <time>2018-05-06T07:36:54Z</time>
      </trkpt>
      <trkpt lat="45.63907" lon="4.57463">
        <ele>804</ele>
        <time>2018-05-06T07:36:55Z</time>
      </trkpt>
      <trkpt lat="45.63924" lon="4.57469">
        <ele>801.8</ele>
        <time>2018-05-06T07:36:57Z</time>
      </trkpt>
      <trkpt lat="45.6394" lon="4.57472">
        <ele>799.5</ele>
        <time>2018-05-06T07:36:59Z</time>
      </trkpt>
      <trkpt lat="45.63954" lon="4.57473">
        <ele>797</ele>
        <time>2018-05-06T07:37:01Z</time>
      </trkpt>
      <trkpt lat="45.63966" lon="4.57475">
        <ele>795.7</ele>
        <time>2018-05-06T07:37:03Z</time>
      </trkpt>
      <trkpt lat="45.63977" lon="4.57478">
        <ele>793.3</ele>
        <time>2018-05-06T07:37:05Z</time>
      </trkpt>
      <trkpt lat="45.63987" lon="4.57485">
        <ele>793</ele>
        <time>2018-05-06T07:37:07Z</time>
      </trkpt>
      <trkpt lat="45.63995" lon="4.57494">
        <ele>793.3</ele>
        <time>2018-05-06T07:37:09Z</time>
      </trkpt>
      <trkpt lat="45.64" lon="4.575">
        <ele>793.3</ele>
        <time>2018-05-06T07:37:10Z</time>
      </trkpt>
      <trkpt lat="45.64004" lon="4.57505">
        <ele>793.2</ele>
        <time>2018-05-06T07:37:11Z</time>
      </trkpt>
      <trkpt lat="45.64009" lon="4.57508">
        <ele>792.7</ele>
        <time>2018-05-06T07:37:12Z</time>
      </trkpt>
      <trkpt lat="45.64015" lon="4.57508">
        <ele>792.8</ele>
        <time>2018-05-06T07:37:13Z</time>
      </trkpt>
      <trkpt lat="45.6403" lon="4.57507">
        <ele>791.1</ele>
        <time>2018-05-06T07:37:15Z</time>
      </trkpt>
      <trkpt lat="45.64044" lon="4.57506">
        <ele>789</ele>
        <time>2018-05-06T07:37:17Z</time>
      </trkpt>
      <trkpt lat="45.64052" lon="4.57507">
        <ele>788.4</ele>
        <time>2018-05-06T07:37:18Z</time>
      </trkpt>
      <trkpt lat="45.6406" lon="4.57508">
        <ele>788.1</ele>
        <time>2018-05-06T07:37:19Z</time>
      </trkpt>
      <trkpt lat="45.64076" lon="4.57511">
        <ele>787.8</ele>
        <time>2018-05-06T07:37:21Z</time>
      </trkpt>
      <trkpt lat="45.64092" lon="4.57509">
        <ele>787.1</ele>
        <time>2018-05-06T07:37:23Z</time>
      </trkpt>
      <trkpt lat="45.64108" lon="4.57501">
        <ele>785.5</ele>
        <time>2018-05-06T07:37:25Z</time>
      </trkpt>
      <trkpt lat="45.64126" lon="4.57491">
        <ele>782.8</ele>
        <time>2018-05-06T07:37:27Z</time>
      </trkpt>
      <trkpt lat="45.64149" lon="4.57477">
        <ele>779.3</ele>
        <time>2018-05-06T07:37:30Z</time>
      </trkpt>
      <trkpt lat="45.64163" lon="4.57468">
        <ele>778.1</ele>
        <time>2018-05-06T07:37:32Z</time>
      </trkpt>
      <trkpt lat="45.6417" lon="4.57463">
        <ele>777.8</ele>
        <time>2018-05-06T07:37:33Z</time>
      </trkpt>
      <trkpt lat="45.64186" lon="4.57457">
        <ele>776.6</ele>
        <time>2018-05-06T07:37:35Z</time>
      </trkpt>
      <trkpt lat="45.64194" lon="4.57455">
        <ele>776.2</ele>
        <time>2018-05-06T07:37:36Z</time>
      </trkpt>
      <trkpt lat="45.64202" lon="4.57452">
        <ele>775.9</ele>
        <time>2018-05-06T07:37:37Z</time>
      </trkpt>
      <trkpt lat="45.64219" lon="4.57447">
        <ele>775.7</ele>
        <time>2018-05-06T07:37:39Z</time>
      </trkpt>
      <trkpt lat="45.64236" lon="4.57441">
        <ele>775.5</ele>
        <time>2018-05-06T07:37:41Z</time>
      </trkpt>
      <trkpt lat="45.64253" lon="4.57433">
        <ele>775.7</ele>
        <time>2018-05-06T07:37:43Z</time>
      </trkpt>
      <trkpt lat="45.64268" lon="4.57428">
        <ele>776.2</ele>
        <time>2018-05-06T07:37:45Z</time>
      </trkpt>
      <trkpt lat="45.64273" lon="4.57427">
        <ele>776.5</ele>
        <time>2018-05-06T07:37:46Z</time>
      </trkpt>
      <trkpt lat="45.64276" lon="4.57427">
        <ele>776.7</ele>
        <time>2018-05-06T07:37:47Z</time>
      </trkpt>
      <trkpt lat="45.64281" lon="4.57429">
        <ele>778.2</ele>
        <time>2018-05-06T07:37:49Z</time>
      </trkpt>
      <trkpt lat="45.64283" lon="4.57431">
        <ele>778.6</ele>
        <time>2018-05-06T07:37:50Z</time>
      </trkpt>
      <trkpt lat="45.64284" lon="4.57438">
        <ele>779.4</ele>
        <time>2018-05-06T07:37:53Z</time>
      </trkpt>
      <trkpt lat="45.64286" lon="4.57443">
        <ele>780</ele>
        <time>2018-05-06T07:37:55Z</time>
      </trkpt>
      <trkpt lat="45.64287" lon="4.57448">
        <ele>780.5</ele>
        <time>2018-05-06T07:37:57Z</time>
      </trkpt>
      <trkpt lat="45.64288" lon="4.5745">
        <ele>780.7</ele>
        <time>2018-05-06T07:37:58Z</time>
      </trkpt>
      <trkpt lat="45.6429" lon="4.57454">
        <ele>781.2</ele>
        <time>2018-05-06T07:38:00Z</time>
      </trkpt>
      <trkpt lat="45.64295" lon="4.57467">
        <ele>782.8</ele>
        <time>2018-05-06T07:38:05Z</time>
      </trkpt>
      <trkpt lat="45.64304" lon="4.57483">
        <ele>784.7</ele>
        <time>2018-05-06T07:38:13Z</time>
      </trkpt>
      <trkpt lat="45.64317" lon="4.575">
        <ele>786.6</ele>
        <time>2018-05-06T07:38:23Z</time>
      </trkpt>
      <trkpt lat="45.64326" lon="4.57516">
        <ele>787.9</ele>
        <time>2018-05-06T07:38:31Z</time>
      </trkpt>
      <trkpt lat="45.64328" lon="4.57521">
        <ele>788.2</ele>
        <time>2018-05-06T07:38:33Z</time>
      </trkpt>
      <trkpt lat="45.64333" lon="4.57536">
        <ele>789.1</ele>
        <time>2018-05-06T07:38:38Z</time>
      </trkpt>
      <trkpt lat="45.64334" lon="4.57539">
        <ele>789.3</ele>
        <time>2018-05-06T07:38:39Z</time>
      </trkpt>
      <trkpt lat="45.64339" lon="4.57561">
        <ele>790.4</ele>
        <time>2018-05-06T07:38:46Z</time>
      </trkpt>
      <trkpt lat="45.6434" lon="4.57565">
        <ele>790.6</ele>
        <time>2018-05-06T07:38:47Z</time>
      </trkpt>
      <trkpt lat="45.64342" lon="4.57587">
        <ele>791.7</ele>
        <time>2018-05-06T07:38:54Z</time>
      </trkpt>
      <trkpt lat="45.64341" lon="4.57609">
        <ele>792.7</ele>
        <time>2018-05-06T07:39:01Z</time>
      </trkpt>
      <trkpt lat="45.64341" lon="4.57638">
        <ele>794.6</ele>
        <time>2018-05-06T07:39:10Z</time>
      </trkpt>
      <trkpt lat="45.64339" lon="4.57653">
        <ele>795.6</ele>
        <time>2018-05-06T07:39:14Z</time>
      </trkpt>
      <trkpt lat="45.64336" lon="4.5767">
        <ele>796.6</ele>
        <time>2018-05-06T07:39:19Z</time>
      </trkpt>
      <trkpt lat="45.64334" lon="4.57677">
        <ele>797</ele>
        <time>2018-05-06T07:39:21Z</time>
      </trkpt>
      <trkpt lat="45.64334" lon="4.57685">
        <ele>797.6</ele>
        <time>2018-05-06T07:39:24Z</time>
      </trkpt>
      <trkpt lat="45.64336" lon="4.57701">
        <ele>798.7</ele>
        <time>2018-05-06T07:39:29Z</time>
      </trkpt>
      <trkpt lat="45.64334" lon="4.57711">
        <ele>799.4</ele>
        <time>2018-05-06T07:39:32Z</time>
      </trkpt>
      <trkpt lat="45.64326" lon="4.57729">
        <ele>801</ele>
        <time>2018-05-06T07:39:39Z</time>
      </trkpt>
      <trkpt lat="45.64324" lon="4.5774">
        <ele>801.9</ele>
        <time>2018-05-06T07:39:44Z</time>
      </trkpt>
      <trkpt lat="45.64323" lon="4.57745">
        <ele>802.3</ele>
        <time>2018-05-06T07:39:46Z</time>
      </trkpt>
      <trkpt lat="45.64322" lon="4.57756">
        <ele>803.3</ele>
        <time>2018-05-06T07:39:50Z</time>
      </trkpt>
      <trkpt lat="45.64322" lon="4.5776">
        <ele>803.7</ele>
        <time>2018-05-06T07:39:52Z</time>
      </trkpt>
      <trkpt lat="45.64322" lon="4.57762">
        <ele>803.9</ele>
        <time>2018-05-06T07:39:53Z</time>
      </trkpt>
      <trkpt lat="45.64323" lon="4.57765">
        <ele>804.2</ele>
        <time>2018-05-06T07:39:54Z</time>
      </trkpt>
      <trkpt lat="45.64323" lon="4.57777">
        <ele>805.5</ele>
        <time>2018-05-06T07:39:59Z</time>
      </trkpt>
      <trkpt lat="45.64324" lon="4.57788">
        <ele>806.8</ele>
        <time>2018-05-06T07:40:04Z</time>
      </trkpt>
      <trkpt lat="45.64324" lon="4.57793">
        <ele>807.3</ele>
        <time>2018-05-06T07:40:06Z</time>
      </trkpt>
      <trkpt lat="45.64325" lon="4.578">
        <ele>807.9</ele>
        <time>2018-05-06T07:40:09Z</time>
      </trkpt>
      <trkpt lat="45.64325" lon="4.57802">
        <ele>808.1</ele>
        <time>2018-05-06T07:40:10Z</time>
      </trkpt>
      <trkpt lat="45.64325" lon="4.57807">
        <ele>808.6</ele>
        <time>2018-05-06T07:40:13Z</time>
      </trkpt>
      <trkpt lat="45.64325" lon="4.57815">
        <ele>809.2</ele>
        <time>2018-05-06T07:40:17Z</time>
      </trkpt>
      <trkpt lat="45.64326" lon="4.57821">
        <ele>809.7</ele>
        <time>2018-05-06T07:40:20Z</time>
      </trkpt>
      <trkpt lat="45.64327" lon="4.57831">
        <ele>810.8</ele>
        <time>2018-05-06T07:40:25Z</time>
      </trkpt>
      <trkpt lat="45.64327" lon="4.57838">
        <ele>811.5</ele>
        <time>2018-05-06T07:40:28Z</time>
      </trkpt>
      <trkpt lat="45.64327" lon="4.57842">
        <ele>811.9</ele>
        <time>2018-05-06T07:40:30Z</time>
      </trkpt>
      <trkpt lat="45.64329" lon="4.57854">
        <ele>813.1</ele>
        <time>2018-05-06T07:40:36Z</time>
      </trkpt>
      <trkpt lat="45.64329" lon="4.57861">
        <ele>813.8</ele>
        <time>2018-05-06T07:40:39Z</time>
      </trkpt>
      <trkpt lat="45.6433" lon="4.57869">
        <ele>814.6</ele>
        <time>2018-05-06T07:40:42Z</time>
      </trkpt>
      <trkpt lat="45.6433" lon="4.57873">
        <ele>815</ele>
        <time>2018-05-06T07:40:44Z</time>
      </trkpt>
      <trkpt lat="45.64331" lon="4.5788">
        <ele>815.6</ele>
        <time>2018-05-06T07:40:47Z</time>
      </trkpt>
      <trkpt lat="45.64332" lon="4.57882">
        <ele>815.8</ele>
        <time>2018-05-06T07:40:48Z</time>
      </trkpt>
      <trkpt lat="45.64332" lon="4.57884">
        <ele>816</ele>
        <time>2018-05-06T07:40:49Z</time>
      </trkpt>
      <trkpt lat="45.64333" lon="4.57898">
        <ele>817.7</ele>
        <time>2018-05-06T07:40:55Z</time>
      </trkpt>
      <trkpt lat="45.64333" lon="4.57901">
        <ele>818.1</ele>
        <time>2018-05-06T07:40:58Z</time>
      </trkpt>
      <trkpt lat="45.64333" lon="4.57905">
        <ele>818.5</ele>
        <time>2018-05-06T07:41:00Z</time>
      </trkpt>
      <trkpt lat="45.64333" lon="4.57907">
        <ele>818.8</ele>
        <time>2018-05-06T07:41:01Z</time>
      </trkpt>
      <trkpt lat="45.64335" lon="4.57914">
        <ele>819.5</ele>
        <time>2018-05-06T07:41:04Z</time>
      </trkpt>
      <trkpt lat="45.64336" lon="4.57918">
        <ele>819.9</ele>
        <time>2018-05-06T07:41:06Z</time>
      </trkpt>
      <trkpt lat="45.64336" lon="4.5792">
        <ele>820.1</ele>
        <time>2018-05-06T07:41:07Z</time>
      </trkpt>
      <trkpt lat="45.64337" lon="4.57927">
        <ele>820.9</ele>
        <time>2018-05-06T07:41:11Z</time>
      </trkpt>
      <trkpt lat="45.64336" lon="4.57937">
        <ele>822.5</ele>
        <time>2018-05-06T07:41:17Z</time>
      </trkpt>
      <trkpt lat="45.64337" lon="4.57947">
        <ele>823.7</ele>
        <time>2018-05-06T07:41:24Z</time>
      </trkpt>
      <trkpt lat="45.64336" lon="4.57948">
        <ele>823.8</ele>
        <time>2018-05-06T07:41:25Z</time>
      </trkpt>
      <trkpt lat="45.64336" lon="4.5795">
        <ele>824</ele>
        <time>2018-05-06T07:41:26Z</time>
      </trkpt>
      <trkpt lat="45.64336" lon="4.57952">
        <ele>824.2</ele>
        <time>2018-05-06T07:41:27Z</time>
      </trkpt>
      <trkpt lat="45.64334" lon="4.57956">
        <ele>824.8</ele>
        <time>2018-05-06T07:41:30Z</time>
      </trkpt>
      <trkpt lat="45.64293" lon="4.57969">
        <ele>834.6</ele>
        <time>2018-05-06T07:42:46Z</time>
      </trkpt>
      <trkpt lat="45.64288" lon="4.57969">
        <ele>835.8</ele>
        <time>2018-05-06T07:42:50Z</time>
      </trkpt>
      <trkpt lat="45.64279" lon="4.57971">
        <ele>837.7</ele>
        <time>2018-05-06T07:42:56Z</time>
      </trkpt>
      <trkpt lat="45.64277" lon="4.57971">
        <ele>837.9</ele>
        <time>2018-05-06T07:42:57Z</time>
      </trkpt>
      <trkpt lat="45.64268" lon="4.57972">
        <ele>839.2</ele>
        <time>2018-05-06T07:43:02Z</time>
      </trkpt>
      <trkpt lat="45.64265" lon="4.57972">
        <ele>839.6</ele>
        <time>2018-05-06T07:43:04Z</time>
      </trkpt>
      <trkpt lat="45.64256" lon="4.57979">
        <ele>840.8</ele>
        <time>2018-05-06T07:43:10Z</time>
      </trkpt>
      <trkpt lat="45.64247" lon="4.57988">
        <ele>842</ele>
        <time>2018-05-06T07:43:16Z</time>
      </trkpt>
      <trkpt lat="45.64246" lon="4.57992">
        <ele>842.3</ele>
        <time>2018-05-06T07:43:18Z</time>
      </trkpt>
      <trkpt lat="45.64245" lon="4.57999">
        <ele>844.6</ele>
        <time>2018-05-06T07:43:21Z</time>
      </trkpt>
      <trkpt lat="45.64246" lon="4.58008">
        <ele>845.8</ele>
        <time>2018-05-06T07:43:24Z</time>
      </trkpt>
      <trkpt lat="45.64245" lon="4.58014">
        <ele>847.4</ele>
        <time>2018-05-06T07:43:27Z</time>
      </trkpt>
      <trkpt lat="45.64244" lon="4.58015">
        <ele>847.5</ele>
        <time>2018-05-06T07:43:28Z</time>
      </trkpt>
      <trkpt lat="45.64241" lon="4.58016">
        <ele>847.8</ele>
        <time>2018-05-06T07:43:30Z</time>
      </trkpt>
      <trkpt lat="45.64236" lon="4.58018">
        <ele>848.4</ele>
        <time>2018-05-06T07:43:34Z</time>
      </trkpt>
      <trkpt lat="45.64235" lon="4.58019">
        <ele>848.6</ele>
        <time>2018-05-06T07:43:35Z</time>
      </trkpt>
      <trkpt lat="45.6423" lon="4.58026">
        <ele>849.3</ele>
        <time>2018-05-06T07:43:39Z</time>
      </trkpt>
      <trkpt lat="45.64227" lon="4.58032">
        <ele>850</ele>
        <time>2018-05-06T07:43:42Z</time>
      </trkpt>
      <trkpt lat="45.64224" lon="4.58038">
        <ele>850.5</ele>
        <time>2018-05-06T07:43:45Z</time>
      </trkpt>
      <trkpt lat="45.64221" lon="4.58045">
        <ele>850.9</ele>
        <time>2018-05-06T07:43:49Z</time>
      </trkpt>
      <trkpt lat="45.64221" lon="4.58053">
        <ele>851.3</ele>
        <time>2018-05-06T07:43:53Z</time>
      </trkpt>
      <trkpt lat="45.6422" lon="4.58057">
        <ele>851.6</ele>
        <time>2018-05-06T07:43:56Z</time>
      </trkpt>
      <trkpt lat="45.64221" lon="4.58068">
        <ele>852</ele>
        <time>2018-05-06T07:44:02Z</time>
      </trkpt>
      <trkpt lat="45.64221" lon="4.58074">
        <ele>852.2</ele>
        <time>2018-05-06T07:44:05Z</time>
      </trkpt>
      <trkpt lat="45.64221" lon="4.58079">
        <ele>852.5</ele>
        <time>2018-05-06T07:44:08Z</time>
      </trkpt>
      <trkpt lat="45.64221" lon="4.58081">
        <ele>852.5</ele>
        <time>2018-05-06T07:44:09Z</time>
      </trkpt>
      <trkpt lat="45.64222" lon="4.58086">
        <ele>852.8</ele>
        <time>2018-05-06T07:44:12Z</time>
      </trkpt>
      <trkpt lat="45.64221" lon="4.58097">
        <ele>853.3</ele>
        <time>2018-05-06T07:44:18Z</time>
      </trkpt>
      <trkpt lat="45.6422" lon="4.58105">
        <ele>853.6</ele>
        <time>2018-05-06T07:44:22Z</time>
      </trkpt>
      <trkpt lat="45.64219" lon="4.58114">
        <ele>854.1</ele>
        <time>2018-05-06T07:44:26Z</time>
      </trkpt>
      <trkpt lat="45.64217" lon="4.58121">
        <ele>854.5</ele>
        <time>2018-05-06T07:44:30Z</time>
      </trkpt>
      <trkpt lat="45.64216" lon="4.58125">
        <ele>854.7</ele>
        <time>2018-05-06T07:44:32Z</time>
      </trkpt>
      <trkpt lat="45.64214" lon="4.58134">
        <ele>855.2</ele>
        <time>2018-05-06T07:44:37Z</time>
      </trkpt>
      <trkpt lat="45.64213" lon="4.58138">
        <ele>855.4</ele>
        <time>2018-05-06T07:44:39Z</time>
      </trkpt>
      <trkpt lat="45.64212" lon="4.5814">
        <ele>855.5</ele>
        <time>2018-05-06T07:44:40Z</time>
      </trkpt>
      <trkpt lat="45.64208" lon="4.58156">
        <ele>856.7</ele>
        <time>2018-05-06T07:44:48Z</time>
      </trkpt>
      <trkpt lat="45.6421" lon="4.58167">
        <ele>858.7</ele>
        <time>2018-05-06T07:44:53Z</time>
      </trkpt>
      <trkpt lat="45.6421" lon="4.5817">
        <ele>859.2</ele>
        <time>2018-05-06T07:44:54Z</time>
      </trkpt>
      <trkpt lat="45.64207" lon="4.58187">
        <ele>862.5</ele>
        <time>2018-05-06T07:44:59Z</time>
      </trkpt>
      <trkpt lat="45.64205" lon="4.58192">
        <ele>863.6</ele>
        <time>2018-05-06T07:45:01Z</time>
      </trkpt>
      <trkpt lat="45.64204" lon="4.58198">
        <ele>864.5</ele>
        <time>2018-05-06T07:45:03Z</time>
      </trkpt>
      <trkpt lat="45.64202" lon="4.58206">
        <ele>866.1</ele>
        <time>2018-05-06T07:45:06Z</time>
      </trkpt>
      <trkpt lat="45.64198" lon="4.58218">
        <ele>868.3</ele>
        <time>2018-05-06T07:45:10Z</time>
      </trkpt>
      <trkpt lat="45.64194" lon="4.58226">
        <ele>869.5</ele>
        <time>2018-05-06T07:45:13Z</time>
      </trkpt>
      <trkpt lat="45.64193" lon="4.58229">
        <ele>869.8</ele>
        <time>2018-05-06T07:45:14Z</time>
      </trkpt>
      <trkpt lat="45.64191" lon="4.58249">
        <ele>871.7</ele>
        <time>2018-05-06T07:45:20Z</time>
      </trkpt>
      <trkpt lat="45.64191" lon="4.58258">
        <ele>872.4</ele>
        <time>2018-05-06T07:45:22Z</time>
      </trkpt>
      <trkpt lat="45.64189" lon="4.58275">
        <ele>873.4</ele>
        <time>2018-05-06T07:45:27Z</time>
      </trkpt>
      <trkpt lat="45.64184" lon="4.58294">
        <ele>874.6</ele>
        <time>2018-05-06T07:45:32Z</time>
      </trkpt>
      <trkpt lat="45.64184" lon="4.583">
        <ele>874.9</ele>
        <time>2018-05-06T07:45:33Z</time>
      </trkpt>
      <trkpt lat="45.64181" lon="4.58311">
        <ele>875.4</ele>
        <time>2018-05-06T07:45:35Z</time>
      </trkpt>
      <trkpt lat="45.64177" lon="4.58331">
        <ele>876.3</ele>
        <time>2018-05-06T07:45:38Z</time>
      </trkpt>
      <trkpt lat="45.64176" lon="4.58337">
        <ele>876.6</ele>
        <time>2018-05-06T07:45:39Z</time>
      </trkpt>
      <trkpt lat="45.64171" lon="4.58371">
        <ele>878.5</ele>
        <time>2018-05-06T07:45:45Z</time>
      </trkpt>
      <trkpt lat="45.6417" lon="4.58376">
        <ele>878.8</ele>
        <time>2018-05-06T07:45:46Z</time>
      </trkpt>
      <trkpt lat="45.64167" lon="4.58398">
        <ele>880</ele>
        <time>2018-05-06T07:45:50Z</time>
      </trkpt>
      <trkpt lat="45.64163" lon="4.58415">
        <ele>881.1</ele>
        <time>2018-05-06T07:45:53Z</time>
      </trkpt>
      <trkpt lat="45.64164" lon="4.58435">
        <ele>882</ele>
        <time>2018-05-06T07:45:56Z</time>
      </trkpt>
      <trkpt lat="45.64167" lon="4.58444">
        <ele>880</ele>
        <time>2018-05-06T07:45:57Z</time>
      </trkpt>
      <trkpt lat="45.64172" lon="4.58454">
        <ele>876.7</ele>
        <time>2018-05-06T07:45:58Z</time>
      </trkpt>
      <trkpt lat="45.64181" lon="4.58472">
        <ele>870.4</ele>
        <time>2018-05-06T07:46:00Z</time>
      </trkpt>
      <trkpt lat="45.64185" lon="4.5848">
        <ele>867.8</ele>
        <time>2018-05-06T07:46:01Z</time>
      </trkpt>
      <trkpt lat="45.64189" lon="4.58489">
        <ele>865.1</ele>
        <time>2018-05-06T07:46:02Z</time>
      </trkpt>
      <trkpt lat="45.64197" lon="4.58505">
        <ele>860.7</ele>
        <time>2018-05-06T07:46:04Z</time>
      </trkpt>
      <trkpt lat="45.64201" lon="4.58513">
        <ele>858.2</ele>
        <time>2018-05-06T07:46:05Z</time>
      </trkpt>
      <trkpt lat="45.64204" lon="4.58521">
        <ele>856.4</ele>
        <time>2018-05-06T07:46:06Z</time>
      </trkpt>
      <trkpt lat="45.64207" lon="4.58529">
        <ele>854.5</ele>
        <time>2018-05-06T07:46:07Z</time>
      </trkpt>
      <trkpt lat="45.64211" lon="4.58547">
        <ele>852.7</ele>
        <time>2018-05-06T07:46:09Z</time>
      </trkpt>
      <trkpt lat="45.64212" lon="4.58556">
        <ele>853.5</ele>
        <time>2018-05-06T07:46:10Z</time>
      </trkpt>
      <trkpt lat="45.6421" lon="4.58573">
        <ele>854.2</ele>
        <time>2018-05-06T07:46:12Z</time>
      </trkpt>
      <trkpt lat="45.64209" lon="4.58588">
        <ele>854.9</ele>
        <time>2018-05-06T07:46:14Z</time>
      </trkpt>
      <trkpt lat="45.64208" lon="4.58595">
        <ele>855.2</ele>
        <time>2018-05-06T07:46:15Z</time>
      </trkpt>
      <trkpt lat="45.64207" lon="4.58607">
        <ele>855.7</ele>
        <time>2018-05-06T07:46:17Z</time>
      </trkpt>
      <trkpt lat="45.64207" lon="4.58618">
        <ele>856.1</ele>
        <time>2018-05-06T07:46:19Z</time>
      </trkpt>
      <trkpt lat="45.64211" lon="4.58635">
        <ele>856.3</ele>
        <time>2018-05-06T07:46:22Z</time>
      </trkpt>
      <trkpt lat="45.64216" lon="4.58649">
        <ele>856.3</ele>
        <time>2018-05-06T07:46:24Z</time>
      </trkpt>
      <trkpt lat="45.6422" lon="4.58657">
        <ele>856.3</ele>
        <time>2018-05-06T07:46:25Z</time>
      </trkpt>
      <trkpt lat="45.64224" lon="4.58664">
        <ele>856.3</ele>
        <time>2018-05-06T07:46:26Z</time>
      </trkpt>
      <trkpt lat="45.64234" lon="4.58676">
        <ele>856.2</ele>
        <time>2018-05-06T07:46:28Z</time>
      </trkpt>
      <trkpt lat="45.64245" lon="4.58687">
        <ele>856.1</ele>
        <time>2018-05-06T07:46:30Z</time>
      </trkpt>
      <trkpt lat="45.6425" lon="4.587">
        <ele>856</ele>
        <time>2018-05-06T07:46:32Z</time>
      </trkpt>
      <trkpt lat="45.64249" lon="4.58708">
        <ele>856</ele>
        <time>2018-05-06T07:46:35Z</time>
      </trkpt>
      <trkpt lat="45.64247" lon="4.58714">
        <ele>856</ele>
        <time>2018-05-06T07:46:38Z</time>
      </trkpt>
      <trkpt lat="45.64246" lon="4.58726">
        <ele>856</ele>
        <time>2018-05-06T07:46:42Z</time>
      </trkpt>
      <trkpt lat="45.64242" lon="4.58742">
        <ele>856</ele>
        <time>2018-05-06T07:46:48Z</time>
      </trkpt>
      <trkpt lat="45.6424" lon="4.58746">
        <ele>856.2</ele>
        <time>2018-05-06T07:46:50Z</time>
      </trkpt>
      <trkpt lat="45.64233" lon="4.58754">
        <ele>857</ele>
        <time>2018-05-06T07:46:55Z</time>
      </trkpt>
      <trkpt lat="45.6423" lon="4.58758">
        <ele>857.4</ele>
        <time>2018-05-06T07:46:58Z</time>
      </trkpt>
      <trkpt lat="45.64228" lon="4.58759">
        <ele>857.6</ele>
        <time>2018-05-06T07:46:59Z</time>
      </trkpt>
      <trkpt lat="45.64226" lon="4.58762">
        <ele>857.8</ele>
        <time>2018-05-06T07:47:01Z</time>
      </trkpt>
      <trkpt lat="45.64217" lon="4.58768">
        <ele>858.6</ele>
        <time>2018-05-06T07:47:07Z</time>
      </trkpt>
      <trkpt lat="45.64213" lon="4.5877">
        <ele>859.1</ele>
        <time>2018-05-06T07:47:10Z</time>
      </trkpt>
      <trkpt lat="45.64205" lon="4.58775">
        <ele>859.8</ele>
        <time>2018-05-06T07:47:15Z</time>
      </trkpt>
      <trkpt lat="45.64199" lon="4.58777">
        <ele>860.4</ele>
        <time>2018-05-06T07:47:19Z</time>
      </trkpt>
      <trkpt lat="45.64185" lon="4.58782">
        <ele>861.6</ele>
        <time>2018-05-06T07:47:27Z</time>
      </trkpt>
      <trkpt lat="45.64168" lon="4.5879">
        <ele>863.3</ele>
        <time>2018-05-06T07:47:37Z</time>
      </trkpt>
      <trkpt lat="45.64166" lon="4.5879">
        <ele>863.5</ele>
        <time>2018-05-06T07:47:38Z</time>
      </trkpt>
      <trkpt lat="45.64153" lon="4.58795">
        <ele>864.7</ele>
        <time>2018-05-06T07:47:46Z</time>
      </trkpt>
      <trkpt lat="45.64137" lon="4.58802">
        <ele>866</ele>
        <time>2018-05-06T07:47:55Z</time>
      </trkpt>
      <trkpt lat="45.64134" lon="4.58803">
        <ele>866.3</ele>
        <time>2018-05-06T07:47:57Z</time>
      </trkpt>
      <trkpt lat="45.6412" lon="4.5881">
        <ele>867.4</ele>
        <time>2018-05-06T07:48:05Z</time>
      </trkpt>
      <trkpt lat="45.64117" lon="4.58812">
        <ele>867.7</ele>
        <time>2018-05-06T07:48:07Z</time>
      </trkpt>
      <trkpt lat="45.64113" lon="4.58815">
        <ele>868.2</ele>
        <time>2018-05-06T07:48:10Z</time>
      </trkpt>
      <trkpt lat="45.64105" lon="4.58817">
        <ele>868.9</ele>
        <time>2018-05-06T07:48:14Z</time>
      </trkpt>
      <trkpt lat="45.64099" lon="4.58816">
        <ele>871.6</ele>
        <time>2018-05-06T07:48:17Z</time>
      </trkpt>
      <trkpt lat="45.64095" lon="4.58813">
        <ele>875.6</ele>
        <time>2018-05-06T07:48:20Z</time>
      </trkpt>
      <trkpt lat="45.64087" lon="4.58807">
        <ele>882.7</ele>
        <time>2018-05-06T07:48:25Z</time>
      </trkpt>
      <trkpt lat="45.64083" lon="4.58804">
        <ele>886</ele>
        <time>2018-05-06T07:48:28Z</time>
      </trkpt>
      <trkpt lat="45.64081" lon="4.58804">
        <ele>887.2</ele>
        <time>2018-05-06T07:48:30Z</time>
      </trkpt>
      <trkpt lat="45.64078" lon="4.58807">
        <ele>887.6</ele>
        <time>2018-05-06T07:48:32Z</time>
      </trkpt>
      <trkpt lat="45.64078" lon="4.58809">
        <ele>887.7</ele>
        <time>2018-05-06T07:48:33Z</time>
      </trkpt>
      <trkpt lat="45.64076" lon="4.58816">
        <ele>888.3</ele>
        <time>2018-05-06T07:48:37Z</time>
      </trkpt>
      <trkpt lat="45.64075" lon="4.5882">
        <ele>888.7</ele>
        <time>2018-05-06T07:48:39Z</time>
      </trkpt>
      <trkpt lat="45.64075" lon="4.58822">
        <ele>888.8</ele>
        <time>2018-05-06T07:48:40Z</time>
      </trkpt>
      <trkpt lat="45.64073" lon="4.58828">
        <ele>889.3</ele>
        <time>2018-05-06T07:48:44Z</time>
      </trkpt>
      <trkpt lat="45.64072" lon="4.58831">
        <ele>889.7</ele>
        <time>2018-05-06T07:48:46Z</time>
      </trkpt>
      <trkpt lat="45.6407" lon="4.58833">
        <ele>890</ele>
        <time>2018-05-06T07:48:48Z</time>
      </trkpt>
      <trkpt lat="45.64066" lon="4.58837">
        <ele>890.4</ele>
        <time>2018-05-06T07:48:52Z</time>
      </trkpt>
      <trkpt lat="45.64064" lon="4.58838">
        <ele>890.5</ele>
        <time>2018-05-06T07:48:53Z</time>
      </trkpt>
      <trkpt lat="45.64059" lon="4.58842">
        <ele>891</ele>
        <time>2018-05-06T07:48:57Z</time>
      </trkpt>
      <trkpt lat="45.64055" lon="4.58847">
        <ele>891.6</ele>
        <time>2018-05-06T07:49:01Z</time>
      </trkpt>
      <trkpt lat="45.64054" lon="4.5885">
        <ele>891.7</ele>
        <time>2018-05-06T07:49:02Z</time>
      </trkpt>
      <trkpt lat="45.64052" lon="4.58857">
        <ele>892.1</ele>
        <time>2018-05-06T07:49:05Z</time>
      </trkpt>
      <trkpt lat="45.64049" lon="4.58861">
        <ele>892.3</ele>
        <time>2018-05-06T07:49:07Z</time>
      </trkpt>
      <trkpt lat="45.64047" lon="4.58867">
        <ele>892.6</ele>
        <time>2018-05-06T07:49:10Z</time>
      </trkpt>
      <trkpt lat="45.64044" lon="4.58872">
        <ele>892.8</ele>
        <time>2018-05-06T07:49:13Z</time>
      </trkpt>
      <trkpt lat="45.64037" lon="4.58883">
        <ele>893.5</ele>
        <time>2018-05-06T07:49:20Z</time>
      </trkpt>
      <trkpt lat="45.64037" lon="4.58897">
        <ele>894</ele>
        <time>2018-05-06T07:49:27Z</time>
      </trkpt>
      <trkpt lat="45.64039" lon="4.58902">
        <ele>894.2</ele>
        <time>2018-05-06T07:49:29Z</time>
      </trkpt>
      <trkpt lat="45.6404" lon="4.58908">
        <ele>894.5</ele>
        <time>2018-05-06T07:49:32Z</time>
      </trkpt>
      <trkpt lat="45.6404" lon="4.58913">
        <ele>894.7</ele>
        <time>2018-05-06T07:49:34Z</time>
      </trkpt>
      <trkpt lat="45.64039" lon="4.58937">
        <ele>895.7</ele>
        <time>2018-05-06T07:49:41Z</time>
      </trkpt>
      <trkpt lat="45.6404" lon="4.58949">
        <ele>896.2</ele>
        <time>2018-05-06T07:49:44Z</time>
      </trkpt>
      <trkpt lat="45.64042" lon="4.58956">
        <ele>896.5</ele>
        <time>2018-05-06T07:49:46Z</time>
      </trkpt>
      <trkpt lat="45.64043" lon="4.58961">
        <ele>896.9</ele>
        <time>2018-05-06T07:49:47Z</time>
      </trkpt>
      <trkpt lat="45.64043" lon="4.58964">
        <ele>897.1</ele>
        <time>2018-05-06T07:49:48Z</time>
      </trkpt>
      <trkpt lat="45.64045" lon="4.58977">
        <ele>897.9</ele>
        <time>2018-05-06T07:49:52Z</time>
      </trkpt>
      <trkpt lat="45.64045" lon="4.58987">
        <ele>898.3</ele>
        <time>2018-05-06T07:49:55Z</time>
      </trkpt>
      <trkpt lat="45.64044" lon="4.58992">
        <ele>898.6</ele>
        <time>2018-05-06T07:49:57Z</time>
      </trkpt>
      <trkpt lat="45.64044" lon="4.59001">
        <ele>899.1</ele>
        <time>2018-05-06T07:49:59Z</time>
      </trkpt>
      <trkpt lat="45.64043" lon="4.59008">
        <ele>899.6</ele>
        <time>2018-05-06T07:50:01Z</time>
      </trkpt>
      <trkpt lat="45.64043" lon="4.59011">
        <ele>899.8</ele>
        <time>2018-05-06T07:50:02Z</time>
      </trkpt>
      <trkpt lat="45.64041" lon="4.59021">
        <ele>900.5</ele>
        <time>2018-05-06T07:50:05Z</time>
      </trkpt>
      <trkpt lat="45.64039" lon="4.5903">
        <ele>901.2</ele>
        <time>2018-05-06T07:50:08Z</time>
      </trkpt>
      <trkpt lat="45.64038" lon="4.59032">
        <ele>901.4</ele>
        <time>2018-05-06T07:50:09Z</time>
      </trkpt>
      <trkpt lat="45.64037" lon="4.59038">
        <ele>901.9</ele>
        <time>2018-05-06T07:50:11Z</time>
      </trkpt>
      <trkpt lat="45.64035" lon="4.59044">
        <ele>902.5</ele>
        <time>2018-05-06T07:50:13Z</time>
      </trkpt>
      <trkpt lat="45.64031" lon="4.5905">
        <ele>903.3</ele>
        <time>2018-05-06T07:50:16Z</time>
      </trkpt>
      <trkpt lat="45.6402" lon="4.59074">
        <ele>905.8</ele>
        <time>2018-05-06T07:50:27Z</time>
      </trkpt>
      <trkpt lat="45.64015" lon="4.5908">
        <ele>906.9</ele>
        <time>2018-05-06T07:50:30Z</time>
      </trkpt>
      <trkpt lat="45.64011" lon="4.59085">
        <ele>907.8</ele>
        <time>2018-05-06T07:50:33Z</time>
      </trkpt>
      <trkpt lat="45.64008" lon="4.59093">
        <ele>909.1</ele>
        <time>2018-05-06T07:50:36Z</time>
      </trkpt>
      <trkpt lat="45.64006" lon="4.59096">
        <ele>909.6</ele>
        <time>2018-05-06T07:50:37Z</time>
      </trkpt>
      <trkpt lat="45.64001" lon="4.59103">
        <ele>910.9</ele>
        <time>2018-05-06T07:50:40Z</time>
      </trkpt>
      <trkpt lat="45.64" lon="4.59107">
        <ele>911.4</ele>
        <time>2018-05-06T07:50:42Z</time>
      </trkpt>
      <trkpt lat="45.63994" lon="4.59117">
        <ele>912.7</ele>
        <time>2018-05-06T07:50:48Z</time>
      </trkpt>
      <trkpt lat="45.63975" lon="4.59132">
        <ele>915.7</ele>
        <time>2018-05-06T07:51:06Z</time>
      </trkpt>
      <trkpt lat="45.63971" lon="4.59137">
        <ele>916.5</ele>
        <time>2018-05-06T07:51:09Z</time>
      </trkpt>
      <trkpt lat="45.63961" lon="4.59148">
        <ele>918</ele>
        <time>2018-05-06T07:51:17Z</time>
      </trkpt>
      <trkpt lat="45.6395" lon="4.59195">
        <ele>920.6</ele>
        <time>2018-05-06T07:51:46Z</time>
      </trkpt>
      <trkpt lat="45.63955" lon="4.59214">
        <ele>921.5</ele>
        <time>2018-05-06T07:51:55Z</time>
      </trkpt>
      <trkpt lat="45.6396" lon="4.59234">
        <ele>922.3</ele>
        <time>2018-05-06T07:52:02Z</time>
      </trkpt>
      <trkpt lat="45.63961" lon="4.59246">
        <ele>923.1</ele>
        <time>2018-05-06T07:52:07Z</time>
      </trkpt>
      <trkpt lat="45.63963" lon="4.59251">
        <ele>923.4</ele>
        <time>2018-05-06T07:52:09Z</time>
      </trkpt>
      <trkpt lat="45.63964" lon="4.59253">
        <ele>923.5</ele>
        <time>2018-05-06T07:52:10Z</time>
      </trkpt>
      <trkpt lat="45.63967" lon="4.5927">
        <ele>924.5</ele>
        <time>2018-05-06T07:52:16Z</time>
      </trkpt>
      <trkpt lat="45.63969" lon="4.59285">
        <ele>925.2</ele>
        <time>2018-05-06T07:52:20Z</time>
      </trkpt>
      <trkpt lat="45.63968" lon="4.59294">
        <ele>925.7</ele>
        <time>2018-05-06T07:52:23Z</time>
      </trkpt>
      <trkpt lat="45.63968" lon="4.59299">
        <ele>925.9</ele>
        <time>2018-05-06T07:52:25Z</time>
      </trkpt>
      <trkpt lat="45.63971" lon="4.5931">
        <ele>926.5</ele>
        <time>2018-05-06T07:52:29Z</time>
      </trkpt>
      <trkpt lat="45.63971" lon="4.59313">
        <ele>926.7</ele>
        <time>2018-05-06T07:52:30Z</time>
      </trkpt>
      <trkpt lat="45.63973" lon="4.59329">
        <ele>927.7</ele>
        <time>2018-05-06T07:52:36Z</time>
      </trkpt>
      <trkpt lat="45.6396" lon="4.59382">
        <ele>932.1</ele>
        <time>2018-05-06T07:53:03Z</time>
      </trkpt>
      <trkpt lat="45.63957" lon="4.59385">
        <ele>932.4</ele>
        <time>2018-05-06T07:53:05Z</time>
      </trkpt>
      <trkpt lat="45.6395" lon="4.59397">
        <ele>933.2</ele>
        <time>2018-05-06T07:53:12Z</time>
      </trkpt>
      <trkpt lat="45.63949" lon="4.594">
        <ele>933.3</ele>
        <time>2018-05-06T07:53:13Z</time>
      </trkpt>
      <trkpt lat="45.63949" lon="4.59411">
        <ele>933.7</ele>
        <time>2018-05-06T07:53:17Z</time>
      </trkpt>
      <trkpt lat="45.63945" lon="4.59416">
        <ele>934</ele>
        <time>2018-05-06T07:53:20Z</time>
      </trkpt>
      <trkpt lat="45.63938" lon="4.59421">
        <ele>934.4</ele>
        <time>2018-05-06T07:53:25Z</time>
      </trkpt>
      <trkpt lat="45.63937" lon="4.5942">
        <ele>934.5</ele>
        <time>2018-05-06T07:53:26Z</time>
      </trkpt>
      <trkpt lat="45.63932" lon="4.59419">
        <ele>934.6</ele>
        <time>2018-05-06T07:53:29Z</time>
      </trkpt>
      <trkpt lat="45.63922" lon="4.5943">
        <ele>934.9</ele>
        <time>2018-05-06T07:53:42Z</time>
      </trkpt>
      <trkpt lat="45.6392" lon="4.59431">
        <ele>935</ele>
        <time>2018-05-06T07:53:43Z</time>
      </trkpt>
      <trkpt lat="45.63906" lon="4.59442">
        <ele>935</ele>
        <time>2018-05-06T07:53:49Z</time>
      </trkpt>
      <trkpt lat="45.63901" lon="4.5945">
        <ele>934.6</ele>
        <time>2018-05-06T07:53:51Z</time>
      </trkpt>
      <trkpt lat="45.63887" lon="4.59464">
        <ele>932.4</ele>
        <time>2018-05-06T07:53:55Z</time>
      </trkpt>
      <trkpt lat="45.63862" lon="4.59466">
        <ele>930</ele>
        <time>2018-05-06T07:53:59Z</time>
      </trkpt>
      <trkpt lat="45.6385" lon="4.59461">
        <ele>930</ele>
        <time>2018-05-06T07:54:00Z</time>
      </trkpt>
      <trkpt lat="45.63835" lon="4.59456">
        <ele>929.9</ele>
        <time>2018-05-06T07:54:03Z</time>
      </trkpt>
      <trkpt lat="45.63827" lon="4.59454">
        <ele>929.9</ele>
        <time>2018-05-06T07:54:05Z</time>
      </trkpt>
      <trkpt lat="45.6381" lon="4.59449">
        <ele>929.8</ele>
        <time>2018-05-06T07:54:11Z</time>
      </trkpt>
      <trkpt lat="45.63806" lon="4.5945">
        <ele>929.7</ele>
        <time>2018-05-06T07:54:13Z</time>
      </trkpt>
      <trkpt lat="45.63804" lon="4.59452">
        <ele>929.7</ele>
        <time>2018-05-06T07:54:15Z</time>
      </trkpt>
      <trkpt lat="45.638" lon="4.59449">
        <ele>929.6</ele>
        <time>2018-05-06T07:54:26Z</time>
      </trkpt>
      <trkpt lat="45.63798" lon="4.59443">
        <ele>929.5</ele>
        <time>2018-05-06T07:54:34Z</time>
      </trkpt>
      <trkpt lat="45.63795" lon="4.59435">
        <ele>929.4</ele>
        <time>2018-05-06T07:54:37Z</time>
      </trkpt>
      <trkpt lat="45.63789" lon="4.59426">
        <ele>929.3</ele>
        <time>2018-05-06T07:54:41Z</time>
      </trkpt>
      <trkpt lat="45.63786" lon="4.59422">
        <ele>929.2</ele>
        <time>2018-05-06T07:54:43Z</time>
      </trkpt>
      <trkpt lat="45.63783" lon="4.59418">
        <ele>929.1</ele>
        <time>2018-05-06T07:54:45Z</time>
      </trkpt>
      <trkpt lat="45.63778" lon="4.59408">
        <ele>928.9</ele>
        <time>2018-05-06T07:54:50Z</time>
      </trkpt>
      <trkpt lat="45.63777" lon="4.59407">
        <ele>928.9</ele>
        <time>2018-05-06T07:54:51Z</time>
      </trkpt>
      <trkpt lat="45.63763" lon="4.59399">
        <ele>928.5</ele>
        <time>2018-05-06T07:54:57Z</time>
      </trkpt>
      <trkpt lat="45.63752" lon="4.59395">
        <ele>928</ele>
        <time>2018-05-06T07:59:33Z</time>
      </trkpt>
      <trkpt lat="45.63754" lon="4.59394">
        <ele>925.9</ele>
        <time>2018-05-06T07:59:35Z</time>
      </trkpt>
      <trkpt lat="45.63757" lon="4.59387">
        <ele>924.5</ele>
        <time>2018-05-06T07:59:40Z</time>
      </trkpt>
      <trkpt lat="45.63756" lon="4.59381">
        <ele>923.6</ele>
        <time>2018-05-06T07:59:43Z</time>
      </trkpt>
      <trkpt lat="45.63751" lon="4.59374">
        <ele>922.3</ele>
        <time>2018-05-06T07:59:46Z</time>
      </trkpt>
      <trkpt lat="45.63746" lon="4.59369">
        <ele>921.2</ele>
        <time>2018-05-06T07:59:48Z</time>
      </trkpt>
      <trkpt lat="45.63739" lon="4.5936">
        <ele>918.9</ele>
        <time>2018-05-06T07:59:51Z</time>
      </trkpt>
      <trkpt lat="45.63731" lon="4.59348">
        <ele>915.4</ele>
        <time>2018-05-06T07:59:54Z</time>
      </trkpt>
      <trkpt lat="45.63726" lon="4.59334">
        <ele>911.3</ele>
        <time>2018-05-06T07:59:57Z</time>
      </trkpt>
      <trkpt lat="45.63724" lon="4.59322">
        <ele>909.1</ele>
        <time>2018-05-06T07:59:59Z</time>
      </trkpt>
      <trkpt lat="45.63721" lon="4.59312">
        <ele>907</ele>
        <time>2018-05-06T08:00:01Z</time>
      </trkpt>
      <trkpt lat="45.63719" lon="4.59308">
        <ele>906.1</ele>
        <time>2018-05-06T08:00:02Z</time>
      </trkpt>
      <trkpt lat="45.63717" lon="4.59304">
        <ele>905.2</ele>
        <time>2018-05-06T08:00:03Z</time>
      </trkpt>
      <trkpt lat="45.6371" lon="4.59294">
        <ele>903</ele>
        <time>2018-05-06T08:00:05Z</time>
      </trkpt>
      <trkpt lat="45.63702" lon="4.59283">
        <ele>899.7</ele>
        <time>2018-05-06T08:00:07Z</time>
      </trkpt>
      <trkpt lat="45.63695" lon="4.59272">
        <ele>896</ele>
        <time>2018-05-06T08:00:09Z</time>
      </trkpt>
      <trkpt lat="45.63691" lon="4.59259">
        <ele>892.6</ele>
        <time>2018-05-06T08:00:11Z</time>
      </trkpt>
      <trkpt lat="45.63689" lon="4.59243">
        <ele>889</ele>
        <time>2018-05-06T08:00:13Z</time>
      </trkpt>
      <trkpt lat="45.63688" lon="4.59228">
        <ele>885.6</ele>
        <time>2018-05-06T08:00:15Z</time>
      </trkpt>
      <trkpt lat="45.63685" lon="4.59221">
        <ele>884.4</ele>
        <time>2018-05-06T08:00:16Z</time>
      </trkpt>
      <trkpt lat="45.63681" lon="4.59216">
        <ele>883</ele>
        <time>2018-05-06T08:00:17Z</time>
      </trkpt>
      <trkpt lat="45.63678" lon="4.59211">
        <ele>881.9</ele>
        <time>2018-05-06T08:00:18Z</time>
      </trkpt>
      <trkpt lat="45.63674" lon="4.59207">
        <ele>880.6</ele>
        <time>2018-05-06T08:00:19Z</time>
      </trkpt>
      <trkpt lat="45.6367" lon="4.59203">
        <ele>878.6</ele>
        <time>2018-05-06T08:00:21Z</time>
      </trkpt>
      <trkpt lat="45.63668" lon="4.59203">
        <ele>877.9</ele>
        <time>2018-05-06T08:00:22Z</time>
      </trkpt>
      <trkpt lat="45.63664" lon="4.59204">
        <ele>876.7</ele>
        <time>2018-05-06T08:00:24Z</time>
      </trkpt>
      <trkpt lat="45.63656" lon="4.59203">
        <ele>874.8</ele>
        <time>2018-05-06T08:00:27Z</time>
      </trkpt>
      <trkpt lat="45.63651" lon="4.59196">
        <ele>873</ele>
        <time>2018-05-06T08:00:29Z</time>
      </trkpt>
      <trkpt lat="45.63643" lon="4.59197">
        <ele>871.6</ele>
        <time>2018-05-06T08:00:31Z</time>
      </trkpt>
      <trkpt lat="45.63635" lon="4.59207">
        <ele>869.4</ele>
        <time>2018-05-06T08:00:34Z</time>
      </trkpt>
      <trkpt lat="45.63631" lon="4.59212">
        <ele>868.6</ele>
        <time>2018-05-06T08:00:35Z</time>
      </trkpt>
      <trkpt lat="45.63625" lon="4.5922">
        <ele>867</ele>
        <time>2018-05-06T08:00:37Z</time>
      </trkpt>
      <trkpt lat="45.63617" lon="4.59228">
        <ele>865.8</ele>
        <time>2018-05-06T08:00:39Z</time>
      </trkpt>
      <trkpt lat="45.63612" lon="4.59232">
        <ele>865</ele>
        <time>2018-05-06T08:00:40Z</time>
      </trkpt>
      <trkpt lat="45.63607" lon="4.59237">
        <ele>864.2</ele>
        <time>2018-05-06T08:00:41Z</time>
      </trkpt>
      <trkpt lat="45.63578" lon="4.59268">
        <ele>859.5</ele>
        <time>2018-05-06T08:00:46Z</time>
      </trkpt>
      <trkpt lat="45.63571" lon="4.59279">
        <ele>859.2</ele>
        <time>2018-05-06T08:00:47Z</time>
      </trkpt>
      <trkpt lat="45.63563" lon="4.59302">
        <ele>858.5</ele>
        <time>2018-05-06T08:00:49Z</time>
      </trkpt>
      <trkpt lat="45.63558" lon="4.59313">
        <ele>858.3</ele>
        <time>2018-05-06T08:00:50Z</time>
      </trkpt>
      <trkpt lat="45.63539" lon="4.59357">
        <ele>857</ele>
        <time>2018-05-06T08:00:54Z</time>
      </trkpt>
      <trkpt lat="45.63532" lon="4.59375">
        <ele>856.3</ele>
        <time>2018-05-06T08:00:56Z</time>
      </trkpt>
      <trkpt lat="45.63523" lon="4.59393">
        <ele>855.4</ele>
        <time>2018-05-06T08:00:58Z</time>
      </trkpt>
      <trkpt lat="45.63512" lon="4.59409">
        <ele>854.6</ele>
        <time>2018-05-06T08:01:00Z</time>
      </trkpt>
      <trkpt lat="45.63508" lon="4.5942">
        <ele>854.1</ele>
        <time>2018-05-06T08:01:01Z</time>
      </trkpt>
      <trkpt lat="45.63506" lon="4.59432">
        <ele>854</ele>
        <time>2018-05-06T08:01:02Z</time>
      </trkpt>
      <trkpt lat="45.63505" lon="4.59444">
        <ele>854</ele>
        <time>2018-05-06T08:01:03Z</time>
      </trkpt>
      <trkpt lat="45.63505" lon="4.59456">
        <ele>854</ele>
        <time>2018-05-06T08:01:04Z</time>
      </trkpt>
      <trkpt lat="45.63506" lon="4.59468">
        <ele>854.4</ele>
        <time>2018-05-06T08:01:05Z</time>
      </trkpt>
      <trkpt lat="45.63509" lon="4.59479">
        <ele>855.1</ele>
        <time>2018-05-06T08:01:06Z</time>
      </trkpt>
      <trkpt lat="45.63513" lon="4.59488">
        <ele>855.7</ele>
        <time>2018-05-06T08:01:07Z</time>
      </trkpt>
      <trkpt lat="45.63514" lon="4.59497">
        <ele>856.3</ele>
        <time>2018-05-06T08:01:08Z</time>
      </trkpt>
      <trkpt lat="45.63516" lon="4.59514">
        <ele>857.6</ele>
        <time>2018-05-06T08:01:10Z</time>
      </trkpt>
      <trkpt lat="45.63516" lon="4.59521">
        <ele>857.9</ele>
        <time>2018-05-06T08:01:11Z</time>
      </trkpt>
      <trkpt lat="45.63517" lon="4.59528">
        <ele>858.2</ele>
        <time>2018-05-06T08:01:12Z</time>
      </trkpt>
      <trkpt lat="45.63518" lon="4.5954">
        <ele>858.8</ele>
        <time>2018-05-06T08:01:14Z</time>
      </trkpt>
      <trkpt lat="45.6352" lon="4.59552">
        <ele>859.4</ele>
        <time>2018-05-06T08:01:16Z</time>
      </trkpt>
      <trkpt lat="45.6352" lon="4.59557">
        <ele>859.7</ele>
        <time>2018-05-06T08:01:17Z</time>
      </trkpt>
      <trkpt lat="45.63521" lon="4.59563">
        <ele>860</ele>
        <time>2018-05-06T08:01:18Z</time>
      </trkpt>
      <trkpt lat="45.63524" lon="4.59575">
        <ele>860.6</ele>
        <time>2018-05-06T08:01:20Z</time>
      </trkpt>
      <trkpt lat="45.63528" lon="4.59585">
        <ele>861.1</ele>
        <time>2018-05-06T08:01:22Z</time>
      </trkpt>
      <trkpt lat="45.63531" lon="4.59589">
        <ele>861.4</ele>
        <time>2018-05-06T08:01:23Z</time>
      </trkpt>
      <trkpt lat="45.6354" lon="4.59599">
        <ele>862.3</ele>
        <time>2018-05-06T08:01:26Z</time>
      </trkpt>
      <trkpt lat="45.63554" lon="4.59618">
        <ele>863</ele>
        <time>2018-05-06T08:01:31Z</time>
      </trkpt>
      <trkpt lat="45.63561" lon="4.59638">
        <ele>863.5</ele>
        <time>2018-05-06T08:01:35Z</time>
      </trkpt>
      <trkpt lat="45.63565" lon="4.59649">
        <ele>863.7</ele>
        <time>2018-05-06T08:01:37Z</time>
      </trkpt>
      <trkpt lat="45.63573" lon="4.59677">
        <ele>863.5</ele>
        <time>2018-05-06T08:01:42Z</time>
      </trkpt>
      <trkpt lat="45.63577" lon="4.59681">
        <ele>863</ele>
        <time>2018-05-06T08:01:43Z</time>
      </trkpt>
      <trkpt lat="45.63581" lon="4.59685">
        <ele>862.5</ele>
        <time>2018-05-06T08:01:44Z</time>
      </trkpt>
      <trkpt lat="45.63586" lon="4.59689">
        <ele>862</ele>
        <time>2018-05-06T08:01:45Z</time>
      </trkpt>
      <trkpt lat="45.63595" lon="4.59699">
        <ele>860.9</ele>
        <time>2018-05-06T08:01:47Z</time>
      </trkpt>
      <trkpt lat="45.63599" lon="4.59706">
        <ele>860.7</ele>
        <time>2018-05-06T08:01:48Z</time>
      </trkpt>
      <trkpt lat="45.63602" lon="4.59714">
        <ele>860.4</ele>
        <time>2018-05-06T08:01:49Z</time>
      </trkpt>
      <trkpt lat="45.63607" lon="4.59734">
        <ele>859.7</ele>
        <time>2018-05-06T08:01:51Z</time>
      </trkpt>
      <trkpt lat="45.6361" lon="4.59745">
        <ele>859.6</ele>
        <time>2018-05-06T08:01:52Z</time>
      </trkpt>
      <trkpt lat="45.63611" lon="4.59755">
        <ele>859.5</ele>
        <time>2018-05-06T08:01:53Z</time>
      </trkpt>
      <trkpt lat="45.63613" lon="4.59777">
        <ele>859.2</ele>
        <time>2018-05-06T08:01:55Z</time>
      </trkpt>
      <trkpt lat="45.63615" lon="4.59798">
        <ele>859</ele>
        <time>2018-05-06T08:01:57Z</time>
      </trkpt>
      <trkpt lat="45.63618" lon="4.59818">
        <ele>858.8</ele>
        <time>2018-05-06T08:01:59Z</time>
      </trkpt>
      <trkpt lat="45.6362" lon="4.59827">
        <ele>858.7</ele>
        <time>2018-05-06T08:02:00Z</time>
      </trkpt>
      <trkpt lat="45.63627" lon="4.59855">
        <ele>858.5</ele>
        <time>2018-05-06T08:02:03Z</time>
      </trkpt>
      <trkpt lat="45.63631" lon="4.59875">
        <ele>858.1</ele>
        <time>2018-05-06T08:02:05Z</time>
      </trkpt>
      <trkpt lat="45.63633" lon="4.59885">
        <ele>857.8</ele>
        <time>2018-05-06T08:02:06Z</time>
      </trkpt>
      <trkpt lat="45.63636" lon="4.59895">
        <ele>857.6</ele>
        <time>2018-05-06T08:02:07Z</time>
      </trkpt>
      <trkpt lat="45.63645" lon="4.59913">
        <ele>856.8</ele>
        <time>2018-05-06T08:02:09Z</time>
      </trkpt>
      <trkpt lat="45.63657" lon="4.59938">
        <ele>854.9</ele>
        <time>2018-05-06T08:02:12Z</time>
      </trkpt>
      <trkpt lat="45.63662" lon="4.59943">
        <ele>854.4</ele>
        <time>2018-05-06T08:02:13Z</time>
      </trkpt>
      <trkpt lat="45.63667" lon="4.59948">
        <ele>853.8</ele>
        <time>2018-05-06T08:02:14Z</time>
      </trkpt>
      <trkpt lat="45.63678" lon="4.59962">
        <ele>853</ele>
        <time>2018-05-06T08:02:16Z</time>
      </trkpt>
      <trkpt lat="45.63688" lon="4.5998">
        <ele>852.2</ele>
        <time>2018-05-06T08:02:18Z</time>
      </trkpt>
      <trkpt lat="45.637" lon="4.59998">
        <ele>851.4</ele>
        <time>2018-05-06T08:02:20Z</time>
      </trkpt>
      <trkpt lat="45.6371" lon="4.60015">
        <ele>850.8</ele>
        <time>2018-05-06T08:02:22Z</time>
      </trkpt>
      <trkpt lat="45.63713" lon="4.60022">
        <ele>850.6</ele>
        <time>2018-05-06T08:02:23Z</time>
      </trkpt>
      <trkpt lat="45.63716" lon="4.60027">
        <ele>850.3</ele>
        <time>2018-05-06T08:02:24Z</time>
      </trkpt>
      <trkpt lat="45.63724" lon="4.60035">
        <ele>849.6</ele>
        <time>2018-05-06T08:02:26Z</time>
      </trkpt>
      <trkpt lat="45.63734" lon="4.60047">
        <ele>848.4</ele>
        <time>2018-05-06T08:02:29Z</time>
      </trkpt>
      <trkpt lat="45.63739" lon="4.60052">
        <ele>847.8</ele>
        <time>2018-05-06T08:02:30Z</time>
      </trkpt>
      <trkpt lat="45.63742" lon="4.60058">
        <ele>847.3</ele>
        <time>2018-05-06T08:02:31Z</time>
      </trkpt>
      <trkpt lat="45.63746" lon="4.60065">
        <ele>846.8</ele>
        <time>2018-05-06T08:02:32Z</time>
      </trkpt>
      <trkpt lat="45.63759" lon="4.60088">
        <ele>844.9</ele>
        <time>2018-05-06T08:02:35Z</time>
      </trkpt>
      <trkpt lat="45.63762" lon="4.60096">
        <ele>844.2</ele>
        <time>2018-05-06T08:02:36Z</time>
      </trkpt>
      <trkpt lat="45.63765" lon="4.60102">
        <ele>843.7</ele>
        <time>2018-05-06T08:02:37Z</time>
      </trkpt>
      <trkpt lat="45.63771" lon="4.60116">
        <ele>842.6</ele>
        <time>2018-05-06T08:02:39Z</time>
      </trkpt>
      <trkpt lat="45.63776" lon="4.60123">
        <ele>841.8</ele>
        <time>2018-05-06T08:02:40Z</time>
      </trkpt>
      <trkpt lat="45.63784" lon="4.60134">
        <ele>840.5</ele>
        <time>2018-05-06T08:02:42Z</time>
      </trkpt>
      <trkpt lat="45.6379" lon="4.60142">
        <ele>839.8</ele>
        <time>2018-05-06T08:02:44Z</time>
      </trkpt>
      <trkpt lat="45.63792" lon="4.60145">
        <ele>839.3</ele>
        <time>2018-05-06T08:02:45Z</time>
      </trkpt>
      <trkpt lat="45.63794" lon="4.6015">
        <ele>839.3</ele>
        <time>2018-05-06T08:02:47Z</time>
      </trkpt>
      <trkpt lat="45.63794" lon="4.60153">
        <ele>839.3</ele>
        <time>2018-05-06T08:02:49Z</time>
      </trkpt>
      <trkpt lat="45.63794" lon="4.60156">
        <ele>839.4</ele>
        <time>2018-05-06T08:02:51Z</time>
      </trkpt>
      <trkpt lat="45.63792" lon="4.60159">
        <ele>839.4</ele>
        <time>2018-05-06T08:02:53Z</time>
      </trkpt>
      <trkpt lat="45.6379" lon="4.60163">
        <ele>839.4</ele>
        <time>2018-05-06T08:02:55Z</time>
      </trkpt>
      <trkpt lat="45.63777" lon="4.60178">
        <ele>839.4</ele>
        <time>2018-05-06T08:03:02Z</time>
      </trkpt>
      <trkpt lat="45.63776" lon="4.6018">
        <ele>839.3</ele>
        <time>2018-05-06T08:03:03Z</time>
      </trkpt>
      <trkpt lat="45.63762" lon="4.60194">
        <ele>839</ele>
        <time>2018-05-06T08:03:10Z</time>
      </trkpt>
      <trkpt lat="45.63745" lon="4.60209">
        <ele>838.4</ele>
        <time>2018-05-06T08:03:15Z</time>
      </trkpt>
      <trkpt lat="45.63726" lon="4.60227">
        <ele>837.9</ele>
        <time>2018-05-06T08:03:20Z</time>
      </trkpt>
      <trkpt lat="45.63718" lon="4.60236">
        <ele>837.7</ele>
        <time>2018-05-06T08:03:22Z</time>
      </trkpt>
      <trkpt lat="45.63702" lon="4.60257">
        <ele>837.3</ele>
        <time>2018-05-06T08:03:27Z</time>
      </trkpt>
      <trkpt lat="45.63693" lon="4.60267">
        <ele>837.1</ele>
        <time>2018-05-06T08:03:30Z</time>
      </trkpt>
      <trkpt lat="45.63684" lon="4.60277">
        <ele>836.8</ele>
        <time>2018-05-06T08:03:33Z</time>
      </trkpt>
      <trkpt lat="45.63681" lon="4.6028">
        <ele>836.7</ele>
        <time>2018-05-06T08:03:34Z</time>
      </trkpt>
      <trkpt lat="45.63671" lon="4.60287">
        <ele>836.4</ele>
        <time>2018-05-06T08:03:37Z</time>
      </trkpt>
      <trkpt lat="45.6366" lon="4.60296">
        <ele>835.8</ele>
        <time>2018-05-06T08:03:40Z</time>
      </trkpt>
      <trkpt lat="45.63631" lon="4.60313">
        <ele>834</ele>
        <time>2018-05-06T08:03:46Z</time>
      </trkpt>
      <trkpt lat="45.6359" lon="4.60346">
        <ele>832.4</ele>
        <time>2018-05-06T08:03:54Z</time>
      </trkpt>
      <trkpt lat="45.63549" lon="4.60377">
        <ele>832.5</ele>
        <time>2018-05-06T08:04:01Z</time>
      </trkpt>
      <trkpt lat="45.63521" lon="4.60397">
        <ele>834</ele>
        <time>2018-05-06T08:04:06Z</time>
      </trkpt>
      <trkpt lat="45.63512" lon="4.60401">
        <ele>835.5</ele>
        <time>2018-05-06T08:04:08Z</time>
      </trkpt>
      <trkpt lat="45.63507" lon="4.60403">
        <ele>836.3</ele>
        <time>2018-05-06T08:04:10Z</time>
      </trkpt>
      <trkpt lat="45.63482" lon="4.60415">
        <ele>840</ele>
        <time>2018-05-06T08:04:27Z</time>
      </trkpt>
      <trkpt lat="45.6348" lon="4.60416">
        <ele>840.2</ele>
        <time>2018-05-06T08:04:28Z</time>
      </trkpt>
      <trkpt lat="45.63477" lon="4.60415">
        <ele>840.7</ele>
        <time>2018-05-06T08:04:30Z</time>
      </trkpt>
      <trkpt lat="45.63473" lon="4.60417">
        <ele>841.4</ele>
        <time>2018-05-06T08:04:33Z</time>
      </trkpt>
      <trkpt lat="45.63471" lon="4.60418">
        <ele>841.7</ele>
        <time>2018-05-06T08:04:34Z</time>
      </trkpt>
      <trkpt lat="45.63469" lon="4.60419">
        <ele>842</ele>
        <time>2018-05-06T08:04:35Z</time>
      </trkpt>
      <trkpt lat="45.63467" lon="4.60419">
        <ele>842.2</ele>
        <time>2018-05-06T08:04:36Z</time>
      </trkpt>
      <trkpt lat="45.63428" lon="4.60448">
        <ele>846.9</ele>
        <time>2018-05-06T08:05:05Z</time>
      </trkpt>
      <trkpt lat="45.63427" lon="4.60451">
        <ele>847.1</ele>
        <time>2018-05-06T08:05:06Z</time>
      </trkpt>
      <trkpt lat="45.63423" lon="4.60458">
        <ele>847.5</ele>
        <time>2018-05-06T08:05:08Z</time>
      </trkpt>
      <trkpt lat="45.63418" lon="4.60467">
        <ele>848.2</ele>
        <time>2018-05-06T08:05:11Z</time>
      </trkpt>
      <trkpt lat="45.63414" lon="4.60471">
        <ele>848.7</ele>
        <time>2018-05-06T08:05:13Z</time>
      </trkpt>
      <trkpt lat="45.63412" lon="4.60473">
        <ele>848.9</ele>
        <time>2018-05-06T08:05:14Z</time>
      </trkpt>
      <trkpt lat="45.63409" lon="4.60476">
        <ele>849.3</ele>
        <time>2018-05-06T08:05:16Z</time>
      </trkpt>
      <trkpt lat="45.63405" lon="4.6048">
        <ele>849.9</ele>
        <time>2018-05-06T08:05:18Z</time>
      </trkpt>
      <trkpt lat="45.63404" lon="4.60482">
        <ele>850.1</ele>
        <time>2018-05-06T08:05:19Z</time>
      </trkpt>
      <trkpt lat="45.63403" lon="4.60484">
        <ele>850.3</ele>
        <time>2018-05-06T08:05:20Z</time>
      </trkpt>
      <trkpt lat="45.6339" lon="4.60498">
        <ele>852.3</ele>
        <time>2018-05-06T08:05:31Z</time>
      </trkpt>
      <trkpt lat="45.63384" lon="4.60503">
        <ele>852.7</ele>
        <time>2018-05-06T08:05:35Z</time>
      </trkpt>
      <trkpt lat="45.63369" lon="4.60506">
        <ele>853.7</ele>
        <time>2018-05-06T08:05:42Z</time>
      </trkpt>
      <trkpt lat="45.63366" lon="4.60507">
        <ele>853.8</ele>
        <time>2018-05-06T08:05:43Z</time>
      </trkpt>
      <trkpt lat="45.63355" lon="4.60506">
        <ele>854.3</ele>
        <time>2018-05-06T08:05:47Z</time>
      </trkpt>
      <trkpt lat="45.63347" lon="4.60505">
        <ele>854.5</ele>
        <time>2018-05-06T08:05:50Z</time>
      </trkpt>
      <trkpt lat="45.63338" lon="4.60502">
        <ele>854.7</ele>
        <time>2018-05-06T08:05:53Z</time>
      </trkpt>
      <trkpt lat="45.63328" lon="4.60493">
        <ele>854.8</ele>
        <time>2018-05-06T08:05:57Z</time>
      </trkpt>
      <trkpt lat="45.63313" lon="4.6048">
        <ele>854.7</ele>
        <time>2018-05-06T08:06:02Z</time>
      </trkpt>
      <trkpt lat="45.63305" lon="4.60469">
        <ele>853.1</ele>
        <time>2018-05-06T08:06:05Z</time>
      </trkpt>
      <trkpt lat="45.63297" lon="4.60461">
        <ele>851.9</ele>
        <time>2018-05-06T08:06:07Z</time>
      </trkpt>
      <trkpt lat="45.63282" lon="4.60452">
        <ele>850.1</ele>
        <time>2018-05-06T08:06:10Z</time>
      </trkpt>
      <trkpt lat="45.63273" lon="4.60447">
        <ele>849.2</ele>
        <time>2018-05-06T08:06:11Z</time>
      </trkpt>
      <trkpt lat="45.63266" lon="4.60442">
        <ele>848.5</ele>
        <time>2018-05-06T08:06:12Z</time>
      </trkpt>
      <trkpt lat="45.63259" lon="4.60436">
        <ele>847.8</ele>
        <time>2018-05-06T08:06:13Z</time>
      </trkpt>
      <trkpt lat="45.6323" lon="4.60418">
        <ele>845</ele>
        <time>2018-05-06T08:06:18Z</time>
      </trkpt>
      <trkpt lat="45.63207" lon="4.60396">
        <ele>842.9</ele>
        <time>2018-05-06T08:06:24Z</time>
      </trkpt>
      <trkpt lat="45.6318" lon="4.60363">
        <ele>840</ele>
        <time>2018-05-06T08:06:31Z</time>
      </trkpt>
      <trkpt lat="45.63162" lon="4.60338">
        <ele>837.7</ele>
        <time>2018-05-06T08:06:36Z</time>
      </trkpt>
      <trkpt lat="45.63158" lon="4.60334">
        <ele>837.3</ele>
        <time>2018-05-06T08:06:37Z</time>
      </trkpt>
      <trkpt lat="45.63139" lon="4.60312">
        <ele>835.3</ele>
        <time>2018-05-06T08:06:42Z</time>
      </trkpt>
      <trkpt lat="45.63133" lon="4.60302">
        <ele>834.6</ele>
        <time>2018-05-06T08:06:44Z</time>
      </trkpt>
      <trkpt lat="45.63131" lon="4.60296">
        <ele>834.4</ele>
        <time>2018-05-06T08:06:45Z</time>
      </trkpt>
      <trkpt lat="45.63124" lon="4.60277">
        <ele>833.6</ele>
        <time>2018-05-06T08:06:49Z</time>
      </trkpt>
      <trkpt lat="45.63113" lon="4.60253">
        <ele>833.7</ele>
        <time>2018-05-06T08:06:55Z</time>
      </trkpt>
      <trkpt lat="45.63097" lon="4.60221">
        <ele>837.8</ele>
        <time>2018-05-06T08:07:02Z</time>
      </trkpt>
      <trkpt lat="45.63084" lon="4.60192">
        <ele>840.9</ele>
        <time>2018-05-06T08:07:06Z</time>
      </trkpt>
      <trkpt lat="45.63079" lon="4.60184">
        <ele>841.8</ele>
        <time>2018-05-06T08:07:07Z</time>
      </trkpt>
      <trkpt lat="45.6307" lon="4.60167">
        <ele>843</ele>
        <time>2018-05-06T08:07:09Z</time>
      </trkpt>
      <trkpt lat="45.63065" lon="4.60159">
        <ele>843.7</ele>
        <time>2018-05-06T08:07:10Z</time>
      </trkpt>
      <trkpt lat="45.63053" lon="4.60147">
        <ele>844.9</ele>
        <time>2018-05-06T08:07:12Z</time>
      </trkpt>
      <trkpt lat="45.63037" lon="4.60143">
        <ele>846</ele>
        <time>2018-05-06T08:07:14Z</time>
      </trkpt>
      <trkpt lat="45.63031" lon="4.60142">
        <ele>846</ele>
        <time>2018-05-06T08:07:15Z</time>
      </trkpt>
      <trkpt lat="45.63024" lon="4.60146">
        <ele>845</ele>
        <time>2018-05-06T08:07:16Z</time>
      </trkpt>
      <trkpt lat="45.63013" lon="4.60154">
        <ele>843.2</ele>
        <time>2018-05-06T08:07:18Z</time>
      </trkpt>
      <trkpt lat="45.63007" lon="4.60158">
        <ele>842.9</ele>
        <time>2018-05-06T08:07:19Z</time>
      </trkpt>
      <trkpt lat="45.62996" lon="4.60165">
        <ele>841.7</ele>
        <time>2018-05-06T08:07:21Z</time>
      </trkpt>
      <trkpt lat="45.62988" lon="4.60177">
        <ele>840.2</ele>
        <time>2018-05-06T08:07:23Z</time>
      </trkpt>
      <trkpt lat="45.62965" lon="4.60215">
        <ele>839.6</ele>
        <time>2018-05-06T08:07:28Z</time>
      </trkpt>
      <trkpt lat="45.62948" lon="4.60238">
        <ele>840</ele>
        <time>2018-05-06T08:07:32Z</time>
      </trkpt>
      <trkpt lat="45.62945" lon="4.60245">
        <ele>840</ele>
        <time>2018-05-06T08:07:33Z</time>
      </trkpt>
      <trkpt lat="45.62937" lon="4.60262">
        <ele>840</ele>
        <time>2018-05-06T08:07:37Z</time>
      </trkpt>
      <trkpt lat="45.62928" lon="4.60282">
        <ele>839.9</ele>
        <time>2018-05-06T08:07:41Z</time>
      </trkpt>
      <trkpt lat="45.62926" lon="4.60286">
        <ele>839.9</ele>
        <time>2018-05-06T08:07:42Z</time>
      </trkpt>
      <trkpt lat="45.62917" lon="4.60303">
        <ele>839.7</ele>
        <time>2018-05-06T08:07:46Z</time>
      </trkpt>
      <trkpt lat="45.62911" lon="4.60318">
        <ele>839.5</ele>
        <time>2018-05-06T08:07:49Z</time>
      </trkpt>
      <trkpt lat="45.62907" lon="4.60328">
        <ele>839.4</ele>
        <time>2018-05-06T08:07:51Z</time>
      </trkpt>
      <trkpt lat="45.62901" lon="4.60343">
        <ele>838.4</ele>
        <time>2018-05-06T08:07:54Z</time>
      </trkpt>
      <trkpt lat="45.629" lon="4.60347">
        <ele>837.9</ele>
        <time>2018-05-06T08:07:55Z</time>
      </trkpt>
      <trkpt lat="45.62899" lon="4.60353">
        <ele>837.4</ele>
        <time>2018-05-06T08:07:56Z</time>
      </trkpt>
      <trkpt lat="45.62895" lon="4.60373">
        <ele>835.8</ele>
        <time>2018-05-06T08:07:59Z</time>
      </trkpt>
      <trkpt lat="45.62886" lon="4.60403">
        <ele>833.8</ele>
        <time>2018-05-06T08:08:04Z</time>
      </trkpt>
      <trkpt lat="45.62881" lon="4.60415">
        <ele>833.1</ele>
        <time>2018-05-06T08:08:06Z</time>
      </trkpt>
      <trkpt lat="45.62876" lon="4.60429">
        <ele>832.4</ele>
        <time>2018-05-06T08:08:08Z</time>
      </trkpt>
      <trkpt lat="45.62872" lon="4.60443">
        <ele>831.7</ele>
        <time>2018-05-06T08:08:10Z</time>
      </trkpt>
      <trkpt lat="45.6287" lon="4.60451">
        <ele>831.3</ele>
        <time>2018-05-06T08:08:11Z</time>
      </trkpt>
      <trkpt lat="45.62864" lon="4.60475">
        <ele>829.2</ele>
        <time>2018-05-06T08:08:14Z</time>
      </trkpt>
      <trkpt lat="45.62861" lon="4.60484">
        <ele>828.7</ele>
        <time>2018-05-06T08:08:15Z</time>
      </trkpt>
      <trkpt lat="45.62857" lon="4.60493">
        <ele>828.1</ele>
        <time>2018-05-06T08:08:16Z</time>
      </trkpt>
      <trkpt lat="45.62849" lon="4.60509">
        <ele>826.8</ele>
        <time>2018-05-06T08:08:18Z</time>
      </trkpt>
      <trkpt lat="45.62844" lon="4.60516">
        <ele>826.1</ele>
        <time>2018-05-06T08:08:19Z</time>
      </trkpt>
      <trkpt lat="45.62835" lon="4.60528">
        <ele>825.3</ele>
        <time>2018-05-06T08:08:21Z</time>
      </trkpt>
      <trkpt lat="45.62831" lon="4.60532">
        <ele>824.9</ele>
        <time>2018-05-06T08:08:22Z</time>
      </trkpt>
      <trkpt lat="45.62817" lon="4.60537">
        <ele>823.6</ele>
        <time>2018-05-06T08:08:25Z</time>
      </trkpt>
      <trkpt lat="45.62806" lon="4.60541">
        <ele>822.6</ele>
        <time>2018-05-06T08:08:27Z</time>
      </trkpt>
      <trkpt lat="45.62803" lon="4.60542">
        <ele>822.3</ele>
        <time>2018-05-06T08:08:28Z</time>
      </trkpt>
      <trkpt lat="45.62799" lon="4.60543">
        <ele>822</ele>
        <time>2018-05-06T08:08:29Z</time>
      </trkpt>
      <trkpt lat="45.62793" lon="4.60546">
        <ele>821.4</ele>
        <time>2018-05-06T08:08:31Z</time>
      </trkpt>
      <trkpt lat="45.62785" lon="4.60547">
        <ele>821</ele>
        <time>2018-05-06T08:08:33Z</time>
      </trkpt>
      <trkpt lat="45.62781" lon="4.60548">
        <ele>820.7</ele>
        <time>2018-05-06T08:08:35Z</time>
      </trkpt>
      <trkpt lat="45.62776" lon="4.60551">
        <ele>820.4</ele>
        <time>2018-05-06T08:08:37Z</time>
      </trkpt>
      <trkpt lat="45.62774" lon="4.60553">
        <ele>820.3</ele>
        <time>2018-05-06T08:08:38Z</time>
      </trkpt>
      <trkpt lat="45.6277" lon="4.60555">
        <ele>820</ele>
        <time>2018-05-06T08:08:40Z</time>
      </trkpt>
      <trkpt lat="45.62763" lon="4.60562">
        <ele>819.5</ele>
        <time>2018-05-06T08:08:43Z</time>
      </trkpt>
      <trkpt lat="45.62756" lon="4.60571">
        <ele>819.1</ele>
        <time>2018-05-06T08:08:46Z</time>
      </trkpt>
      <trkpt lat="45.62752" lon="4.60574">
        <ele>819</ele>
        <time>2018-05-06T08:08:48Z</time>
      </trkpt>
      <trkpt lat="45.62748" lon="4.60577">
        <ele>818.9</ele>
        <time>2018-05-06T08:08:55Z</time>
      </trkpt>
      <trkpt lat="45.62745" lon="4.60582">
        <ele>818.8</ele>
        <time>2018-05-06T08:08:57Z</time>
      </trkpt>
      <trkpt lat="45.62743" lon="4.60584">
        <ele>818.8</ele>
        <time>2018-05-06T08:08:58Z</time>
      </trkpt>
      <trkpt lat="45.62736" lon="4.60594">
        <ele>818.6</ele>
        <time>2018-05-06T08:09:01Z</time>
      </trkpt>
      <trkpt lat="45.62731" lon="4.606">
        <ele>818.5</ele>
        <time>2018-05-06T08:09:03Z</time>
      </trkpt>
      <trkpt lat="45.62727" lon="4.60606">
        <ele>818.5</ele>
        <time>2018-05-06T08:09:05Z</time>
      </trkpt>
      <trkpt lat="45.62724" lon="4.6061">
        <ele>818.4</ele>
        <time>2018-05-06T08:09:07Z</time>
      </trkpt>
      <trkpt lat="45.62722" lon="4.60614">
        <ele>818.3</ele>
        <time>2018-05-06T08:09:09Z</time>
      </trkpt>
      <trkpt lat="45.62721" lon="4.60616">
        <ele>818.3</ele>
        <time>2018-05-06T08:09:10Z</time>
      </trkpt>
      <trkpt lat="45.62719" lon="4.60622">
        <ele>818.2</ele>
        <time>2018-05-06T08:09:13Z</time>
      </trkpt>
      <trkpt lat="45.62717" lon="4.60631">
        <ele>818</ele>
        <time>2018-05-06T08:09:16Z</time>
      </trkpt>
      <trkpt lat="45.62713" lon="4.60641">
        <ele>817.8</ele>
        <time>2018-05-06T08:09:19Z</time>
      </trkpt>
      <trkpt lat="45.62712" lon="4.6065">
        <ele>817.6</ele>
        <time>2018-05-06T08:09:21Z</time>
      </trkpt>
      <trkpt lat="45.6271" lon="4.60667">
        <ele>806.7</ele>
        <time>2018-05-06T08:09:24Z</time>
      </trkpt>
      <trkpt lat="45.6271" lon="4.60681">
        <ele>796.5</ele>
        <time>2018-05-06T08:09:26Z</time>
      </trkpt>
      <trkpt lat="45.6271" lon="4.60688">
        <ele>796.9</ele>
        <time>2018-05-06T08:09:27Z</time>
      </trkpt>
      <trkpt lat="45.62709" lon="4.60705">
        <ele>798</ele>
        <time>2018-05-06T08:09:29Z</time>
      </trkpt>
      <trkpt lat="45.62708" lon="4.60711">
        <ele>798.4</ele>
        <time>2018-05-06T08:09:30Z</time>
      </trkpt>
      <trkpt lat="45.62708" lon="4.60719">
        <ele>798.8</ele>
        <time>2018-05-06T08:09:31Z</time>
      </trkpt>
      <trkpt lat="45.62708" lon="4.60728">
        <ele>799.3</ele>
        <time>2018-05-06T08:09:32Z</time>
      </trkpt>
      <trkpt lat="45.62712" lon="4.6076">
        <ele>801.2</ele>
        <time>2018-05-06T08:09:36Z</time>
      </trkpt>
      <trkpt lat="45.62716" lon="4.60788">
        <ele>802.5</ele>
        <time>2018-05-06T08:09:39Z</time>
      </trkpt>
      <trkpt lat="45.62718" lon="4.60798">
        <ele>803.2</ele>
        <time>2018-05-06T08:09:40Z</time>
      </trkpt>
      <trkpt lat="45.62721" lon="4.60819">
        <ele>804.6</ele>
        <time>2018-05-06T08:09:42Z</time>
      </trkpt>
      <trkpt lat="45.62722" lon="4.60828">
        <ele>805</ele>
        <time>2018-05-06T08:09:43Z</time>
      </trkpt>
      <trkpt lat="45.62728" lon="4.60854">
        <ele>805.6</ele>
        <time>2018-05-06T08:09:46Z</time>
      </trkpt>
      <trkpt lat="45.62739" lon="4.60897">
        <ele>801.9</ele>
        <time>2018-05-06T08:09:51Z</time>
      </trkpt>
      <trkpt lat="45.62746" lon="4.60926">
        <ele>796.8</ele>
        <time>2018-05-06T08:09:55Z</time>
      </trkpt>
      <trkpt lat="45.62746" lon="4.60934">
        <ele>795.5</ele>
        <time>2018-05-06T08:09:56Z</time>
      </trkpt>
      <trkpt lat="45.62741" lon="4.60959">
        <ele>791.2</ele>
        <time>2018-05-06T08:09:59Z</time>
      </trkpt>
      <trkpt lat="45.62736" lon="4.60976">
        <ele>789.1</ele>
        <time>2018-05-06T08:10:01Z</time>
      </trkpt>
      <trkpt lat="45.62732" lon="4.60987">
        <ele>787.4</ele>
        <time>2018-05-06T08:10:02Z</time>
      </trkpt>
      <trkpt lat="45.62726" lon="4.61004">
        <ele>785.3</ele>
        <time>2018-05-06T08:10:04Z</time>
      </trkpt>
      <trkpt lat="45.62723" lon="4.61011">
        <ele>783.9</ele>
        <time>2018-05-06T08:10:05Z</time>
      </trkpt>
      <trkpt lat="45.6272" lon="4.61018">
        <ele>782.4</ele>
        <time>2018-05-06T08:10:06Z</time>
      </trkpt>
      <trkpt lat="45.62714" lon="4.61031">
        <ele>780.2</ele>
        <time>2018-05-06T08:10:08Z</time>
      </trkpt>
      <trkpt lat="45.62705" lon="4.61047">
        <ele>777.7</ele>
        <time>2018-05-06T08:10:11Z</time>
      </trkpt>
      <trkpt lat="45.62702" lon="4.61052">
        <ele>777</ele>
        <time>2018-05-06T08:10:12Z</time>
      </trkpt>
      <trkpt lat="45.62699" lon="4.61056">
        <ele>776.2</ele>
        <time>2018-05-06T08:10:13Z</time>
      </trkpt>
      <trkpt lat="45.6269" lon="4.61068">
        <ele>773.9</ele>
        <time>2018-05-06T08:10:16Z</time>
      </trkpt>
      <trkpt lat="45.62687" lon="4.61071">
        <ele>773.3</ele>
        <time>2018-05-06T08:10:17Z</time>
      </trkpt>
      <trkpt lat="45.62686" lon="4.61074">
        <ele>772.8</ele>
        <time>2018-05-06T08:10:18Z</time>
      </trkpt>
      <trkpt lat="45.62676" lon="4.61089">
        <ele>769.2</ele>
        <time>2018-05-06T08:10:22Z</time>
      </trkpt>
      <trkpt lat="45.62672" lon="4.61095">
        <ele>768.1</ele>
        <time>2018-05-06T08:10:24Z</time>
      </trkpt>
      <trkpt lat="45.62667" lon="4.61101">
        <ele>766.8</ele>
        <time>2018-05-06T08:10:26Z</time>
      </trkpt>
      <trkpt lat="45.62664" lon="4.61104">
        <ele>766.3</ele>
        <time>2018-05-06T08:10:27Z</time>
      </trkpt>
      <trkpt lat="45.62662" lon="4.61107">
        <ele>765.6</ele>
        <time>2018-05-06T08:10:28Z</time>
      </trkpt>
      <trkpt lat="45.62658" lon="4.61113">
        <ele>764</ele>
        <time>2018-05-06T08:10:30Z</time>
      </trkpt>
      <trkpt lat="45.62655" lon="4.61116">
        <ele>763</ele>
        <time>2018-05-06T08:10:31Z</time>
      </trkpt>
      <trkpt lat="45.62653" lon="4.61118">
        <ele>762.2</ele>
        <time>2018-05-06T08:10:32Z</time>
      </trkpt>
      <trkpt lat="45.6265" lon="4.61121">
        <ele>761.4</ele>
        <time>2018-05-06T08:10:33Z</time>
      </trkpt>
      <trkpt lat="45.62644" lon="4.61128">
        <ele>759.7</ele>
        <time>2018-05-06T08:10:35Z</time>
      </trkpt>
      <trkpt lat="45.62642" lon="4.61131">
        <ele>758.1</ele>
        <time>2018-05-06T08:10:36Z</time>
      </trkpt>
      <trkpt lat="45.62639" lon="4.61135">
        <ele>757.5</ele>
        <time>2018-05-06T08:10:37Z</time>
      </trkpt>
      <trkpt lat="45.62634" lon="4.61141">
        <ele>756.4</ele>
        <time>2018-05-06T08:10:39Z</time>
      </trkpt>
      <trkpt lat="45.6263" lon="4.61147">
        <ele>755.4</ele>
        <time>2018-05-06T08:10:41Z</time>
      </trkpt>
      <trkpt lat="45.62625" lon="4.61153">
        <ele>754.4</ele>
        <time>2018-05-06T08:10:43Z</time>
      </trkpt>
      <trkpt lat="45.62621" lon="4.61159">
        <ele>752.6</ele>
        <time>2018-05-06T08:10:45Z</time>
      </trkpt>
      <trkpt lat="45.62615" lon="4.61163">
        <ele>750.7</ele>
        <time>2018-05-06T08:10:47Z</time>
      </trkpt>
      <trkpt lat="45.62608" lon="4.61172">
        <ele>748.6</ele>
        <time>2018-05-06T08:10:49Z</time>
      </trkpt>
      <trkpt lat="45.62604" lon="4.61176">
        <ele>747.5</ele>
        <time>2018-05-06T08:10:50Z</time>
      </trkpt>
      <trkpt lat="45.626" lon="4.61181">
        <ele>746.3</ele>
        <time>2018-05-06T08:10:51Z</time>
      </trkpt>
      <trkpt lat="45.62596" lon="4.61185">
        <ele>745.3</ele>
        <time>2018-05-06T08:10:52Z</time>
      </trkpt>
      <trkpt lat="45.62587" lon="4.6119">
        <ele>742.8</ele>
        <time>2018-05-06T08:10:54Z</time>
      </trkpt>
      <trkpt lat="45.62575" lon="4.61199">
        <ele>740.5</ele>
        <time>2018-05-06T08:10:57Z</time>
      </trkpt>
      <trkpt lat="45.62567" lon="4.61205">
        <ele>738.1</ele>
        <time>2018-05-06T08:10:59Z</time>
      </trkpt>
      <trkpt lat="45.62562" lon="4.61207">
        <ele>737.2</ele>
        <time>2018-05-06T08:11:00Z</time>
      </trkpt>
      <trkpt lat="45.62557" lon="4.61208">
        <ele>736.2</ele>
        <time>2018-05-06T08:11:01Z</time>
      </trkpt>
      <trkpt lat="45.62547" lon="4.61208">
        <ele>733.5</ele>
        <time>2018-05-06T08:11:03Z</time>
      </trkpt>
      <trkpt lat="45.62541" lon="4.61209">
        <ele>732.5</ele>
        <time>2018-05-06T08:11:04Z</time>
      </trkpt>
      <trkpt lat="45.62537" lon="4.6121">
        <ele>731.6</ele>
        <time>2018-05-06T08:11:05Z</time>
      </trkpt>
      <trkpt lat="45.62532" lon="4.61212">
        <ele>730.5</ele>
        <time>2018-05-06T08:11:06Z</time>
      </trkpt>
      <trkpt lat="45.62527" lon="4.61214">
        <ele>729.1</ele>
        <time>2018-05-06T08:11:07Z</time>
      </trkpt>
      <trkpt lat="45.62515" lon="4.61222">
        <ele>725.5</ele>
        <time>2018-05-06T08:11:09Z</time>
      </trkpt>
      <trkpt lat="45.62508" lon="4.61225">
        <ele>723.6</ele>
        <time>2018-05-06T08:11:10Z</time>
      </trkpt>
      <trkpt lat="45.62502" lon="4.61229">
        <ele>722.2</ele>
        <time>2018-05-06T08:11:11Z</time>
      </trkpt>
      <trkpt lat="45.62497" lon="4.61232">
        <ele>721</ele>
        <time>2018-05-06T08:11:12Z</time>
      </trkpt>
      <trkpt lat="45.62491" lon="4.61233">
        <ele>720</ele>
        <time>2018-05-06T08:11:13Z</time>
      </trkpt>
      <trkpt lat="45.62487" lon="4.61234">
        <ele>719</ele>
        <time>2018-05-06T08:11:14Z</time>
      </trkpt>
      <trkpt lat="45.62477" lon="4.61237">
        <ele>716.7</ele>
        <time>2018-05-06T08:11:16Z</time>
      </trkpt>
      <trkpt lat="45.62467" lon="4.61241">
        <ele>714.1</ele>
        <time>2018-05-06T08:11:18Z</time>
      </trkpt>
      <trkpt lat="45.62462" lon="4.61244">
        <ele>712.1</ele>
        <time>2018-05-06T08:11:19Z</time>
      </trkpt>
      <trkpt lat="45.62456" lon="4.61247">
        <ele>710.7</ele>
        <time>2018-05-06T08:11:20Z</time>
      </trkpt>
      <trkpt lat="45.62451" lon="4.6125">
        <ele>709.3</ele>
        <time>2018-05-06T08:11:21Z</time>
      </trkpt>
      <trkpt lat="45.62446" lon="4.61251">
        <ele>708.3</ele>
        <time>2018-05-06T08:11:22Z</time>
      </trkpt>
      <trkpt lat="45.62442" lon="4.61254">
        <ele>707.4</ele>
        <time>2018-05-06T08:11:23Z</time>
      </trkpt>
      <trkpt lat="45.62439" lon="4.61256">
        <ele>706.8</ele>
        <time>2018-05-06T08:11:24Z</time>
      </trkpt>
      <trkpt lat="45.62437" lon="4.61257">
        <ele>706.3</ele>
        <time>2018-05-06T08:11:25Z</time>
      </trkpt>
      <trkpt lat="45.62435" lon="4.61258">
        <ele>706</ele>
        <time>2018-05-06T08:11:27Z</time>
      </trkpt>
      <trkpt lat="45.62434" lon="4.61258">
        <ele>705.8</ele>
        <time>2018-05-06T08:11:28Z</time>
      </trkpt>
      <trkpt lat="45.62432" lon="4.61258">
        <ele>705.5</ele>
        <time>2018-05-06T08:11:29Z</time>
      </trkpt>
      <trkpt lat="45.6243" lon="4.61258">
        <ele>705.2</ele>
        <time>2018-05-06T08:11:30Z</time>
      </trkpt>
      <trkpt lat="45.62423" lon="4.61258">
        <ele>704.2</ele>
        <time>2018-05-06T08:11:31Z</time>
      </trkpt>
      <trkpt lat="45.62418" lon="4.6126">
        <ele>703.4</ele>
        <time>2018-05-06T08:11:32Z</time>
      </trkpt>
      <trkpt lat="45.62412" lon="4.61261">
        <ele>702.6</ele>
        <time>2018-05-06T08:11:33Z</time>
      </trkpt>
      <trkpt lat="45.62404" lon="4.61261">
        <ele>700.9</ele>
        <time>2018-05-06T08:11:34Z</time>
      </trkpt>
      <trkpt lat="45.62391" lon="4.61261">
        <ele>698.9</ele>
        <time>2018-05-06T08:11:36Z</time>
      </trkpt>
      <trkpt lat="45.62384" lon="4.61261">
        <ele>698.1</ele>
        <time>2018-05-06T08:11:37Z</time>
      </trkpt>
      <trkpt lat="45.62373" lon="4.6126">
        <ele>696.2</ele>
        <time>2018-05-06T08:11:39Z</time>
      </trkpt>
      <trkpt lat="45.62367" lon="4.6126">
        <ele>694.4</ele>
        <time>2018-05-06T08:11:40Z</time>
      </trkpt>
      <trkpt lat="45.62361" lon="4.61261">
        <ele>692.8</ele>
        <time>2018-05-06T08:11:41Z</time>
      </trkpt>
      <trkpt lat="45.62356" lon="4.61262">
        <ele>691.6</ele>
        <time>2018-05-06T08:11:42Z</time>
      </trkpt>
      <trkpt lat="45.62351" lon="4.61265">
        <ele>690.5</ele>
        <time>2018-05-06T08:11:43Z</time>
      </trkpt>
      <trkpt lat="45.62347" lon="4.61268">
        <ele>689.6</ele>
        <time>2018-05-06T08:11:44Z</time>
      </trkpt>
      <trkpt lat="45.62344" lon="4.6127">
        <ele>688.8</ele>
        <time>2018-05-06T08:11:45Z</time>
      </trkpt>
      <trkpt lat="45.62341" lon="4.61273">
        <ele>688.1</ele>
        <time>2018-05-06T08:11:46Z</time>
      </trkpt>
      <trkpt lat="45.62339" lon="4.61276">
        <ele>687.4</ele>
        <time>2018-05-06T08:11:47Z</time>
      </trkpt>
      <trkpt lat="45.62334" lon="4.61282">
        <ele>686.2</ele>
        <time>2018-05-06T08:11:49Z</time>
      </trkpt>
      <trkpt lat="45.62331" lon="4.61287">
        <ele>685.3</ele>
        <time>2018-05-06T08:11:50Z</time>
      </trkpt>
      <trkpt lat="45.62328" lon="4.6129">
        <ele>684.5</ele>
        <time>2018-05-06T08:11:51Z</time>
      </trkpt>
      <trkpt lat="45.62325" lon="4.61293">
        <ele>683.7</ele>
        <time>2018-05-06T08:11:52Z</time>
      </trkpt>
      <trkpt lat="45.62321" lon="4.61295">
        <ele>682.7</ele>
        <time>2018-05-06T08:11:53Z</time>
      </trkpt>
      <trkpt lat="45.62317" lon="4.61296">
        <ele>681.8</ele>
        <time>2018-05-06T08:11:54Z</time>
      </trkpt>
      <trkpt lat="45.62313" lon="4.61298">
        <ele>680.8</ele>
        <time>2018-05-06T08:11:55Z</time>
      </trkpt>
      <trkpt lat="45.62303" lon="4.61303">
        <ele>678.4</ele>
        <time>2018-05-06T08:11:57Z</time>
      </trkpt>
      <trkpt lat="45.62298" lon="4.61305">
        <ele>677.3</ele>
        <time>2018-05-06T08:11:58Z</time>
      </trkpt>
      <trkpt lat="45.62294" lon="4.61308">
        <ele>676.2</ele>
        <time>2018-05-06T08:11:59Z</time>
      </trkpt>
      <trkpt lat="45.62289" lon="4.6131">
        <ele>675.1</ele>
        <time>2018-05-06T08:12:00Z</time>
      </trkpt>
      <trkpt lat="45.62284" lon="4.61313">
        <ele>673.8</ele>
        <time>2018-05-06T08:12:01Z</time>
      </trkpt>
      <trkpt lat="45.62274" lon="4.6132">
        <ele>671.1</ele>
        <time>2018-05-06T08:12:03Z</time>
      </trkpt>
      <trkpt lat="45.62269" lon="4.61323">
        <ele>669.9</ele>
        <time>2018-05-06T08:12:04Z</time>
      </trkpt>
      <trkpt lat="45.62264" lon="4.61326">
        <ele>668.8</ele>
        <time>2018-05-06T08:12:05Z</time>
      </trkpt>
      <trkpt lat="45.62253" lon="4.61333">
        <ele>666.8</ele>
        <time>2018-05-06T08:12:07Z</time>
      </trkpt>
      <trkpt lat="45.62248" lon="4.61337">
        <ele>665.7</ele>
        <time>2018-05-06T08:12:08Z</time>
      </trkpt>
      <trkpt lat="45.62242" lon="4.61342">
        <ele>664.7</ele>
        <time>2018-05-06T08:12:09Z</time>
      </trkpt>
      <trkpt lat="45.62236" lon="4.61345">
        <ele>663.7</ele>
        <time>2018-05-06T08:12:10Z</time>
      </trkpt>
      <trkpt lat="45.6223" lon="4.61347">
        <ele>662.8</ele>
        <time>2018-05-06T08:12:11Z</time>
      </trkpt>
      <trkpt lat="45.62224" lon="4.61349">
        <ele>661.9</ele>
        <time>2018-05-06T08:12:12Z</time>
      </trkpt>
      <trkpt lat="45.62211" lon="4.61352">
        <ele>659.6</ele>
        <time>2018-05-06T08:12:14Z</time>
      </trkpt>
      <trkpt lat="45.62199" lon="4.61354">
        <ele>657.5</ele>
        <time>2018-05-06T08:12:16Z</time>
      </trkpt>
      <trkpt lat="45.6219" lon="4.61353">
        <ele>656</ele>
        <time>2018-05-06T08:12:18Z</time>
      </trkpt>
      <trkpt lat="45.62184" lon="4.61353">
        <ele>655.1</ele>
        <time>2018-05-06T08:12:20Z</time>
      </trkpt>
      <trkpt lat="45.62181" lon="4.61353">
        <ele>654.6</ele>
        <time>2018-05-06T08:12:21Z</time>
      </trkpt>
      <trkpt lat="45.62179" lon="4.61353">
        <ele>654.2</ele>
        <time>2018-05-06T08:12:22Z</time>
      </trkpt>
      <trkpt lat="45.62171" lon="4.6135">
        <ele>654.3</ele>
        <time>2018-05-06T08:12:25Z</time>
      </trkpt>
      <trkpt lat="45.62164" lon="4.61345">
        <ele>654.6</ele>
        <time>2018-05-06T08:12:27Z</time>
      </trkpt>
      <trkpt lat="45.62158" lon="4.61339">
        <ele>654.9</ele>
        <time>2018-05-06T08:12:29Z</time>
      </trkpt>
      <trkpt lat="45.6215" lon="4.6133">
        <ele>655.5</ele>
        <time>2018-05-06T08:12:32Z</time>
      </trkpt>
      <trkpt lat="45.62137" lon="4.61316">
        <ele>656.6</ele>
        <time>2018-05-06T08:12:38Z</time>
      </trkpt>
      <trkpt lat="45.62128" lon="4.61307">
        <ele>657.4</ele>
        <time>2018-05-06T08:12:43Z</time>
      </trkpt>
      <trkpt lat="45.62117" lon="4.61296">
        <ele>658.1</ele>
        <time>2018-05-06T08:12:48Z</time>
      </trkpt>
      <trkpt lat="45.62107" lon="4.61287">
        <ele>658.9</ele>
        <time>2018-05-06T08:12:53Z</time>
      </trkpt>
      <trkpt lat="45.62106" lon="4.61285">
        <ele>659.1</ele>
        <time>2018-05-06T08:12:54Z</time>
      </trkpt>
      <trkpt lat="45.62103" lon="4.61283">
        <ele>659.3</ele>
        <time>2018-05-06T08:12:56Z</time>
      </trkpt>
      <trkpt lat="45.62099" lon="4.6128">
        <ele>659.7</ele>
        <time>2018-05-06T08:12:59Z</time>
      </trkpt>
      <trkpt lat="45.62098" lon="4.61279">
        <ele>659.8</ele>
        <time>2018-05-06T08:13:00Z</time>
      </trkpt>
      <trkpt lat="45.62094" lon="4.61275">
        <ele>660.2</ele>
        <time>2018-05-06T08:13:03Z</time>
      </trkpt>
      <trkpt lat="45.62089" lon="4.6127">
        <ele>660.7</ele>
        <time>2018-05-06T08:13:06Z</time>
      </trkpt>
      <trkpt lat="45.62086" lon="4.61268">
        <ele>661</ele>
        <time>2018-05-06T08:13:08Z</time>
      </trkpt>
      <trkpt lat="45.62084" lon="4.61267">
        <ele>661.2</ele>
        <time>2018-05-06T08:13:09Z</time>
      </trkpt>
      <trkpt lat="45.62079" lon="4.61262">
        <ele>661.9</ele>
        <time>2018-05-06T08:13:12Z</time>
      </trkpt>
      <trkpt lat="45.6205" lon="4.61237">
        <ele>667.5</ele>
        <time>2018-05-06T08:13:29Z</time>
      </trkpt>
      <trkpt lat="45.62042" lon="4.6123">
        <ele>669.1</ele>
        <time>2018-05-06T08:13:34Z</time>
      </trkpt>
      <trkpt lat="45.62036" lon="4.61225">
        <ele>670.5</ele>
        <time>2018-05-06T08:13:39Z</time>
      </trkpt>
      <trkpt lat="45.62034" lon="4.61222">
        <ele>671</ele>
        <time>2018-05-06T08:13:41Z</time>
      </trkpt>
      <trkpt lat="45.62033" lon="4.6122">
        <ele>671.2</ele>
        <time>2018-05-06T08:13:42Z</time>
      </trkpt>
      <trkpt lat="45.6203" lon="4.61213">
        <ele>672</ele>
        <time>2018-05-06T08:13:45Z</time>
      </trkpt>
      <trkpt lat="45.62028" lon="4.61207">
        <ele>672.5</ele>
        <time>2018-05-06T08:13:48Z</time>
      </trkpt>
      <trkpt lat="45.62026" lon="4.61201">
        <ele>673</ele>
        <time>2018-05-06T08:13:51Z</time>
      </trkpt>
      <trkpt lat="45.62023" lon="4.61195">
        <ele>673.5</ele>
        <time>2018-05-06T08:13:55Z</time>
      </trkpt>
      <trkpt lat="45.62022" lon="4.61193">
        <ele>673.7</ele>
        <time>2018-05-06T08:13:56Z</time>
      </trkpt>
      <trkpt lat="45.62017" lon="4.61185">
        <ele>674.5</ele>
        <time>2018-05-06T08:14:01Z</time>
      </trkpt>
      <trkpt lat="45.62015" lon="4.61182">
        <ele>674.7</ele>
        <time>2018-05-06T08:14:03Z</time>
      </trkpt>
      <trkpt lat="45.62012" lon="4.61179">
        <ele>675</ele>
        <time>2018-05-06T08:14:06Z</time>
      </trkpt>
      <trkpt lat="45.62" lon="4.61131">
        <ele>680.8</ele>
        <time>2018-05-06T08:14:33Z</time>
      </trkpt>
      <trkpt lat="45.62" lon="4.61129">
        <ele>681</ele>
        <time>2018-05-06T08:14:34Z</time>
      </trkpt>
      <trkpt lat="45.62" lon="4.61125">
        <ele>681.5</ele>
        <time>2018-05-06T08:14:36Z</time>
      </trkpt>
      <trkpt lat="45.62001" lon="4.611">
        <ele>686.5</ele>
        <time>2018-05-06T08:14:54Z</time>
      </trkpt>
      <trkpt lat="45.62001" lon="4.61095">
        <ele>687.3</ele>
        <time>2018-05-06T08:14:57Z</time>
      </trkpt>
      <trkpt lat="45.62016" lon="4.61027">
        <ele>694.2</ele>
        <time>2018-05-06T08:15:44Z</time>
      </trkpt>
      <trkpt lat="45.62016" lon="4.6102">
        <ele>694.5</ele>
        <time>2018-05-06T08:15:47Z</time>
      </trkpt>
      <trkpt lat="45.62021" lon="4.61">
        <ele>694.8</ele>
        <time>2018-05-06T08:15:55Z</time>
      </trkpt>
      <trkpt lat="45.62027" lon="4.60985">
        <ele>695.2</ele>
        <time>2018-05-06T08:16:03Z</time>
      </trkpt>
      <trkpt lat="45.62036" lon="4.60966">
        <ele>696.4</ele>
        <time>2018-05-06T08:16:10Z</time>
      </trkpt>
      <trkpt lat="45.62037" lon="4.60964">
        <ele>696.6</ele>
        <time>2018-05-06T08:16:11Z</time>
      </trkpt>
      <trkpt lat="45.62042" lon="4.60956">
        <ele>697.4</ele>
        <time>2018-05-06T08:16:16Z</time>
      </trkpt>
      <trkpt lat="45.62045" lon="4.60952">
        <ele>697.8</ele>
        <time>2018-05-06T08:16:18Z</time>
      </trkpt>
      <trkpt lat="45.62046" lon="4.6095">
        <ele>698</ele>
        <time>2018-05-06T08:16:19Z</time>
      </trkpt>
      <trkpt lat="45.62052" lon="4.60938">
        <ele>699.3</ele>
        <time>2018-05-06T08:16:23Z</time>
      </trkpt>
      <trkpt lat="45.62053" lon="4.60932">
        <ele>699.8</ele>
        <time>2018-05-06T08:16:25Z</time>
      </trkpt>
      <trkpt lat="45.62054" lon="4.60929">
        <ele>700</ele>
        <time>2018-05-06T08:16:26Z</time>
      </trkpt>
      <trkpt lat="45.62034" lon="4.60896">
        <ele>701.3</ele>
        <time>2018-05-06T08:17:41Z</time>
      </trkpt>
      <trkpt lat="45.62031" lon="4.60896">
        <ele>701.2</ele>
        <time>2018-05-06T08:17:42Z</time>
      </trkpt>
      <trkpt lat="45.62019" lon="4.60892">
        <ele>700.9</ele>
        <time>2018-05-06T08:17:49Z</time>
      </trkpt>
      <trkpt lat="45.62003" lon="4.60893">
        <ele>700.4</ele>
        <time>2018-05-06T08:17:55Z</time>
      </trkpt>
      <trkpt lat="45.61994" lon="4.60901">
        <ele>700.2</ele>
        <time>2018-05-06T08:18:00Z</time>
      </trkpt>
      <trkpt lat="45.61989" lon="4.60908">
        <ele>700.2</ele>
        <time>2018-05-06T08:18:02Z</time>
      </trkpt>
      <trkpt lat="45.61982" lon="4.60914">
        <ele>700.1</ele>
        <time>2018-05-06T08:18:04Z</time>
      </trkpt>
      <trkpt lat="45.61963" lon="4.6092">
        <ele>696.4</ele>
        <time>2018-05-06T08:18:08Z</time>
      </trkpt>
      <trkpt lat="45.61957" lon="4.60921">
        <ele>696.2</ele>
        <time>2018-05-06T08:18:09Z</time>
      </trkpt>
      <trkpt lat="45.61948" lon="4.60922">
        <ele>696</ele>
        <time>2018-05-06T08:18:10Z</time>
      </trkpt>
      <trkpt lat="45.61929" lon="4.60931">
        <ele>693.5</ele>
        <time>2018-05-06T08:18:13Z</time>
      </trkpt>
      <trkpt lat="45.61896" lon="4.60958">
        <ele>685.8</ele>
        <time>2018-05-06T08:18:18Z</time>
      </trkpt>
      <trkpt lat="45.61867" lon="4.60964">
        <ele>685.4</ele>
        <time>2018-05-06T08:18:22Z</time>
      </trkpt>
      <trkpt lat="45.61857" lon="4.60964">
        <ele>686.1</ele>
        <time>2018-05-06T08:18:24Z</time>
      </trkpt>
      <trkpt lat="45.6183" lon="4.60964">
        <ele>687.4</ele>
        <time>2018-05-06T08:18:29Z</time>
      </trkpt>
      <trkpt lat="45.61813" lon="4.60965">
        <ele>688.1</ele>
        <time>2018-05-06T08:18:33Z</time>
      </trkpt>
      <trkpt lat="45.61803" lon="4.60965">
        <ele>688.6</ele>
        <time>2018-05-06T08:18:35Z</time>
      </trkpt>
      <trkpt lat="45.61794" lon="4.60966">
        <ele>689.1</ele>
        <time>2018-05-06T08:18:37Z</time>
      </trkpt>
      <trkpt lat="45.61783" lon="4.60967">
        <ele>688.1</ele>
        <time>2018-05-06T08:18:39Z</time>
      </trkpt>
      <trkpt lat="45.61778" lon="4.60968">
        <ele>688.5</ele>
        <time>2018-05-06T08:18:40Z</time>
      </trkpt>
      <trkpt lat="45.61764" lon="4.60969">
        <ele>689.3</ele>
        <time>2018-05-06T08:18:42Z</time>
      </trkpt>
      <trkpt lat="45.61758" lon="4.60972">
        <ele>688.4</ele>
        <time>2018-05-06T08:18:43Z</time>
      </trkpt>
      <trkpt lat="45.61742" lon="4.60985">
        <ele>685.5</ele>
        <time>2018-05-06T08:18:46Z</time>
      </trkpt>
      <trkpt lat="45.61733" lon="4.60995">
        <ele>687.5</ele>
        <time>2018-05-06T08:18:48Z</time>
      </trkpt>
      <trkpt lat="45.61712" lon="4.61018">
        <ele>688.6</ele>
        <time>2018-05-06T08:18:52Z</time>
      </trkpt>
      <trkpt lat="45.61706" lon="4.61024">
        <ele>687.9</ele>
        <time>2018-05-06T08:18:53Z</time>
      </trkpt>
      <trkpt lat="45.61694" lon="4.61035">
        <ele>687</ele>
        <time>2018-05-06T08:18:55Z</time>
      </trkpt>
      <trkpt lat="45.61675" lon="4.61055">
        <ele>688.1</ele>
        <time>2018-05-06T08:18:58Z</time>
      </trkpt>
      <trkpt lat="45.61655" lon="4.61093">
        <ele>685.9</ele>
        <time>2018-05-06T08:19:02Z</time>
      </trkpt>
      <trkpt lat="45.61645" lon="4.61117">
        <ele>684.3</ele>
        <time>2018-05-06T08:19:04Z</time>
      </trkpt>
      <trkpt lat="45.61635" lon="4.6115">
        <ele>682.2</ele>
        <time>2018-05-06T08:19:07Z</time>
      </trkpt>
      <trkpt lat="45.61625" lon="4.61184">
        <ele>678</ele>
        <time>2018-05-06T08:19:10Z</time>
      </trkpt>
      <trkpt lat="45.61615" lon="4.61208">
        <ele>676.8</ele>
        <time>2018-05-06T08:19:12Z</time>
      </trkpt>
      <trkpt lat="45.61597" lon="4.6126">
        <ele>675.8</ele>
        <time>2018-05-06T08:19:17Z</time>
      </trkpt>
      <trkpt lat="45.61582" lon="4.61304">
        <ele>674.8</ele>
        <time>2018-05-06T08:19:22Z</time>
      </trkpt>
      <trkpt lat="45.61575" lon="4.6133">
        <ele>673</ele>
        <time>2018-05-06T08:19:25Z</time>
      </trkpt>
      <trkpt lat="45.6157" lon="4.61348">
        <ele>671.5</ele>
        <time>2018-05-06T08:19:27Z</time>
      </trkpt>
      <trkpt lat="45.6156" lon="4.61379">
        <ele>669.4</ele>
        <time>2018-05-06T08:19:30Z</time>
      </trkpt>
      <trkpt lat="45.61556" lon="4.61389">
        <ele>668.4</ele>
        <time>2018-05-06T08:19:31Z</time>
      </trkpt>
      <trkpt lat="45.61538" lon="4.61419">
        <ele>664.9</ele>
        <time>2018-05-06T08:19:34Z</time>
      </trkpt>
      <trkpt lat="45.61532" lon="4.61426">
        <ele>664.2</ele>
        <time>2018-05-06T08:19:35Z</time>
      </trkpt>
      <trkpt lat="45.61527" lon="4.61431">
        <ele>662.7</ele>
        <time>2018-05-06T08:19:36Z</time>
      </trkpt>
      <trkpt lat="45.61518" lon="4.61434">
        <ele>660</ele>
        <time>2018-05-06T08:19:37Z</time>
      </trkpt>
      <trkpt lat="45.61509" lon="4.61438">
        <ele>659.5</ele>
        <time>2018-05-06T08:19:38Z</time>
      </trkpt>
      <trkpt lat="45.615" lon="4.61441">
        <ele>659.2</ele>
        <time>2018-05-06T08:19:39Z</time>
      </trkpt>
      <trkpt lat="45.61488" lon="4.6145">
        <ele>657.3</ele>
        <time>2018-05-06T08:19:41Z</time>
      </trkpt>
      <trkpt lat="45.61482" lon="4.61455">
        <ele>654.8</ele>
        <time>2018-05-06T08:19:42Z</time>
      </trkpt>
      <trkpt lat="45.61468" lon="4.61475">
        <ele>648.6</ele>
        <time>2018-05-06T08:19:45Z</time>
      </trkpt>
      <trkpt lat="45.61462" lon="4.61481">
        <ele>646.2</ele>
        <time>2018-05-06T08:19:46Z</time>
      </trkpt>
      <trkpt lat="45.61455" lon="4.61485">
        <ele>643.8</ele>
        <time>2018-05-06T08:19:47Z</time>
      </trkpt>
      <trkpt lat="45.61448" lon="4.6149">
        <ele>642</ele>
        <time>2018-05-06T08:19:48Z</time>
      </trkpt>
      <trkpt lat="45.61442" lon="4.61493">
        <ele>640.5</ele>
        <time>2018-05-06T08:19:49Z</time>
      </trkpt>
      <trkpt lat="45.61437" lon="4.61493">
        <ele>639.3</ele>
        <time>2018-05-06T08:19:50Z</time>
      </trkpt>
      <trkpt lat="45.61432" lon="4.61491">
        <ele>638.7</ele>
        <time>2018-05-06T08:19:51Z</time>
      </trkpt>
      <trkpt lat="45.61429" lon="4.61484">
        <ele>638.9</ele>
        <time>2018-05-06T08:19:52Z</time>
      </trkpt>
      <trkpt lat="45.61425" lon="4.61474">
        <ele>639.5</ele>
        <time>2018-05-06T08:19:53Z</time>
      </trkpt>
      <trkpt lat="45.61422" lon="4.61466">
        <ele>639.9</ele>
        <time>2018-05-06T08:19:54Z</time>
      </trkpt>
      <trkpt lat="45.6142" lon="4.61458">
        <ele>639.4</ele>
        <time>2018-05-06T08:19:55Z</time>
      </trkpt>
      <trkpt lat="45.61417" lon="4.6145">
        <ele>638.8</ele>
        <time>2018-05-06T08:19:56Z</time>
      </trkpt>
      <trkpt lat="45.61412" lon="4.6144">
        <ele>637.7</ele>
        <time>2018-05-06T08:19:57Z</time>
      </trkpt>
      <trkpt lat="45.61405" lon="4.61432">
        <ele>636.3</ele>
        <time>2018-05-06T08:19:58Z</time>
      </trkpt>
      <trkpt lat="45.61401" lon="4.61424">
        <ele>635.4</ele>
        <time>2018-05-06T08:19:59Z</time>
      </trkpt>
      <trkpt lat="45.61396" lon="4.61417">
        <ele>633.2</ele>
        <time>2018-05-06T08:20:00Z</time>
      </trkpt>
      <trkpt lat="45.61391" lon="4.6141">
        <ele>631.8</ele>
        <time>2018-05-06T08:20:01Z</time>
      </trkpt>
      <trkpt lat="45.61386" lon="4.61402">
        <ele>630.3</ele>
        <time>2018-05-06T08:20:02Z</time>
      </trkpt>
      <trkpt lat="45.61377" lon="4.61391">
        <ele>628.6</ele>
        <time>2018-05-06T08:20:03Z</time>
      </trkpt>
      <trkpt lat="45.61369" lon="4.61381">
        <ele>626.2</ele>
        <time>2018-05-06T08:20:04Z</time>
      </trkpt>
      <trkpt lat="45.61362" lon="4.61371">
        <ele>623.7</ele>
        <time>2018-05-06T08:20:05Z</time>
      </trkpt>
      <trkpt lat="45.61355" lon="4.61362">
        <ele>622.3</ele>
        <time>2018-05-06T08:20:06Z</time>
      </trkpt>
      <trkpt lat="45.61348" lon="4.61355">
        <ele>620</ele>
        <time>2018-05-06T08:20:07Z</time>
      </trkpt>
      <trkpt lat="45.61342" lon="4.61348">
        <ele>617.4</ele>
        <time>2018-05-06T08:20:08Z</time>
      </trkpt>
      <trkpt lat="45.61335" lon="4.61342">
        <ele>615.4</ele>
        <time>2018-05-06T08:20:09Z</time>
      </trkpt>
      <trkpt lat="45.61328" lon="4.61337">
        <ele>614.1</ele>
        <time>2018-05-06T08:20:10Z</time>
      </trkpt>
      <trkpt lat="45.61322" lon="4.61331">
        <ele>612.5</ele>
        <time>2018-05-06T08:20:11Z</time>
      </trkpt>
      <trkpt lat="45.61317" lon="4.61326">
        <ele>610.8</ele>
        <time>2018-05-06T08:20:12Z</time>
      </trkpt>
      <trkpt lat="45.61312" lon="4.61322">
        <ele>609.1</ele>
        <time>2018-05-06T08:20:13Z</time>
      </trkpt>
      <trkpt lat="45.61308" lon="4.61317">
        <ele>607.6</ele>
        <time>2018-05-06T08:20:14Z</time>
      </trkpt>
      <trkpt lat="45.61303" lon="4.61312">
        <ele>606.2</ele>
        <time>2018-05-06T08:20:15Z</time>
      </trkpt>
      <trkpt lat="45.61298" lon="4.61306">
        <ele>605.3</ele>
        <time>2018-05-06T08:20:16Z</time>
      </trkpt>
      <trkpt lat="45.61294" lon="4.613">
        <ele>604</ele>
        <time>2018-05-06T08:20:17Z</time>
      </trkpt>
      <trkpt lat="45.61289" lon="4.61294">
        <ele>603.1</ele>
        <time>2018-05-06T08:20:18Z</time>
      </trkpt>
      <trkpt lat="45.61285" lon="4.61288">
        <ele>602.1</ele>
        <time>2018-05-06T08:20:19Z</time>
      </trkpt>
      <trkpt lat="45.61281" lon="4.61281">
        <ele>601.1</ele>
        <time>2018-05-06T08:20:20Z</time>
      </trkpt>
      <trkpt lat="45.61277" lon="4.61272">
        <ele>600.4</ele>
        <time>2018-05-06T08:20:21Z</time>
      </trkpt>
      <trkpt lat="45.61274" lon="4.61264">
        <ele>599.5</ele>
        <time>2018-05-06T08:20:22Z</time>
      </trkpt>
      <trkpt lat="45.6127" lon="4.61257">
        <ele>598.4</ele>
        <time>2018-05-06T08:20:23Z</time>
      </trkpt>
      <trkpt lat="45.61264" lon="4.61251">
        <ele>597.4</ele>
        <time>2018-05-06T08:20:24Z</time>
      </trkpt>
      <trkpt lat="45.61257" lon="4.61247">
        <ele>596.3</ele>
        <time>2018-05-06T08:20:25Z</time>
      </trkpt>
      <trkpt lat="45.6125" lon="4.61244">
        <ele>594.9</ele>
        <time>2018-05-06T08:20:26Z</time>
      </trkpt>
      <trkpt lat="45.61242" lon="4.6124">
        <ele>593.5</ele>
        <time>2018-05-06T08:20:27Z</time>
      </trkpt>
      <trkpt lat="45.61234" lon="4.61236">
        <ele>593.1</ele>
        <time>2018-05-06T08:20:28Z</time>
      </trkpt>
      <trkpt lat="45.61227" lon="4.6123">
        <ele>594</ele>
        <time>2018-05-06T08:20:29Z</time>
      </trkpt>
      <trkpt lat="45.61219" lon="4.61223">
        <ele>594.9</ele>
        <time>2018-05-06T08:20:30Z</time>
      </trkpt>
      <trkpt lat="45.61212" lon="4.61219">
        <ele>595.6</ele>
        <time>2018-05-06T08:20:31Z</time>
      </trkpt>
      <trkpt lat="45.61195" lon="4.61212">
        <ele>596.6</ele>
        <time>2018-05-06T08:20:33Z</time>
      </trkpt>
      <trkpt lat="45.61188" lon="4.6121">
        <ele>597</ele>
        <time>2018-05-06T08:20:34Z</time>
      </trkpt>
      <trkpt lat="45.61179" lon="4.61209">
        <ele>597.5</ele>
        <time>2018-05-06T08:20:35Z</time>
      </trkpt>
      <trkpt lat="45.6117" lon="4.6121">
        <ele>598.1</ele>
        <time>2018-05-06T08:20:36Z</time>
      </trkpt>
      <trkpt lat="45.61163" lon="4.6121">
        <ele>598.7</ele>
        <time>2018-05-06T08:20:37Z</time>
      </trkpt>
      <trkpt lat="45.61156" lon="4.61209">
        <ele>599</ele>
        <time>2018-05-06T08:20:38Z</time>
      </trkpt>
      <trkpt lat="45.61148" lon="4.61207">
        <ele>599.3</ele>
        <time>2018-05-06T08:20:39Z</time>
      </trkpt>
      <trkpt lat="45.61141" lon="4.61207">
        <ele>599.5</ele>
        <time>2018-05-06T08:20:40Z</time>
      </trkpt>
      <trkpt lat="45.61125" lon="4.61211">
        <ele>600</ele>
        <time>2018-05-06T08:20:42Z</time>
      </trkpt>
      <trkpt lat="45.61103" lon="4.61218">
        <ele>600.3</ele>
        <time>2018-05-06T08:20:45Z</time>
      </trkpt>
      <trkpt lat="45.61098" lon="4.6122">
        <ele>600.4</ele>
        <time>2018-05-06T08:20:46Z</time>
      </trkpt>
      <trkpt lat="45.61091" lon="4.61225">
        <ele>600.5</ele>
        <time>2018-05-06T08:20:48Z</time>
      </trkpt>
      <trkpt lat="45.61086" lon="4.61231">
        <ele>600.5</ele>
        <time>2018-05-06T08:20:50Z</time>
      </trkpt>
      <trkpt lat="45.61084" lon="4.61233">
        <ele>600.6</ele>
        <time>2018-05-06T08:20:51Z</time>
      </trkpt>
      <trkpt lat="45.61077" lon="4.61238">
        <ele>601</ele>
        <time>2018-05-06T08:20:54Z</time>
      </trkpt>
      <trkpt lat="45.6107" lon="4.61242">
        <ele>602.1</ele>
        <time>2018-05-06T08:20:57Z</time>
      </trkpt>
      <trkpt lat="45.61068" lon="4.61244">
        <ele>602.3</ele>
        <time>2018-05-06T08:20:58Z</time>
      </trkpt>
      <trkpt lat="45.61059" lon="4.61252">
        <ele>603.5</ele>
        <time>2018-05-06T08:21:03Z</time>
      </trkpt>
      <trkpt lat="45.61047" lon="4.61265">
        <ele>605.4</ele>
        <time>2018-05-06T08:21:07Z</time>
      </trkpt>
      <trkpt lat="45.61031" lon="4.61284">
        <ele>598.6</ele>
        <time>2018-05-06T08:21:10Z</time>
      </trkpt>
      <trkpt lat="45.61026" lon="4.61293">
        <ele>594.2</ele>
        <time>2018-05-06T08:21:11Z</time>
      </trkpt>
      <trkpt lat="45.61017" lon="4.61311">
        <ele>586.9</ele>
        <time>2018-05-06T08:21:13Z</time>
      </trkpt>
      <trkpt lat="45.61008" lon="4.61328">
        <ele>580.6</ele>
        <time>2018-05-06T08:21:15Z</time>
      </trkpt>
      <trkpt lat="45.61005" lon="4.61335">
        <ele>579.3</ele>
        <time>2018-05-06T08:21:16Z</time>
      </trkpt>
      <trkpt lat="45.61001" lon="4.61341">
        <ele>578.2</ele>
        <time>2018-05-06T08:21:17Z</time>
      </trkpt>
      <trkpt lat="45.60996" lon="4.61348">
        <ele>577</ele>
        <time>2018-05-06T08:21:19Z</time>
      </trkpt>
      <trkpt lat="45.60992" lon="4.6136">
        <ele>575.5</ele>
        <time>2018-05-06T08:21:22Z</time>
      </trkpt>
      <trkpt lat="45.6099" lon="4.61367">
        <ele>574.7</ele>
        <time>2018-05-06T08:21:23Z</time>
      </trkpt>
      <trkpt lat="45.60986" lon="4.61376">
        <ele>573.8</ele>
        <time>2018-05-06T08:21:24Z</time>
      </trkpt>
      <trkpt lat="45.60983" lon="4.61385">
        <ele>572.8</ele>
        <time>2018-05-06T08:21:25Z</time>
      </trkpt>
      <trkpt lat="45.6098" lon="4.61396">
        <ele>571.8</ele>
        <time>2018-05-06T08:21:26Z</time>
      </trkpt>
      <trkpt lat="45.6098" lon="4.61407">
        <ele>570.8</ele>
        <time>2018-05-06T08:21:27Z</time>
      </trkpt>
      <trkpt lat="45.60981" lon="4.61418">
        <ele>569.1</ele>
        <time>2018-05-06T08:21:28Z</time>
      </trkpt>
      <trkpt lat="45.60979" lon="4.61427">
        <ele>567.8</ele>
        <time>2018-05-06T08:21:29Z</time>
      </trkpt>
      <trkpt lat="45.60974" lon="4.61434">
        <ele>566.9</ele>
        <time>2018-05-06T08:21:30Z</time>
      </trkpt>
      <trkpt lat="45.60968" lon="4.61443">
        <ele>565.9</ele>
        <time>2018-05-06T08:21:31Z</time>
      </trkpt>
      <trkpt lat="45.60963" lon="4.61452">
        <ele>564.8</ele>
        <time>2018-05-06T08:21:32Z</time>
      </trkpt>
      <trkpt lat="45.60956" lon="4.6146">
        <ele>563.6</ele>
        <time>2018-05-06T08:21:33Z</time>
      </trkpt>
      <trkpt lat="45.6095" lon="4.61469">
        <ele>562.5</ele>
        <time>2018-05-06T08:21:34Z</time>
      </trkpt>
      <trkpt lat="45.60944" lon="4.61477">
        <ele>561.5</ele>
        <time>2018-05-06T08:21:35Z</time>
      </trkpt>
      <trkpt lat="45.60938" lon="4.61485">
        <ele>560.6</ele>
        <time>2018-05-06T08:21:36Z</time>
      </trkpt>
      <trkpt lat="45.60934" lon="4.61494">
        <ele>559.7</ele>
        <time>2018-05-06T08:21:37Z</time>
      </trkpt>
      <trkpt lat="45.6093" lon="4.61501">
        <ele>558.9</ele>
        <time>2018-05-06T08:21:38Z</time>
      </trkpt>
      <trkpt lat="45.60926" lon="4.61508">
        <ele>558.1</ele>
        <time>2018-05-06T08:21:39Z</time>
      </trkpt>
      <trkpt lat="45.60922" lon="4.61516">
        <ele>557.4</ele>
        <time>2018-05-06T08:21:40Z</time>
      </trkpt>
      <trkpt lat="45.60918" lon="4.61524">
        <ele>556.5</ele>
        <time>2018-05-06T08:21:41Z</time>
      </trkpt>
      <trkpt lat="45.60914" lon="4.61533">
        <ele>555.6</ele>
        <time>2018-05-06T08:21:42Z</time>
      </trkpt>
      <trkpt lat="45.60909" lon="4.61542">
        <ele>554.2</ele>
        <time>2018-05-06T08:21:43Z</time>
      </trkpt>
      <trkpt lat="45.60905" lon="4.6155">
        <ele>552.8</ele>
        <time>2018-05-06T08:21:44Z</time>
      </trkpt>
      <trkpt lat="45.60902" lon="4.61556">
        <ele>551.8</ele>
        <time>2018-05-06T08:21:45Z</time>
      </trkpt>
      <trkpt lat="45.60901" lon="4.6156">
        <ele>551.3</ele>
        <time>2018-05-06T08:21:46Z</time>
      </trkpt>
      <trkpt lat="45.609" lon="4.61562">
        <ele>550.8</ele>
        <time>2018-05-06T08:21:47Z</time>
      </trkpt>
      <trkpt lat="45.60898" lon="4.61572">
        <ele>547.4</ele>
        <time>2018-05-06T08:21:51Z</time>
      </trkpt>
      <trkpt lat="45.60896" lon="4.6158">
        <ele>544.9</ele>
        <time>2018-05-06T08:21:54Z</time>
      </trkpt>
      <trkpt lat="45.60896" lon="4.61585">
        <ele>543</ele>
        <time>2018-05-06T08:21:56Z</time>
      </trkpt>
      <trkpt lat="45.60897" lon="4.61602">
        <ele>541.1</ele>
        <time>2018-05-06T08:21:59Z</time>
      </trkpt>
      <trkpt lat="45.60889" lon="4.61613">
        <ele>539.6</ele>
        <time>2018-05-06T08:22:01Z</time>
      </trkpt>
      <trkpt lat="45.60877" lon="4.61625">
        <ele>538.4</ele>
        <time>2018-05-06T08:22:03Z</time>
      </trkpt>
      <trkpt lat="45.60866" lon="4.61641">
        <ele>537.3</ele>
        <time>2018-05-06T08:22:05Z</time>
      </trkpt>
      <trkpt lat="45.60861" lon="4.61651">
        <ele>536.7</ele>
        <time>2018-05-06T08:22:06Z</time>
      </trkpt>
      <trkpt lat="45.60853" lon="4.61671">
        <ele>535</ele>
        <time>2018-05-06T08:22:08Z</time>
      </trkpt>
      <trkpt lat="45.60847" lon="4.61691">
        <ele>533.9</ele>
        <time>2018-05-06T08:22:10Z</time>
      </trkpt>
      <trkpt lat="45.60844" lon="4.61707">
        <ele>533.2</ele>
        <time>2018-05-06T08:22:12Z</time>
      </trkpt>
      <trkpt lat="45.60843" lon="4.61712">
        <ele>533</ele>
        <time>2018-05-06T08:22:13Z</time>
      </trkpt>
      <trkpt lat="45.60842" lon="4.61716">
        <ele>532.8</ele>
        <time>2018-05-06T08:22:14Z</time>
      </trkpt>
      <trkpt lat="45.60841" lon="4.61719">
        <ele>532.7</ele>
        <time>2018-05-06T08:22:16Z</time>
      </trkpt>
      <trkpt lat="45.60843" lon="4.61723">
        <ele>532.5</ele>
        <time>2018-05-06T08:29:47Z</time>
      </trkpt>
      <trkpt lat="45.60845" lon="4.6172">
        <ele>532.7</ele>
        <time>2018-05-06T08:29:50Z</time>
      </trkpt>
      <trkpt lat="45.60845" lon="4.61716">
        <ele>532.8</ele>
        <time>2018-05-06T08:29:52Z</time>
      </trkpt>
      <trkpt lat="45.60847" lon="4.61708">
        <ele>533.2</ele>
        <time>2018-05-06T08:29:57Z</time>
      </trkpt>
      <trkpt lat="45.6085" lon="4.6169">
        <ele>533.9</ele>
        <time>2018-05-06T08:30:05Z</time>
      </trkpt>
      <trkpt lat="45.60855" lon="4.61672">
        <ele>534.8</ele>
        <time>2018-05-06T08:30:13Z</time>
      </trkpt>
      <trkpt lat="45.60856" lon="4.61667">
        <ele>535.4</ele>
        <time>2018-05-06T08:30:15Z</time>
      </trkpt>
      <trkpt lat="45.60863" lon="4.61649">
        <ele>536.7</ele>
        <time>2018-05-06T08:30:22Z</time>
      </trkpt>
      <trkpt lat="45.60866" lon="4.61645">
        <ele>537</ele>
        <time>2018-05-06T08:30:24Z</time>
      </trkpt>
      <trkpt lat="45.6087" lon="4.61638">
        <ele>537.4</ele>
        <time>2018-05-06T08:30:27Z</time>
      </trkpt>
      <trkpt lat="45.60877" lon="4.61628">
        <ele>538.2</ele>
        <time>2018-05-06T08:30:32Z</time>
      </trkpt>
      <trkpt lat="45.60886" lon="4.61617">
        <ele>539.1</ele>
        <time>2018-05-06T08:30:38Z</time>
      </trkpt>
      <trkpt lat="45.60888" lon="4.61615">
        <ele>539.2</ele>
        <time>2018-05-06T08:30:39Z</time>
      </trkpt>
      <trkpt lat="45.609" lon="4.61604">
        <ele>541.1</ele>
        <time>2018-05-06T08:30:47Z</time>
      </trkpt>
      <trkpt lat="45.60902" lon="4.61599">
        <ele>541.7</ele>
        <time>2018-05-06T08:30:49Z</time>
      </trkpt>
      <trkpt lat="45.60902" lon="4.61596">
        <ele>542</ele>
        <time>2018-05-06T08:30:50Z</time>
      </trkpt>
      <trkpt lat="45.60901" lon="4.6159">
        <ele>543</ele>
        <time>2018-05-06T08:30:52Z</time>
      </trkpt>
      <trkpt lat="45.60899" lon="4.61586">
        <ele>543</ele>
        <time>2018-05-06T08:30:54Z</time>
      </trkpt>
      <trkpt lat="45.60898" lon="4.61583">
        <ele>543</ele>
        <time>2018-05-06T08:30:55Z</time>
      </trkpt>
      <trkpt lat="45.60897" lon="4.61576">
        <ele>543</ele>
        <time>2018-05-06T08:30:58Z</time>
      </trkpt>
      <trkpt lat="45.60893" lon="4.61582">
        <ele>543</ele>
        <time>2018-05-06T08:31:02Z</time>
      </trkpt>
      <trkpt lat="45.60883" lon="4.61588">
        <ele>542.3</ele>
        <time>2018-05-06T08:31:05Z</time>
      </trkpt>
      <trkpt lat="45.60874" lon="4.61587">
        <ele>541.8</ele>
        <time>2018-05-06T08:31:08Z</time>
      </trkpt>
      <trkpt lat="45.60864" lon="4.61587">
        <ele>541.4</ele>
        <time>2018-05-06T08:31:11Z</time>
      </trkpt>
      <trkpt lat="45.60848" lon="4.61585">
        <ele>541.3</ele>
        <time>2018-05-06T08:31:15Z</time>
      </trkpt>
      <trkpt lat="45.60837" lon="4.61582">
        <ele>540.7</ele>
        <time>2018-05-06T08:31:18Z</time>
      </trkpt>
      <trkpt lat="45.6082" lon="4.61577">
        <ele>539.7</ele>
        <time>2018-05-06T08:31:22Z</time>
      </trkpt>
      <trkpt lat="45.60805" lon="4.61572">
        <ele>539.4</ele>
        <time>2018-05-06T08:31:25Z</time>
      </trkpt>
      <trkpt lat="45.608" lon="4.61571">
        <ele>539</ele>
        <time>2018-05-06T08:31:26Z</time>
      </trkpt>
      <trkpt lat="45.60782" lon="4.61566">
        <ele>537.7</ele>
        <time>2018-05-06T08:31:29Z</time>
      </trkpt>
      <trkpt lat="45.60776" lon="4.61564">
        <ele>537.3</ele>
        <time>2018-05-06T08:31:30Z</time>
      </trkpt>
      <trkpt lat="45.60757" lon="4.61559">
        <ele>536.1</ele>
        <time>2018-05-06T08:31:33Z</time>
      </trkpt>
      <trkpt lat="45.60741" lon="4.61552">
        <ele>534.9</ele>
        <time>2018-05-06T08:31:36Z</time>
      </trkpt>
      <trkpt lat="45.60735" lon="4.6155">
        <ele>534.5</ele>
        <time>2018-05-06T08:31:37Z</time>
      </trkpt>
      <trkpt lat="45.6073" lon="4.61548">
        <ele>534.2</ele>
        <time>2018-05-06T08:31:38Z</time>
      </trkpt>
      <trkpt lat="45.60719" lon="4.61543">
        <ele>533.6</ele>
        <time>2018-05-06T08:31:40Z</time>
      </trkpt>
      <trkpt lat="45.60709" lon="4.61536">
        <ele>532.9</ele>
        <time>2018-05-06T08:31:42Z</time>
      </trkpt>
      <trkpt lat="45.60698" lon="4.61528">
        <ele>532.6</ele>
        <time>2018-05-06T08:31:44Z</time>
      </trkpt>
      <trkpt lat="45.60693" lon="4.61524">
        <ele>532.6</ele>
        <time>2018-05-06T08:31:45Z</time>
      </trkpt>
      <trkpt lat="45.60673" lon="4.61505">
        <ele>532.4</ele>
        <time>2018-05-06T08:31:49Z</time>
      </trkpt>
      <trkpt lat="45.60659" lon="4.61491">
        <ele>531.2</ele>
        <time>2018-05-06T08:31:52Z</time>
      </trkpt>
      <trkpt lat="45.6065" lon="4.6148">
        <ele>530.6</ele>
        <time>2018-05-06T08:31:54Z</time>
      </trkpt>
      <trkpt lat="45.6064" lon="4.61466">
        <ele>529.6</ele>
        <time>2018-05-06T08:31:56Z</time>
      </trkpt>
      <trkpt lat="45.60636" lon="4.61459">
        <ele>529.3</ele>
        <time>2018-05-06T08:31:57Z</time>
      </trkpt>
      <trkpt lat="45.60632" lon="4.61452">
        <ele>529.1</ele>
        <time>2018-05-06T08:31:58Z</time>
      </trkpt>
      <trkpt lat="45.60622" lon="4.61432">
        <ele>528.7</ele>
        <time>2018-05-06T08:32:01Z</time>
      </trkpt>
      <trkpt lat="45.6062" lon="4.61427">
        <ele>528.3</ele>
        <time>2018-05-06T08:32:02Z</time>
      </trkpt>
      <trkpt lat="45.60613" lon="4.61407">
        <ele>526.9</ele>
        <time>2018-05-06T08:32:05Z</time>
      </trkpt>
      <trkpt lat="45.60612" lon="4.61399">
        <ele>526.1</ele>
        <time>2018-05-06T08:32:06Z</time>
      </trkpt>
      <trkpt lat="45.6061" lon="4.61388">
        <ele>525</ele>
        <time>2018-05-06T08:32:07Z</time>
      </trkpt>
      <trkpt lat="45.60609" lon="4.61378">
        <ele>523.7</ele>
        <time>2018-05-06T08:32:08Z</time>
      </trkpt>
      <trkpt lat="45.60604" lon="4.61355">
        <ele>521.2</ele>
        <time>2018-05-06T08:32:10Z</time>
      </trkpt>
      <trkpt lat="45.60599" lon="4.61344">
        <ele>519.8</ele>
        <time>2018-05-06T08:32:11Z</time>
      </trkpt>
      <trkpt lat="45.60593" lon="4.61334">
        <ele>518.2</ele>
        <time>2018-05-06T08:32:12Z</time>
      </trkpt>
      <trkpt lat="45.60586" lon="4.61324">
        <ele>516.4</ele>
        <time>2018-05-06T08:32:13Z</time>
      </trkpt>
      <trkpt lat="45.60577" lon="4.61314">
        <ele>514.1</ele>
        <time>2018-05-06T08:32:14Z</time>
      </trkpt>
      <trkpt lat="45.60568" lon="4.61303">
        <ele>511.9</ele>
        <time>2018-05-06T08:32:15Z</time>
      </trkpt>
      <trkpt lat="45.60558" lon="4.61292">
        <ele>509.8</ele>
        <time>2018-05-06T08:32:16Z</time>
      </trkpt>
      <trkpt lat="45.60547" lon="4.61279">
        <ele>507.5</ele>
        <time>2018-05-06T08:32:17Z</time>
      </trkpt>
      <trkpt lat="45.60536" lon="4.61265">
        <ele>505.6</ele>
        <time>2018-05-06T08:32:18Z</time>
      </trkpt>
      <trkpt lat="45.60526" lon="4.61251">
        <ele>504.8</ele>
        <time>2018-05-06T08:32:19Z</time>
      </trkpt>
      <trkpt lat="45.60516" lon="4.61236">
        <ele>504.9</ele>
        <time>2018-05-06T08:32:20Z</time>
      </trkpt>
      <trkpt lat="45.60506" lon="4.61224">
        <ele>504.9</ele>
        <time>2018-05-06T08:32:21Z</time>
      </trkpt>
      <trkpt lat="45.60495" lon="4.61214">
        <ele>497</ele>
        <time>2018-05-06T08:32:22Z</time>
      </trkpt>
      <trkpt lat="45.60484" lon="4.61208">
        <ele>497.5</ele>
        <time>2018-05-06T08:32:23Z</time>
      </trkpt>
      <trkpt lat="45.60465" lon="4.61195">
        <ele>498.1</ele>
        <time>2018-05-06T08:32:25Z</time>
      </trkpt>
      <trkpt lat="45.60459" lon="4.61185">
        <ele>498.3</ele>
        <time>2018-05-06T08:32:26Z</time>
      </trkpt>
      <trkpt lat="45.6045" lon="4.61167">
        <ele>498.6</ele>
        <time>2018-05-06T08:32:28Z</time>
      </trkpt>
      <trkpt lat="45.60446" lon="4.61158">
        <ele>498.8</ele>
        <time>2018-05-06T08:32:29Z</time>
      </trkpt>
      <trkpt lat="45.60437" lon="4.61137">
        <ele>499.2</ele>
        <time>2018-05-06T08:32:32Z</time>
      </trkpt>
      <trkpt lat="45.6042" lon="4.61101">
        <ele>498.6</ele>
        <time>2018-05-06T08:32:38Z</time>
      </trkpt>
      <trkpt lat="45.60397" lon="4.61057">
        <ele>498.6</ele>
        <time>2018-05-06T08:32:45Z</time>
      </trkpt>
      <trkpt lat="45.60393" lon="4.61051">
        <ele>498.4</ele>
        <time>2018-05-06T08:32:46Z</time>
      </trkpt>
      <trkpt lat="45.60377" lon="4.61038">
        <ele>497.8</ele>
        <time>2018-05-06T08:32:49Z</time>
      </trkpt>
      <trkpt lat="45.60371" lon="4.61035">
        <ele>497.8</ele>
        <time>2018-05-06T08:32:50Z</time>
      </trkpt>
      <trkpt lat="45.60364" lon="4.61031">
        <ele>497.9</ele>
        <time>2018-05-06T08:32:51Z</time>
      </trkpt>
      <trkpt lat="45.60358" lon="4.61026">
        <ele>498</ele>
        <time>2018-05-06T08:32:52Z</time>
      </trkpt>
      <trkpt lat="45.60346" lon="4.61016">
        <ele>497.9</ele>
        <time>2018-05-06T08:32:54Z</time>
      </trkpt>
      <trkpt lat="45.6034" lon="4.6101">
        <ele>497.7</ele>
        <time>2018-05-06T08:32:55Z</time>
      </trkpt>
      <trkpt lat="45.60315" lon="4.60988">
        <ele>497.3</ele>
        <time>2018-05-06T08:32:59Z</time>
      </trkpt>
      <trkpt lat="45.60301" lon="4.60977">
        <ele>496.8</ele>
        <time>2018-05-06T08:33:01Z</time>
      </trkpt>
      <trkpt lat="45.60294" lon="4.60972">
        <ele>496.5</ele>
        <time>2018-05-06T08:33:02Z</time>
      </trkpt>
      <trkpt lat="45.6027" lon="4.60966">
        <ele>496.6</ele>
        <time>2018-05-06T08:33:05Z</time>
      </trkpt>
      <trkpt lat="45.60262" lon="4.60966">
        <ele>497.1</ele>
        <time>2018-05-06T08:33:06Z</time>
      </trkpt>
      <trkpt lat="45.60245" lon="4.60968">
        <ele>498.4</ele>
        <time>2018-05-06T08:33:08Z</time>
      </trkpt>
      <trkpt lat="45.60228" lon="4.60967">
        <ele>500.5</ele>
        <time>2018-05-06T08:33:10Z</time>
      </trkpt>
      <trkpt lat="45.60212" lon="4.6096">
        <ele>502.9</ele>
        <time>2018-05-06T08:33:12Z</time>
      </trkpt>
      <trkpt lat="45.60205" lon="4.60956">
        <ele>506</ele>
        <time>2018-05-06T08:33:13Z</time>
      </trkpt>
      <trkpt lat="45.60174" lon="4.60936">
        <ele>512</ele>
        <time>2018-05-06T08:33:18Z</time>
      </trkpt>
      <trkpt lat="45.60163" lon="4.60915">
        <ele>517.6</ele>
        <time>2018-05-06T08:33:22Z</time>
      </trkpt>
      <trkpt lat="45.60162" lon="4.60911">
        <ele>518.7</ele>
        <time>2018-05-06T08:33:23Z</time>
      </trkpt>
      <trkpt lat="45.60161" lon="4.60907">
        <ele>519.8</ele>
        <time>2018-05-06T08:33:24Z</time>
      </trkpt>
      <trkpt lat="45.60155" lon="4.6089">
        <ele>524.2</ele>
        <time>2018-05-06T08:33:28Z</time>
      </trkpt>
      <trkpt lat="45.60149" lon="4.60876">
        <ele>525</ele>
        <time>2018-05-06T08:33:32Z</time>
      </trkpt>
      <trkpt lat="45.60146" lon="4.60866">
        <ele>525.6</ele>
        <time>2018-05-06T08:33:35Z</time>
      </trkpt>
      <trkpt lat="45.60144" lon="4.6086">
        <ele>525.9</ele>
        <time>2018-05-06T08:33:37Z</time>
      </trkpt>
      <trkpt lat="45.60139" lon="4.60849">
        <ele>526.5</ele>
        <time>2018-05-06T08:33:41Z</time>
      </trkpt>
      <trkpt lat="45.60138" lon="4.60844">
        <ele>526.8</ele>
        <time>2018-05-06T08:33:43Z</time>
      </trkpt>
      <trkpt lat="45.60136" lon="4.60838">
        <ele>527.1</ele>
        <time>2018-05-06T08:33:45Z</time>
      </trkpt>
      <trkpt lat="45.60134" lon="4.6083">
        <ele>527.4</ele>
        <time>2018-05-06T08:33:48Z</time>
      </trkpt>
      <trkpt lat="45.60132" lon="4.60822">
        <ele>527.8</ele>
        <time>2018-05-06T08:33:51Z</time>
      </trkpt>
      <trkpt lat="45.60131" lon="4.60815">
        <ele>528.2</ele>
        <time>2018-05-06T08:33:54Z</time>
      </trkpt>
      <trkpt lat="45.60129" lon="4.60806">
        <ele>528.6</ele>
        <time>2018-05-06T08:33:58Z</time>
      </trkpt>
      <trkpt lat="45.60128" lon="4.60791">
        <ele>529.3</ele>
        <time>2018-05-06T08:34:04Z</time>
      </trkpt>
      <trkpt lat="45.60127" lon="4.60786">
        <ele>529.5</ele>
        <time>2018-05-06T08:34:06Z</time>
      </trkpt>
      <trkpt lat="45.60125" lon="4.60782">
        <ele>529.7</ele>
        <time>2018-05-06T08:34:08Z</time>
      </trkpt>
      <trkpt lat="45.60123" lon="4.60769">
        <ele>530.4</ele>
        <time>2018-05-06T08:34:14Z</time>
      </trkpt>
      <trkpt lat="45.60122" lon="4.60767">
        <ele>530.5</ele>
        <time>2018-05-06T08:34:15Z</time>
      </trkpt>
      <trkpt lat="45.60122" lon="4.60762">
        <ele>530.8</ele>
        <time>2018-05-06T08:34:17Z</time>
      </trkpt>
      <trkpt lat="45.6012" lon="4.60756">
        <ele>531.2</ele>
        <time>2018-05-06T08:34:20Z</time>
      </trkpt>
      <trkpt lat="45.60118" lon="4.60749">
        <ele>531.6</ele>
        <time>2018-05-06T08:34:23Z</time>
      </trkpt>
      <trkpt lat="45.60116" lon="4.60742">
        <ele>532</ele>
        <time>2018-05-06T08:34:26Z</time>
      </trkpt>
      <trkpt lat="45.60115" lon="4.60738">
        <ele>532.2</ele>
        <time>2018-05-06T08:34:28Z</time>
      </trkpt>
      <trkpt lat="45.60114" lon="4.60734">
        <ele>532.4</ele>
        <time>2018-05-06T08:34:30Z</time>
      </trkpt>
      <trkpt lat="45.60111" lon="4.60729">
        <ele>532.7</ele>
        <time>2018-05-06T08:34:33Z</time>
      </trkpt>
      <trkpt lat="45.60109" lon="4.60726">
        <ele>532.9</ele>
        <time>2018-05-06T08:34:35Z</time>
      </trkpt>
      <trkpt lat="45.60108" lon="4.60724">
        <ele>533</ele>
        <time>2018-05-06T08:34:36Z</time>
      </trkpt>
      <trkpt lat="45.60106" lon="4.6072">
        <ele>533.1</ele>
        <time>2018-05-06T08:34:38Z</time>
      </trkpt>
      <trkpt lat="45.60103" lon="4.60715">
        <ele>533.3</ele>
        <time>2018-05-06T08:34:41Z</time>
      </trkpt>
      <trkpt lat="45.60102" lon="4.60713">
        <ele>533.4</ele>
        <time>2018-05-06T08:34:42Z</time>
      </trkpt>
      <trkpt lat="45.601" lon="4.6071">
        <ele>533.5</ele>
        <time>2018-05-06T08:34:44Z</time>
      </trkpt>
      <trkpt lat="45.60097" lon="4.60706">
        <ele>533.7</ele>
        <time>2018-05-06T08:34:47Z</time>
      </trkpt>
      <trkpt lat="45.60094" lon="4.60701">
        <ele>533.8</ele>
        <time>2018-05-06T08:34:50Z</time>
      </trkpt>
      <trkpt lat="45.60082" lon="4.60686">
        <ele>534.1</ele>
        <time>2018-05-06T08:34:58Z</time>
      </trkpt>
      <trkpt lat="45.60074" lon="4.60679">
        <ele>534.1</ele>
        <time>2018-05-06T08:35:03Z</time>
      </trkpt>
      <trkpt lat="45.60066" lon="4.60673">
        <ele>534</ele>
        <time>2018-05-06T08:35:08Z</time>
      </trkpt>
      <trkpt lat="45.60064" lon="4.60672">
        <ele>534</ele>
        <time>2018-05-06T08:35:09Z</time>
      </trkpt>
      <trkpt lat="45.60054" lon="4.60667">
        <ele>533.7</ele>
        <time>2018-05-06T08:35:15Z</time>
      </trkpt>
      <trkpt lat="45.60049" lon="4.60664">
        <ele>533.6</ele>
        <time>2018-05-06T08:35:18Z</time>
      </trkpt>
      <trkpt lat="45.6004" lon="4.60663">
        <ele>533.2</ele>
        <time>2018-05-06T08:35:23Z</time>
      </trkpt>
      <trkpt lat="45.60032" lon="4.60662">
        <ele>532.8</ele>
        <time>2018-05-06T08:35:27Z</time>
      </trkpt>
      <trkpt lat="45.60013" lon="4.60666">
        <ele>531.4</ele>
        <time>2018-05-06T08:35:35Z</time>
      </trkpt>
      <trkpt lat="45.59988" lon="4.60673">
        <ele>530.3</ele>
        <time>2018-05-06T08:35:42Z</time>
      </trkpt>
      <trkpt lat="45.59952" lon="4.60683">
        <ele>530.2</ele>
        <time>2018-05-06T08:35:49Z</time>
      </trkpt>
      <trkpt lat="45.59907" lon="4.60694">
        <ele>530.5</ele>
        <time>2018-05-06T08:35:57Z</time>
      </trkpt>
      <trkpt lat="45.59902" lon="4.60694">
        <ele>530.6</ele>
        <time>2018-05-06T08:35:58Z</time>
      </trkpt>
      <trkpt lat="45.59878" lon="4.60696">
        <ele>531</ele>
        <time>2018-05-06T08:36:03Z</time>
      </trkpt>
      <trkpt lat="45.59878" lon="4.60699">
        <ele>530.9</ele>
        <time>2018-05-06T08:36:06Z</time>
      </trkpt>
      <trkpt lat="45.59888" lon="4.60698">
        <ele>530.9</ele>
        <time>2018-05-06T08:36:09Z</time>
      </trkpt>
      <trkpt lat="45.59893" lon="4.60698">
        <ele>530.8</ele>
        <time>2018-05-06T08:36:10Z</time>
      </trkpt>
      <trkpt lat="45.59921" lon="4.60696">
        <ele>530.2</ele>
        <time>2018-05-06T08:36:16Z</time>
      </trkpt>
      <trkpt lat="45.59926" lon="4.60699">
        <ele>529.2</ele>
        <time>2018-05-06T08:36:17Z</time>
      </trkpt>
      <trkpt lat="45.59933" lon="4.60709">
        <ele>528.2</ele>
        <time>2018-05-06T08:36:19Z</time>
      </trkpt>
      <trkpt lat="45.59936" lon="4.60715">
        <ele>527.6</ele>
        <time>2018-05-06T08:36:20Z</time>
      </trkpt>
      <trkpt lat="45.5994" lon="4.60722">
        <ele>527.1</ele>
        <time>2018-05-06T08:36:21Z</time>
      </trkpt>
      <trkpt lat="45.59944" lon="4.60729">
        <ele>526.6</ele>
        <time>2018-05-06T08:36:22Z</time>
      </trkpt>
      <trkpt lat="45.59958" lon="4.60756">
        <ele>525.1</ele>
        <time>2018-05-06T08:36:26Z</time>
      </trkpt>
      <trkpt lat="45.59962" lon="4.60763">
        <ele>524.8</ele>
        <time>2018-05-06T08:36:27Z</time>
      </trkpt>
      <trkpt lat="45.59975" lon="4.6079">
        <ele>524</ele>
        <time>2018-05-06T08:36:32Z</time>
      </trkpt>
      <trkpt lat="45.59988" lon="4.60825">
        <ele>522.6</ele>
        <time>2018-05-06T08:36:39Z</time>
      </trkpt>
      <trkpt lat="45.59998" lon="4.6087">
        <ele>520.5</ele>
        <time>2018-05-06T08:36:45Z</time>
      </trkpt>
      <trkpt lat="45.60003" lon="4.60889">
        <ele>519.4</ele>
        <time>2018-05-06T08:36:47Z</time>
      </trkpt>
      <trkpt lat="45.60011" lon="4.60924">
        <ele>518.2</ele>
        <time>2018-05-06T08:36:50Z</time>
      </trkpt>
      <trkpt lat="45.60015" lon="4.6095">
        <ele>516.9</ele>
        <time>2018-05-06T08:36:52Z</time>
      </trkpt>
      <trkpt lat="45.6002" lon="4.60979">
        <ele>515.5</ele>
        <time>2018-05-06T08:36:54Z</time>
      </trkpt>
      <trkpt lat="45.60025" lon="4.61009">
        <ele>513.4</ele>
        <time>2018-05-06T08:36:56Z</time>
      </trkpt>
      <trkpt lat="45.60032" lon="4.61039">
        <ele>511.7</ele>
        <time>2018-05-06T08:36:58Z</time>
      </trkpt>
      <trkpt lat="45.60036" lon="4.61053">
        <ele>511</ele>
        <time>2018-05-06T08:36:59Z</time>
      </trkpt>
      <trkpt lat="45.6004" lon="4.61068">
        <ele>510.4</ele>
        <time>2018-05-06T08:37:00Z</time>
      </trkpt>
      <trkpt lat="45.60045" lon="4.61099">
        <ele>508.7</ele>
        <time>2018-05-06T08:37:02Z</time>
      </trkpt>
      <trkpt lat="45.60046" lon="4.61114">
        <ele>507.8</ele>
        <time>2018-05-06T08:37:03Z</time>
      </trkpt>
      <trkpt lat="45.60046" lon="4.61129">
        <ele>507.1</ele>
        <time>2018-05-06T08:37:04Z</time>
      </trkpt>
      <trkpt lat="45.60047" lon="4.61171">
        <ele>504.9</ele>
        <time>2018-05-06T08:37:07Z</time>
      </trkpt>
      <trkpt lat="45.60046" lon="4.61184">
        <ele>504.4</ele>
        <time>2018-05-06T08:37:08Z</time>
      </trkpt>
      <trkpt lat="45.60045" lon="4.61209">
        <ele>503.6</ele>
        <time>2018-05-06T08:37:10Z</time>
      </trkpt>
      <trkpt lat="45.60042" lon="4.61255">
        <ele>502.8</ele>
        <time>2018-05-06T08:37:14Z</time>
      </trkpt>
      <trkpt lat="45.6004" lon="4.61277">
        <ele>502.1</ele>
        <time>2018-05-06T08:37:16Z</time>
      </trkpt>
      <trkpt lat="45.60032" lon="4.61315">
        <ele>501</ele>
        <time>2018-05-06T08:37:20Z</time>
      </trkpt>
      <trkpt lat="45.60018" lon="4.61337">
        <ele>500.2</ele>
        <time>2018-05-06T08:37:23Z</time>
      </trkpt>
      <trkpt lat="45.60013" lon="4.61344">
        <ele>499.8</ele>
        <time>2018-05-06T08:37:24Z</time>
      </trkpt>
      <trkpt lat="45.59983" lon="4.6138">
        <ele>498.1</ele>
        <time>2018-05-06T08:37:30Z</time>
      </trkpt>
      <trkpt lat="45.5995" lon="4.61421">
        <ele>497.4</ele>
        <time>2018-05-06T08:37:37Z</time>
      </trkpt>
      <trkpt lat="45.59925" lon="4.61465">
        <ele>496.7</ele>
        <time>2018-05-06T08:37:42Z</time>
      </trkpt>
      <trkpt lat="45.59915" lon="4.61488">
        <ele>496</ele>
        <time>2018-05-06T08:37:44Z</time>
      </trkpt>
      <trkpt lat="45.59905" lon="4.61514">
        <ele>495</ele>
        <time>2018-05-06T08:37:46Z</time>
      </trkpt>
      <trkpt lat="45.59899" lon="4.61527">
        <ele>494.4</ele>
        <time>2018-05-06T08:37:47Z</time>
      </trkpt>
      <trkpt lat="45.59892" lon="4.61539">
        <ele>493.7</ele>
        <time>2018-05-06T08:37:48Z</time>
      </trkpt>
      <trkpt lat="45.59879" lon="4.61556">
        <ele>492</ele>
        <time>2018-05-06T08:37:50Z</time>
      </trkpt>
      <trkpt lat="45.59868" lon="4.61558">
        <ele>492</ele>
        <time>2018-05-06T08:37:52Z</time>
      </trkpt>
      <trkpt lat="45.59855" lon="4.61548">
        <ele>490.8</ele>
        <time>2018-05-06T08:37:54Z</time>
      </trkpt>
      <trkpt lat="45.59848" lon="4.61542">
        <ele>490.1</ele>
        <time>2018-05-06T08:37:55Z</time>
      </trkpt>
      <trkpt lat="45.5984" lon="4.61535">
        <ele>488.9</ele>
        <time>2018-05-06T08:37:56Z</time>
      </trkpt>
      <trkpt lat="45.59831" lon="4.61529">
        <ele>487.3</ele>
        <time>2018-05-06T08:37:57Z</time>
      </trkpt>
      <trkpt lat="45.59822" lon="4.61522">
        <ele>485.9</ele>
        <time>2018-05-06T08:37:58Z</time>
      </trkpt>
      <trkpt lat="45.59813" lon="4.61515">
        <ele>484.7</ele>
        <time>2018-05-06T08:37:59Z</time>
      </trkpt>
      <trkpt lat="45.59804" lon="4.61508">
        <ele>483.1</ele>
        <time>2018-05-06T08:38:00Z</time>
      </trkpt>
      <trkpt lat="45.59785" lon="4.61495">
        <ele>480.4</ele>
        <time>2018-05-06T08:38:02Z</time>
      </trkpt>
      <trkpt lat="45.59767" lon="4.61483">
        <ele>477.6</ele>
        <time>2018-05-06T08:38:04Z</time>
      </trkpt>
      <trkpt lat="45.59749" lon="4.61472">
        <ele>474.6</ele>
        <time>2018-05-06T08:38:06Z</time>
      </trkpt>
      <trkpt lat="45.5974" lon="4.61469">
        <ele>473.4</ele>
        <time>2018-05-06T08:38:07Z</time>
      </trkpt>
      <trkpt lat="45.59731" lon="4.61469">
        <ele>472.2</ele>
        <time>2018-05-06T08:38:08Z</time>
      </trkpt>
      <trkpt lat="45.59722" lon="4.61473">
        <ele>471.1</ele>
        <time>2018-05-06T08:38:09Z</time>
      </trkpt>
      <trkpt lat="45.59714" lon="4.61481">
        <ele>470</ele>
        <time>2018-05-06T08:38:10Z</time>
      </trkpt>
      <trkpt lat="45.59705" lon="4.61488">
        <ele>468.7</ele>
        <time>2018-05-06T08:38:11Z</time>
      </trkpt>
      <trkpt lat="45.59695" lon="4.61495">
        <ele>467.5</ele>
        <time>2018-05-06T08:38:12Z</time>
      </trkpt>
      <trkpt lat="45.59685" lon="4.61502">
        <ele>466</ele>
        <time>2018-05-06T08:38:13Z</time>
      </trkpt>
      <trkpt lat="45.59675" lon="4.6151">
        <ele>464.8</ele>
        <time>2018-05-06T08:38:14Z</time>
      </trkpt>
      <trkpt lat="45.59664" lon="4.61519">
        <ele>463.3</ele>
        <time>2018-05-06T08:38:15Z</time>
      </trkpt>
      <trkpt lat="45.59654" lon="4.61526">
        <ele>461.8</ele>
        <time>2018-05-06T08:38:16Z</time>
      </trkpt>
      <trkpt lat="45.59644" lon="4.61531">
        <ele>460.5</ele>
        <time>2018-05-06T08:38:17Z</time>
      </trkpt>
      <trkpt lat="45.59636" lon="4.6153">
        <ele>459.1</ele>
        <time>2018-05-06T08:38:18Z</time>
      </trkpt>
      <trkpt lat="45.59629" lon="4.61524">
        <ele>458</ele>
        <time>2018-05-06T08:38:19Z</time>
      </trkpt>
      <trkpt lat="45.59625" lon="4.61515">
        <ele>458</ele>
        <time>2018-05-06T08:38:20Z</time>
      </trkpt>
      <trkpt lat="45.59624" lon="4.61505">
        <ele>458.2</ele>
        <time>2018-05-06T08:38:21Z</time>
      </trkpt>
      <trkpt lat="45.59627" lon="4.61485">
        <ele>459.3</ele>
        <time>2018-05-06T08:38:23Z</time>
      </trkpt>
      <trkpt lat="45.59629" lon="4.61475">
        <ele>459.8</ele>
        <time>2018-05-06T08:38:24Z</time>
      </trkpt>
      <trkpt lat="45.59632" lon="4.61467">
        <ele>460.2</ele>
        <time>2018-05-06T08:38:25Z</time>
      </trkpt>
      <trkpt lat="45.59639" lon="4.61453">
        <ele>461.5</ele>
        <time>2018-05-06T08:38:27Z</time>
      </trkpt>
      <trkpt lat="45.59642" lon="4.61446">
        <ele>462</ele>
        <time>2018-05-06T08:38:28Z</time>
      </trkpt>
      <trkpt lat="45.59656" lon="4.61422">
        <ele>464.5</ele>
        <time>2018-05-06T08:38:32Z</time>
      </trkpt>
      <trkpt lat="45.5966" lon="4.61411">
        <ele>465</ele>
        <time>2018-05-06T08:38:34Z</time>
      </trkpt>
      <trkpt lat="45.59662" lon="4.61398">
        <ele>465.1</ele>
        <time>2018-05-06T08:38:36Z</time>
      </trkpt>
      <trkpt lat="45.59665" lon="4.61382">
        <ele>465.6</ele>
        <time>2018-05-06T08:38:38Z</time>
      </trkpt>
      <trkpt lat="45.5967" lon="4.61365">
        <ele>466.2</ele>
        <time>2018-05-06T08:38:40Z</time>
      </trkpt>
      <trkpt lat="45.59679" lon="4.61352">
        <ele>467</ele>
        <time>2018-05-06T08:38:42Z</time>
      </trkpt>
      <trkpt lat="45.59683" lon="4.61346">
        <ele>467.6</ele>
        <time>2018-05-06T08:38:43Z</time>
      </trkpt>
      <trkpt lat="45.59689" lon="4.61334">
        <ele>468.1</ele>
        <time>2018-05-06T08:38:45Z</time>
      </trkpt>
      <trkpt lat="45.59689" lon="4.61325">
        <ele>468.4</ele>
        <time>2018-05-06T08:38:46Z</time>
      </trkpt>
      <trkpt lat="45.59678" lon="4.61308">
        <ele>468.9</ele>
        <time>2018-05-06T08:38:49Z</time>
      </trkpt>
      <trkpt lat="45.59668" lon="4.61307">
        <ele>468.6</ele>
        <time>2018-05-06T08:38:51Z</time>
      </trkpt>
      <trkpt lat="45.59663" lon="4.61307">
        <ele>468.4</ele>
        <time>2018-05-06T08:38:52Z</time>
      </trkpt>
      <trkpt lat="45.59637" lon="4.61311">
        <ele>468</ele>
        <time>2018-05-06T08:38:56Z</time>
      </trkpt>
      <trkpt lat="45.59584" lon="4.61322">
        <ele>468.3</ele>
        <time>2018-05-06T08:39:04Z</time>
      </trkpt>
      <trkpt lat="45.59561" lon="4.6133">
        <ele>468.8</ele>
        <time>2018-05-06T08:39:08Z</time>
      </trkpt>
      <trkpt lat="45.59555" lon="4.61331">
        <ele>469.1</ele>
        <time>2018-05-06T08:39:09Z</time>
      </trkpt>
      <trkpt lat="45.59549" lon="4.6133">
        <ele>469.3</ele>
        <time>2018-05-06T08:39:10Z</time>
      </trkpt>
      <trkpt lat="45.59538" lon="4.61324">
        <ele>470</ele>
        <time>2018-05-06T08:39:13Z</time>
      </trkpt>
      <trkpt lat="45.59534" lon="4.61322">
        <ele>470.2</ele>
        <time>2018-05-06T08:39:14Z</time>
      </trkpt>
      <trkpt lat="45.59515" lon="4.6132">
        <ele>471.9</ele>
        <time>2018-05-06T08:39:17Z</time>
      </trkpt>
      <trkpt lat="45.59507" lon="4.61319">
        <ele>472.7</ele>
        <time>2018-05-06T08:39:18Z</time>
      </trkpt>
      <trkpt lat="45.59499" lon="4.61322">
        <ele>473.1</ele>
        <time>2018-05-06T08:39:19Z</time>
      </trkpt>
      <trkpt lat="45.59492" lon="4.61326">
        <ele>473.2</ele>
        <time>2018-05-06T08:39:20Z</time>
      </trkpt>
      <trkpt lat="45.5947" lon="4.61342">
        <ele>473</ele>
        <time>2018-05-06T08:39:24Z</time>
      </trkpt>
      <trkpt lat="45.59464" lon="4.61344">
        <ele>473.1</ele>
        <time>2018-05-06T08:39:25Z</time>
      </trkpt>
      <trkpt lat="45.59453" lon="4.61341">
        <ele>474.5</ele>
        <time>2018-05-06T08:39:27Z</time>
      </trkpt>
      <trkpt lat="45.59445" lon="4.61333">
        <ele>476.2</ele>
        <time>2018-05-06T08:39:30Z</time>
      </trkpt>
      <trkpt lat="45.59441" lon="4.6133">
        <ele>477</ele>
        <time>2018-05-06T08:39:32Z</time>
      </trkpt>
      <trkpt lat="45.59439" lon="4.61328">
        <ele>477.5</ele>
        <time>2018-05-06T08:39:33Z</time>
      </trkpt>
      <trkpt lat="45.59438" lon="4.61327">
        <ele>477.9</ele>
        <time>2018-05-06T08:39:34Z</time>
      </trkpt>
      <trkpt lat="45.59436" lon="4.61325">
        <ele>478.4</ele>
        <time>2018-05-06T08:39:35Z</time>
      </trkpt>
      <trkpt lat="45.59433" lon="4.61322">
        <ele>479.2</ele>
        <time>2018-05-06T08:39:37Z</time>
      </trkpt>
      <trkpt lat="45.59428" lon="4.61316">
        <ele>480.7</ele>
        <time>2018-05-06T08:39:41Z</time>
      </trkpt>
      <trkpt lat="45.59426" lon="4.61312">
        <ele>481.2</ele>
        <time>2018-05-06T08:39:43Z</time>
      </trkpt>
      <trkpt lat="45.59426" lon="4.6131">
        <ele>481.4</ele>
        <time>2018-05-06T08:39:44Z</time>
      </trkpt>
      <trkpt lat="45.59425" lon="4.61304">
        <ele>482.1</ele>
        <time>2018-05-06T08:39:47Z</time>
      </trkpt>
      <trkpt lat="45.59425" lon="4.613">
        <ele>482.4</ele>
        <time>2018-05-06T08:39:49Z</time>
      </trkpt>
      <trkpt lat="45.59425" lon="4.61298">
        <ele>482.5</ele>
        <time>2018-05-06T08:39:50Z</time>
      </trkpt>
      <trkpt lat="45.59426" lon="4.61292">
        <ele>483.1</ele>
        <time>2018-05-06T08:39:53Z</time>
      </trkpt>
      <trkpt lat="45.59427" lon="4.61286">
        <ele>483.7</ele>
        <time>2018-05-06T08:39:56Z</time>
      </trkpt>
      <trkpt lat="45.59428" lon="4.61283">
        <ele>484</ele>
        <time>2018-05-06T08:39:58Z</time>
      </trkpt>
      <trkpt lat="45.59428" lon="4.61281">
        <ele>484.2</ele>
        <time>2018-05-06T08:39:59Z</time>
      </trkpt>
      <trkpt lat="45.59427" lon="4.61276">
        <ele>484.7</ele>
        <time>2018-05-06T08:40:02Z</time>
      </trkpt>
      <trkpt lat="45.59423" lon="4.61269">
        <ele>485.6</ele>
        <time>2018-05-06T08:40:06Z</time>
      </trkpt>
      <trkpt lat="45.59418" lon="4.61262">
        <ele>487</ele>
        <time>2018-05-06T08:40:11Z</time>
      </trkpt>
      <trkpt lat="45.59416" lon="4.61261">
        <ele>487.4</ele>
        <time>2018-05-06T08:40:13Z</time>
      </trkpt>
      <trkpt lat="45.59415" lon="4.61259">
        <ele>487.6</ele>
        <time>2018-05-06T08:40:14Z</time>
      </trkpt>
      <trkpt lat="45.59414" lon="4.61259">
        <ele>487.8</ele>
        <time>2018-05-06T08:40:15Z</time>
      </trkpt>
      <trkpt lat="45.59413" lon="4.61253">
        <ele>488.4</ele>
        <time>2018-05-06T08:40:18Z</time>
      </trkpt>
      <trkpt lat="45.59411" lon="4.61248">
        <ele>489.2</ele>
        <time>2018-05-06T08:40:21Z</time>
      </trkpt>
      <trkpt lat="45.59407" lon="4.61242">
        <ele>490.2</ele>
        <time>2018-05-06T08:40:25Z</time>
      </trkpt>
      <trkpt lat="45.59403" lon="4.61234">
        <ele>491.1</ele>
        <time>2018-05-06T08:40:30Z</time>
      </trkpt>
      <trkpt lat="45.59401" lon="4.61232">
        <ele>491.5</ele>
        <time>2018-05-06T08:40:32Z</time>
      </trkpt>
      <trkpt lat="45.59397" lon="4.61229">
        <ele>492</ele>
        <time>2018-05-06T08:40:35Z</time>
      </trkpt>
      <trkpt lat="45.59395" lon="4.61226">
        <ele>492.2</ele>
        <time>2018-05-06T08:40:37Z</time>
      </trkpt>
      <trkpt lat="45.59392" lon="4.61225">
        <ele>492.5</ele>
        <time>2018-05-06T08:40:39Z</time>
      </trkpt>
      <trkpt lat="45.59384" lon="4.61221">
        <ele>493.6</ele>
        <time>2018-05-06T08:40:45Z</time>
      </trkpt>
      <trkpt lat="45.59382" lon="4.61218">
        <ele>494</ele>
        <time>2018-05-06T08:40:47Z</time>
      </trkpt>
      <trkpt lat="45.59374" lon="4.6121">
        <ele>494.7</ele>
        <time>2018-05-06T08:40:53Z</time>
      </trkpt>
      <trkpt lat="45.59367" lon="4.61198">
        <ele>495.6</ele>
        <time>2018-05-06T08:41:00Z</time>
      </trkpt>
      <trkpt lat="45.59364" lon="4.6119">
        <ele>496</ele>
        <time>2018-05-06T08:41:04Z</time>
      </trkpt>
      <trkpt lat="45.59359" lon="4.61179">
        <ele>496.4</ele>
        <time>2018-05-06T08:41:10Z</time>
      </trkpt>
      <trkpt lat="45.59356" lon="4.61169">
        <ele>496.7</ele>
        <time>2018-05-06T08:41:15Z</time>
      </trkpt>
      <trkpt lat="45.59351" lon="4.61166">
        <ele>496.8</ele>
        <time>2018-05-06T08:41:18Z</time>
      </trkpt>
      <trkpt lat="45.59344" lon="4.61166">
        <ele>496.6</ele>
        <time>2018-05-06T08:41:22Z</time>
      </trkpt>
      <trkpt lat="45.59335" lon="4.61168">
        <ele>495.8</ele>
        <time>2018-05-06T08:41:25Z</time>
      </trkpt>
      <trkpt lat="45.59317" lon="4.61182">
        <ele>494.2</ele>
        <time>2018-05-06T08:41:31Z</time>
      </trkpt>
      <trkpt lat="45.59307" lon="4.61188">
        <ele>493.5</ele>
        <time>2018-05-06T08:41:34Z</time>
      </trkpt>
      <trkpt lat="45.593" lon="4.61187">
        <ele>493</ele>
        <time>2018-05-06T08:41:36Z</time>
      </trkpt>
      <trkpt lat="45.59296" lon="4.61185">
        <ele>492.9</ele>
        <time>2018-05-06T08:41:37Z</time>
      </trkpt>
      <trkpt lat="45.59284" lon="4.61176">
        <ele>492.3</ele>
        <time>2018-05-06T08:41:40Z</time>
      </trkpt>
      <trkpt lat="45.5928" lon="4.61172">
        <ele>492.1</ele>
        <time>2018-05-06T08:41:41Z</time>
      </trkpt>
      <trkpt lat="45.59259" lon="4.61153">
        <ele>490.5</ele>
        <time>2018-05-06T08:41:45Z</time>
      </trkpt>
      <trkpt lat="45.59243" lon="4.61135">
        <ele>488.4</ele>
        <time>2018-05-06T08:41:48Z</time>
      </trkpt>
      <trkpt lat="45.59235" lon="4.61116">
        <ele>485.8</ele>
        <time>2018-05-06T08:41:50Z</time>
      </trkpt>
      <trkpt lat="45.59232" lon="4.61092">
        <ele>483.2</ele>
        <time>2018-05-06T08:41:52Z</time>
      </trkpt>
      <trkpt lat="45.59233" lon="4.6108">
        <ele>481.9</ele>
        <time>2018-05-06T08:41:53Z</time>
      </trkpt>
      <trkpt lat="45.59234" lon="4.61068">
        <ele>480.5</ele>
        <time>2018-05-06T08:41:54Z</time>
      </trkpt>
      <trkpt lat="45.59237" lon="4.61045">
        <ele>479.5</ele>
        <time>2018-05-06T08:41:56Z</time>
      </trkpt>
      <trkpt lat="45.59241" lon="4.61022">
        <ele>478</ele>
        <time>2018-05-06T08:41:58Z</time>
      </trkpt>
      <trkpt lat="45.59244" lon="4.61011">
        <ele>477.6</ele>
        <time>2018-05-06T08:41:59Z</time>
      </trkpt>
      <trkpt lat="45.5925" lon="4.60988">
        <ele>476.6</ele>
        <time>2018-05-06T08:42:01Z</time>
      </trkpt>
      <trkpt lat="45.59258" lon="4.60966">
        <ele>475.8</ele>
        <time>2018-05-06T08:42:03Z</time>
      </trkpt>
      <trkpt lat="45.59263" lon="4.6095">
        <ele>474.7</ele>
        <time>2018-05-06T08:42:05Z</time>
      </trkpt>
      <trkpt lat="45.59262" lon="4.60946">
        <ele>474.6</ele>
        <time>2018-05-06T08:42:06Z</time>
      </trkpt>
      <trkpt lat="45.59259" lon="4.60944">
        <ele>474.4</ele>
        <time>2018-05-06T08:42:07Z</time>
      </trkpt>
      <trkpt lat="45.59255" lon="4.60945">
        <ele>474.5</ele>
        <time>2018-05-06T08:42:08Z</time>
      </trkpt>
      <trkpt lat="45.59247" lon="4.60952">
        <ele>474.9</ele>
        <time>2018-05-06T08:42:10Z</time>
      </trkpt>
      <trkpt lat="45.59243" lon="4.60956">
        <ele>475</ele>
        <time>2018-05-06T08:42:11Z</time>
      </trkpt>
      <trkpt lat="45.5922" lon="4.60978">
        <ele>475</ele>
        <time>2018-05-06T08:42:16Z</time>
      </trkpt>
      <trkpt lat="45.59215" lon="4.60982">
        <ele>474.7</ele>
        <time>2018-05-06T08:42:17Z</time>
      </trkpt>
      <trkpt lat="45.592" lon="4.60989">
        <ele>474</ele>
        <time>2018-05-06T08:42:20Z</time>
      </trkpt>
      <trkpt lat="45.59194" lon="4.60991">
        <ele>473.8</ele>
        <time>2018-05-06T08:42:21Z</time>
      </trkpt>
      <trkpt lat="45.59165" lon="4.60992">
        <ele>472.4</ele>
        <time>2018-05-06T08:42:26Z</time>
      </trkpt>
      <trkpt lat="45.59159" lon="4.60992">
        <ele>472</ele>
        <time>2018-05-06T08:42:27Z</time>
      </trkpt>
      <trkpt lat="45.59139" lon="4.60993">
        <ele>470.8</ele>
        <time>2018-05-06T08:42:30Z</time>
      </trkpt>
      <trkpt lat="45.59119" lon="4.61001">
        <ele>470.3</ele>
        <time>2018-05-06T08:42:33Z</time>
      </trkpt>
      <trkpt lat="45.59095" lon="4.61022">
        <ele>470.4</ele>
        <time>2018-05-06T08:42:37Z</time>
      </trkpt>
      <trkpt lat="45.5909" lon="4.61028">
        <ele>470.6</ele>
        <time>2018-05-06T08:42:38Z</time>
      </trkpt>
      <trkpt lat="45.59084" lon="4.61035">
        <ele>470.8</ele>
        <time>2018-05-06T08:42:39Z</time>
      </trkpt>
      <trkpt lat="45.59052" lon="4.61072">
        <ele>472</ele>
        <time>2018-05-06T08:42:45Z</time>
      </trkpt>
      <trkpt lat="45.59041" lon="4.61082">
        <ele>472.4</ele>
        <time>2018-05-06T08:42:47Z</time>
      </trkpt>
      <trkpt lat="45.59021" lon="4.61102">
        <ele>473.1</ele>
        <time>2018-05-06T08:42:51Z</time>
      </trkpt>
      <trkpt lat="45.58981" lon="4.61144">
        <ele>475.1</ele>
        <time>2018-05-06T08:42:59Z</time>
      </trkpt>
      <trkpt lat="45.5895" lon="4.61173">
        <ele>476.8</ele>
        <time>2018-05-06T08:43:05Z</time>
      </trkpt>
      <trkpt lat="45.58917" lon="4.61186">
        <ele>479.2</ele>
        <time>2018-05-06T08:43:11Z</time>
      </trkpt>
      <trkpt lat="45.58889" lon="4.61177">
        <ele>480.7</ele>
        <time>2018-05-06T08:43:16Z</time>
      </trkpt>
      <trkpt lat="45.58879" lon="4.61169">
        <ele>480.9</ele>
        <time>2018-05-06T08:43:18Z</time>
      </trkpt>
      <trkpt lat="45.58869" lon="4.61158">
        <ele>481</ele>
        <time>2018-05-06T08:43:20Z</time>
      </trkpt>
      <trkpt lat="45.58864" lon="4.61152">
        <ele>481</ele>
        <time>2018-05-06T08:43:21Z</time>
      </trkpt>
      <trkpt lat="45.58852" lon="4.61126">
        <ele>480</ele>
        <time>2018-05-06T08:43:25Z</time>
      </trkpt>
      <trkpt lat="45.5885" lon="4.61119">
        <ele>479.4</ele>
        <time>2018-05-06T08:43:26Z</time>
      </trkpt>
      <trkpt lat="45.58833" lon="4.61079">
        <ele>476</ele>
        <time>2018-05-06T08:43:32Z</time>
      </trkpt>
      <trkpt lat="45.58829" lon="4.61073">
        <ele>475.5</ele>
        <time>2018-05-06T08:43:33Z</time>
      </trkpt>
      <trkpt lat="45.58824" lon="4.61068">
        <ele>475</ele>
        <time>2018-05-06T08:43:34Z</time>
      </trkpt>
      <trkpt lat="45.58805" lon="4.61053">
        <ele>472.9</ele>
        <time>2018-05-06T08:43:38Z</time>
      </trkpt>
      <trkpt lat="45.58794" lon="4.61049">
        <ele>472.1</ele>
        <time>2018-05-06T08:43:40Z</time>
      </trkpt>
      <trkpt lat="45.58789" lon="4.61048">
        <ele>471.7</ele>
        <time>2018-05-06T08:43:41Z</time>
      </trkpt>
      <trkpt lat="45.58778" lon="4.61047">
        <ele>470.8</ele>
        <time>2018-05-06T08:43:43Z</time>
      </trkpt>
      <trkpt lat="45.58768" lon="4.61048">
        <ele>470</ele>
        <time>2018-05-06T08:43:45Z</time>
      </trkpt>
      <trkpt lat="45.58752" lon="4.61054">
        <ele>469.6</ele>
        <time>2018-05-06T08:43:48Z</time>
      </trkpt>
      <trkpt lat="45.58714" lon="4.6107">
        <ele>469.6</ele>
        <time>2018-05-06T08:43:55Z</time>
      </trkpt>
      <trkpt lat="45.58671" lon="4.61085">
        <ele>470.9</ele>
        <time>2018-05-06T08:44:03Z</time>
      </trkpt>
      <trkpt lat="45.58647" lon="4.61092">
        <ele>472.4</ele>
        <time>2018-05-06T08:44:08Z</time>
      </trkpt>
      <trkpt lat="45.58637" lon="4.61095">
        <ele>473</ele>
        <time>2018-05-06T08:44:10Z</time>
      </trkpt>
      <trkpt lat="45.58613" lon="4.61103">
        <ele>473.8</ele>
        <time>2018-05-06T08:44:15Z</time>
      </trkpt>
      <trkpt lat="45.58598" lon="4.61108">
        <ele>473.6</ele>
        <time>2018-05-06T08:44:18Z</time>
      </trkpt>
      <trkpt lat="45.5856" lon="4.61126">
        <ele>473</ele>
        <time>2018-05-06T08:44:26Z</time>
      </trkpt>
      <trkpt lat="45.5854" lon="4.61147">
        <ele>474.8</ele>
        <time>2018-05-06T08:44:31Z</time>
      </trkpt>
      <trkpt lat="45.58519" lon="4.61183">
        <ele>476.8</ele>
        <time>2018-05-06T08:44:37Z</time>
      </trkpt>
      <trkpt lat="45.58516" lon="4.6119">
        <ele>477.1</ele>
        <time>2018-05-06T08:44:38Z</time>
      </trkpt>
      <trkpt lat="45.58507" lon="4.61227">
        <ele>479.1</ele>
        <time>2018-05-06T08:44:43Z</time>
      </trkpt>
      <trkpt lat="45.58506" lon="4.61267">
        <ele>482.4</ele>
        <time>2018-05-06T08:44:48Z</time>
      </trkpt>
      <trkpt lat="45.58507" lon="4.61275">
        <ele>482.8</ele>
        <time>2018-05-06T08:44:49Z</time>
      </trkpt>
      <trkpt lat="45.58516" lon="4.61312">
        <ele>484.9</ele>
        <time>2018-05-06T08:44:54Z</time>
      </trkpt>
      <trkpt lat="45.58523" lon="4.61349">
        <ele>484.6</ele>
        <time>2018-05-06T08:44:59Z</time>
      </trkpt>
      <trkpt lat="45.58537" lon="4.61415">
        <ele>483.5</ele>
        <time>2018-05-06T08:45:07Z</time>
      </trkpt>
      <trkpt lat="45.58539" lon="4.61423">
        <ele>483.3</ele>
        <time>2018-05-06T08:45:08Z</time>
      </trkpt>
      <trkpt lat="45.58544" lon="4.61474">
        <ele>481.7</ele>
        <time>2018-05-06T08:45:14Z</time>
      </trkpt>
      <trkpt lat="45.58543" lon="4.61483">
        <ele>481.5</ele>
        <time>2018-05-06T08:45:15Z</time>
      </trkpt>
      <trkpt lat="45.58536" lon="4.61561">
        <ele>479.8</ele>
        <time>2018-05-06T08:45:24Z</time>
      </trkpt>
      <trkpt lat="45.58529" lon="4.6162">
        <ele>479</ele>
        <time>2018-05-06T08:45:31Z</time>
      </trkpt>
      <trkpt lat="45.58524" lon="4.61644">
        <ele>478.2</ele>
        <time>2018-05-06T08:45:34Z</time>
      </trkpt>
      <trkpt lat="45.58516" lon="4.61666">
        <ele>477.4</ele>
        <time>2018-05-06T08:45:37Z</time>
      </trkpt>
      <trkpt lat="45.58505" lon="4.61684">
        <ele>476.5</ele>
        <time>2018-05-06T08:45:40Z</time>
      </trkpt>
      <trkpt lat="45.58497" lon="4.61694">
        <ele>476</ele>
        <time>2018-05-06T08:45:42Z</time>
      </trkpt>
      <trkpt lat="45.58468" lon="4.61722">
        <ele>475</ele>
        <time>2018-05-06T08:45:48Z</time>
      </trkpt>
      <trkpt lat="45.58447" lon="4.61741">
        <ele>474.6</ele>
        <time>2018-05-06T08:45:52Z</time>
      </trkpt>
      <trkpt lat="45.5842" lon="4.61767">
        <ele>474.3</ele>
        <time>2018-05-06T08:45:57Z</time>
      </trkpt>
      <trkpt lat="45.5841" lon="4.6178">
        <ele>473.9</ele>
        <time>2018-05-06T08:45:59Z</time>
      </trkpt>
      <trkpt lat="45.58393" lon="4.61805">
        <ele>472.8</ele>
        <time>2018-05-06T08:46:03Z</time>
      </trkpt>
      <trkpt lat="45.5838" lon="4.61824">
        <ele>472.3</ele>
        <time>2018-05-06T08:46:06Z</time>
      </trkpt>
      <trkpt lat="45.58376" lon="4.61832">
        <ele>472.1</ele>
        <time>2018-05-06T08:46:07Z</time>
      </trkpt>
      <trkpt lat="45.58368" lon="4.61848">
        <ele>471.8</ele>
        <time>2018-05-06T08:46:09Z</time>
      </trkpt>
      <trkpt lat="45.58358" lon="4.61875">
        <ele>471</ele>
        <time>2018-05-06T08:46:12Z</time>
      </trkpt>
      <trkpt lat="45.58351" lon="4.61903">
        <ele>470.4</ele>
        <time>2018-05-06T08:46:15Z</time>
      </trkpt>
      <trkpt lat="45.58345" lon="4.61932">
        <ele>469.9</ele>
        <time>2018-05-06T08:46:18Z</time>
      </trkpt>
      <trkpt lat="45.58338" lon="4.61973">
        <ele>469.1</ele>
        <time>2018-05-06T08:46:22Z</time>
      </trkpt>
      <trkpt lat="45.5833" lon="4.62014">
        <ele>467.2</ele>
        <time>2018-05-06T08:46:26Z</time>
      </trkpt>
      <trkpt lat="45.58322" lon="4.62056">
        <ele>465</ele>
        <time>2018-05-06T08:46:30Z</time>
      </trkpt>
      <trkpt lat="45.58318" lon="4.62087">
        <ele>463.8</ele>
        <time>2018-05-06T08:46:33Z</time>
      </trkpt>
      <trkpt lat="45.58318" lon="4.62109">
        <ele>462.9</ele>
        <time>2018-05-06T08:46:35Z</time>
      </trkpt>
      <trkpt lat="45.58321" lon="4.62129">
        <ele>462.1</ele>
        <time>2018-05-06T08:46:37Z</time>
      </trkpt>
      <trkpt lat="45.58324" lon="4.62139">
        <ele>462</ele>
        <time>2018-05-06T08:46:38Z</time>
      </trkpt>
      <trkpt lat="45.58327" lon="4.62148">
        <ele>462</ele>
        <time>2018-05-06T08:46:39Z</time>
      </trkpt>
      <trkpt lat="45.5833" lon="4.62157">
        <ele>462</ele>
        <time>2018-05-06T08:46:40Z</time>
      </trkpt>
      <trkpt lat="45.58334" lon="4.62175">
        <ele>462.4</ele>
        <time>2018-05-06T08:46:42Z</time>
      </trkpt>
      <trkpt lat="45.58336" lon="4.62194">
        <ele>462.8</ele>
        <time>2018-05-06T08:46:44Z</time>
      </trkpt>
      <trkpt lat="45.58337" lon="4.62203">
        <ele>463.1</ele>
        <time>2018-05-06T08:46:45Z</time>
      </trkpt>
      <trkpt lat="45.58338" lon="4.62232">
        <ele>463.5</ele>
        <time>2018-05-06T08:46:48Z</time>
      </trkpt>
      <trkpt lat="45.58337" lon="4.62241">
        <ele>463.5</ele>
        <time>2018-05-06T08:46:49Z</time>
      </trkpt>
      <trkpt lat="45.58337" lon="4.6225">
        <ele>463.5</ele>
        <time>2018-05-06T08:46:50Z</time>
      </trkpt>
      <trkpt lat="45.58335" lon="4.62269">
        <ele>463.5</ele>
        <time>2018-05-06T08:46:52Z</time>
      </trkpt>
      <trkpt lat="45.58333" lon="4.62278">
        <ele>463.4</ele>
        <time>2018-05-06T08:46:53Z</time>
      </trkpt>
      <trkpt lat="45.5833" lon="4.62287">
        <ele>463.4</ele>
        <time>2018-05-06T08:46:54Z</time>
      </trkpt>
      <trkpt lat="45.58327" lon="4.62295">
        <ele>463.4</ele>
        <time>2018-05-06T08:46:55Z</time>
      </trkpt>
      <trkpt lat="45.58312" lon="4.62326">
        <ele>463</ele>
        <time>2018-05-06T08:46:59Z</time>
      </trkpt>
      <trkpt lat="45.58307" lon="4.62331">
        <ele>463</ele>
        <time>2018-05-06T08:47:00Z</time>
      </trkpt>
      <trkpt lat="45.58302" lon="4.62335">
        <ele>462.9</ele>
        <time>2018-05-06T08:47:01Z</time>
      </trkpt>
      <trkpt lat="45.58282" lon="4.62344">
        <ele>462.9</ele>
        <time>2018-05-06T08:47:04Z</time>
      </trkpt>
      <trkpt lat="45.58275" lon="4.62346">
        <ele>463</ele>
        <time>2018-05-06T08:47:05Z</time>
      </trkpt>
      <trkpt lat="45.58253" lon="4.62344">
        <ele>463.4</ele>
        <time>2018-05-06T08:47:08Z</time>
      </trkpt>
      <trkpt lat="45.58238" lon="4.62339">
        <ele>463.3</ele>
        <time>2018-05-06T08:47:10Z</time>
      </trkpt>
      <trkpt lat="45.58225" lon="4.62332">
        <ele>462.9</ele>
        <time>2018-05-06T08:47:12Z</time>
      </trkpt>
      <trkpt lat="45.58218" lon="4.62328">
        <ele>462.7</ele>
        <time>2018-05-06T08:47:13Z</time>
      </trkpt>
      <trkpt lat="45.58211" lon="4.62324">
        <ele>462.5</ele>
        <time>2018-05-06T08:47:14Z</time>
      </trkpt>
      <trkpt lat="45.58175" lon="4.62303">
        <ele>460.1</ele>
        <time>2018-05-06T08:47:19Z</time>
      </trkpt>
      <trkpt lat="45.5816" lon="4.62295">
        <ele>459.5</ele>
        <time>2018-05-06T08:47:21Z</time>
      </trkpt>
      <trkpt lat="45.58137" lon="4.62289">
        <ele>458.7</ele>
        <time>2018-05-06T08:47:24Z</time>
      </trkpt>
      <trkpt lat="45.5813" lon="4.6229">
        <ele>458.4</ele>
        <time>2018-05-06T08:47:25Z</time>
      </trkpt>
      <trkpt lat="45.58122" lon="4.6229">
        <ele>458.2</ele>
        <time>2018-05-06T08:47:26Z</time>
      </trkpt>
      <trkpt lat="45.58068" lon="4.62295">
        <ele>456.7</ele>
        <time>2018-05-06T08:47:33Z</time>
      </trkpt>
      <trkpt lat="45.58061" lon="4.62296">
        <ele>456.5</ele>
        <time>2018-05-06T08:47:34Z</time>
      </trkpt>
      <trkpt lat="45.58031" lon="4.62298">
        <ele>455.7</ele>
        <time>2018-05-06T08:47:38Z</time>
      </trkpt>
      <trkpt lat="45.57993" lon="4.62302">
        <ele>454.6</ele>
        <time>2018-05-06T08:47:43Z</time>
      </trkpt>
      <trkpt lat="45.57985" lon="4.62304">
        <ele>454.3</ele>
        <time>2018-05-06T08:47:44Z</time>
      </trkpt>
      <trkpt lat="45.57962" lon="4.62308">
        <ele>453.8</ele>
        <time>2018-05-06T08:47:47Z</time>
      </trkpt>
      <trkpt lat="45.5793" lon="4.62313">
        <ele>453.1</ele>
        <time>2018-05-06T08:47:51Z</time>
      </trkpt>
      <trkpt lat="45.57914" lon="4.62316">
        <ele>452.8</ele>
        <time>2018-05-06T08:47:53Z</time>
      </trkpt>
      <trkpt lat="45.5789" lon="4.62322">
        <ele>452.1</ele>
        <time>2018-05-06T08:47:56Z</time>
      </trkpt>
      <trkpt lat="45.57882" lon="4.62323">
        <ele>451.8</ele>
        <time>2018-05-06T08:47:57Z</time>
      </trkpt>
      <trkpt lat="45.57867" lon="4.62327">
        <ele>451.3</ele>
        <time>2018-05-06T08:47:59Z</time>
      </trkpt>
      <trkpt lat="45.57837" lon="4.62334">
        <ele>450.3</ele>
        <time>2018-05-06T08:48:03Z</time>
      </trkpt>
      <trkpt lat="45.57823" lon="4.6234">
        <ele>449.6</ele>
        <time>2018-05-06T08:48:05Z</time>
      </trkpt>
      <trkpt lat="45.57817" lon="4.62341">
        <ele>449.3</ele>
        <time>2018-05-06T08:48:06Z</time>
      </trkpt>
      <trkpt lat="45.57806" lon="4.62344">
        <ele>449</ele>
        <time>2018-05-06T08:48:08Z</time>
      </trkpt>
      <trkpt lat="45.57801" lon="4.62343">
        <ele>449</ele>
        <time>2018-05-06T08:48:09Z</time>
      </trkpt>
    </trkseg>
  </trk>
</gpx>